<?xml version="1.0" encoding="utf-8"?>
<gpx xmlns:xsi="http://www.w3.org/2001/XMLSchema-instance" xmlns:xsd="http://www.w3.org/2001/XMLSchema" version="1.1" creator="Shapelink.com" xmlns="http://www.topografix.com/GPX/1/1" xmlns:gpxtpx="http://www.garmin.com/xmlschemas/TrackPointExtension/v1">
  <metadata>
    <name>Ciclismo 21.73 km, 2020-01-13</name>
    <desc></desc>
    <author><name>Peter Littke</name></author> 
    <time>2020-01-13T08:41:43Z</time>
  </metadata>
  <trk>
    <name>Ciclismo 21.73 km, 2020-01-13</name>
    <trkseg>
      <trkpt lat="59.34059" lon="18.085885">
        <ele>32</ele>
        <time>2020-01-13T08:41:43Z</time>
      </trkpt>
      <trkpt lat="59.340572" lon="18.085907">
        <ele>33</ele>
        <time>2020-01-13T08:41:47Z</time>
      </trkpt>
      <trkpt lat="59.340549" lon="18.085915">
        <ele>32</ele>
        <time>2020-01-13T08:41:49Z</time>
      </trkpt>
      <trkpt lat="59.340519" lon="18.085918">
        <ele>32</ele>
        <time>2020-01-13T08:41:51Z</time>
      </trkpt>
      <trkpt lat="59.340499" lon="18.085914">
        <ele>32</ele>
        <time>2020-01-13T08:41:52Z</time>
      </trkpt>
      <trkpt lat="59.340476" lon="18.085901">
        <ele>32</ele>
        <time>2020-01-13T08:41:53Z</time>
      </trkpt>
      <trkpt lat="59.340456" lon="18.085887">
        <ele>32</ele>
        <time>2020-01-13T08:41:54Z</time>
      </trkpt>
      <trkpt lat="59.340438" lon="18.085867">
        <ele>31</ele>
        <time>2020-01-13T08:41:55Z</time>
      </trkpt>
      <trkpt lat="59.340417" lon="18.085847">
        <ele>31</ele>
        <time>2020-01-13T08:41:56Z</time>
      </trkpt>
      <trkpt lat="59.340394" lon="18.08583">
        <ele>30</ele>
        <time>2020-01-13T08:41:57Z</time>
      </trkpt>
      <trkpt lat="59.340374" lon="18.0858">
        <ele>29</ele>
        <time>2020-01-13T08:41:58Z</time>
      </trkpt>
      <trkpt lat="59.340363" lon="18.085754">
        <ele>29</ele>
        <time>2020-01-13T08:41:59Z</time>
      </trkpt>
      <trkpt lat="59.340355" lon="18.085695">
        <ele>29</ele>
        <time>2020-01-13T08:42:00Z</time>
      </trkpt>
      <trkpt lat="59.340362" lon="18.085629">
        <ele>29</ele>
        <time>2020-01-13T08:42:01Z</time>
      </trkpt>
      <trkpt lat="59.340379" lon="18.085562">
        <ele>29</ele>
        <time>2020-01-13T08:42:01Z</time>
      </trkpt>
      <trkpt lat="59.340395" lon="18.085488">
        <ele>29</ele>
        <time>2020-01-13T08:42:02Z</time>
      </trkpt>
      <trkpt lat="59.34041" lon="18.08541">
        <ele>28</ele>
        <time>2020-01-13T08:42:04Z</time>
      </trkpt>
      <trkpt lat="59.340426" lon="18.085336">
        <ele>0</ele>
        <time>2020-01-13T08:42:04Z</time>
      </trkpt>
      <trkpt lat="59.340441" lon="18.085261">
        <ele>28</ele>
        <time>2020-01-13T08:42:05Z</time>
      </trkpt>
      <trkpt lat="59.340451" lon="18.085182">
        <ele>28</ele>
        <time>2020-01-13T08:42:07Z</time>
      </trkpt>
      <trkpt lat="59.34046" lon="18.085102">
        <ele>28</ele>
        <time>2020-01-13T08:42:08Z</time>
      </trkpt>
      <trkpt lat="59.340467" lon="18.08503">
        <ele>28</ele>
        <time>2020-01-13T08:42:09Z</time>
      </trkpt>
      <trkpt lat="59.340469" lon="18.084962">
        <ele>28</ele>
        <time>2020-01-13T08:42:10Z</time>
      </trkpt>
      <trkpt lat="59.340471" lon="18.084891">
        <ele>28</ele>
        <time>2020-01-13T08:42:11Z</time>
      </trkpt>
      <trkpt lat="59.340479" lon="18.084822">
        <ele>28</ele>
        <time>2020-01-13T08:42:12Z</time>
      </trkpt>
      <trkpt lat="59.340488" lon="18.084758">
        <ele>28</ele>
        <time>2020-01-13T08:42:13Z</time>
      </trkpt>
      <trkpt lat="59.340494" lon="18.084686">
        <ele>28</ele>
        <time>2020-01-13T08:42:14Z</time>
      </trkpt>
      <trkpt lat="59.340505" lon="18.084611">
        <ele>28</ele>
        <time>2020-01-13T08:42:15Z</time>
      </trkpt>
      <trkpt lat="59.340517" lon="18.084535">
        <ele>28</ele>
        <time>2020-01-13T08:42:16Z</time>
      </trkpt>
      <trkpt lat="59.340529" lon="18.084465">
        <ele>28</ele>
        <time>2020-01-13T08:42:17Z</time>
      </trkpt>
      <trkpt lat="59.34054" lon="18.084397">
        <ele>0</ele>
        <time>2020-01-13T08:42:17Z</time>
      </trkpt>
      <trkpt lat="59.340548" lon="18.08433">
        <ele>28</ele>
        <time>2020-01-13T08:42:18Z</time>
      </trkpt>
      <trkpt lat="59.340558" lon="18.084266">
        <ele>28</ele>
        <time>2020-01-13T08:42:20Z</time>
      </trkpt>
      <trkpt lat="59.340582" lon="18.0842">
        <ele>0</ele>
        <time>2020-01-13T08:42:20Z</time>
      </trkpt>
      <trkpt lat="59.340599" lon="18.08414">
        <ele>27</ele>
        <time>2020-01-13T08:42:21Z</time>
      </trkpt>
      <trkpt lat="59.340614" lon="18.084089">
        <ele>27</ele>
        <time>2020-01-13T08:42:23Z</time>
      </trkpt>
      <trkpt lat="59.340624" lon="18.084051">
        <ele>27</ele>
        <time>2020-01-13T08:42:24Z</time>
      </trkpt>
      <trkpt lat="59.340639" lon="18.083992">
        <ele>27</ele>
        <time>2020-01-13T08:42:26Z</time>
      </trkpt>
      <trkpt lat="59.340645" lon="18.083954">
        <ele>27</ele>
        <time>2020-01-13T08:42:28Z</time>
      </trkpt>
      <trkpt lat="59.340641" lon="18.083914">
        <ele>28</ele>
        <time>2020-01-13T08:42:30Z</time>
      </trkpt>
      <trkpt lat="59.340642" lon="18.083866">
        <ele>28</ele>
        <time>2020-01-13T08:42:33Z</time>
      </trkpt>
      <trkpt lat="59.340648" lon="18.083832">
        <ele>28</ele>
        <time>2020-01-13T08:42:34Z</time>
      </trkpt>
      <trkpt lat="59.340653" lon="18.083785">
        <ele>27</ele>
        <time>2020-01-13T08:42:35Z</time>
      </trkpt>
      <trkpt lat="59.340647" lon="18.083734">
        <ele>27</ele>
        <time>2020-01-13T08:42:36Z</time>
      </trkpt>
      <trkpt lat="59.34063" lon="18.083684">
        <ele>28</ele>
        <time>2020-01-13T08:42:37Z</time>
      </trkpt>
      <trkpt lat="59.340609" lon="18.083636">
        <ele>28</ele>
        <time>2020-01-13T08:42:38Z</time>
      </trkpt>
      <trkpt lat="59.340574" lon="18.083603">
        <ele>28</ele>
        <time>2020-01-13T08:42:39Z</time>
      </trkpt>
      <trkpt lat="59.340543" lon="18.083564">
        <ele>0</ele>
        <time>2020-01-13T08:42:39Z</time>
      </trkpt>
      <trkpt lat="59.340511" lon="18.083524">
        <ele>28</ele>
        <time>2020-01-13T08:42:40Z</time>
      </trkpt>
      <trkpt lat="59.340477" lon="18.083488">
        <ele>29</ele>
        <time>2020-01-13T08:42:42Z</time>
      </trkpt>
      <trkpt lat="59.340444" lon="18.083448">
        <ele>29</ele>
        <time>2020-01-13T08:42:43Z</time>
      </trkpt>
      <trkpt lat="59.340411" lon="18.083405">
        <ele>29</ele>
        <time>2020-01-13T08:42:44Z</time>
      </trkpt>
      <trkpt lat="59.340374" lon="18.083367">
        <ele>30</ele>
        <time>2020-01-13T08:42:45Z</time>
      </trkpt>
      <trkpt lat="59.340336" lon="18.08333">
        <ele>30</ele>
        <time>2020-01-13T08:42:46Z</time>
      </trkpt>
      <trkpt lat="59.340294" lon="18.083298">
        <ele>30</ele>
        <time>2020-01-13T08:42:47Z</time>
      </trkpt>
      <trkpt lat="59.340256" lon="18.083262">
        <ele>30</ele>
        <time>2020-01-13T08:42:48Z</time>
      </trkpt>
      <trkpt lat="59.340213" lon="18.083222">
        <ele>30</ele>
        <time>2020-01-13T08:42:49Z</time>
      </trkpt>
      <trkpt lat="59.340165" lon="18.08318">
        <ele>30</ele>
        <time>2020-01-13T08:42:50Z</time>
      </trkpt>
      <trkpt lat="59.340108" lon="18.083148">
        <ele>0</ele>
        <time>2020-01-13T08:42:50Z</time>
      </trkpt>
      <trkpt lat="59.340055" lon="18.083108">
        <ele>30</ele>
        <time>2020-01-13T08:42:51Z</time>
      </trkpt>
      <trkpt lat="59.340013" lon="18.083054">
        <ele>30</ele>
        <time>2020-01-13T08:42:53Z</time>
      </trkpt>
      <trkpt lat="59.339973" lon="18.082996">
        <ele>31</ele>
        <time>2020-01-13T08:42:54Z</time>
      </trkpt>
      <trkpt lat="59.339929" lon="18.082945">
        <ele>31</ele>
        <time>2020-01-13T08:42:55Z</time>
      </trkpt>
      <trkpt lat="59.339884" lon="18.082898">
        <ele>31</ele>
        <time>2020-01-13T08:42:56Z</time>
      </trkpt>
      <trkpt lat="59.339835" lon="18.082854">
        <ele>31</ele>
        <time>2020-01-13T08:42:57Z</time>
      </trkpt>
      <trkpt lat="59.339788" lon="18.082812">
        <ele>31</ele>
        <time>2020-01-13T08:42:58Z</time>
      </trkpt>
      <trkpt lat="59.339742" lon="18.082776">
        <ele>0</ele>
        <time>2020-01-13T08:42:58Z</time>
      </trkpt>
      <trkpt lat="59.339697" lon="18.082732">
        <ele>31</ele>
        <time>2020-01-13T08:42:59Z</time>
      </trkpt>
      <trkpt lat="59.339652" lon="18.082693">
        <ele>0</ele>
        <time>2020-01-13T08:43:00Z</time>
      </trkpt>
      <trkpt lat="59.339602" lon="18.082657">
        <ele>32</ele>
        <time>2020-01-13T08:43:01Z</time>
      </trkpt>
      <trkpt lat="59.339533" lon="18.082643">
        <ele>31</ele>
        <time>2020-01-13T08:43:03Z</time>
      </trkpt>
      <trkpt lat="59.339479" lon="18.082625">
        <ele>31</ele>
        <time>2020-01-13T08:43:04Z</time>
      </trkpt>
      <trkpt lat="59.339434" lon="18.082607">
        <ele>31</ele>
        <time>2020-01-13T08:43:05Z</time>
      </trkpt>
      <trkpt lat="59.339395" lon="18.082584">
        <ele>30</ele>
        <time>2020-01-13T08:43:06Z</time>
      </trkpt>
      <trkpt lat="59.339361" lon="18.082565">
        <ele>30</ele>
        <time>2020-01-13T08:43:07Z</time>
      </trkpt>
      <trkpt lat="59.339338" lon="18.082553">
        <ele>30</ele>
        <time>2020-01-13T08:43:08Z</time>
      </trkpt>
      <trkpt lat="59.339316" lon="18.082541">
        <ele>29</ele>
        <time>2020-01-13T08:43:09Z</time>
      </trkpt>
      <trkpt lat="59.339294" lon="18.082528">
        <ele>29</ele>
        <time>2020-01-13T08:43:10Z</time>
      </trkpt>
      <trkpt lat="59.339276" lon="18.082515">
        <ele>29</ele>
        <time>2020-01-13T08:43:11Z</time>
      </trkpt>
      <trkpt lat="59.339258" lon="18.082496">
        <ele>28</ele>
        <time>2020-01-13T08:43:12Z</time>
      </trkpt>
      <trkpt lat="59.339238" lon="18.082477">
        <ele>28</ele>
        <time>2020-01-13T08:43:13Z</time>
      </trkpt>
      <trkpt lat="59.33921" lon="18.082459">
        <ele>28</ele>
        <time>2020-01-13T08:43:14Z</time>
      </trkpt>
      <trkpt lat="59.339178" lon="18.082438">
        <ele>0</ele>
        <time>2020-01-13T08:43:14Z</time>
      </trkpt>
      <trkpt lat="59.339149" lon="18.082411">
        <ele>28</ele>
        <time>2020-01-13T08:43:15Z</time>
      </trkpt>
      <trkpt lat="59.339108" lon="18.082384">
        <ele>29</ele>
        <time>2020-01-13T08:43:17Z</time>
      </trkpt>
      <trkpt lat="59.339064" lon="18.082351">
        <ele>0</ele>
        <time>2020-01-13T08:43:17Z</time>
      </trkpt>
      <trkpt lat="59.339015" lon="18.082311">
        <ele>29</ele>
        <time>2020-01-13T08:43:18Z</time>
      </trkpt>
      <trkpt lat="59.338963" lon="18.082265">
        <ele>29</ele>
        <time>2020-01-13T08:43:20Z</time>
      </trkpt>
      <trkpt lat="59.338906" lon="18.082215">
        <ele>28</ele>
        <time>2020-01-13T08:43:21Z</time>
      </trkpt>
      <trkpt lat="59.338837" lon="18.082166">
        <ele>28</ele>
        <time>2020-01-13T08:43:22Z</time>
      </trkpt>
      <trkpt lat="59.338785" lon="18.082117">
        <ele>29</ele>
        <time>2020-01-13T08:43:23Z</time>
      </trkpt>
      <trkpt lat="59.338734" lon="18.082071">
        <ele>0</ele>
        <time>2020-01-13T08:43:23Z</time>
      </trkpt>
      <trkpt lat="59.338685" lon="18.082027">
        <ele>29</ele>
        <time>2020-01-13T08:43:24Z</time>
      </trkpt>
      <trkpt lat="59.338632" lon="18.081983">
        <ele>30</ele>
        <time>2020-01-13T08:43:26Z</time>
      </trkpt>
      <trkpt lat="59.338571" lon="18.081941">
        <ele>30</ele>
        <time>2020-01-13T08:43:27Z</time>
      </trkpt>
      <trkpt lat="59.338454" lon="18.081857">
        <ele>31</ele>
        <time>2020-01-13T08:43:29Z</time>
      </trkpt>
      <trkpt lat="59.338392" lon="18.081813">
        <ele>31</ele>
        <time>2020-01-13T08:43:30Z</time>
      </trkpt>
      <trkpt lat="59.338334" lon="18.081769">
        <ele>30</ele>
        <time>2020-01-13T08:43:31Z</time>
      </trkpt>
      <trkpt lat="59.33827" lon="18.081731">
        <ele>0</ele>
        <time>2020-01-13T08:43:31Z</time>
      </trkpt>
      <trkpt lat="59.338227" lon="18.081671">
        <ele>31</ele>
        <time>2020-01-13T08:43:32Z</time>
      </trkpt>
      <trkpt lat="59.338172" lon="18.081628">
        <ele>31</ele>
        <time>2020-01-13T08:43:34Z</time>
      </trkpt>
      <trkpt lat="59.338121" lon="18.081585">
        <ele>32</ele>
        <time>2020-01-13T08:43:35Z</time>
      </trkpt>
      <trkpt lat="59.338065" lon="18.081542">
        <ele>32</ele>
        <time>2020-01-13T08:43:36Z</time>
      </trkpt>
      <trkpt lat="59.338009" lon="18.081504">
        <ele>0</ele>
        <time>2020-01-13T08:43:36Z</time>
      </trkpt>
      <trkpt lat="59.337953" lon="18.081468">
        <ele>32</ele>
        <time>2020-01-13T08:43:37Z</time>
      </trkpt>
      <trkpt lat="59.337896" lon="18.081436">
        <ele>33</ele>
        <time>2020-01-13T08:43:39Z</time>
      </trkpt>
      <trkpt lat="59.337837" lon="18.081402">
        <ele>0</ele>
        <time>2020-01-13T08:43:39Z</time>
      </trkpt>
      <trkpt lat="59.337774" lon="18.081365">
        <ele>33</ele>
        <time>2020-01-13T08:43:40Z</time>
      </trkpt>
      <trkpt lat="59.337661" lon="18.081274">
        <ele>34</ele>
        <time>2020-01-13T08:43:43Z</time>
      </trkpt>
      <trkpt lat="59.337544" lon="18.08119">
        <ele>34</ele>
        <time>2020-01-13T08:43:45Z</time>
      </trkpt>
      <trkpt lat="59.337446" lon="18.081111">
        <ele>35</ele>
        <time>2020-01-13T08:43:47Z</time>
      </trkpt>
      <trkpt lat="59.337335" lon="18.081019">
        <ele>37</ele>
        <time>2020-01-13T08:43:50Z</time>
      </trkpt>
      <trkpt lat="59.337247" lon="18.080933">
        <ele>38</ele>
        <time>2020-01-13T08:43:54Z</time>
      </trkpt>
      <trkpt lat="59.337143" lon="18.080832">
        <ele>37</ele>
        <time>2020-01-13T08:43:59Z</time>
      </trkpt>
      <trkpt lat="59.337108" lon="18.080804">
        <ele>37</ele>
        <time>2020-01-13T08:44:00Z</time>
      </trkpt>
      <trkpt lat="59.33708" lon="18.080763">
        <ele>37</ele>
        <time>2020-01-13T08:44:01Z</time>
      </trkpt>
      <trkpt lat="59.337058" lon="18.080717">
        <ele>38</ele>
        <time>2020-01-13T08:44:02Z</time>
      </trkpt>
      <trkpt lat="59.337015" lon="18.080685">
        <ele>38</ele>
        <time>2020-01-13T08:44:03Z</time>
      </trkpt>
      <trkpt lat="59.336981" lon="18.080646">
        <ele>38</ele>
        <time>2020-01-13T08:44:04Z</time>
      </trkpt>
      <trkpt lat="59.336945" lon="18.080604">
        <ele>38</ele>
        <time>2020-01-13T08:44:05Z</time>
      </trkpt>
      <trkpt lat="59.33691" lon="18.080564">
        <ele>38</ele>
        <time>2020-01-13T08:44:06Z</time>
      </trkpt>
      <trkpt lat="59.336872" lon="18.080527">
        <ele>0</ele>
        <time>2020-01-13T08:44:06Z</time>
      </trkpt>
      <trkpt lat="59.336822" lon="18.080494">
        <ele>38</ele>
        <time>2020-01-13T08:44:07Z</time>
      </trkpt>
      <trkpt lat="59.336771" lon="18.08046">
        <ele>37</ele>
        <time>2020-01-13T08:44:09Z</time>
      </trkpt>
      <trkpt lat="59.33672" lon="18.080421">
        <ele>37</ele>
        <time>2020-01-13T08:44:10Z</time>
      </trkpt>
      <trkpt lat="59.336673" lon="18.080384">
        <ele>37</ele>
        <time>2020-01-13T08:44:11Z</time>
      </trkpt>
      <trkpt lat="59.336638" lon="18.080342">
        <ele>37</ele>
        <time>2020-01-13T08:44:12Z</time>
      </trkpt>
      <trkpt lat="59.3366" lon="18.080298">
        <ele>38</ele>
        <time>2020-01-13T08:44:13Z</time>
      </trkpt>
      <trkpt lat="59.336553" lon="18.080264">
        <ele>38</ele>
        <time>2020-01-13T08:44:14Z</time>
      </trkpt>
      <trkpt lat="59.336463" lon="18.080195">
        <ele>38</ele>
        <time>2020-01-13T08:44:15Z</time>
      </trkpt>
      <trkpt lat="59.336419" lon="18.080157">
        <ele>0</ele>
        <time>2020-01-13T08:44:16Z</time>
      </trkpt>
      <trkpt lat="59.336371" lon="18.080129">
        <ele>38</ele>
        <time>2020-01-13T08:44:17Z</time>
      </trkpt>
      <trkpt lat="59.336334" lon="18.080088">
        <ele>39</ele>
        <time>2020-01-13T08:44:19Z</time>
      </trkpt>
      <trkpt lat="59.3363" lon="18.080049">
        <ele>40</ele>
        <time>2020-01-13T08:44:20Z</time>
      </trkpt>
      <trkpt lat="59.336258" lon="18.080018">
        <ele>40</ele>
        <time>2020-01-13T08:44:21Z</time>
      </trkpt>
      <trkpt lat="59.336216" lon="18.079977">
        <ele>39</ele>
        <time>2020-01-13T08:44:22Z</time>
      </trkpt>
      <trkpt lat="59.336161" lon="18.07993">
        <ele>39</ele>
        <time>2020-01-13T08:44:23Z</time>
      </trkpt>
      <trkpt lat="59.336099" lon="18.079882">
        <ele>38</ele>
        <time>2020-01-13T08:44:24Z</time>
      </trkpt>
      <trkpt lat="59.33603" lon="18.079839">
        <ele>38</ele>
        <time>2020-01-13T08:44:25Z</time>
      </trkpt>
      <trkpt lat="59.335984" lon="18.079801">
        <ele>0</ele>
        <time>2020-01-13T08:44:25Z</time>
      </trkpt>
      <trkpt lat="59.335944" lon="18.079763">
        <ele>37</ele>
        <time>2020-01-13T08:44:26Z</time>
      </trkpt>
      <trkpt lat="59.335901" lon="18.079733">
        <ele>37</ele>
        <time>2020-01-13T08:44:28Z</time>
      </trkpt>
      <trkpt lat="59.335856" lon="18.079701">
        <ele>36</ele>
        <time>2020-01-13T08:44:29Z</time>
      </trkpt>
      <trkpt lat="59.335804" lon="18.079674">
        <ele>35</ele>
        <time>2020-01-13T08:44:30Z</time>
      </trkpt>
      <trkpt lat="59.335747" lon="18.079642">
        <ele>34</ele>
        <time>2020-01-13T08:44:31Z</time>
      </trkpt>
      <trkpt lat="59.335693" lon="18.0796">
        <ele>34</ele>
        <time>2020-01-13T08:44:32Z</time>
      </trkpt>
      <trkpt lat="59.335638" lon="18.079552">
        <ele>33</ele>
        <time>2020-01-13T08:44:33Z</time>
      </trkpt>
      <trkpt lat="59.335578" lon="18.079511">
        <ele>0</ele>
        <time>2020-01-13T08:44:33Z</time>
      </trkpt>
      <trkpt lat="59.335517" lon="18.079478">
        <ele>33</ele>
        <time>2020-01-13T08:44:34Z</time>
      </trkpt>
      <trkpt lat="59.335448" lon="18.079444">
        <ele>32</ele>
        <time>2020-01-13T08:44:35Z</time>
      </trkpt>
      <trkpt lat="59.33538" lon="18.0794">
        <ele>31</ele>
        <time>2020-01-13T08:44:37Z</time>
      </trkpt>
      <trkpt lat="59.335311" lon="18.07935">
        <ele>30</ele>
        <time>2020-01-13T08:44:38Z</time>
      </trkpt>
      <trkpt lat="59.335233" lon="18.079304">
        <ele>30</ele>
        <time>2020-01-13T08:44:39Z</time>
      </trkpt>
      <trkpt lat="59.335149" lon="18.079253">
        <ele>30</ele>
        <time>2020-01-13T08:44:40Z</time>
      </trkpt>
      <trkpt lat="59.335075" lon="18.079194">
        <ele>0</ele>
        <time>2020-01-13T08:44:40Z</time>
      </trkpt>
      <trkpt lat="59.335003" lon="18.079133">
        <ele>29</ele>
        <time>2020-01-13T08:44:41Z</time>
      </trkpt>
      <trkpt lat="59.334931" lon="18.07908">
        <ele>29</ele>
        <time>2020-01-13T08:44:43Z</time>
      </trkpt>
      <trkpt lat="59.334864" lon="18.079028">
        <ele>28</ele>
        <time>2020-01-13T08:44:44Z</time>
      </trkpt>
      <trkpt lat="59.334809" lon="18.078975">
        <ele>28</ele>
        <time>2020-01-13T08:44:45Z</time>
      </trkpt>
      <trkpt lat="59.334767" lon="18.078927">
        <ele>28</ele>
        <time>2020-01-13T08:44:46Z</time>
      </trkpt>
      <trkpt lat="59.33473" lon="18.078886">
        <ele>28</ele>
        <time>2020-01-13T08:44:47Z</time>
      </trkpt>
      <trkpt lat="59.334696" lon="18.078847">
        <ele>28</ele>
        <time>2020-01-13T08:44:48Z</time>
      </trkpt>
      <trkpt lat="59.33467" lon="18.078804">
        <ele>28</ele>
        <time>2020-01-13T08:44:49Z</time>
      </trkpt>
      <trkpt lat="59.334638" lon="18.07877">
        <ele>28</ele>
        <time>2020-01-13T08:44:50Z</time>
      </trkpt>
      <trkpt lat="59.334607" lon="18.078732">
        <ele>0</ele>
        <time>2020-01-13T08:44:50Z</time>
      </trkpt>
      <trkpt lat="59.334568" lon="18.078689">
        <ele>28</ele>
        <time>2020-01-13T08:44:51Z</time>
      </trkpt>
      <trkpt lat="59.334534" lon="18.078636">
        <ele>0</ele>
        <time>2020-01-13T08:44:52Z</time>
      </trkpt>
      <trkpt lat="59.334479" lon="18.078536">
        <ele>27</ele>
        <time>2020-01-13T08:44:55Z</time>
      </trkpt>
      <trkpt lat="59.334454" lon="18.078498">
        <ele>27</ele>
        <time>2020-01-13T08:44:56Z</time>
      </trkpt>
      <trkpt lat="59.33442" lon="18.078469">
        <ele>27</ele>
        <time>2020-01-13T08:44:57Z</time>
      </trkpt>
      <trkpt lat="59.334325" lon="18.078353">
        <ele>26</ele>
        <time>2020-01-13T08:45:02Z</time>
      </trkpt>
      <trkpt lat="59.334243" lon="18.078333">
        <ele>25</ele>
        <time>2020-01-13T08:45:04Z</time>
      </trkpt>
      <trkpt lat="59.334188" lon="18.078317">
        <ele>25</ele>
        <time>2020-01-13T08:45:05Z</time>
      </trkpt>
      <trkpt lat="59.334133" lon="18.078275">
        <ele>0</ele>
        <time>2020-01-13T08:45:05Z</time>
      </trkpt>
      <trkpt lat="59.334082" lon="18.078229">
        <ele>25</ele>
        <time>2020-01-13T08:45:06Z</time>
      </trkpt>
      <trkpt lat="59.334032" lon="18.078177">
        <ele>25</ele>
        <time>2020-01-13T08:45:08Z</time>
      </trkpt>
      <trkpt lat="59.333968" lon="18.078129">
        <ele>24</ele>
        <time>2020-01-13T08:45:09Z</time>
      </trkpt>
      <trkpt lat="59.333901" lon="18.078074">
        <ele>24</ele>
        <time>2020-01-13T08:45:10Z</time>
      </trkpt>
      <trkpt lat="59.33384" lon="18.078015">
        <ele>24</ele>
        <time>2020-01-13T08:45:11Z</time>
      </trkpt>
      <trkpt lat="59.33372" lon="18.077905">
        <ele>24</ele>
        <time>2020-01-13T08:45:12Z</time>
      </trkpt>
      <trkpt lat="59.333608" lon="18.077793">
        <ele>24</ele>
        <time>2020-01-13T08:45:14Z</time>
      </trkpt>
      <trkpt lat="59.33349" lon="18.077681">
        <ele>24</ele>
        <time>2020-01-13T08:45:17Z</time>
      </trkpt>
      <trkpt lat="59.333435" lon="18.077623">
        <ele>24</ele>
        <time>2020-01-13T08:45:18Z</time>
      </trkpt>
      <trkpt lat="59.333377" lon="18.07757">
        <ele>23</ele>
        <time>2020-01-13T08:45:19Z</time>
      </trkpt>
      <trkpt lat="59.333307" lon="18.077533">
        <ele>23</ele>
        <time>2020-01-13T08:45:20Z</time>
      </trkpt>
      <trkpt lat="59.333157" lon="18.077455">
        <ele>22</ele>
        <time>2020-01-13T08:45:21Z</time>
      </trkpt>
      <trkpt lat="59.33308" lon="18.077415">
        <ele>21</ele>
        <time>2020-01-13T08:45:23Z</time>
      </trkpt>
      <trkpt lat="59.333033" lon="18.077351">
        <ele>20</ele>
        <time>2020-01-13T08:45:24Z</time>
      </trkpt>
      <trkpt lat="59.332985" lon="18.077283">
        <ele>20</ele>
        <time>2020-01-13T08:45:25Z</time>
      </trkpt>
      <trkpt lat="59.332949" lon="18.077231">
        <ele>20</ele>
        <time>2020-01-13T08:45:26Z</time>
      </trkpt>
      <trkpt lat="59.332912" lon="18.077197">
        <ele>19</ele>
        <time>2020-01-13T08:45:27Z</time>
      </trkpt>
      <trkpt lat="59.332872" lon="18.077167">
        <ele>19</ele>
        <time>2020-01-13T08:45:28Z</time>
      </trkpt>
      <trkpt lat="59.332835" lon="18.07714">
        <ele>18</ele>
        <time>2020-01-13T08:45:29Z</time>
      </trkpt>
      <trkpt lat="59.332817" lon="18.07709">
        <ele>18</ele>
        <time>2020-01-13T08:45:30Z</time>
      </trkpt>
      <trkpt lat="59.332815" lon="18.077043">
        <ele>0</ele>
        <time>2020-01-13T08:45:30Z</time>
      </trkpt>
      <trkpt lat="59.332836" lon="18.076987">
        <ele>17</ele>
        <time>2020-01-13T08:45:31Z</time>
      </trkpt>
      <trkpt lat="59.332857" lon="18.076924">
        <ele>15</ele>
        <time>2020-01-13T08:45:33Z</time>
      </trkpt>
      <trkpt lat="59.33288" lon="18.076849">
        <ele>15</ele>
        <time>2020-01-13T08:45:34Z</time>
      </trkpt>
      <trkpt lat="59.332902" lon="18.076768">
        <ele>14</ele>
        <time>2020-01-13T08:45:35Z</time>
      </trkpt>
      <trkpt lat="59.332925" lon="18.076686">
        <ele>14</ele>
        <time>2020-01-13T08:45:36Z</time>
      </trkpt>
      <trkpt lat="59.332949" lon="18.076605">
        <ele>14</ele>
        <time>2020-01-13T08:45:37Z</time>
      </trkpt>
      <trkpt lat="59.332974" lon="18.076526">
        <ele>13</ele>
        <time>2020-01-13T08:45:38Z</time>
      </trkpt>
      <trkpt lat="59.333001" lon="18.076449">
        <ele>13</ele>
        <time>2020-01-13T08:45:39Z</time>
      </trkpt>
      <trkpt lat="59.333028" lon="18.076375">
        <ele>13</ele>
        <time>2020-01-13T08:45:40Z</time>
      </trkpt>
      <trkpt lat="59.333054" lon="18.076305">
        <ele>12</ele>
        <time>2020-01-13T08:45:41Z</time>
      </trkpt>
      <trkpt lat="59.333078" lon="18.076246">
        <ele>0</ele>
        <time>2020-01-13T08:45:41Z</time>
      </trkpt>
      <trkpt lat="59.333099" lon="18.076202">
        <ele>12</ele>
        <time>2020-01-13T08:45:42Z</time>
      </trkpt>
      <trkpt lat="59.333113" lon="18.076175">
        <ele>13</ele>
        <time>2020-01-13T08:45:44Z</time>
      </trkpt>
      <trkpt lat="59.333129" lon="18.076134">
        <ele>13</ele>
        <time>2020-01-13T08:45:46Z</time>
      </trkpt>
      <trkpt lat="59.333129" lon="18.076098">
        <ele>12</ele>
        <time>2020-01-13T08:45:49Z</time>
      </trkpt>
      <trkpt lat="59.33313" lon="18.076099">
        <ele>0</ele>
        <time>2020-01-13T08:45:52Z</time>
      </trkpt>
      <trkpt lat="59.333087" lon="18.076052">
        <ele>11</ele>
        <time>2020-01-13T08:46:06Z</time>
      </trkpt>
      <trkpt lat="59.333061" lon="18.076027">
        <ele>11</ele>
        <time>2020-01-13T08:46:07Z</time>
      </trkpt>
      <trkpt lat="59.333032" lon="18.076">
        <ele>11</ele>
        <time>2020-01-13T08:46:09Z</time>
      </trkpt>
      <trkpt lat="59.333002" lon="18.075972">
        <ele>11</ele>
        <time>2020-01-13T08:46:10Z</time>
      </trkpt>
      <trkpt lat="59.33297" lon="18.075947">
        <ele>10</ele>
        <time>2020-01-13T08:46:11Z</time>
      </trkpt>
      <trkpt lat="59.332938" lon="18.075924">
        <ele>10</ele>
        <time>2020-01-13T08:46:12Z</time>
      </trkpt>
      <trkpt lat="59.332907" lon="18.075903">
        <ele>10</ele>
        <time>2020-01-13T08:46:13Z</time>
      </trkpt>
      <trkpt lat="59.332878" lon="18.075882">
        <ele>10</ele>
        <time>2020-01-13T08:46:14Z</time>
      </trkpt>
      <trkpt lat="59.332849" lon="18.075865">
        <ele>10</ele>
        <time>2020-01-13T08:46:15Z</time>
      </trkpt>
      <trkpt lat="59.332823" lon="18.075847">
        <ele>10</ele>
        <time>2020-01-13T08:46:16Z</time>
      </trkpt>
      <trkpt lat="59.332801" lon="18.07582">
        <ele>10</ele>
        <time>2020-01-13T08:46:17Z</time>
      </trkpt>
      <trkpt lat="59.332778" lon="18.075782">
        <ele>10</ele>
        <time>2020-01-13T08:46:18Z</time>
      </trkpt>
      <trkpt lat="59.332756" lon="18.075734">
        <ele>9</ele>
        <time>2020-01-13T08:46:19Z</time>
      </trkpt>
      <trkpt lat="59.332735" lon="18.075678">
        <ele>9</ele>
        <time>2020-01-13T08:46:20Z</time>
      </trkpt>
      <trkpt lat="59.332722" lon="18.075613">
        <ele>0</ele>
        <time>2020-01-13T08:46:20Z</time>
      </trkpt>
      <trkpt lat="59.332714" lon="18.075554">
        <ele>9</ele>
        <time>2020-01-13T08:46:21Z</time>
      </trkpt>
      <trkpt lat="59.332708" lon="18.075505">
        <ele>9</ele>
        <time>2020-01-13T08:46:23Z</time>
      </trkpt>
      <trkpt lat="59.332701" lon="18.075462">
        <ele>9</ele>
        <time>2020-01-13T08:46:24Z</time>
      </trkpt>
      <trkpt lat="59.332694" lon="18.075418">
        <ele>9</ele>
        <time>2020-01-13T08:46:25Z</time>
      </trkpt>
      <trkpt lat="59.332685" lon="18.075374">
        <ele>0</ele>
        <time>2020-01-13T08:46:25Z</time>
      </trkpt>
      <trkpt lat="59.332673" lon="18.075332">
        <ele>9</ele>
        <time>2020-01-13T08:46:26Z</time>
      </trkpt>
      <trkpt lat="59.332655" lon="18.075292">
        <ele>9</ele>
        <time>2020-01-13T08:46:28Z</time>
      </trkpt>
      <trkpt lat="59.33263" lon="18.075267">
        <ele>9</ele>
        <time>2020-01-13T08:46:29Z</time>
      </trkpt>
      <trkpt lat="59.332605" lon="18.07526">
        <ele>9</ele>
        <time>2020-01-13T08:46:30Z</time>
      </trkpt>
      <trkpt lat="59.33258" lon="18.075263">
        <ele>9</ele>
        <time>2020-01-13T08:46:31Z</time>
      </trkpt>
      <trkpt lat="59.33255" lon="18.075271">
        <ele>9</ele>
        <time>2020-01-13T08:46:32Z</time>
      </trkpt>
      <trkpt lat="59.332521" lon="18.075272">
        <ele>9</ele>
        <time>2020-01-13T08:46:33Z</time>
      </trkpt>
      <trkpt lat="59.332485" lon="18.075261">
        <ele>9</ele>
        <time>2020-01-13T08:46:34Z</time>
      </trkpt>
      <trkpt lat="59.332446" lon="18.075239">
        <ele>9</ele>
        <time>2020-01-13T08:46:35Z</time>
      </trkpt>
      <trkpt lat="59.33241" lon="18.075213">
        <ele>9</ele>
        <time>2020-01-13T08:46:36Z</time>
      </trkpt>
      <trkpt lat="59.332376" lon="18.075181">
        <ele>9</ele>
        <time>2020-01-13T08:46:37Z</time>
      </trkpt>
      <trkpt lat="59.332345" lon="18.075145">
        <ele>0</ele>
        <time>2020-01-13T08:46:37Z</time>
      </trkpt>
      <trkpt lat="59.332312" lon="18.075102">
        <ele>9</ele>
        <time>2020-01-13T08:46:38Z</time>
      </trkpt>
      <trkpt lat="59.332278" lon="18.075054">
        <ele>9</ele>
        <time>2020-01-13T08:46:40Z</time>
      </trkpt>
      <trkpt lat="59.332242" lon="18.074999">
        <ele>9</ele>
        <time>2020-01-13T08:46:41Z</time>
      </trkpt>
      <trkpt lat="59.332207" lon="18.074951">
        <ele>9</ele>
        <time>2020-01-13T08:46:42Z</time>
      </trkpt>
      <trkpt lat="59.332173" lon="18.07491">
        <ele>9</ele>
        <time>2020-01-13T08:46:43Z</time>
      </trkpt>
      <trkpt lat="59.332131" lon="18.074868">
        <ele>9</ele>
        <time>2020-01-13T08:46:44Z</time>
      </trkpt>
      <trkpt lat="59.332091" lon="18.074823">
        <ele>0</ele>
        <time>2020-01-13T08:46:44Z</time>
      </trkpt>
      <trkpt lat="59.332056" lon="18.074773">
        <ele>9</ele>
        <time>2020-01-13T08:46:45Z</time>
      </trkpt>
      <trkpt lat="59.33202" lon="18.074714">
        <ele>9</ele>
        <time>2020-01-13T08:46:47Z</time>
      </trkpt>
      <trkpt lat="59.33199" lon="18.074659">
        <ele>9</ele>
        <time>2020-01-13T08:46:48Z</time>
      </trkpt>
      <trkpt lat="59.331959" lon="18.07461">
        <ele>0</ele>
        <time>2020-01-13T08:46:48Z</time>
      </trkpt>
      <trkpt lat="59.331926" lon="18.074564">
        <ele>9</ele>
        <time>2020-01-13T08:46:49Z</time>
      </trkpt>
      <trkpt lat="59.33189" lon="18.074524">
        <ele>9</ele>
        <time>2020-01-13T08:46:51Z</time>
      </trkpt>
      <trkpt lat="59.331848" lon="18.074484">
        <ele>9</ele>
        <time>2020-01-13T08:46:52Z</time>
      </trkpt>
      <trkpt lat="59.331804" lon="18.074436">
        <ele>9</ele>
        <time>2020-01-13T08:46:53Z</time>
      </trkpt>
      <trkpt lat="59.331742" lon="18.074373">
        <ele>9</ele>
        <time>2020-01-13T08:46:54Z</time>
      </trkpt>
      <trkpt lat="59.331639" lon="18.074188">
        <ele>9</ele>
        <time>2020-01-13T08:46:56Z</time>
      </trkpt>
      <trkpt lat="59.331608" lon="18.074083">
        <ele>9</ele>
        <time>2020-01-13T08:46:57Z</time>
      </trkpt>
      <trkpt lat="59.331578" lon="18.073976">
        <ele>0</ele>
        <time>2020-01-13T08:46:57Z</time>
      </trkpt>
      <trkpt lat="59.331548" lon="18.073865">
        <ele>9</ele>
        <time>2020-01-13T08:46:58Z</time>
      </trkpt>
      <trkpt lat="59.331518" lon="18.073751">
        <ele>8</ele>
        <time>2020-01-13T08:47:00Z</time>
      </trkpt>
      <trkpt lat="59.331487" lon="18.073642">
        <ele>8</ele>
        <time>2020-01-13T08:47:01Z</time>
      </trkpt>
      <trkpt lat="59.331434" lon="18.073427">
        <ele>8</ele>
        <time>2020-01-13T08:47:03Z</time>
      </trkpt>
      <trkpt lat="59.331418" lon="18.07332">
        <ele>0</ele>
        <time>2020-01-13T08:47:03Z</time>
      </trkpt>
      <trkpt lat="59.331408" lon="18.073216">
        <ele>8</ele>
        <time>2020-01-13T08:47:04Z</time>
      </trkpt>
      <trkpt lat="59.331393" lon="18.073115">
        <ele>0</ele>
        <time>2020-01-13T08:47:05Z</time>
      </trkpt>
      <trkpt lat="59.331374" lon="18.073018">
        <ele>8</ele>
        <time>2020-01-13T08:47:06Z</time>
      </trkpt>
      <trkpt lat="59.331359" lon="18.072926">
        <ele>9</ele>
        <time>2020-01-13T08:47:08Z</time>
      </trkpt>
      <trkpt lat="59.331343" lon="18.072841">
        <ele>9</ele>
        <time>2020-01-13T08:47:09Z</time>
      </trkpt>
      <trkpt lat="59.331337" lon="18.072758">
        <ele>9</ele>
        <time>2020-01-13T08:47:10Z</time>
      </trkpt>
      <trkpt lat="59.331322" lon="18.072689">
        <ele>9</ele>
        <time>2020-01-13T08:47:11Z</time>
      </trkpt>
      <trkpt lat="59.331324" lon="18.07262">
        <ele>10</ele>
        <time>2020-01-13T08:47:12Z</time>
      </trkpt>
      <trkpt lat="59.331322" lon="18.072583">
        <ele>10</ele>
        <time>2020-01-13T08:47:13Z</time>
      </trkpt>
      <trkpt lat="59.331337" lon="18.072554">
        <ele>11</ele>
        <time>2020-01-13T08:47:15Z</time>
      </trkpt>
      <trkpt lat="59.331355" lon="18.072533">
        <ele>11</ele>
        <time>2020-01-13T08:47:20Z</time>
      </trkpt>
      <trkpt lat="59.331367" lon="18.072506">
        <ele>11</ele>
        <time>2020-01-13T08:47:23Z</time>
      </trkpt>
      <trkpt lat="59.331375" lon="18.072496">
        <ele>0</ele>
        <time>2020-01-13T08:47:26Z</time>
      </trkpt>
      <trkpt lat="59.331332" lon="18.072486">
        <ele>0</ele>
        <time>2020-01-13T08:47:36Z</time>
      </trkpt>
      <trkpt lat="59.331297" lon="18.072473">
        <ele>11</ele>
        <time>2020-01-13T08:47:37Z</time>
      </trkpt>
      <trkpt lat="59.33126" lon="18.072452">
        <ele>11</ele>
        <time>2020-01-13T08:47:39Z</time>
      </trkpt>
      <trkpt lat="59.331219" lon="18.072446">
        <ele>11</ele>
        <time>2020-01-13T08:47:40Z</time>
      </trkpt>
      <trkpt lat="59.33117" lon="18.072459">
        <ele>11</ele>
        <time>2020-01-13T08:47:41Z</time>
      </trkpt>
      <trkpt lat="59.331118" lon="18.072485">
        <ele>0</ele>
        <time>2020-01-13T08:47:41Z</time>
      </trkpt>
      <trkpt lat="59.331065" lon="18.072514">
        <ele>12</ele>
        <time>2020-01-13T08:47:42Z</time>
      </trkpt>
      <trkpt lat="59.331011" lon="18.072545">
        <ele>12</ele>
        <time>2020-01-13T08:47:44Z</time>
      </trkpt>
      <trkpt lat="59.33096" lon="18.072579">
        <ele>12</ele>
        <time>2020-01-13T08:47:45Z</time>
      </trkpt>
      <trkpt lat="59.33091" lon="18.072612">
        <ele>13</ele>
        <time>2020-01-13T08:47:46Z</time>
      </trkpt>
      <trkpt lat="59.330859" lon="18.072643">
        <ele>13</ele>
        <time>2020-01-13T08:47:47Z</time>
      </trkpt>
      <trkpt lat="59.330813" lon="18.072673">
        <ele>13</ele>
        <time>2020-01-13T08:47:48Z</time>
      </trkpt>
      <trkpt lat="59.330768" lon="18.072705">
        <ele>13</ele>
        <time>2020-01-13T08:47:49Z</time>
      </trkpt>
      <trkpt lat="59.33073" lon="18.072732">
        <ele>13</ele>
        <time>2020-01-13T08:47:50Z</time>
      </trkpt>
      <trkpt lat="59.33069" lon="18.07276">
        <ele>13</ele>
        <time>2020-01-13T08:47:51Z</time>
      </trkpt>
      <trkpt lat="59.330655" lon="18.072777">
        <ele>0</ele>
        <time>2020-01-13T08:47:51Z</time>
      </trkpt>
      <trkpt lat="59.330622" lon="18.072772">
        <ele>13</ele>
        <time>2020-01-13T08:47:52Z</time>
      </trkpt>
      <trkpt lat="59.330583" lon="18.072734">
        <ele>14</ele>
        <time>2020-01-13T08:47:54Z</time>
      </trkpt>
      <trkpt lat="59.330543" lon="18.0727">
        <ele>14</ele>
        <time>2020-01-13T08:47:55Z</time>
      </trkpt>
      <trkpt lat="59.330495" lon="18.072686">
        <ele>0</ele>
        <time>2020-01-13T08:47:55Z</time>
      </trkpt>
      <trkpt lat="59.330444" lon="18.07269">
        <ele>14</ele>
        <time>2020-01-13T08:47:56Z</time>
      </trkpt>
      <trkpt lat="59.33039" lon="18.07271">
        <ele>14</ele>
        <time>2020-01-13T08:47:58Z</time>
      </trkpt>
      <trkpt lat="59.330342" lon="18.072739">
        <ele>14</ele>
        <time>2020-01-13T08:47:59Z</time>
      </trkpt>
      <trkpt lat="59.330296" lon="18.072766">
        <ele>14</ele>
        <time>2020-01-13T08:48:00Z</time>
      </trkpt>
      <trkpt lat="59.33021" lon="18.072825">
        <ele>14</ele>
        <time>2020-01-13T08:48:02Z</time>
      </trkpt>
      <trkpt lat="59.330167" lon="18.072865">
        <ele>0</ele>
        <time>2020-01-13T08:48:02Z</time>
      </trkpt>
      <trkpt lat="59.330126" lon="18.0729">
        <ele>14</ele>
        <time>2020-01-13T08:48:03Z</time>
      </trkpt>
      <trkpt lat="59.330085" lon="18.072931">
        <ele>14</ele>
        <time>2020-01-13T08:48:05Z</time>
      </trkpt>
      <trkpt lat="59.330001" lon="18.073015">
        <ele>14</ele>
        <time>2020-01-13T08:48:07Z</time>
      </trkpt>
      <trkpt lat="59.329956" lon="18.07305">
        <ele>14</ele>
        <time>2020-01-13T08:48:08Z</time>
      </trkpt>
      <trkpt lat="59.32992" lon="18.073082">
        <ele>14</ele>
        <time>2020-01-13T08:48:09Z</time>
      </trkpt>
      <trkpt lat="59.329889" lon="18.073105">
        <ele>14</ele>
        <time>2020-01-13T08:48:10Z</time>
      </trkpt>
      <trkpt lat="59.32986" lon="18.073121">
        <ele>14</ele>
        <time>2020-01-13T08:48:11Z</time>
      </trkpt>
      <trkpt lat="59.329832" lon="18.073137">
        <ele>14</ele>
        <time>2020-01-13T08:48:12Z</time>
      </trkpt>
      <trkpt lat="59.329809" lon="18.073155">
        <ele>14</ele>
        <time>2020-01-13T08:48:13Z</time>
      </trkpt>
      <trkpt lat="59.329785" lon="18.073171">
        <ele>14</ele>
        <time>2020-01-13T08:48:14Z</time>
      </trkpt>
      <trkpt lat="59.329765" lon="18.073181">
        <ele>0</ele>
        <time>2020-01-13T08:48:14Z</time>
      </trkpt>
      <trkpt lat="59.329751" lon="18.073188">
        <ele>0</ele>
        <time>2020-01-13T08:48:21Z</time>
      </trkpt>
      <trkpt lat="59.329734" lon="18.073181">
        <ele>13</ele>
        <time>2020-01-13T08:48:24Z</time>
      </trkpt>
      <trkpt lat="59.329733" lon="18.07318">
        <ele>0</ele>
        <time>2020-01-13T08:48:27Z</time>
      </trkpt>
      <trkpt lat="59.32957" lon="18.073166">
        <ele>12</ele>
        <time>2020-01-13T08:49:00Z</time>
      </trkpt>
      <trkpt lat="59.329516" lon="18.073163">
        <ele>11</ele>
        <time>2020-01-13T08:49:01Z</time>
      </trkpt>
      <trkpt lat="59.329459" lon="18.073162">
        <ele>12</ele>
        <time>2020-01-13T08:49:02Z</time>
      </trkpt>
      <trkpt lat="59.329399" lon="18.073158">
        <ele>11</ele>
        <time>2020-01-13T08:49:04Z</time>
      </trkpt>
      <trkpt lat="59.329339" lon="18.073148">
        <ele>11</ele>
        <time>2020-01-13T08:49:05Z</time>
      </trkpt>
      <trkpt lat="59.329276" lon="18.073134">
        <ele>11</ele>
        <time>2020-01-13T08:49:06Z</time>
      </trkpt>
      <trkpt lat="59.329213" lon="18.073119">
        <ele>11</ele>
        <time>2020-01-13T08:49:07Z</time>
      </trkpt>
      <trkpt lat="59.329148" lon="18.0731">
        <ele>10</ele>
        <time>2020-01-13T08:49:08Z</time>
      </trkpt>
      <trkpt lat="59.329084" lon="18.073082">
        <ele>10</ele>
        <time>2020-01-13T08:49:09Z</time>
      </trkpt>
      <trkpt lat="59.329019" lon="18.073064">
        <ele>0</ele>
        <time>2020-01-13T08:49:09Z</time>
      </trkpt>
      <trkpt lat="59.328957" lon="18.073047">
        <ele>10</ele>
        <time>2020-01-13T08:49:10Z</time>
      </trkpt>
      <trkpt lat="59.328897" lon="18.07303">
        <ele>9</ele>
        <time>2020-01-13T08:49:12Z</time>
      </trkpt>
      <trkpt lat="59.328839" lon="18.073016">
        <ele>9</ele>
        <time>2020-01-13T08:49:13Z</time>
      </trkpt>
      <trkpt lat="59.328784" lon="18.073003">
        <ele>9</ele>
        <time>2020-01-13T08:49:14Z</time>
      </trkpt>
      <trkpt lat="59.328727" lon="18.072989">
        <ele>9</ele>
        <time>2020-01-13T08:49:15Z</time>
      </trkpt>
      <trkpt lat="59.328673" lon="18.072975">
        <ele>8</ele>
        <time>2020-01-13T08:49:16Z</time>
      </trkpt>
      <trkpt lat="59.328619" lon="18.072963">
        <ele>8</ele>
        <time>2020-01-13T08:49:17Z</time>
      </trkpt>
      <trkpt lat="59.328567" lon="18.07295">
        <ele>8</ele>
        <time>2020-01-13T08:49:18Z</time>
      </trkpt>
      <trkpt lat="59.328515" lon="18.072937">
        <ele>0</ele>
        <time>2020-01-13T08:49:18Z</time>
      </trkpt>
      <trkpt lat="59.328466" lon="18.072925">
        <ele>8</ele>
        <time>2020-01-13T08:49:19Z</time>
      </trkpt>
      <trkpt lat="59.328417" lon="18.072913">
        <ele>7</ele>
        <time>2020-01-13T08:49:21Z</time>
      </trkpt>
      <trkpt lat="59.32837" lon="18.072902">
        <ele>7</ele>
        <time>2020-01-13T08:49:22Z</time>
      </trkpt>
      <trkpt lat="59.328329" lon="18.072891">
        <ele>7</ele>
        <time>2020-01-13T08:49:23Z</time>
      </trkpt>
      <trkpt lat="59.328291" lon="18.072879">
        <ele>7</ele>
        <time>2020-01-13T08:49:24Z</time>
      </trkpt>
      <trkpt lat="59.328258" lon="18.072869">
        <ele>7</ele>
        <time>2020-01-13T08:49:25Z</time>
      </trkpt>
      <trkpt lat="59.328232" lon="18.072862">
        <ele>6</ele>
        <time>2020-01-13T08:49:26Z</time>
      </trkpt>
      <trkpt lat="59.328214" lon="18.072858">
        <ele>6</ele>
        <time>2020-01-13T08:49:27Z</time>
      </trkpt>
      <trkpt lat="59.328192" lon="18.07285">
        <ele>6</ele>
        <time>2020-01-13T08:49:29Z</time>
      </trkpt>
      <trkpt lat="59.328166" lon="18.072845">
        <ele>6</ele>
        <time>2020-01-13T08:49:31Z</time>
      </trkpt>
      <trkpt lat="59.328142" lon="18.072843">
        <ele>6</ele>
        <time>2020-01-13T08:49:32Z</time>
      </trkpt>
      <trkpt lat="59.328108" lon="18.072835">
        <ele>6</ele>
        <time>2020-01-13T08:49:33Z</time>
      </trkpt>
      <trkpt lat="59.328066" lon="18.072823">
        <ele>6</ele>
        <time>2020-01-13T08:49:34Z</time>
      </trkpt>
      <trkpt lat="59.328019" lon="18.072817">
        <ele>0</ele>
        <time>2020-01-13T08:49:34Z</time>
      </trkpt>
      <trkpt lat="59.327968" lon="18.072821">
        <ele>6</ele>
        <time>2020-01-13T08:49:35Z</time>
      </trkpt>
      <trkpt lat="59.327916" lon="18.072835">
        <ele>6</ele>
        <time>2020-01-13T08:49:37Z</time>
      </trkpt>
      <trkpt lat="59.327865" lon="18.072862">
        <ele>0</ele>
        <time>2020-01-13T08:49:37Z</time>
      </trkpt>
      <trkpt lat="59.327814" lon="18.072903">
        <ele>5</ele>
        <time>2020-01-13T08:49:38Z</time>
      </trkpt>
      <trkpt lat="59.327764" lon="18.072955">
        <ele>6</ele>
        <time>2020-01-13T08:49:40Z</time>
      </trkpt>
      <trkpt lat="59.327712" lon="18.073014">
        <ele>6</ele>
        <time>2020-01-13T08:49:41Z</time>
      </trkpt>
      <trkpt lat="59.32766" lon="18.073077">
        <ele>6</ele>
        <time>2020-01-13T08:49:42Z</time>
      </trkpt>
      <trkpt lat="59.327609" lon="18.073139">
        <ele>6</ele>
        <time>2020-01-13T08:49:43Z</time>
      </trkpt>
      <trkpt lat="59.327556" lon="18.073201">
        <ele>0</ele>
        <time>2020-01-13T08:49:43Z</time>
      </trkpt>
      <trkpt lat="59.327503" lon="18.073264">
        <ele>6</ele>
        <time>2020-01-13T08:49:44Z</time>
      </trkpt>
      <trkpt lat="59.327449" lon="18.073328">
        <ele>5</ele>
        <time>2020-01-13T08:49:46Z</time>
      </trkpt>
      <trkpt lat="59.327396" lon="18.073392">
        <ele>5</ele>
        <time>2020-01-13T08:49:47Z</time>
      </trkpt>
      <trkpt lat="59.327344" lon="18.073453">
        <ele>5</ele>
        <time>2020-01-13T08:49:48Z</time>
      </trkpt>
      <trkpt lat="59.327295" lon="18.073511">
        <ele>5</ele>
        <time>2020-01-13T08:49:49Z</time>
      </trkpt>
      <trkpt lat="59.327247" lon="18.073567">
        <ele>5</ele>
        <time>2020-01-13T08:49:50Z</time>
      </trkpt>
      <trkpt lat="59.327202" lon="18.07362">
        <ele>5</ele>
        <time>2020-01-13T08:49:51Z</time>
      </trkpt>
      <trkpt lat="59.327159" lon="18.073672">
        <ele>0</ele>
        <time>2020-01-13T08:49:51Z</time>
      </trkpt>
      <trkpt lat="59.32712" lon="18.07372">
        <ele>5</ele>
        <time>2020-01-13T08:49:52Z</time>
      </trkpt>
      <trkpt lat="59.327082" lon="18.073764">
        <ele>5</ele>
        <time>2020-01-13T08:49:54Z</time>
      </trkpt>
      <trkpt lat="59.327047" lon="18.073804">
        <ele>5</ele>
        <time>2020-01-13T08:49:55Z</time>
      </trkpt>
      <trkpt lat="59.327015" lon="18.073843">
        <ele>5</ele>
        <time>2020-01-13T08:49:56Z</time>
      </trkpt>
      <trkpt lat="59.326986" lon="18.07388">
        <ele>0</ele>
        <time>2020-01-13T08:49:56Z</time>
      </trkpt>
      <trkpt lat="59.326958" lon="18.073912">
        <ele>5</ele>
        <time>2020-01-13T08:49:57Z</time>
      </trkpt>
      <trkpt lat="59.326932" lon="18.073944">
        <ele>4</ele>
        <time>2020-01-13T08:49:59Z</time>
      </trkpt>
      <trkpt lat="59.326909" lon="18.073977">
        <ele>4</ele>
        <time>2020-01-13T08:50:00Z</time>
      </trkpt>
      <trkpt lat="59.326888" lon="18.074008">
        <ele>4</ele>
        <time>2020-01-13T08:50:01Z</time>
      </trkpt>
      <trkpt lat="59.326868" lon="18.07404">
        <ele>4</ele>
        <time>2020-01-13T08:50:02Z</time>
      </trkpt>
      <trkpt lat="59.326848" lon="18.074069">
        <ele>4</ele>
        <time>2020-01-13T08:50:03Z</time>
      </trkpt>
      <trkpt lat="59.326832" lon="18.074094">
        <ele>4</ele>
        <time>2020-01-13T08:50:04Z</time>
      </trkpt>
      <trkpt lat="59.326809" lon="18.074132">
        <ele>4</ele>
        <time>2020-01-13T08:50:06Z</time>
      </trkpt>
      <trkpt lat="59.32679" lon="18.074156">
        <ele>4</ele>
        <time>2020-01-13T08:50:09Z</time>
      </trkpt>
      <trkpt lat="59.326772" lon="18.074173">
        <ele>4</ele>
        <time>2020-01-13T08:50:13Z</time>
      </trkpt>
      <trkpt lat="59.326762" lon="18.074189">
        <ele>0</ele>
        <time>2020-01-13T08:50:17Z</time>
      </trkpt>
      <trkpt lat="59.326691" lon="18.074265">
        <ele>0</ele>
        <time>2020-01-13T08:50:21Z</time>
      </trkpt>
      <trkpt lat="59.326654" lon="18.074309">
        <ele>4</ele>
        <time>2020-01-13T08:50:22Z</time>
      </trkpt>
      <trkpt lat="59.32661" lon="18.074362">
        <ele>0</ele>
        <time>2020-01-13T08:50:23Z</time>
      </trkpt>
      <trkpt lat="59.326564" lon="18.07442">
        <ele>5</ele>
        <time>2020-01-13T08:50:24Z</time>
      </trkpt>
      <trkpt lat="59.326514" lon="18.074483">
        <ele>4</ele>
        <time>2020-01-13T08:50:26Z</time>
      </trkpt>
      <trkpt lat="59.326462" lon="18.074551">
        <ele>4</ele>
        <time>2020-01-13T08:50:27Z</time>
      </trkpt>
      <trkpt lat="59.326404" lon="18.074622">
        <ele>4</ele>
        <time>2020-01-13T08:50:28Z</time>
      </trkpt>
      <trkpt lat="59.326347" lon="18.074695">
        <ele>4</ele>
        <time>2020-01-13T08:50:29Z</time>
      </trkpt>
      <trkpt lat="59.326285" lon="18.074768">
        <ele>4</ele>
        <time>2020-01-13T08:50:30Z</time>
      </trkpt>
      <trkpt lat="59.32622" lon="18.074838">
        <ele>0</ele>
        <time>2020-01-13T08:50:30Z</time>
      </trkpt>
      <trkpt lat="59.326153" lon="18.074905">
        <ele>4</ele>
        <time>2020-01-13T08:50:31Z</time>
      </trkpt>
      <trkpt lat="59.326085" lon="18.074968">
        <ele>4</ele>
        <time>2020-01-13T08:50:33Z</time>
      </trkpt>
      <trkpt lat="59.326016" lon="18.075035">
        <ele>4</ele>
        <time>2020-01-13T08:50:34Z</time>
      </trkpt>
      <trkpt lat="59.325946" lon="18.075102">
        <ele>4</ele>
        <time>2020-01-13T08:50:35Z</time>
      </trkpt>
      <trkpt lat="59.325876" lon="18.075171">
        <ele>3</ele>
        <time>2020-01-13T08:50:36Z</time>
      </trkpt>
      <trkpt lat="59.325807" lon="18.075237">
        <ele>3</ele>
        <time>2020-01-13T08:50:37Z</time>
      </trkpt>
      <trkpt lat="59.325739" lon="18.0753">
        <ele>0</ele>
        <time>2020-01-13T08:50:37Z</time>
      </trkpt>
      <trkpt lat="59.32567" lon="18.075364">
        <ele>3</ele>
        <time>2020-01-13T08:50:38Z</time>
      </trkpt>
      <trkpt lat="59.3256" lon="18.075426">
        <ele>3</ele>
        <time>2020-01-13T08:50:40Z</time>
      </trkpt>
      <trkpt lat="59.325528" lon="18.075478">
        <ele>0</ele>
        <time>2020-01-13T08:50:40Z</time>
      </trkpt>
      <trkpt lat="59.325455" lon="18.075511">
        <ele>3</ele>
        <time>2020-01-13T08:50:41Z</time>
      </trkpt>
      <trkpt lat="59.325379" lon="18.075529">
        <ele>3</ele>
        <time>2020-01-13T08:50:43Z</time>
      </trkpt>
      <trkpt lat="59.325302" lon="18.075545">
        <ele>0</ele>
        <time>2020-01-13T08:50:43Z</time>
      </trkpt>
      <trkpt lat="59.325226" lon="18.075557">
        <ele>3</ele>
        <time>2020-01-13T08:50:44Z</time>
      </trkpt>
      <trkpt lat="59.325152" lon="18.075566">
        <ele>3</ele>
        <time>2020-01-13T08:50:46Z</time>
      </trkpt>
      <trkpt lat="59.325075" lon="18.075574">
        <ele>3</ele>
        <time>2020-01-13T08:50:47Z</time>
      </trkpt>
      <trkpt lat="59.325" lon="18.075583">
        <ele>3</ele>
        <time>2020-01-13T08:50:48Z</time>
      </trkpt>
      <trkpt lat="59.324924" lon="18.075585">
        <ele>3</ele>
        <time>2020-01-13T08:50:49Z</time>
      </trkpt>
      <trkpt lat="59.324847" lon="18.075579">
        <ele>2</ele>
        <time>2020-01-13T08:50:50Z</time>
      </trkpt>
      <trkpt lat="59.324774" lon="18.075562">
        <ele>0</ele>
        <time>2020-01-13T08:50:50Z</time>
      </trkpt>
      <trkpt lat="59.324702" lon="18.075535">
        <ele>2</ele>
        <time>2020-01-13T08:50:51Z</time>
      </trkpt>
      <trkpt lat="59.324631" lon="18.0755">
        <ele>2</ele>
        <time>2020-01-13T08:50:53Z</time>
      </trkpt>
      <trkpt lat="59.32456" lon="18.075467">
        <ele>2</ele>
        <time>2020-01-13T08:50:54Z</time>
      </trkpt>
      <trkpt lat="59.324486" lon="18.075439">
        <ele>2</ele>
        <time>2020-01-13T08:50:55Z</time>
      </trkpt>
      <trkpt lat="59.324413" lon="18.075417">
        <ele>2</ele>
        <time>2020-01-13T08:50:56Z</time>
      </trkpt>
      <trkpt lat="59.32434" lon="18.0754">
        <ele>2</ele>
        <time>2020-01-13T08:50:57Z</time>
      </trkpt>
      <trkpt lat="59.324266" lon="18.075382">
        <ele>0</ele>
        <time>2020-01-13T08:50:57Z</time>
      </trkpt>
      <trkpt lat="59.324191" lon="18.075361">
        <ele>2</ele>
        <time>2020-01-13T08:50:58Z</time>
      </trkpt>
      <trkpt lat="59.324118" lon="18.075337">
        <ele>0</ele>
        <time>2020-01-13T08:50:59Z</time>
      </trkpt>
      <trkpt lat="59.324043" lon="18.075308">
        <ele>2</ele>
        <time>2020-01-13T08:51:00Z</time>
      </trkpt>
      <trkpt lat="59.32397" lon="18.075276">
        <ele>2</ele>
        <time>2020-01-13T08:51:02Z</time>
      </trkpt>
      <trkpt lat="59.323896" lon="18.07525">
        <ele>2</ele>
        <time>2020-01-13T08:51:03Z</time>
      </trkpt>
      <trkpt lat="59.323822" lon="18.075228">
        <ele>0</ele>
        <time>2020-01-13T08:51:03Z</time>
      </trkpt>
      <trkpt lat="59.323748" lon="18.075203">
        <ele>2</ele>
        <time>2020-01-13T08:51:04Z</time>
      </trkpt>
      <trkpt lat="59.323675" lon="18.075177">
        <ele>2</ele>
        <time>2020-01-13T08:51:06Z</time>
      </trkpt>
      <trkpt lat="59.323603" lon="18.075151">
        <ele>2</ele>
        <time>2020-01-13T08:51:07Z</time>
      </trkpt>
      <trkpt lat="59.323531" lon="18.075127">
        <ele>2</ele>
        <time>2020-01-13T08:51:08Z</time>
      </trkpt>
      <trkpt lat="59.323459" lon="18.075097">
        <ele>2</ele>
        <time>2020-01-13T08:51:09Z</time>
      </trkpt>
      <trkpt lat="59.323387" lon="18.075066">
        <ele>2</ele>
        <time>2020-01-13T08:51:10Z</time>
      </trkpt>
      <trkpt lat="59.323316" lon="18.075039">
        <ele>0</ele>
        <time>2020-01-13T08:51:10Z</time>
      </trkpt>
      <trkpt lat="59.323245" lon="18.075014">
        <ele>2</ele>
        <time>2020-01-13T08:51:11Z</time>
      </trkpt>
      <trkpt lat="59.323174" lon="18.074988">
        <ele>2</ele>
        <time>2020-01-13T08:51:13Z</time>
      </trkpt>
      <trkpt lat="59.323104" lon="18.074962">
        <ele>2</ele>
        <time>2020-01-13T08:51:14Z</time>
      </trkpt>
      <trkpt lat="59.323034" lon="18.074935">
        <ele>2</ele>
        <time>2020-01-13T08:51:15Z</time>
      </trkpt>
      <trkpt lat="59.322965" lon="18.074904">
        <ele>2</ele>
        <time>2020-01-13T08:51:16Z</time>
      </trkpt>
      <trkpt lat="59.322899" lon="18.07486">
        <ele>2</ele>
        <time>2020-01-13T08:51:17Z</time>
      </trkpt>
      <trkpt lat="59.322835" lon="18.074805">
        <ele>0</ele>
        <time>2020-01-13T08:51:17Z</time>
      </trkpt>
      <trkpt lat="59.322773" lon="18.074746">
        <ele>2</ele>
        <time>2020-01-13T08:51:18Z</time>
      </trkpt>
      <trkpt lat="59.322713" lon="18.074683">
        <ele>2</ele>
        <time>2020-01-13T08:51:19Z</time>
      </trkpt>
      <trkpt lat="59.322653" lon="18.074616">
        <ele>2</ele>
        <time>2020-01-13T08:51:21Z</time>
      </trkpt>
      <trkpt lat="59.322593" lon="18.074548">
        <ele>2</ele>
        <time>2020-01-13T08:51:22Z</time>
      </trkpt>
      <trkpt lat="59.322532" lon="18.074485">
        <ele>2</ele>
        <time>2020-01-13T08:51:23Z</time>
      </trkpt>
      <trkpt lat="59.322471" lon="18.074423">
        <ele>2</ele>
        <time>2020-01-13T08:51:24Z</time>
      </trkpt>
      <trkpt lat="59.32241" lon="18.074361">
        <ele>2</ele>
        <time>2020-01-13T08:51:25Z</time>
      </trkpt>
      <trkpt lat="59.322351" lon="18.074298">
        <ele>0</ele>
        <time>2020-01-13T08:51:25Z</time>
      </trkpt>
      <trkpt lat="59.322293" lon="18.074238">
        <ele>2</ele>
        <time>2020-01-13T08:51:26Z</time>
      </trkpt>
      <trkpt lat="59.322235" lon="18.074179">
        <ele>3</ele>
        <time>2020-01-13T08:51:28Z</time>
      </trkpt>
      <trkpt lat="59.32218" lon="18.074121">
        <ele>3</ele>
        <time>2020-01-13T08:51:29Z</time>
      </trkpt>
      <trkpt lat="59.322126" lon="18.074064">
        <ele>3</ele>
        <time>2020-01-13T08:51:30Z</time>
      </trkpt>
      <trkpt lat="59.322074" lon="18.074008">
        <ele>3</ele>
        <time>2020-01-13T08:51:31Z</time>
      </trkpt>
      <trkpt lat="59.322024" lon="18.073958">
        <ele>3</ele>
        <time>2020-01-13T08:51:32Z</time>
      </trkpt>
      <trkpt lat="59.321979" lon="18.073911">
        <ele>3</ele>
        <time>2020-01-13T08:51:33Z</time>
      </trkpt>
      <trkpt lat="59.321944" lon="18.073858">
        <ele>3</ele>
        <time>2020-01-13T08:51:34Z</time>
      </trkpt>
      <trkpt lat="59.321925" lon="18.073794">
        <ele>0</ele>
        <time>2020-01-13T08:51:34Z</time>
      </trkpt>
      <trkpt lat="59.321922" lon="18.073727">
        <ele>4</ele>
        <time>2020-01-13T08:51:35Z</time>
      </trkpt>
      <trkpt lat="59.321929" lon="18.073661">
        <ele>4</ele>
        <time>2020-01-13T08:51:37Z</time>
      </trkpt>
      <trkpt lat="59.321938" lon="18.073596">
        <ele>0</ele>
        <time>2020-01-13T08:51:37Z</time>
      </trkpt>
      <trkpt lat="59.32195" lon="18.07353">
        <ele>4</ele>
        <time>2020-01-13T08:51:38Z</time>
      </trkpt>
      <trkpt lat="59.321961" lon="18.073466">
        <ele>4</ele>
        <time>2020-01-13T08:51:40Z</time>
      </trkpt>
      <trkpt lat="59.321973" lon="18.073404">
        <ele>5</ele>
        <time>2020-01-13T08:51:41Z</time>
      </trkpt>
      <trkpt lat="59.321984" lon="18.073343">
        <ele>5</ele>
        <time>2020-01-13T08:51:42Z</time>
      </trkpt>
      <trkpt lat="59.321994" lon="18.073286">
        <ele>5</ele>
        <time>2020-01-13T08:51:43Z</time>
      </trkpt>
      <trkpt lat="59.322004" lon="18.073234">
        <ele>5</ele>
        <time>2020-01-13T08:51:44Z</time>
      </trkpt>
      <trkpt lat="59.322014" lon="18.073187">
        <ele>5</ele>
        <time>2020-01-13T08:51:45Z</time>
      </trkpt>
      <trkpt lat="59.322023" lon="18.073143">
        <ele>5</ele>
        <time>2020-01-13T08:51:46Z</time>
      </trkpt>
      <trkpt lat="59.322034" lon="18.073097">
        <ele>5</ele>
        <time>2020-01-13T08:51:47Z</time>
      </trkpt>
      <trkpt lat="59.322045" lon="18.073049">
        <ele>6</ele>
        <time>2020-01-13T08:51:48Z</time>
      </trkpt>
      <trkpt lat="59.322056" lon="18.073">
        <ele>6</ele>
        <time>2020-01-13T08:51:49Z</time>
      </trkpt>
      <trkpt lat="59.322065" lon="18.072949">
        <ele>6</ele>
        <time>2020-01-13T08:51:50Z</time>
      </trkpt>
      <trkpt lat="59.322072" lon="18.072892">
        <ele>0</ele>
        <time>2020-01-13T08:51:50Z</time>
      </trkpt>
      <trkpt lat="59.322078" lon="18.07283">
        <ele>6</ele>
        <time>2020-01-13T08:51:51Z</time>
      </trkpt>
      <trkpt lat="59.322083" lon="18.072769">
        <ele>6</ele>
        <time>2020-01-13T08:51:53Z</time>
      </trkpt>
      <trkpt lat="59.322085" lon="18.072708">
        <ele>6</ele>
        <time>2020-01-13T08:51:54Z</time>
      </trkpt>
      <trkpt lat="59.322083" lon="18.072642">
        <ele>6</ele>
        <time>2020-01-13T08:51:55Z</time>
      </trkpt>
      <trkpt lat="59.322076" lon="18.072574">
        <ele>5</ele>
        <time>2020-01-13T08:51:56Z</time>
      </trkpt>
      <trkpt lat="59.322068" lon="18.072505">
        <ele>0</ele>
        <time>2020-01-13T08:51:56Z</time>
      </trkpt>
      <trkpt lat="59.322056" lon="18.07244">
        <ele>5</ele>
        <time>2020-01-13T08:51:57Z</time>
      </trkpt>
      <trkpt lat="59.322036" lon="18.072387">
        <ele>5</ele>
        <time>2020-01-13T08:51:59Z</time>
      </trkpt>
      <trkpt lat="59.322003" lon="18.072348">
        <ele>5</ele>
        <time>2020-01-13T08:52:00Z</time>
      </trkpt>
      <trkpt lat="59.321961" lon="18.072317">
        <ele>5</ele>
        <time>2020-01-13T08:52:01Z</time>
      </trkpt>
      <trkpt lat="59.321914" lon="18.072284">
        <ele>6</ele>
        <time>2020-01-13T08:52:02Z</time>
      </trkpt>
      <trkpt lat="59.321866" lon="18.072252">
        <ele>6</ele>
        <time>2020-01-13T08:52:03Z</time>
      </trkpt>
      <trkpt lat="59.321818" lon="18.07223">
        <ele>0</ele>
        <time>2020-01-13T08:52:03Z</time>
      </trkpt>
      <trkpt lat="59.321771" lon="18.072221">
        <ele>6</ele>
        <time>2020-01-13T08:52:04Z</time>
      </trkpt>
      <trkpt lat="59.321726" lon="18.072226">
        <ele>6</ele>
        <time>2020-01-13T08:52:06Z</time>
      </trkpt>
      <trkpt lat="59.32168" lon="18.072227">
        <ele>7</ele>
        <time>2020-01-13T08:52:07Z</time>
      </trkpt>
      <trkpt lat="59.321636" lon="18.072213">
        <ele>7</ele>
        <time>2020-01-13T08:52:08Z</time>
      </trkpt>
      <trkpt lat="59.321596" lon="18.072187">
        <ele>7</ele>
        <time>2020-01-13T08:52:09Z</time>
      </trkpt>
      <trkpt lat="59.321557" lon="18.072157">
        <ele>7</ele>
        <time>2020-01-13T08:52:10Z</time>
      </trkpt>
      <trkpt lat="59.321518" lon="18.072129">
        <ele>7</ele>
        <time>2020-01-13T08:52:11Z</time>
      </trkpt>
      <trkpt lat="59.321479" lon="18.072102">
        <ele>7</ele>
        <time>2020-01-13T08:52:12Z</time>
      </trkpt>
      <trkpt lat="59.321441" lon="18.07207">
        <ele>8</ele>
        <time>2020-01-13T08:52:13Z</time>
      </trkpt>
      <trkpt lat="59.321402" lon="18.072038">
        <ele>8</ele>
        <time>2020-01-13T08:52:14Z</time>
      </trkpt>
      <trkpt lat="59.321361" lon="18.072008">
        <ele>0</ele>
        <time>2020-01-13T08:52:14Z</time>
      </trkpt>
      <trkpt lat="59.321321" lon="18.071978">
        <ele>8</ele>
        <time>2020-01-13T08:52:15Z</time>
      </trkpt>
      <trkpt lat="59.321282" lon="18.071948">
        <ele>8</ele>
        <time>2020-01-13T08:52:16Z</time>
      </trkpt>
      <trkpt lat="59.321245" lon="18.071917">
        <ele>8</ele>
        <time>2020-01-13T08:52:18Z</time>
      </trkpt>
      <trkpt lat="59.32121" lon="18.071879">
        <ele>9</ele>
        <time>2020-01-13T08:52:19Z</time>
      </trkpt>
      <trkpt lat="59.321179" lon="18.071832">
        <ele>9</ele>
        <time>2020-01-13T08:52:20Z</time>
      </trkpt>
      <trkpt lat="59.321153" lon="18.071777">
        <ele>9</ele>
        <time>2020-01-13T08:52:21Z</time>
      </trkpt>
      <trkpt lat="59.321133" lon="18.071715">
        <ele>9</ele>
        <time>2020-01-13T08:52:22Z</time>
      </trkpt>
      <trkpt lat="59.321119" lon="18.071651">
        <ele>9</ele>
        <time>2020-01-13T08:52:23Z</time>
      </trkpt>
      <trkpt lat="59.321109" lon="18.071586">
        <ele>9</ele>
        <time>2020-01-13T08:52:24Z</time>
      </trkpt>
      <trkpt lat="59.321101" lon="18.071522">
        <ele>10</ele>
        <time>2020-01-13T08:52:25Z</time>
      </trkpt>
      <trkpt lat="59.321094" lon="18.071461">
        <ele>10</ele>
        <time>2020-01-13T08:52:26Z</time>
      </trkpt>
      <trkpt lat="59.321087" lon="18.071403">
        <ele>10</ele>
        <time>2020-01-13T08:52:27Z</time>
      </trkpt>
      <trkpt lat="59.32108" lon="18.071349">
        <ele>11</ele>
        <time>2020-01-13T08:52:28Z</time>
      </trkpt>
      <trkpt lat="59.321074" lon="18.071295">
        <ele>11</ele>
        <time>2020-01-13T08:52:29Z</time>
      </trkpt>
      <trkpt lat="59.321069" lon="18.071242">
        <ele>0</ele>
        <time>2020-01-13T08:52:29Z</time>
      </trkpt>
      <trkpt lat="59.321062" lon="18.071192">
        <ele>11</ele>
        <time>2020-01-13T08:52:30Z</time>
      </trkpt>
      <trkpt lat="59.321055" lon="18.071143">
        <ele>11</ele>
        <time>2020-01-13T08:52:32Z</time>
      </trkpt>
      <trkpt lat="59.321042" lon="18.071095">
        <ele>12</ele>
        <time>2020-01-13T08:52:33Z</time>
      </trkpt>
      <trkpt lat="59.321022" lon="18.071054">
        <ele>12</ele>
        <time>2020-01-13T08:52:34Z</time>
      </trkpt>
      <trkpt lat="59.320995" lon="18.071021">
        <ele>0</ele>
        <time>2020-01-13T08:52:34Z</time>
      </trkpt>
      <trkpt lat="59.320966" lon="18.070996">
        <ele>12</ele>
        <time>2020-01-13T08:52:35Z</time>
      </trkpt>
      <trkpt lat="59.320903" lon="18.070951">
        <ele>12</ele>
        <time>2020-01-13T08:52:38Z</time>
      </trkpt>
      <trkpt lat="59.320872" lon="18.070929">
        <ele>12</ele>
        <time>2020-01-13T08:52:39Z</time>
      </trkpt>
      <trkpt lat="59.320841" lon="18.070906">
        <ele>12</ele>
        <time>2020-01-13T08:52:40Z</time>
      </trkpt>
      <trkpt lat="59.320811" lon="18.070883">
        <ele>13</ele>
        <time>2020-01-13T08:52:41Z</time>
      </trkpt>
      <trkpt lat="59.320781" lon="18.070862">
        <ele>13</ele>
        <time>2020-01-13T08:52:42Z</time>
      </trkpt>
      <trkpt lat="59.320751" lon="18.070844">
        <ele>13</ele>
        <time>2020-01-13T08:52:43Z</time>
      </trkpt>
      <trkpt lat="59.320721" lon="18.070829">
        <ele>13</ele>
        <time>2020-01-13T08:52:44Z</time>
      </trkpt>
      <trkpt lat="59.320689" lon="18.070818">
        <ele>13</ele>
        <time>2020-01-13T08:52:45Z</time>
      </trkpt>
      <trkpt lat="59.320659" lon="18.070808">
        <ele>0</ele>
        <time>2020-01-13T08:52:45Z</time>
      </trkpt>
      <trkpt lat="59.32063" lon="18.070799">
        <ele>13</ele>
        <time>2020-01-13T08:52:46Z</time>
      </trkpt>
      <trkpt lat="59.320603" lon="18.070784">
        <ele>13</ele>
        <time>2020-01-13T08:52:48Z</time>
      </trkpt>
      <trkpt lat="59.320581" lon="18.07075">
        <ele>13</ele>
        <time>2020-01-13T08:52:49Z</time>
      </trkpt>
      <trkpt lat="59.320566" lon="18.070699">
        <ele>13</ele>
        <time>2020-01-13T08:52:50Z</time>
      </trkpt>
      <trkpt lat="59.320553" lon="18.070637">
        <ele>13</ele>
        <time>2020-01-13T08:52:51Z</time>
      </trkpt>
      <trkpt lat="59.320541" lon="18.070568">
        <ele>13</ele>
        <time>2020-01-13T08:52:52Z</time>
      </trkpt>
      <trkpt lat="59.320529" lon="18.070496">
        <ele>13</ele>
        <time>2020-01-13T08:52:53Z</time>
      </trkpt>
      <trkpt lat="59.320515" lon="18.070428">
        <ele>0</ele>
        <time>2020-01-13T08:52:53Z</time>
      </trkpt>
      <trkpt lat="59.3205" lon="18.070364">
        <ele>13</ele>
        <time>2020-01-13T08:52:54Z</time>
      </trkpt>
      <trkpt lat="59.320481" lon="18.070305">
        <ele>13</ele>
        <time>2020-01-13T08:52:56Z</time>
      </trkpt>
      <trkpt lat="59.320456" lon="18.070263">
        <ele>13</ele>
        <time>2020-01-13T08:52:57Z</time>
      </trkpt>
      <trkpt lat="59.320421" lon="18.070243">
        <ele>13</ele>
        <time>2020-01-13T08:52:58Z</time>
      </trkpt>
      <trkpt lat="59.320385" lon="18.070242">
        <ele>13</ele>
        <time>2020-01-13T08:52:59Z</time>
      </trkpt>
      <trkpt lat="59.320347" lon="18.070254">
        <ele>0</ele>
        <time>2020-01-13T08:52:59Z</time>
      </trkpt>
      <trkpt lat="59.32031" lon="18.070267">
        <ele>13</ele>
        <time>2020-01-13T08:53:00Z</time>
      </trkpt>
      <trkpt lat="59.320275" lon="18.070279">
        <ele>13</ele>
        <time>2020-01-13T08:53:02Z</time>
      </trkpt>
      <trkpt lat="59.32024" lon="18.070289">
        <ele>13</ele>
        <time>2020-01-13T08:53:03Z</time>
      </trkpt>
      <trkpt lat="59.320207" lon="18.070297">
        <ele>13</ele>
        <time>2020-01-13T08:53:04Z</time>
      </trkpt>
      <trkpt lat="59.320176" lon="18.070305">
        <ele>13</ele>
        <time>2020-01-13T08:53:05Z</time>
      </trkpt>
      <trkpt lat="59.320148" lon="18.070313">
        <ele>13</ele>
        <time>2020-01-13T08:53:06Z</time>
      </trkpt>
      <trkpt lat="59.320122" lon="18.070322">
        <ele>13</ele>
        <time>2020-01-13T08:53:07Z</time>
      </trkpt>
      <trkpt lat="59.3201" lon="18.07033">
        <ele>13</ele>
        <time>2020-01-13T08:53:08Z</time>
      </trkpt>
      <trkpt lat="59.320081" lon="18.070337">
        <ele>13</ele>
        <time>2020-01-13T08:53:09Z</time>
      </trkpt>
      <trkpt lat="59.320054" lon="18.070348">
        <ele>14</ele>
        <time>2020-01-13T08:53:11Z</time>
      </trkpt>
      <trkpt lat="59.320032" lon="18.07036">
        <ele>14</ele>
        <time>2020-01-13T08:53:13Z</time>
      </trkpt>
      <trkpt lat="59.32002" lon="18.070359">
        <ele>0</ele>
        <time>2020-01-13T08:53:18Z</time>
      </trkpt>
      <trkpt lat="59.31994" lon="18.07038">
        <ele>0</ele>
        <time>2020-01-13T08:53:27Z</time>
      </trkpt>
      <trkpt lat="59.319906" lon="18.070387">
        <ele>15</ele>
        <time>2020-01-13T08:53:28Z</time>
      </trkpt>
      <trkpt lat="59.319867" lon="18.070399">
        <ele>15</ele>
        <time>2020-01-13T08:53:30Z</time>
      </trkpt>
      <trkpt lat="59.319826" lon="18.070417">
        <ele>15</ele>
        <time>2020-01-13T08:53:31Z</time>
      </trkpt>
      <trkpt lat="59.319774" lon="18.070448">
        <ele>16</ele>
        <time>2020-01-13T08:53:32Z</time>
      </trkpt>
      <trkpt lat="59.31972" lon="18.070478">
        <ele>0</ele>
        <time>2020-01-13T08:53:32Z</time>
      </trkpt>
      <trkpt lat="59.319668" lon="18.070508">
        <ele>16</ele>
        <time>2020-01-13T08:53:33Z</time>
      </trkpt>
      <trkpt lat="59.319613" lon="18.07054">
        <ele>16</ele>
        <time>2020-01-13T08:53:35Z</time>
      </trkpt>
      <trkpt lat="59.319565" lon="18.070566">
        <ele>16</ele>
        <time>2020-01-13T08:53:36Z</time>
      </trkpt>
      <trkpt lat="59.319522" lon="18.070587">
        <ele>17</ele>
        <time>2020-01-13T08:53:37Z</time>
      </trkpt>
      <trkpt lat="59.319486" lon="18.070603">
        <ele>17</ele>
        <time>2020-01-13T08:53:38Z</time>
      </trkpt>
      <trkpt lat="59.319461" lon="18.070604">
        <ele>17</ele>
        <time>2020-01-13T08:53:39Z</time>
      </trkpt>
      <trkpt lat="59.319438" lon="18.070608">
        <ele>17</ele>
        <time>2020-01-13T08:53:40Z</time>
      </trkpt>
      <trkpt lat="59.319411" lon="18.070612">
        <ele>18</ele>
        <time>2020-01-13T08:53:41Z</time>
      </trkpt>
      <trkpt lat="59.319389" lon="18.070619">
        <ele>18</ele>
        <time>2020-01-13T08:53:42Z</time>
      </trkpt>
      <trkpt lat="59.319362" lon="18.070633">
        <ele>19</ele>
        <time>2020-01-13T08:53:43Z</time>
      </trkpt>
      <trkpt lat="59.319329" lon="18.070659">
        <ele>19</ele>
        <time>2020-01-13T08:53:44Z</time>
      </trkpt>
      <trkpt lat="59.319292" lon="18.070688">
        <ele>19</ele>
        <time>2020-01-13T08:53:45Z</time>
      </trkpt>
      <trkpt lat="59.319254" lon="18.07071">
        <ele>0</ele>
        <time>2020-01-13T08:53:45Z</time>
      </trkpt>
      <trkpt lat="59.31922" lon="18.070728">
        <ele>19</ele>
        <time>2020-01-13T08:53:46Z</time>
      </trkpt>
      <trkpt lat="59.319187" lon="18.070745">
        <ele>20</ele>
        <time>2020-01-13T08:53:47Z</time>
      </trkpt>
      <trkpt lat="59.319154" lon="18.070764">
        <ele>20</ele>
        <time>2020-01-13T08:53:49Z</time>
      </trkpt>
      <trkpt lat="59.319129" lon="18.070779">
        <ele>20</ele>
        <time>2020-01-13T08:53:50Z</time>
      </trkpt>
      <trkpt lat="59.319098" lon="18.070799">
        <ele>21</ele>
        <time>2020-01-13T08:53:51Z</time>
      </trkpt>
      <trkpt lat="59.319066" lon="18.070819">
        <ele>21</ele>
        <time>2020-01-13T08:53:52Z</time>
      </trkpt>
      <trkpt lat="59.319039" lon="18.070837">
        <ele>21</ele>
        <time>2020-01-13T08:53:53Z</time>
      </trkpt>
      <trkpt lat="59.319006" lon="18.070858">
        <ele>22</ele>
        <time>2020-01-13T08:53:55Z</time>
      </trkpt>
      <trkpt lat="59.318984" lon="18.070872">
        <ele>22</ele>
        <time>2020-01-13T08:53:56Z</time>
      </trkpt>
      <trkpt lat="59.318962" lon="18.070884">
        <ele>23</ele>
        <time>2020-01-13T08:53:57Z</time>
      </trkpt>
      <trkpt lat="59.318932" lon="18.070907">
        <ele>23</ele>
        <time>2020-01-13T08:53:58Z</time>
      </trkpt>
      <trkpt lat="59.318906" lon="18.07092">
        <ele>0</ele>
        <time>2020-01-13T08:53:58Z</time>
      </trkpt>
      <trkpt lat="59.31888" lon="18.070929">
        <ele>23</ele>
        <time>2020-01-13T08:53:59Z</time>
      </trkpt>
      <trkpt lat="59.318844" lon="18.070947">
        <ele>24</ele>
        <time>2020-01-13T08:54:02Z</time>
      </trkpt>
      <trkpt lat="59.318825" lon="18.070957">
        <ele>24</ele>
        <time>2020-01-13T08:54:03Z</time>
      </trkpt>
      <trkpt lat="59.318807" lon="18.070969">
        <ele>24</ele>
        <time>2020-01-13T08:54:04Z</time>
      </trkpt>
      <trkpt lat="59.318767" lon="18.070987">
        <ele>0</ele>
        <time>2020-01-13T08:54:05Z</time>
      </trkpt>
      <trkpt lat="59.318742" lon="18.071003">
        <ele>25</ele>
        <time>2020-01-13T08:54:06Z</time>
      </trkpt>
      <trkpt lat="59.318717" lon="18.071019">
        <ele>25</ele>
        <time>2020-01-13T08:54:07Z</time>
      </trkpt>
      <trkpt lat="59.318673" lon="18.071033">
        <ele>23</ele>
        <time>2020-01-13T08:54:09Z</time>
      </trkpt>
      <trkpt lat="59.318635" lon="18.071049">
        <ele>23</ele>
        <time>2020-01-13T08:54:10Z</time>
      </trkpt>
      <trkpt lat="59.318599" lon="18.071065">
        <ele>23</ele>
        <time>2020-01-13T08:54:11Z</time>
      </trkpt>
      <trkpt lat="59.318572" lon="18.071082">
        <ele>23</ele>
        <time>2020-01-13T08:54:12Z</time>
      </trkpt>
      <trkpt lat="59.318544" lon="18.071112">
        <ele>23</ele>
        <time>2020-01-13T08:54:13Z</time>
      </trkpt>
      <trkpt lat="59.318519" lon="18.071133">
        <ele>24</ele>
        <time>2020-01-13T08:54:14Z</time>
      </trkpt>
      <trkpt lat="59.318491" lon="18.071151">
        <ele>24</ele>
        <time>2020-01-13T08:54:15Z</time>
      </trkpt>
      <trkpt lat="59.318464" lon="18.071163">
        <ele>24</ele>
        <time>2020-01-13T08:54:16Z</time>
      </trkpt>
      <trkpt lat="59.318436" lon="18.071175">
        <ele>25</ele>
        <time>2020-01-13T08:54:17Z</time>
      </trkpt>
      <trkpt lat="59.318411" lon="18.07119">
        <ele>25</ele>
        <time>2020-01-13T08:54:18Z</time>
      </trkpt>
      <trkpt lat="59.318389" lon="18.071203">
        <ele>25</ele>
        <time>2020-01-13T08:54:19Z</time>
      </trkpt>
      <trkpt lat="59.318369" lon="18.071214">
        <ele>25</ele>
        <time>2020-01-13T08:54:20Z</time>
      </trkpt>
      <trkpt lat="59.31835" lon="18.071228">
        <ele>26</ele>
        <time>2020-01-13T08:54:21Z</time>
      </trkpt>
      <trkpt lat="59.318329" lon="18.071239">
        <ele>26</ele>
        <time>2020-01-13T08:54:22Z</time>
      </trkpt>
      <trkpt lat="59.318307" lon="18.071252">
        <ele>26</ele>
        <time>2020-01-13T08:54:23Z</time>
      </trkpt>
      <trkpt lat="59.318284" lon="18.071265">
        <ele>0</ele>
        <time>2020-01-13T08:54:23Z</time>
      </trkpt>
      <trkpt lat="59.318259" lon="18.071282">
        <ele>26</ele>
        <time>2020-01-13T08:54:24Z</time>
      </trkpt>
      <trkpt lat="59.318231" lon="18.071302">
        <ele>26</ele>
        <time>2020-01-13T08:54:25Z</time>
      </trkpt>
      <trkpt lat="59.318198" lon="18.071319">
        <ele>27</ele>
        <time>2020-01-13T08:54:27Z</time>
      </trkpt>
      <trkpt lat="59.318162" lon="18.071333">
        <ele>28</ele>
        <time>2020-01-13T08:54:28Z</time>
      </trkpt>
      <trkpt lat="59.31808" lon="18.071365">
        <ele>28</ele>
        <time>2020-01-13T08:54:30Z</time>
      </trkpt>
      <trkpt lat="59.318039" lon="18.0714">
        <ele>28</ele>
        <time>2020-01-13T08:54:31Z</time>
      </trkpt>
      <trkpt lat="59.317993" lon="18.071436">
        <ele>28</ele>
        <time>2020-01-13T08:54:32Z</time>
      </trkpt>
      <trkpt lat="59.317943" lon="18.071476">
        <ele>28</ele>
        <time>2020-01-13T08:54:33Z</time>
      </trkpt>
      <trkpt lat="59.317895" lon="18.071512">
        <ele>28</ele>
        <time>2020-01-13T08:54:34Z</time>
      </trkpt>
      <trkpt lat="59.317846" lon="18.071546">
        <ele>28</ele>
        <time>2020-01-13T08:54:35Z</time>
      </trkpt>
      <trkpt lat="59.317799" lon="18.071577">
        <ele>0</ele>
        <time>2020-01-13T08:54:35Z</time>
      </trkpt>
      <trkpt lat="59.317751" lon="18.071603">
        <ele>29</ele>
        <time>2020-01-13T08:54:36Z</time>
      </trkpt>
      <trkpt lat="59.317697" lon="18.071627">
        <ele>28</ele>
        <time>2020-01-13T08:54:38Z</time>
      </trkpt>
      <trkpt lat="59.317637" lon="18.071657">
        <ele>29</ele>
        <time>2020-01-13T08:54:39Z</time>
      </trkpt>
      <trkpt lat="59.31758" lon="18.071692">
        <ele>29</ele>
        <time>2020-01-13T08:54:40Z</time>
      </trkpt>
      <trkpt lat="59.31755" lon="18.071702">
        <ele>29</ele>
        <time>2020-01-13T08:54:41Z</time>
      </trkpt>
      <trkpt lat="59.317513" lon="18.071719">
        <ele>29</ele>
        <time>2020-01-13T08:54:42Z</time>
      </trkpt>
      <trkpt lat="59.317477" lon="18.071739">
        <ele>30</ele>
        <time>2020-01-13T08:54:43Z</time>
      </trkpt>
      <trkpt lat="59.317404" lon="18.071787">
        <ele>0</ele>
        <time>2020-01-13T08:54:43Z</time>
      </trkpt>
      <trkpt lat="59.31736" lon="18.071799">
        <ele>31</ele>
        <time>2020-01-13T08:54:44Z</time>
      </trkpt>
      <trkpt lat="59.317324" lon="18.071809">
        <ele>0</ele>
        <time>2020-01-13T08:54:45Z</time>
      </trkpt>
      <trkpt lat="59.317282" lon="18.071811">
        <ele>33</ele>
        <time>2020-01-13T08:54:46Z</time>
      </trkpt>
      <trkpt lat="59.317257" lon="18.071806">
        <ele>34</ele>
        <time>2020-01-13T08:54:48Z</time>
      </trkpt>
      <trkpt lat="59.317128" lon="18.071855">
        <ele>34</ele>
        <time>2020-01-13T08:54:51Z</time>
      </trkpt>
      <trkpt lat="59.31708" lon="18.071873">
        <ele>34</ele>
        <time>2020-01-13T08:54:52Z</time>
      </trkpt>
      <trkpt lat="59.316982" lon="18.071917">
        <ele>34</ele>
        <time>2020-01-13T08:54:54Z</time>
      </trkpt>
      <trkpt lat="59.31693" lon="18.071937">
        <ele>35</ele>
        <time>2020-01-13T08:54:55Z</time>
      </trkpt>
      <trkpt lat="59.316884" lon="18.071966">
        <ele>35</ele>
        <time>2020-01-13T08:54:56Z</time>
      </trkpt>
      <trkpt lat="59.316838" lon="18.071993">
        <ele>0</ele>
        <time>2020-01-13T08:54:56Z</time>
      </trkpt>
      <trkpt lat="59.316782" lon="18.072031">
        <ele>36</ele>
        <time>2020-01-13T08:54:57Z</time>
      </trkpt>
      <trkpt lat="59.316721" lon="18.072077">
        <ele>38</ele>
        <time>2020-01-13T08:54:59Z</time>
      </trkpt>
      <trkpt lat="59.316667" lon="18.072113">
        <ele>38</ele>
        <time>2020-01-13T08:55:00Z</time>
      </trkpt>
      <trkpt lat="59.316615" lon="18.072141">
        <ele>38</ele>
        <time>2020-01-13T08:55:01Z</time>
      </trkpt>
      <trkpt lat="59.316572" lon="18.072164">
        <ele>39</ele>
        <time>2020-01-13T08:55:02Z</time>
      </trkpt>
      <trkpt lat="59.316531" lon="18.072182">
        <ele>0</ele>
        <time>2020-01-13T08:55:02Z</time>
      </trkpt>
      <trkpt lat="59.316485" lon="18.072205">
        <ele>39</ele>
        <time>2020-01-13T08:55:03Z</time>
      </trkpt>
      <trkpt lat="59.316435" lon="18.072231">
        <ele>39</ele>
        <time>2020-01-13T08:55:05Z</time>
      </trkpt>
      <trkpt lat="59.31639" lon="18.072258">
        <ele>39</ele>
        <time>2020-01-13T08:55:06Z</time>
      </trkpt>
      <trkpt lat="59.316344" lon="18.072285">
        <ele>0</ele>
        <time>2020-01-13T08:55:06Z</time>
      </trkpt>
      <trkpt lat="59.316293" lon="18.072315">
        <ele>39</ele>
        <time>2020-01-13T08:55:07Z</time>
      </trkpt>
      <trkpt lat="59.316246" lon="18.072342">
        <ele>40</ele>
        <time>2020-01-13T08:55:09Z</time>
      </trkpt>
      <trkpt lat="59.316199" lon="18.072367">
        <ele>40</ele>
        <time>2020-01-13T08:55:10Z</time>
      </trkpt>
      <trkpt lat="59.316153" lon="18.072388">
        <ele>40</ele>
        <time>2020-01-13T08:55:11Z</time>
      </trkpt>
      <trkpt lat="59.316109" lon="18.072407">
        <ele>40</ele>
        <time>2020-01-13T08:55:12Z</time>
      </trkpt>
      <trkpt lat="59.316066" lon="18.072424">
        <ele>40</ele>
        <time>2020-01-13T08:55:13Z</time>
      </trkpt>
      <trkpt lat="59.316032" lon="18.07244">
        <ele>40</ele>
        <time>2020-01-13T08:55:14Z</time>
      </trkpt>
      <trkpt lat="59.316008" lon="18.072454">
        <ele>40</ele>
        <time>2020-01-13T08:55:15Z</time>
      </trkpt>
      <trkpt lat="59.31598" lon="18.072469">
        <ele>40</ele>
        <time>2020-01-13T08:55:16Z</time>
      </trkpt>
      <trkpt lat="59.315954" lon="18.072484">
        <ele>41</ele>
        <time>2020-01-13T08:55:17Z</time>
      </trkpt>
      <trkpt lat="59.315915" lon="18.072502">
        <ele>41</ele>
        <time>2020-01-13T08:55:19Z</time>
      </trkpt>
      <trkpt lat="59.315895" lon="18.07251">
        <ele>41</ele>
        <time>2020-01-13T08:55:20Z</time>
      </trkpt>
      <trkpt lat="59.31587" lon="18.072518">
        <ele>0</ele>
        <time>2020-01-13T08:55:21Z</time>
      </trkpt>
      <trkpt lat="59.31583" lon="18.072544">
        <ele>41</ele>
        <time>2020-01-13T08:55:26Z</time>
      </trkpt>
      <trkpt lat="59.315789" lon="18.072563">
        <ele>40</ele>
        <time>2020-01-13T08:55:28Z</time>
      </trkpt>
      <trkpt lat="59.315746" lon="18.072582">
        <ele>39</ele>
        <time>2020-01-13T08:55:29Z</time>
      </trkpt>
      <trkpt lat="59.315698" lon="18.0726">
        <ele>39</ele>
        <time>2020-01-13T08:55:30Z</time>
      </trkpt>
      <trkpt lat="59.315656" lon="18.072621">
        <ele>39</ele>
        <time>2020-01-13T08:55:31Z</time>
      </trkpt>
      <trkpt lat="59.315603" lon="18.072647">
        <ele>38</ele>
        <time>2020-01-13T08:55:32Z</time>
      </trkpt>
      <trkpt lat="59.315525" lon="18.07268">
        <ele>37</ele>
        <time>2020-01-13T08:55:33Z</time>
      </trkpt>
      <trkpt lat="59.315455" lon="18.072713">
        <ele>36</ele>
        <time>2020-01-13T08:55:34Z</time>
      </trkpt>
      <trkpt lat="59.315397" lon="18.072747">
        <ele>0</ele>
        <time>2020-01-13T08:55:34Z</time>
      </trkpt>
      <trkpt lat="59.315336" lon="18.072777">
        <ele>36</ele>
        <time>2020-01-13T08:55:35Z</time>
      </trkpt>
      <trkpt lat="59.315274" lon="18.072808">
        <ele>35</ele>
        <time>2020-01-13T08:55:37Z</time>
      </trkpt>
      <trkpt lat="59.31521" lon="18.072836">
        <ele>34</ele>
        <time>2020-01-13T08:55:38Z</time>
      </trkpt>
      <trkpt lat="59.315145" lon="18.072865">
        <ele>34</ele>
        <time>2020-01-13T08:55:39Z</time>
      </trkpt>
      <trkpt lat="59.31508" lon="18.072895">
        <ele>33</ele>
        <time>2020-01-13T08:55:40Z</time>
      </trkpt>
      <trkpt lat="59.315015" lon="18.072926">
        <ele>0</ele>
        <time>2020-01-13T08:55:40Z</time>
      </trkpt>
      <trkpt lat="59.314953" lon="18.072957">
        <ele>33</ele>
        <time>2020-01-13T08:55:41Z</time>
      </trkpt>
      <trkpt lat="59.314895" lon="18.072991">
        <ele>0</ele>
        <time>2020-01-13T08:55:42Z</time>
      </trkpt>
      <trkpt lat="59.31484" lon="18.073027">
        <ele>33</ele>
        <time>2020-01-13T08:55:43Z</time>
      </trkpt>
      <trkpt lat="59.314786" lon="18.07306">
        <ele>33</ele>
        <time>2020-01-13T08:55:45Z</time>
      </trkpt>
      <trkpt lat="59.314736" lon="18.073089">
        <ele>33</ele>
        <time>2020-01-13T08:55:46Z</time>
      </trkpt>
      <trkpt lat="59.314689" lon="18.073111">
        <ele>33</ele>
        <time>2020-01-13T08:55:47Z</time>
      </trkpt>
      <trkpt lat="59.314637" lon="18.073125">
        <ele>33</ele>
        <time>2020-01-13T08:55:48Z</time>
      </trkpt>
      <trkpt lat="59.31459" lon="18.073141">
        <ele>33</ele>
        <time>2020-01-13T08:55:49Z</time>
      </trkpt>
      <trkpt lat="59.314543" lon="18.073157">
        <ele>33</ele>
        <time>2020-01-13T08:55:50Z</time>
      </trkpt>
      <trkpt lat="59.314498" lon="18.073175">
        <ele>32</ele>
        <time>2020-01-13T08:55:51Z</time>
      </trkpt>
      <trkpt lat="59.31446" lon="18.073194">
        <ele>33</ele>
        <time>2020-01-13T08:55:52Z</time>
      </trkpt>
      <trkpt lat="59.314432" lon="18.073209">
        <ele>0</ele>
        <time>2020-01-13T08:55:52Z</time>
      </trkpt>
      <trkpt lat="59.314397" lon="18.073231">
        <ele>33</ele>
        <time>2020-01-13T08:55:54Z</time>
      </trkpt>
      <trkpt lat="59.314379" lon="18.073243">
        <ele>33</ele>
        <time>2020-01-13T08:55:57Z</time>
      </trkpt>
      <trkpt lat="59.314379" lon="18.073242">
        <ele>32</ele>
        <time>2020-01-13T08:56:02Z</time>
      </trkpt>
      <trkpt lat="59.314351" lon="18.073232">
        <ele>35</ele>
        <time>2020-01-13T08:56:39Z</time>
      </trkpt>
      <trkpt lat="59.314339" lon="18.07325">
        <ele>34</ele>
        <time>2020-01-13T08:56:42Z</time>
      </trkpt>
      <trkpt lat="59.314324" lon="18.073222">
        <ele>35</ele>
        <time>2020-01-13T08:56:45Z</time>
      </trkpt>
      <trkpt lat="59.314284" lon="18.073238">
        <ele>35</ele>
        <time>2020-01-13T08:56:46Z</time>
      </trkpt>
      <trkpt lat="59.31422" lon="18.073267">
        <ele>36</ele>
        <time>2020-01-13T08:56:47Z</time>
      </trkpt>
      <trkpt lat="59.31417" lon="18.073286">
        <ele>36</ele>
        <time>2020-01-13T08:56:48Z</time>
      </trkpt>
      <trkpt lat="59.314128" lon="18.073303">
        <ele>36</ele>
        <time>2020-01-13T08:56:49Z</time>
      </trkpt>
      <trkpt lat="59.314089" lon="18.073322">
        <ele>36</ele>
        <time>2020-01-13T08:56:50Z</time>
      </trkpt>
      <trkpt lat="59.314057" lon="18.07334">
        <ele>36</ele>
        <time>2020-01-13T08:56:51Z</time>
      </trkpt>
      <trkpt lat="59.314027" lon="18.073358">
        <ele>36</ele>
        <time>2020-01-13T08:56:52Z</time>
      </trkpt>
      <trkpt lat="59.313994" lon="18.073379">
        <ele>36</ele>
        <time>2020-01-13T08:56:53Z</time>
      </trkpt>
      <trkpt lat="59.313957" lon="18.073402">
        <ele>36</ele>
        <time>2020-01-13T08:56:54Z</time>
      </trkpt>
      <trkpt lat="59.313923" lon="18.073417">
        <ele>0</ele>
        <time>2020-01-13T08:56:54Z</time>
      </trkpt>
      <trkpt lat="59.31389" lon="18.073432">
        <ele>36</ele>
        <time>2020-01-13T08:56:55Z</time>
      </trkpt>
      <trkpt lat="59.313859" lon="18.073448">
        <ele>36</ele>
        <time>2020-01-13T08:56:57Z</time>
      </trkpt>
      <trkpt lat="59.313829" lon="18.073464">
        <ele>0</ele>
        <time>2020-01-13T08:56:57Z</time>
      </trkpt>
      <trkpt lat="59.313793" lon="18.073484">
        <ele>36</ele>
        <time>2020-01-13T08:56:58Z</time>
      </trkpt>
      <trkpt lat="59.313722" lon="18.07352">
        <ele>36</ele>
        <time>2020-01-13T08:57:01Z</time>
      </trkpt>
      <trkpt lat="59.313681" lon="18.073536">
        <ele>36</ele>
        <time>2020-01-13T08:57:02Z</time>
      </trkpt>
      <trkpt lat="59.313649" lon="18.073552">
        <ele>36</ele>
        <time>2020-01-13T08:57:03Z</time>
      </trkpt>
      <trkpt lat="59.313558" lon="18.073615">
        <ele>36</ele>
        <time>2020-01-13T08:57:06Z</time>
      </trkpt>
      <trkpt lat="59.313466" lon="18.073652">
        <ele>0</ele>
        <time>2020-01-13T08:57:08Z</time>
      </trkpt>
      <trkpt lat="59.313414" lon="18.073688">
        <ele>35</ele>
        <time>2020-01-13T08:57:09Z</time>
      </trkpt>
      <trkpt lat="59.313341" lon="18.073752">
        <ele>33</ele>
        <time>2020-01-13T08:57:11Z</time>
      </trkpt>
      <trkpt lat="59.313296" lon="18.07379">
        <ele>33</ele>
        <time>2020-01-13T08:57:12Z</time>
      </trkpt>
      <trkpt lat="59.313263" lon="18.073822">
        <ele>32</ele>
        <time>2020-01-13T08:57:13Z</time>
      </trkpt>
      <trkpt lat="59.313236" lon="18.073846">
        <ele>32</ele>
        <time>2020-01-13T08:57:14Z</time>
      </trkpt>
      <trkpt lat="59.313218" lon="18.073865">
        <ele>32</ele>
        <time>2020-01-13T08:57:15Z</time>
      </trkpt>
      <trkpt lat="59.313196" lon="18.073875">
        <ele>0</ele>
        <time>2020-01-13T08:57:16Z</time>
      </trkpt>
      <trkpt lat="59.313179" lon="18.073889">
        <ele>32</ele>
        <time>2020-01-13T08:57:19Z</time>
      </trkpt>
      <trkpt lat="59.313162" lon="18.073903">
        <ele>33</ele>
        <time>2020-01-13T08:57:23Z</time>
      </trkpt>
      <trkpt lat="59.313152" lon="18.07389">
        <ele>0</ele>
        <time>2020-01-13T08:57:28Z</time>
      </trkpt>
      <trkpt lat="59.3131" lon="18.073859">
        <ele>33</ele>
        <time>2020-01-13T08:57:33Z</time>
      </trkpt>
      <trkpt lat="59.313072" lon="18.073852">
        <ele>34</ele>
        <time>2020-01-13T08:57:35Z</time>
      </trkpt>
      <trkpt lat="59.313025" lon="18.073846">
        <ele>35</ele>
        <time>2020-01-13T08:57:36Z</time>
      </trkpt>
      <trkpt lat="59.312966" lon="18.073847">
        <ele>35</ele>
        <time>2020-01-13T08:57:37Z</time>
      </trkpt>
      <trkpt lat="59.312905" lon="18.073856">
        <ele>0</ele>
        <time>2020-01-13T08:57:37Z</time>
      </trkpt>
      <trkpt lat="59.312848" lon="18.073877">
        <ele>36</ele>
        <time>2020-01-13T08:57:38Z</time>
      </trkpt>
      <trkpt lat="59.312792" lon="18.073901">
        <ele>37</ele>
        <time>2020-01-13T08:57:40Z</time>
      </trkpt>
      <trkpt lat="59.31274" lon="18.073915">
        <ele>38</ele>
        <time>2020-01-13T08:57:41Z</time>
      </trkpt>
      <trkpt lat="59.312611" lon="18.073991">
        <ele>38</ele>
        <time>2020-01-13T08:57:43Z</time>
      </trkpt>
      <trkpt lat="59.312429" lon="18.074113">
        <ele>0</ele>
        <time>2020-01-13T08:57:44Z</time>
      </trkpt>
      <trkpt lat="59.31234" lon="18.074172">
        <ele>38</ele>
        <time>2020-01-13T08:57:45Z</time>
      </trkpt>
      <trkpt lat="59.312245" lon="18.074208">
        <ele>39</ele>
        <time>2020-01-13T08:57:47Z</time>
      </trkpt>
      <trkpt lat="59.312108" lon="18.074219">
        <ele>40</ele>
        <time>2020-01-13T08:57:49Z</time>
      </trkpt>
      <trkpt lat="59.311965" lon="18.074303">
        <ele>0</ele>
        <time>2020-01-13T08:57:51Z</time>
      </trkpt>
      <trkpt lat="59.3119" lon="18.074342">
        <ele>41</ele>
        <time>2020-01-13T08:57:52Z</time>
      </trkpt>
      <trkpt lat="59.311825" lon="18.074391">
        <ele>42</ele>
        <time>2020-01-13T08:57:54Z</time>
      </trkpt>
      <trkpt lat="59.31175" lon="18.074424">
        <ele>41</ele>
        <time>2020-01-13T08:57:55Z</time>
      </trkpt>
      <trkpt lat="59.311686" lon="18.074452">
        <ele>41</ele>
        <time>2020-01-13T08:57:56Z</time>
      </trkpt>
      <trkpt lat="59.311627" lon="18.07447">
        <ele>41</ele>
        <time>2020-01-13T08:57:57Z</time>
      </trkpt>
      <trkpt lat="59.311569" lon="18.074497">
        <ele>41</ele>
        <time>2020-01-13T08:57:58Z</time>
      </trkpt>
      <trkpt lat="59.311507" lon="18.074534">
        <ele>0</ele>
        <time>2020-01-13T08:57:58Z</time>
      </trkpt>
      <trkpt lat="59.311436" lon="18.074569">
        <ele>41</ele>
        <time>2020-01-13T08:57:59Z</time>
      </trkpt>
      <trkpt lat="59.311367" lon="18.074602">
        <ele>41</ele>
        <time>2020-01-13T08:58:01Z</time>
      </trkpt>
      <trkpt lat="59.311304" lon="18.074632">
        <ele>41</ele>
        <time>2020-01-13T08:58:02Z</time>
      </trkpt>
      <trkpt lat="59.311247" lon="18.074658">
        <ele>41</ele>
        <time>2020-01-13T08:58:03Z</time>
      </trkpt>
      <trkpt lat="59.311192" lon="18.074689">
        <ele>41</ele>
        <time>2020-01-13T08:58:04Z</time>
      </trkpt>
      <trkpt lat="59.311119" lon="18.074731">
        <ele>42</ele>
        <time>2020-01-13T08:58:06Z</time>
      </trkpt>
      <trkpt lat="59.31109" lon="18.074746">
        <ele>43</ele>
        <time>2020-01-13T08:58:07Z</time>
      </trkpt>
      <trkpt lat="59.31107" lon="18.074755">
        <ele>43</ele>
        <time>2020-01-13T08:58:08Z</time>
      </trkpt>
      <trkpt lat="59.311047" lon="18.074772">
        <ele>43</ele>
        <time>2020-01-13T08:58:09Z</time>
      </trkpt>
      <trkpt lat="59.310941" lon="18.07486">
        <ele>43</ele>
        <time>2020-01-13T08:58:11Z</time>
      </trkpt>
      <trkpt lat="59.310896" lon="18.074899">
        <ele>42</ele>
        <time>2020-01-13T08:58:13Z</time>
      </trkpt>
      <trkpt lat="59.310867" lon="18.074925">
        <ele>42</ele>
        <time>2020-01-13T08:58:14Z</time>
      </trkpt>
      <trkpt lat="59.310848" lon="18.074929">
        <ele>42</ele>
        <time>2020-01-13T08:58:15Z</time>
      </trkpt>
      <trkpt lat="59.310825" lon="18.074944">
        <ele>42</ele>
        <time>2020-01-13T08:58:19Z</time>
      </trkpt>
      <trkpt lat="59.310799" lon="18.074959">
        <ele>43</ele>
        <time>2020-01-13T08:58:21Z</time>
      </trkpt>
      <trkpt lat="59.31078" lon="18.074969">
        <ele>43</ele>
        <time>2020-01-13T08:58:24Z</time>
      </trkpt>
      <trkpt lat="59.310758" lon="18.074967">
        <ele>44</ele>
        <time>2020-01-13T08:58:28Z</time>
      </trkpt>
      <trkpt lat="59.31075" lon="18.075001">
        <ele>43</ele>
        <time>2020-01-13T08:58:30Z</time>
      </trkpt>
      <trkpt lat="59.310715" lon="18.074993">
        <ele>42</ele>
        <time>2020-01-13T08:58:33Z</time>
      </trkpt>
      <trkpt lat="59.310683" lon="18.075002">
        <ele>42</ele>
        <time>2020-01-13T08:58:34Z</time>
      </trkpt>
      <trkpt lat="59.310641" lon="18.075021">
        <ele>43</ele>
        <time>2020-01-13T08:58:35Z</time>
      </trkpt>
      <trkpt lat="59.310592" lon="18.075043">
        <ele>43</ele>
        <time>2020-01-13T08:58:36Z</time>
      </trkpt>
      <trkpt lat="59.310541" lon="18.075068">
        <ele>0</ele>
        <time>2020-01-13T08:58:36Z</time>
      </trkpt>
      <trkpt lat="59.31049" lon="18.075088">
        <ele>43</ele>
        <time>2020-01-13T08:58:37Z</time>
      </trkpt>
      <trkpt lat="59.310444" lon="18.075111">
        <ele>43</ele>
        <time>2020-01-13T08:58:39Z</time>
      </trkpt>
      <trkpt lat="59.310406" lon="18.075131">
        <ele>43</ele>
        <time>2020-01-13T08:58:40Z</time>
      </trkpt>
      <trkpt lat="59.310364" lon="18.075154">
        <ele>42</ele>
        <time>2020-01-13T08:58:41Z</time>
      </trkpt>
      <trkpt lat="59.310318" lon="18.075177">
        <ele>42</ele>
        <time>2020-01-13T08:58:42Z</time>
      </trkpt>
      <trkpt lat="59.310273" lon="18.075199">
        <ele>42</ele>
        <time>2020-01-13T08:58:43Z</time>
      </trkpt>
      <trkpt lat="59.310229" lon="18.075231">
        <ele>42</ele>
        <time>2020-01-13T08:58:44Z</time>
      </trkpt>
      <trkpt lat="59.310189" lon="18.075258">
        <ele>42</ele>
        <time>2020-01-13T08:58:45Z</time>
      </trkpt>
      <trkpt lat="59.31014" lon="18.075291">
        <ele>41</ele>
        <time>2020-01-13T08:58:46Z</time>
      </trkpt>
      <trkpt lat="59.31007" lon="18.075344">
        <ele>0</ele>
        <time>2020-01-13T08:58:46Z</time>
      </trkpt>
      <trkpt lat="59.309998" lon="18.075385">
        <ele>41</ele>
        <time>2020-01-13T08:58:47Z</time>
      </trkpt>
      <trkpt lat="59.309935" lon="18.075411">
        <ele>0</ele>
        <time>2020-01-13T08:58:48Z</time>
      </trkpt>
      <trkpt lat="59.309871" lon="18.075433">
        <ele>40</ele>
        <time>2020-01-13T08:58:49Z</time>
      </trkpt>
      <trkpt lat="59.309805" lon="18.075464">
        <ele>39</ele>
        <time>2020-01-13T08:58:51Z</time>
      </trkpt>
      <trkpt lat="59.309666" lon="18.075513">
        <ele>39</ele>
        <time>2020-01-13T08:58:53Z</time>
      </trkpt>
      <trkpt lat="59.309599" lon="18.075528">
        <ele>40</ele>
        <time>2020-01-13T08:58:54Z</time>
      </trkpt>
      <trkpt lat="59.309539" lon="18.075553">
        <ele>0</ele>
        <time>2020-01-13T08:58:54Z</time>
      </trkpt>
      <trkpt lat="59.309489" lon="18.075568">
        <ele>40</ele>
        <time>2020-01-13T08:58:55Z</time>
      </trkpt>
      <trkpt lat="59.309435" lon="18.075599">
        <ele>40</ele>
        <time>2020-01-13T08:58:57Z</time>
      </trkpt>
      <trkpt lat="59.309317" lon="18.075672">
        <ele>40</ele>
        <time>2020-01-13T08:58:59Z</time>
      </trkpt>
      <trkpt lat="59.309159" lon="18.07575">
        <ele>0</ele>
        <time>2020-01-13T08:59:00Z</time>
      </trkpt>
      <trkpt lat="59.30904" lon="18.075828">
        <ele>39</ele>
        <time>2020-01-13T08:59:01Z</time>
      </trkpt>
      <trkpt lat="59.308947" lon="18.075888">
        <ele>38</ele>
        <time>2020-01-13T08:59:03Z</time>
      </trkpt>
      <trkpt lat="59.308863" lon="18.075934">
        <ele>37</ele>
        <time>2020-01-13T08:59:04Z</time>
      </trkpt>
      <trkpt lat="59.308787" lon="18.075976">
        <ele>37</ele>
        <time>2020-01-13T08:59:05Z</time>
      </trkpt>
      <trkpt lat="59.308716" lon="18.076009">
        <ele>37</ele>
        <time>2020-01-13T08:59:06Z</time>
      </trkpt>
      <trkpt lat="59.308648" lon="18.076025">
        <ele>37</ele>
        <time>2020-01-13T08:59:07Z</time>
      </trkpt>
      <trkpt lat="59.308592" lon="18.076041">
        <ele>0</ele>
        <time>2020-01-13T08:59:07Z</time>
      </trkpt>
      <trkpt lat="59.308537" lon="18.076063">
        <ele>38</ele>
        <time>2020-01-13T08:59:08Z</time>
      </trkpt>
      <trkpt lat="59.308487" lon="18.076085">
        <ele>39</ele>
        <time>2020-01-13T08:59:10Z</time>
      </trkpt>
      <trkpt lat="59.30845" lon="18.07611">
        <ele>39</ele>
        <time>2020-01-13T08:59:11Z</time>
      </trkpt>
      <trkpt lat="59.30843" lon="18.076127">
        <ele>39</ele>
        <time>2020-01-13T08:59:12Z</time>
      </trkpt>
      <trkpt lat="59.30841" lon="18.076139">
        <ele>40</ele>
        <time>2020-01-13T08:59:13Z</time>
      </trkpt>
      <trkpt lat="59.308376" lon="18.07616">
        <ele>39</ele>
        <time>2020-01-13T08:59:14Z</time>
      </trkpt>
      <trkpt lat="59.308301" lon="18.076214">
        <ele>39</ele>
        <time>2020-01-13T08:59:15Z</time>
      </trkpt>
      <trkpt lat="59.308237" lon="18.076254">
        <ele>38</ele>
        <time>2020-01-13T08:59:16Z</time>
      </trkpt>
      <trkpt lat="59.308184" lon="18.07628">
        <ele>38</ele>
        <time>2020-01-13T08:59:17Z</time>
      </trkpt>
      <trkpt lat="59.308137" lon="18.076312">
        <ele>38</ele>
        <time>2020-01-13T08:59:18Z</time>
      </trkpt>
      <trkpt lat="59.308096" lon="18.076339">
        <ele>0</ele>
        <time>2020-01-13T08:59:18Z</time>
      </trkpt>
      <trkpt lat="59.308056" lon="18.076359">
        <ele>38</ele>
        <time>2020-01-13T08:59:19Z</time>
      </trkpt>
      <trkpt lat="59.308025" lon="18.076377">
        <ele>38</ele>
        <time>2020-01-13T08:59:21Z</time>
      </trkpt>
      <trkpt lat="59.308007" lon="18.076392">
        <ele>38</ele>
        <time>2020-01-13T08:59:22Z</time>
      </trkpt>
      <trkpt lat="59.307983" lon="18.07639">
        <ele>37</ele>
        <time>2020-01-13T08:59:27Z</time>
      </trkpt>
      <trkpt lat="59.307983" lon="18.076391">
        <ele>0</ele>
        <time>2020-01-13T08:59:33Z</time>
      </trkpt>
      <trkpt lat="59.307883" lon="18.076459">
        <ele>33</ele>
        <time>2020-01-13T08:59:54Z</time>
      </trkpt>
      <trkpt lat="59.307827" lon="18.076487">
        <ele>33</ele>
        <time>2020-01-13T08:59:56Z</time>
      </trkpt>
      <trkpt lat="59.307767" lon="18.076518">
        <ele>33</ele>
        <time>2020-01-13T08:59:57Z</time>
      </trkpt>
      <trkpt lat="59.307706" lon="18.07655">
        <ele>33</ele>
        <time>2020-01-13T08:59:58Z</time>
      </trkpt>
      <trkpt lat="59.307648" lon="18.076581">
        <ele>33</ele>
        <time>2020-01-13T08:59:59Z</time>
      </trkpt>
      <trkpt lat="59.307598" lon="18.076605">
        <ele>34</ele>
        <time>2020-01-13T09:00:00Z</time>
      </trkpt>
      <trkpt lat="59.307551" lon="18.076623">
        <ele>0</ele>
        <time>2020-01-13T09:00:00Z</time>
      </trkpt>
      <trkpt lat="59.307505" lon="18.076641">
        <ele>34</ele>
        <time>2020-01-13T09:00:01Z</time>
      </trkpt>
      <trkpt lat="59.307454" lon="18.076665">
        <ele>34</ele>
        <time>2020-01-13T09:00:03Z</time>
      </trkpt>
      <trkpt lat="59.307388" lon="18.076697">
        <ele>34</ele>
        <time>2020-01-13T09:00:04Z</time>
      </trkpt>
      <trkpt lat="59.307319" lon="18.076733">
        <ele>34</ele>
        <time>2020-01-13T09:00:05Z</time>
      </trkpt>
      <trkpt lat="59.307178" lon="18.076799">
        <ele>33</ele>
        <time>2020-01-13T09:00:07Z</time>
      </trkpt>
      <trkpt lat="59.307107" lon="18.076836">
        <ele>33</ele>
        <time>2020-01-13T09:00:08Z</time>
      </trkpt>
      <trkpt lat="59.306976" lon="18.076895">
        <ele>33</ele>
        <time>2020-01-13T09:00:09Z</time>
      </trkpt>
      <trkpt lat="59.306881" lon="18.076953">
        <ele>32</ele>
        <time>2020-01-13T09:00:11Z</time>
      </trkpt>
      <trkpt lat="59.306796" lon="18.077003">
        <ele>32</ele>
        <time>2020-01-13T09:00:12Z</time>
      </trkpt>
      <trkpt lat="59.306708" lon="18.077052">
        <ele>0</ele>
        <time>2020-01-13T09:00:12Z</time>
      </trkpt>
      <trkpt lat="59.306627" lon="18.077092">
        <ele>32</ele>
        <time>2020-01-13T09:00:13Z</time>
      </trkpt>
      <trkpt lat="59.306552" lon="18.077127">
        <ele>0</ele>
        <time>2020-01-13T09:00:14Z</time>
      </trkpt>
      <trkpt lat="59.306478" lon="18.077195">
        <ele>32</ele>
        <time>2020-01-13T09:00:15Z</time>
      </trkpt>
      <trkpt lat="59.306408" lon="18.077237">
        <ele>32</ele>
        <time>2020-01-13T09:00:17Z</time>
      </trkpt>
      <trkpt lat="59.306345" lon="18.077274">
        <ele>32</ele>
        <time>2020-01-13T09:00:18Z</time>
      </trkpt>
      <trkpt lat="59.306285" lon="18.07731">
        <ele>32</ele>
        <time>2020-01-13T09:00:19Z</time>
      </trkpt>
      <trkpt lat="59.306226" lon="18.077344">
        <ele>32</ele>
        <time>2020-01-13T09:00:20Z</time>
      </trkpt>
      <trkpt lat="59.306167" lon="18.07738">
        <ele>32</ele>
        <time>2020-01-13T09:00:21Z</time>
      </trkpt>
      <trkpt lat="59.306107" lon="18.077417">
        <ele>0</ele>
        <time>2020-01-13T09:00:21Z</time>
      </trkpt>
      <trkpt lat="59.306047" lon="18.077452">
        <ele>32</ele>
        <time>2020-01-13T09:00:22Z</time>
      </trkpt>
      <trkpt lat="59.305988" lon="18.077487">
        <ele>32</ele>
        <time>2020-01-13T09:00:24Z</time>
      </trkpt>
      <trkpt lat="59.305931" lon="18.077524">
        <ele>32</ele>
        <time>2020-01-13T09:00:25Z</time>
      </trkpt>
      <trkpt lat="59.305874" lon="18.07756">
        <ele>32</ele>
        <time>2020-01-13T09:00:26Z</time>
      </trkpt>
      <trkpt lat="59.305818" lon="18.077593">
        <ele>32</ele>
        <time>2020-01-13T09:00:27Z</time>
      </trkpt>
      <trkpt lat="59.305763" lon="18.077626">
        <ele>32</ele>
        <time>2020-01-13T09:00:28Z</time>
      </trkpt>
      <trkpt lat="59.305709" lon="18.077659">
        <ele>31</ele>
        <time>2020-01-13T09:00:29Z</time>
      </trkpt>
      <trkpt lat="59.305654" lon="18.077685">
        <ele>31</ele>
        <time>2020-01-13T09:00:30Z</time>
      </trkpt>
      <trkpt lat="59.3056" lon="18.07771">
        <ele>0</ele>
        <time>2020-01-13T09:00:30Z</time>
      </trkpt>
      <trkpt lat="59.305547" lon="18.077741">
        <ele>31</ele>
        <time>2020-01-13T09:00:31Z</time>
      </trkpt>
      <trkpt lat="59.305496" lon="18.077768">
        <ele>30</ele>
        <time>2020-01-13T09:00:32Z</time>
      </trkpt>
      <trkpt lat="59.305447" lon="18.077796">
        <ele>30</ele>
        <time>2020-01-13T09:00:34Z</time>
      </trkpt>
      <trkpt lat="59.305396" lon="18.077825">
        <ele>30</ele>
        <time>2020-01-13T09:00:35Z</time>
      </trkpt>
      <trkpt lat="59.305347" lon="18.077855">
        <ele>30</ele>
        <time>2020-01-13T09:00:36Z</time>
      </trkpt>
      <trkpt lat="59.305297" lon="18.077883">
        <ele>30</ele>
        <time>2020-01-13T09:00:37Z</time>
      </trkpt>
      <trkpt lat="59.305248" lon="18.07791">
        <ele>30</ele>
        <time>2020-01-13T09:00:38Z</time>
      </trkpt>
      <trkpt lat="59.305202" lon="18.077935">
        <ele>30</ele>
        <time>2020-01-13T09:00:39Z</time>
      </trkpt>
      <trkpt lat="59.305156" lon="18.07796">
        <ele>30</ele>
        <time>2020-01-13T09:00:40Z</time>
      </trkpt>
      <trkpt lat="59.305109" lon="18.077985">
        <ele>0</ele>
        <time>2020-01-13T09:00:40Z</time>
      </trkpt>
      <trkpt lat="59.305064" lon="18.078011">
        <ele>29</ele>
        <time>2020-01-13T09:00:41Z</time>
      </trkpt>
      <trkpt lat="59.305018" lon="18.078038">
        <ele>29</ele>
        <time>2020-01-13T09:00:43Z</time>
      </trkpt>
      <trkpt lat="59.304975" lon="18.078064">
        <ele>29</ele>
        <time>2020-01-13T09:00:44Z</time>
      </trkpt>
      <trkpt lat="59.304931" lon="18.078089">
        <ele>29</ele>
        <time>2020-01-13T09:00:45Z</time>
      </trkpt>
      <trkpt lat="59.304887" lon="18.078115">
        <ele>29</ele>
        <time>2020-01-13T09:00:46Z</time>
      </trkpt>
      <trkpt lat="59.304844" lon="18.078141">
        <ele>29</ele>
        <time>2020-01-13T09:00:47Z</time>
      </trkpt>
      <trkpt lat="59.304803" lon="18.078168">
        <ele>29</ele>
        <time>2020-01-13T09:00:48Z</time>
      </trkpt>
      <trkpt lat="59.304763" lon="18.078195">
        <ele>29</ele>
        <time>2020-01-13T09:00:49Z</time>
      </trkpt>
      <trkpt lat="59.304724" lon="18.078219">
        <ele>29</ele>
        <time>2020-01-13T09:00:50Z</time>
      </trkpt>
      <trkpt lat="59.304685" lon="18.07824">
        <ele>0</ele>
        <time>2020-01-13T09:00:50Z</time>
      </trkpt>
      <trkpt lat="59.304646" lon="18.078262">
        <ele>30</ele>
        <time>2020-01-13T09:00:51Z</time>
      </trkpt>
      <trkpt lat="59.304606" lon="18.078285">
        <ele>30</ele>
        <time>2020-01-13T09:00:52Z</time>
      </trkpt>
      <trkpt lat="59.304568" lon="18.078307">
        <ele>30</ele>
        <time>2020-01-13T09:00:54Z</time>
      </trkpt>
      <trkpt lat="59.304529" lon="18.078328">
        <ele>30</ele>
        <time>2020-01-13T09:00:55Z</time>
      </trkpt>
      <trkpt lat="59.30449" lon="18.078351">
        <ele>30</ele>
        <time>2020-01-13T09:00:56Z</time>
      </trkpt>
      <trkpt lat="59.304452" lon="18.078374">
        <ele>30</ele>
        <time>2020-01-13T09:00:57Z</time>
      </trkpt>
      <trkpt lat="59.304414" lon="18.078397">
        <ele>30</ele>
        <time>2020-01-13T09:00:58Z</time>
      </trkpt>
      <trkpt lat="59.304378" lon="18.078422">
        <ele>30</ele>
        <time>2020-01-13T09:00:59Z</time>
      </trkpt>
      <trkpt lat="59.304342" lon="18.078444">
        <ele>30</ele>
        <time>2020-01-13T09:01:00Z</time>
      </trkpt>
      <trkpt lat="59.304305" lon="18.078464">
        <ele>30</ele>
        <time>2020-01-13T09:01:01Z</time>
      </trkpt>
      <trkpt lat="59.304267" lon="18.078484">
        <ele>30</ele>
        <time>2020-01-13T09:01:02Z</time>
      </trkpt>
      <trkpt lat="59.304229" lon="18.078506">
        <ele>30</ele>
        <time>2020-01-13T09:01:03Z</time>
      </trkpt>
      <trkpt lat="59.304192" lon="18.07853">
        <ele>31</ele>
        <time>2020-01-13T09:01:04Z</time>
      </trkpt>
      <trkpt lat="59.304156" lon="18.078554">
        <ele>0</ele>
        <time>2020-01-13T09:01:04Z</time>
      </trkpt>
      <trkpt lat="59.304119" lon="18.078576">
        <ele>31</ele>
        <time>2020-01-13T09:01:05Z</time>
      </trkpt>
      <trkpt lat="59.304082" lon="18.078597">
        <ele>31</ele>
        <time>2020-01-13T09:01:07Z</time>
      </trkpt>
      <trkpt lat="59.304044" lon="18.07862">
        <ele>31</ele>
        <time>2020-01-13T09:01:08Z</time>
      </trkpt>
      <trkpt lat="59.304008" lon="18.078643">
        <ele>31</ele>
        <time>2020-01-13T09:01:09Z</time>
      </trkpt>
      <trkpt lat="59.303971" lon="18.078665">
        <ele>0</ele>
        <time>2020-01-13T09:01:09Z</time>
      </trkpt>
      <trkpt lat="59.303935" lon="18.078687">
        <ele>31</ele>
        <time>2020-01-13T09:01:10Z</time>
      </trkpt>
      <trkpt lat="59.303898" lon="18.07871">
        <ele>31</ele>
        <time>2020-01-13T09:01:12Z</time>
      </trkpt>
      <trkpt lat="59.303861" lon="18.078735">
        <ele>32</ele>
        <time>2020-01-13T09:01:13Z</time>
      </trkpt>
      <trkpt lat="59.303824" lon="18.078758">
        <ele>32</ele>
        <time>2020-01-13T09:01:14Z</time>
      </trkpt>
      <trkpt lat="59.303788" lon="18.078779">
        <ele>32</ele>
        <time>2020-01-13T09:01:15Z</time>
      </trkpt>
      <trkpt lat="59.303751" lon="18.0788">
        <ele>32</ele>
        <time>2020-01-13T09:01:16Z</time>
      </trkpt>
      <trkpt lat="59.303714" lon="18.07882">
        <ele>0</ele>
        <time>2020-01-13T09:01:16Z</time>
      </trkpt>
      <trkpt lat="59.303678" lon="18.078841">
        <ele>32</ele>
        <time>2020-01-13T09:01:17Z</time>
      </trkpt>
      <trkpt lat="59.303642" lon="18.078864">
        <ele>32</ele>
        <time>2020-01-13T09:01:19Z</time>
      </trkpt>
      <trkpt lat="59.303605" lon="18.078887">
        <ele>32</ele>
        <time>2020-01-13T09:01:20Z</time>
      </trkpt>
      <trkpt lat="59.303568" lon="18.07891">
        <ele>32</ele>
        <time>2020-01-13T09:01:21Z</time>
      </trkpt>
      <trkpt lat="59.303531" lon="18.078933">
        <ele>33</ele>
        <time>2020-01-13T09:01:22Z</time>
      </trkpt>
      <trkpt lat="59.303495" lon="18.078956">
        <ele>33</ele>
        <time>2020-01-13T09:01:23Z</time>
      </trkpt>
      <trkpt lat="59.303458" lon="18.078979">
        <ele>33</ele>
        <time>2020-01-13T09:01:24Z</time>
      </trkpt>
      <trkpt lat="59.303422" lon="18.079002">
        <ele>33</ele>
        <time>2020-01-13T09:01:25Z</time>
      </trkpt>
      <trkpt lat="59.303385" lon="18.079027">
        <ele>33</ele>
        <time>2020-01-13T09:01:26Z</time>
      </trkpt>
      <trkpt lat="59.303348" lon="18.079051">
        <ele>33</ele>
        <time>2020-01-13T09:01:27Z</time>
      </trkpt>
      <trkpt lat="59.303309" lon="18.079074">
        <ele>33</ele>
        <time>2020-01-13T09:01:28Z</time>
      </trkpt>
      <trkpt lat="59.303271" lon="18.079098">
        <ele>0</ele>
        <time>2020-01-13T09:01:28Z</time>
      </trkpt>
      <trkpt lat="59.303232" lon="18.079123">
        <ele>33</ele>
        <time>2020-01-13T09:01:29Z</time>
      </trkpt>
      <trkpt lat="59.303192" lon="18.079147">
        <ele>34</ele>
        <time>2020-01-13T09:01:30Z</time>
      </trkpt>
      <trkpt lat="59.303153" lon="18.079173">
        <ele>34</ele>
        <time>2020-01-13T09:01:32Z</time>
      </trkpt>
      <trkpt lat="59.303113" lon="18.079199">
        <ele>34</ele>
        <time>2020-01-13T09:01:33Z</time>
      </trkpt>
      <trkpt lat="59.303072" lon="18.079226">
        <ele>34</ele>
        <time>2020-01-13T09:01:34Z</time>
      </trkpt>
      <trkpt lat="59.303031" lon="18.079252">
        <ele>34</ele>
        <time>2020-01-13T09:01:35Z</time>
      </trkpt>
      <trkpt lat="59.302988" lon="18.079278">
        <ele>34</ele>
        <time>2020-01-13T09:01:36Z</time>
      </trkpt>
      <trkpt lat="59.302944" lon="18.079305">
        <ele>34</ele>
        <time>2020-01-13T09:01:37Z</time>
      </trkpt>
      <trkpt lat="59.302899" lon="18.079334">
        <ele>34</ele>
        <time>2020-01-13T09:01:38Z</time>
      </trkpt>
      <trkpt lat="59.302855" lon="18.079362">
        <ele>34</ele>
        <time>2020-01-13T09:01:39Z</time>
      </trkpt>
      <trkpt lat="59.302809" lon="18.079391">
        <ele>34</ele>
        <time>2020-01-13T09:01:40Z</time>
      </trkpt>
      <trkpt lat="59.302764" lon="18.079421">
        <ele>0</ele>
        <time>2020-01-13T09:01:40Z</time>
      </trkpt>
      <trkpt lat="59.302719" lon="18.079449">
        <ele>34</ele>
        <time>2020-01-13T09:01:41Z</time>
      </trkpt>
      <trkpt lat="59.302672" lon="18.079478">
        <ele>34</ele>
        <time>2020-01-13T09:01:43Z</time>
      </trkpt>
      <trkpt lat="59.302625" lon="18.079507">
        <ele>34</ele>
        <time>2020-01-13T09:01:44Z</time>
      </trkpt>
      <trkpt lat="59.302578" lon="18.079536">
        <ele>34</ele>
        <time>2020-01-13T09:01:45Z</time>
      </trkpt>
      <trkpt lat="59.302531" lon="18.079566">
        <ele>34</ele>
        <time>2020-01-13T09:01:46Z</time>
      </trkpt>
      <trkpt lat="59.302482" lon="18.079596">
        <ele>34</ele>
        <time>2020-01-13T09:01:47Z</time>
      </trkpt>
      <trkpt lat="59.302434" lon="18.079626">
        <ele>0</ele>
        <time>2020-01-13T09:01:47Z</time>
      </trkpt>
      <trkpt lat="59.302387" lon="18.079657">
        <ele>34</ele>
        <time>2020-01-13T09:01:48Z</time>
      </trkpt>
      <trkpt lat="59.30234" lon="18.079687">
        <ele>35</ele>
        <time>2020-01-13T09:01:50Z</time>
      </trkpt>
      <trkpt lat="59.302293" lon="18.079717">
        <ele>0</ele>
        <time>2020-01-13T09:01:50Z</time>
      </trkpt>
      <trkpt lat="59.302246" lon="18.079747">
        <ele>35</ele>
        <time>2020-01-13T09:01:51Z</time>
      </trkpt>
      <trkpt lat="59.302199" lon="18.079777">
        <ele>35</ele>
        <time>2020-01-13T09:01:53Z</time>
      </trkpt>
      <trkpt lat="59.302153" lon="18.079805">
        <ele>35</ele>
        <time>2020-01-13T09:01:54Z</time>
      </trkpt>
      <trkpt lat="59.302106" lon="18.079833">
        <ele>35</ele>
        <time>2020-01-13T09:01:55Z</time>
      </trkpt>
      <trkpt lat="59.302059" lon="18.079863">
        <ele>35</ele>
        <time>2020-01-13T09:01:56Z</time>
      </trkpt>
      <trkpt lat="59.302011" lon="18.079892">
        <ele>35</ele>
        <time>2020-01-13T09:01:57Z</time>
      </trkpt>
      <trkpt lat="59.301962" lon="18.07992">
        <ele>35</ele>
        <time>2020-01-13T09:01:58Z</time>
      </trkpt>
      <trkpt lat="59.301914" lon="18.079947">
        <ele>35</ele>
        <time>2020-01-13T09:01:59Z</time>
      </trkpt>
      <trkpt lat="59.301865" lon="18.079974">
        <ele>35</ele>
        <time>2020-01-13T09:02:00Z</time>
      </trkpt>
      <trkpt lat="59.301816" lon="18.080002">
        <ele>0</ele>
        <time>2020-01-13T09:02:00Z</time>
      </trkpt>
      <trkpt lat="59.301768" lon="18.080029">
        <ele>35</ele>
        <time>2020-01-13T09:02:01Z</time>
      </trkpt>
      <trkpt lat="59.301721" lon="18.080055">
        <ele>35</ele>
        <time>2020-01-13T09:02:03Z</time>
      </trkpt>
      <trkpt lat="59.301675" lon="18.080081">
        <ele>35</ele>
        <time>2020-01-13T09:02:04Z</time>
      </trkpt>
      <trkpt lat="59.301629" lon="18.08011">
        <ele>35</ele>
        <time>2020-01-13T09:02:05Z</time>
      </trkpt>
      <trkpt lat="59.301582" lon="18.080141">
        <ele>35</ele>
        <time>2020-01-13T09:02:06Z</time>
      </trkpt>
      <trkpt lat="59.301534" lon="18.080172">
        <ele>0</ele>
        <time>2020-01-13T09:02:06Z</time>
      </trkpt>
      <trkpt lat="59.301486" lon="18.080201">
        <ele>35</ele>
        <time>2020-01-13T09:02:07Z</time>
      </trkpt>
      <trkpt lat="59.301438" lon="18.080227">
        <ele>35</ele>
        <time>2020-01-13T09:02:09Z</time>
      </trkpt>
      <trkpt lat="59.301393" lon="18.08025">
        <ele>35</ele>
        <time>2020-01-13T09:02:10Z</time>
      </trkpt>
      <trkpt lat="59.301347" lon="18.080265">
        <ele>35</ele>
        <time>2020-01-13T09:02:11Z</time>
      </trkpt>
      <trkpt lat="59.301299" lon="18.080279">
        <ele>0</ele>
        <time>2020-01-13T09:02:11Z</time>
      </trkpt>
      <trkpt lat="59.301249" lon="18.080288">
        <ele>34</ele>
        <time>2020-01-13T09:02:12Z</time>
      </trkpt>
      <trkpt lat="59.3012" lon="18.080295">
        <ele>34</ele>
        <time>2020-01-13T09:02:14Z</time>
      </trkpt>
      <trkpt lat="59.30115" lon="18.080306">
        <ele>34</ele>
        <time>2020-01-13T09:02:15Z</time>
      </trkpt>
      <trkpt lat="59.301099" lon="18.08031">
        <ele>34</ele>
        <time>2020-01-13T09:02:16Z</time>
      </trkpt>
      <trkpt lat="59.301045" lon="18.080307">
        <ele>34</ele>
        <time>2020-01-13T09:02:17Z</time>
      </trkpt>
      <trkpt lat="59.300994" lon="18.080309">
        <ele>34</ele>
        <time>2020-01-13T09:02:18Z</time>
      </trkpt>
      <trkpt lat="59.300943" lon="18.080319">
        <ele>35</ele>
        <time>2020-01-13T09:02:19Z</time>
      </trkpt>
      <trkpt lat="59.30089" lon="18.080332">
        <ele>35</ele>
        <time>2020-01-13T09:02:20Z</time>
      </trkpt>
      <trkpt lat="59.300838" lon="18.08035">
        <ele>0</ele>
        <time>2020-01-13T09:02:20Z</time>
      </trkpt>
      <trkpt lat="59.300789" lon="18.080373">
        <ele>35</ele>
        <time>2020-01-13T09:02:21Z</time>
      </trkpt>
      <trkpt lat="59.300739" lon="18.080398">
        <ele>36</ele>
        <time>2020-01-13T09:02:23Z</time>
      </trkpt>
      <trkpt lat="59.300691" lon="18.080426">
        <ele>36</ele>
        <time>2020-01-13T09:02:24Z</time>
      </trkpt>
      <trkpt lat="59.300643" lon="18.080459">
        <ele>36</ele>
        <time>2020-01-13T09:02:25Z</time>
      </trkpt>
      <trkpt lat="59.300595" lon="18.080494">
        <ele>0</ele>
        <time>2020-01-13T09:02:25Z</time>
      </trkpt>
      <trkpt lat="59.300545" lon="18.080523">
        <ele>36</ele>
        <time>2020-01-13T09:02:26Z</time>
      </trkpt>
      <trkpt lat="59.300495" lon="18.080554">
        <ele>37</ele>
        <time>2020-01-13T09:02:28Z</time>
      </trkpt>
      <trkpt lat="59.300446" lon="18.080587">
        <ele>37</ele>
        <time>2020-01-13T09:02:29Z</time>
      </trkpt>
      <trkpt lat="59.300396" lon="18.080618">
        <ele>37</ele>
        <time>2020-01-13T09:02:30Z</time>
      </trkpt>
      <trkpt lat="59.300345" lon="18.080649">
        <ele>0</ele>
        <time>2020-01-13T09:02:30Z</time>
      </trkpt>
      <trkpt lat="59.300294" lon="18.080683">
        <ele>37</ele>
        <time>2020-01-13T09:02:31Z</time>
      </trkpt>
      <trkpt lat="59.300243" lon="18.080718">
        <ele>37</ele>
        <time>2020-01-13T09:02:33Z</time>
      </trkpt>
      <trkpt lat="59.300189" lon="18.080752">
        <ele>37</ele>
        <time>2020-01-13T09:02:34Z</time>
      </trkpt>
      <trkpt lat="59.300134" lon="18.080785">
        <ele>37</ele>
        <time>2020-01-13T09:02:35Z</time>
      </trkpt>
      <trkpt lat="59.30008" lon="18.080821">
        <ele>37</ele>
        <time>2020-01-13T09:02:36Z</time>
      </trkpt>
      <trkpt lat="59.300026" lon="18.080855">
        <ele>37</ele>
        <time>2020-01-13T09:02:37Z</time>
      </trkpt>
      <trkpt lat="59.299973" lon="18.080885">
        <ele>37</ele>
        <time>2020-01-13T09:02:38Z</time>
      </trkpt>
      <trkpt lat="59.299918" lon="18.080912">
        <ele>37</ele>
        <time>2020-01-13T09:02:39Z</time>
      </trkpt>
      <trkpt lat="59.299862" lon="18.080941">
        <ele>0</ele>
        <time>2020-01-13T09:02:39Z</time>
      </trkpt>
      <trkpt lat="59.299808" lon="18.080976">
        <ele>37</ele>
        <time>2020-01-13T09:02:40Z</time>
      </trkpt>
      <trkpt lat="59.299753" lon="18.081014">
        <ele>37</ele>
        <time>2020-01-13T09:02:42Z</time>
      </trkpt>
      <trkpt lat="59.299697" lon="18.081051">
        <ele>38</ele>
        <time>2020-01-13T09:02:43Z</time>
      </trkpt>
      <trkpt lat="59.299641" lon="18.081085">
        <ele>38</ele>
        <time>2020-01-13T09:02:44Z</time>
      </trkpt>
      <trkpt lat="59.299587" lon="18.081117">
        <ele>0</ele>
        <time>2020-01-13T09:02:44Z</time>
      </trkpt>
      <trkpt lat="59.299536" lon="18.081149">
        <ele>38</ele>
        <time>2020-01-13T09:02:45Z</time>
      </trkpt>
      <trkpt lat="59.299487" lon="18.081186">
        <ele>38</ele>
        <time>2020-01-13T09:02:47Z</time>
      </trkpt>
      <trkpt lat="59.299433" lon="18.081227">
        <ele>38</ele>
        <time>2020-01-13T09:02:48Z</time>
      </trkpt>
      <trkpt lat="59.299385" lon="18.081265">
        <ele>0</ele>
        <time>2020-01-13T09:02:48Z</time>
      </trkpt>
      <trkpt lat="59.299333" lon="18.081316">
        <ele>38</ele>
        <time>2020-01-13T09:02:49Z</time>
      </trkpt>
      <trkpt lat="59.299231" lon="18.081392">
        <ele>38</ele>
        <time>2020-01-13T09:02:52Z</time>
      </trkpt>
      <trkpt lat="59.29911" lon="18.081478">
        <ele>38</ele>
        <time>2020-01-13T09:02:54Z</time>
      </trkpt>
      <trkpt lat="59.299" lon="18.081547">
        <ele>38</ele>
        <time>2020-01-13T09:02:56Z</time>
      </trkpt>
      <trkpt lat="59.298899" lon="18.081609">
        <ele>38</ele>
        <time>2020-01-13T09:02:57Z</time>
      </trkpt>
      <trkpt lat="59.298842" lon="18.081649">
        <ele>37</ele>
        <time>2020-01-13T09:02:59Z</time>
      </trkpt>
      <trkpt lat="59.298785" lon="18.081687">
        <ele>37</ele>
        <time>2020-01-13T09:03:00Z</time>
      </trkpt>
      <trkpt lat="59.298729" lon="18.081717">
        <ele>37</ele>
        <time>2020-01-13T09:03:01Z</time>
      </trkpt>
      <trkpt lat="59.298677" lon="18.081745">
        <ele>37</ele>
        <time>2020-01-13T09:03:02Z</time>
      </trkpt>
      <trkpt lat="59.298627" lon="18.081775">
        <ele>37</ele>
        <time>2020-01-13T09:03:03Z</time>
      </trkpt>
      <trkpt lat="59.29858" lon="18.081802">
        <ele>0</ele>
        <time>2020-01-13T09:03:03Z</time>
      </trkpt>
      <trkpt lat="59.298534" lon="18.081832">
        <ele>37</ele>
        <time>2020-01-13T09:03:04Z</time>
      </trkpt>
      <trkpt lat="59.298488" lon="18.081866">
        <ele>37</ele>
        <time>2020-01-13T09:03:06Z</time>
      </trkpt>
      <trkpt lat="59.298444" lon="18.081902">
        <ele>0</ele>
        <time>2020-01-13T09:03:06Z</time>
      </trkpt>
      <trkpt lat="59.2984" lon="18.081938">
        <ele>37</ele>
        <time>2020-01-13T09:03:07Z</time>
      </trkpt>
      <trkpt lat="59.298356" lon="18.081977">
        <ele>37</ele>
        <time>2020-01-13T09:03:09Z</time>
      </trkpt>
      <trkpt lat="59.298314" lon="18.08202">
        <ele>37</ele>
        <time>2020-01-13T09:03:10Z</time>
      </trkpt>
      <trkpt lat="59.298273" lon="18.08206">
        <ele>37</ele>
        <time>2020-01-13T09:03:11Z</time>
      </trkpt>
      <trkpt lat="59.29823" lon="18.082098">
        <ele>37</ele>
        <time>2020-01-13T09:03:12Z</time>
      </trkpt>
      <trkpt lat="59.298188" lon="18.082137">
        <ele>37</ele>
        <time>2020-01-13T09:03:13Z</time>
      </trkpt>
      <trkpt lat="59.298146" lon="18.082174">
        <ele>37</ele>
        <time>2020-01-13T09:03:14Z</time>
      </trkpt>
      <trkpt lat="59.298104" lon="18.082212">
        <ele>37</ele>
        <time>2020-01-13T09:03:15Z</time>
      </trkpt>
      <trkpt lat="59.298062" lon="18.082245">
        <ele>37</ele>
        <time>2020-01-13T09:03:16Z</time>
      </trkpt>
      <trkpt lat="59.298018" lon="18.082274">
        <ele>38</ele>
        <time>2020-01-13T09:03:17Z</time>
      </trkpt>
      <trkpt lat="59.297974" lon="18.082305">
        <ele>0</ele>
        <time>2020-01-13T09:03:17Z</time>
      </trkpt>
      <trkpt lat="59.29793" lon="18.082331">
        <ele>37</ele>
        <time>2020-01-13T09:03:18Z</time>
      </trkpt>
      <trkpt lat="59.297886" lon="18.082357">
        <ele>37</ele>
        <time>2020-01-13T09:03:20Z</time>
      </trkpt>
      <trkpt lat="59.297842" lon="18.082382">
        <ele>38</ele>
        <time>2020-01-13T09:03:21Z</time>
      </trkpt>
      <trkpt lat="59.297799" lon="18.08241">
        <ele>38</ele>
        <time>2020-01-13T09:03:22Z</time>
      </trkpt>
      <trkpt lat="59.297756" lon="18.082438">
        <ele>0</ele>
        <time>2020-01-13T09:03:22Z</time>
      </trkpt>
      <trkpt lat="59.297713" lon="18.082465">
        <ele>38</ele>
        <time>2020-01-13T09:03:23Z</time>
      </trkpt>
      <trkpt lat="59.29767" lon="18.082493">
        <ele>38</ele>
        <time>2020-01-13T09:03:25Z</time>
      </trkpt>
      <trkpt lat="59.297627" lon="18.082519">
        <ele>38</ele>
        <time>2020-01-13T09:03:26Z</time>
      </trkpt>
      <trkpt lat="59.297583" lon="18.082544">
        <ele>38</ele>
        <time>2020-01-13T09:03:27Z</time>
      </trkpt>
      <trkpt lat="59.297541" lon="18.08257">
        <ele>0</ele>
        <time>2020-01-13T09:03:27Z</time>
      </trkpt>
      <trkpt lat="59.297499" lon="18.082596">
        <ele>38</ele>
        <time>2020-01-13T09:03:28Z</time>
      </trkpt>
      <trkpt lat="59.297456" lon="18.082621">
        <ele>39</ele>
        <time>2020-01-13T09:03:30Z</time>
      </trkpt>
      <trkpt lat="59.297414" lon="18.082647">
        <ele>39</ele>
        <time>2020-01-13T09:03:31Z</time>
      </trkpt>
      <trkpt lat="59.297372" lon="18.082672">
        <ele>39</ele>
        <time>2020-01-13T09:03:32Z</time>
      </trkpt>
      <trkpt lat="59.297329" lon="18.082693">
        <ele>39</ele>
        <time>2020-01-13T09:03:33Z</time>
      </trkpt>
      <trkpt lat="59.297285" lon="18.082708">
        <ele>39</ele>
        <time>2020-01-13T09:03:34Z</time>
      </trkpt>
      <trkpt lat="59.29724" lon="18.08272">
        <ele>39</ele>
        <time>2020-01-13T09:03:35Z</time>
      </trkpt>
      <trkpt lat="59.297195" lon="18.082733">
        <ele>39</ele>
        <time>2020-01-13T09:03:36Z</time>
      </trkpt>
      <trkpt lat="59.29715" lon="18.082748">
        <ele>39</ele>
        <time>2020-01-13T09:03:37Z</time>
      </trkpt>
      <trkpt lat="59.297105" lon="18.08277">
        <ele>40</ele>
        <time>2020-01-13T09:03:38Z</time>
      </trkpt>
      <trkpt lat="59.297062" lon="18.082793">
        <ele>40</ele>
        <time>2020-01-13T09:03:39Z</time>
      </trkpt>
      <trkpt lat="59.297017" lon="18.082814">
        <ele>0</ele>
        <time>2020-01-13T09:03:39Z</time>
      </trkpt>
      <trkpt lat="59.296973" lon="18.082835">
        <ele>40</ele>
        <time>2020-01-13T09:03:40Z</time>
      </trkpt>
      <trkpt lat="59.296928" lon="18.082861">
        <ele>0</ele>
        <time>2020-01-13T09:03:41Z</time>
      </trkpt>
      <trkpt lat="59.296884" lon="18.082896">
        <ele>40</ele>
        <time>2020-01-13T09:03:42Z</time>
      </trkpt>
      <trkpt lat="59.296842" lon="18.082936">
        <ele>40</ele>
        <time>2020-01-13T09:03:44Z</time>
      </trkpt>
      <trkpt lat="59.296801" lon="18.082974">
        <ele>40</ele>
        <time>2020-01-13T09:03:45Z</time>
      </trkpt>
      <trkpt lat="59.296762" lon="18.08301">
        <ele>41</ele>
        <time>2020-01-13T09:03:46Z</time>
      </trkpt>
      <trkpt lat="59.296723" lon="18.083048">
        <ele>41</ele>
        <time>2020-01-13T09:03:47Z</time>
      </trkpt>
      <trkpt lat="59.296685" lon="18.083089">
        <ele>41</ele>
        <time>2020-01-13T09:03:48Z</time>
      </trkpt>
      <trkpt lat="59.296648" lon="18.083132">
        <ele>41</ele>
        <time>2020-01-13T09:03:49Z</time>
      </trkpt>
      <trkpt lat="59.296609" lon="18.083174">
        <ele>41</ele>
        <time>2020-01-13T09:03:50Z</time>
      </trkpt>
      <trkpt lat="59.296568" lon="18.083212">
        <ele>0</ele>
        <time>2020-01-13T09:03:50Z</time>
      </trkpt>
      <trkpt lat="59.296524" lon="18.083247">
        <ele>41</ele>
        <time>2020-01-13T09:03:51Z</time>
      </trkpt>
      <trkpt lat="59.296481" lon="18.083278">
        <ele>41</ele>
        <time>2020-01-13T09:03:53Z</time>
      </trkpt>
      <trkpt lat="59.296438" lon="18.083307">
        <ele>41</ele>
        <time>2020-01-13T09:03:54Z</time>
      </trkpt>
      <trkpt lat="59.296394" lon="18.083334">
        <ele>41</ele>
        <time>2020-01-13T09:03:55Z</time>
      </trkpt>
      <trkpt lat="59.296351" lon="18.083359">
        <ele>41</ele>
        <time>2020-01-13T09:03:56Z</time>
      </trkpt>
      <trkpt lat="59.296307" lon="18.083387">
        <ele>42</ele>
        <time>2020-01-13T09:03:57Z</time>
      </trkpt>
      <trkpt lat="59.29626" lon="18.083417">
        <ele>42</ele>
        <time>2020-01-13T09:03:58Z</time>
      </trkpt>
      <trkpt lat="59.296211" lon="18.083447">
        <ele>42</ele>
        <time>2020-01-13T09:03:59Z</time>
      </trkpt>
      <trkpt lat="59.296163" lon="18.083476">
        <ele>42</ele>
        <time>2020-01-13T09:04:00Z</time>
      </trkpt>
      <trkpt lat="59.296115" lon="18.083504">
        <ele>0</ele>
        <time>2020-01-13T09:04:00Z</time>
      </trkpt>
      <trkpt lat="59.296066" lon="18.083534">
        <ele>42</ele>
        <time>2020-01-13T09:04:01Z</time>
      </trkpt>
      <trkpt lat="59.296019" lon="18.083564">
        <ele>42</ele>
        <time>2020-01-13T09:04:03Z</time>
      </trkpt>
      <trkpt lat="59.295973" lon="18.083593">
        <ele>42</ele>
        <time>2020-01-13T09:04:04Z</time>
      </trkpt>
      <trkpt lat="59.295927" lon="18.083623">
        <ele>43</ele>
        <time>2020-01-13T09:04:05Z</time>
      </trkpt>
      <trkpt lat="59.295881" lon="18.083653">
        <ele>43</ele>
        <time>2020-01-13T09:04:06Z</time>
      </trkpt>
      <trkpt lat="59.295833" lon="18.083683">
        <ele>43</ele>
        <time>2020-01-13T09:04:07Z</time>
      </trkpt>
      <trkpt lat="59.295785" lon="18.083713">
        <ele>43</ele>
        <time>2020-01-13T09:04:08Z</time>
      </trkpt>
      <trkpt lat="59.295735" lon="18.083745">
        <ele>43</ele>
        <time>2020-01-13T09:04:09Z</time>
      </trkpt>
      <trkpt lat="59.295683" lon="18.083776">
        <ele>43</ele>
        <time>2020-01-13T09:04:10Z</time>
      </trkpt>
      <trkpt lat="59.295632" lon="18.083808">
        <ele>0</ele>
        <time>2020-01-13T09:04:10Z</time>
      </trkpt>
      <trkpt lat="59.295578" lon="18.083839">
        <ele>43</ele>
        <time>2020-01-13T09:04:11Z</time>
      </trkpt>
      <trkpt lat="59.295525" lon="18.083873">
        <ele>43</ele>
        <time>2020-01-13T09:04:13Z</time>
      </trkpt>
      <trkpt lat="59.295471" lon="18.083908">
        <ele>43</ele>
        <time>2020-01-13T09:04:14Z</time>
      </trkpt>
      <trkpt lat="59.295416" lon="18.083941">
        <ele>42</ele>
        <time>2020-01-13T09:04:15Z</time>
      </trkpt>
      <trkpt lat="59.29536" lon="18.083975">
        <ele>42</ele>
        <time>2020-01-13T09:04:16Z</time>
      </trkpt>
      <trkpt lat="59.295305" lon="18.084008">
        <ele>42</ele>
        <time>2020-01-13T09:04:17Z</time>
      </trkpt>
      <trkpt lat="59.295249" lon="18.084039">
        <ele>42</ele>
        <time>2020-01-13T09:04:18Z</time>
      </trkpt>
      <trkpt lat="59.295192" lon="18.084074">
        <ele>42</ele>
        <time>2020-01-13T09:04:19Z</time>
      </trkpt>
      <trkpt lat="59.295135" lon="18.084109">
        <ele>0</ele>
        <time>2020-01-13T09:04:19Z</time>
      </trkpt>
      <trkpt lat="59.295077" lon="18.084144">
        <ele>42</ele>
        <time>2020-01-13T09:04:20Z</time>
      </trkpt>
      <trkpt lat="59.295019" lon="18.08418">
        <ele>42</ele>
        <time>2020-01-13T09:04:22Z</time>
      </trkpt>
      <trkpt lat="59.29496" lon="18.084216">
        <ele>42</ele>
        <time>2020-01-13T09:04:23Z</time>
      </trkpt>
      <trkpt lat="59.2949" lon="18.084252">
        <ele>42</ele>
        <time>2020-01-13T09:04:24Z</time>
      </trkpt>
      <trkpt lat="59.294838" lon="18.084286">
        <ele>42</ele>
        <time>2020-01-13T09:04:25Z</time>
      </trkpt>
      <trkpt lat="59.294776" lon="18.08432">
        <ele>42</ele>
        <time>2020-01-13T09:04:26Z</time>
      </trkpt>
      <trkpt lat="59.294714" lon="18.084356">
        <ele>42</ele>
        <time>2020-01-13T09:04:27Z</time>
      </trkpt>
      <trkpt lat="59.294651" lon="18.08439">
        <ele>0</ele>
        <time>2020-01-13T09:04:27Z</time>
      </trkpt>
      <trkpt lat="59.294586" lon="18.084424">
        <ele>42</ele>
        <time>2020-01-13T09:04:28Z</time>
      </trkpt>
      <trkpt lat="59.294523" lon="18.084458">
        <ele>42</ele>
        <time>2020-01-13T09:04:30Z</time>
      </trkpt>
      <trkpt lat="59.294459" lon="18.084491">
        <ele>42</ele>
        <time>2020-01-13T09:04:31Z</time>
      </trkpt>
      <trkpt lat="59.294395" lon="18.08453">
        <ele>42</ele>
        <time>2020-01-13T09:04:32Z</time>
      </trkpt>
      <trkpt lat="59.294276" lon="18.084663">
        <ele>42</ele>
        <time>2020-01-13T09:04:34Z</time>
      </trkpt>
      <trkpt lat="59.294155" lon="18.084767">
        <ele>42</ele>
        <time>2020-01-13T09:04:35Z</time>
      </trkpt>
      <trkpt lat="59.294081" lon="18.084796">
        <ele>43</ele>
        <time>2020-01-13T09:04:37Z</time>
      </trkpt>
      <trkpt lat="59.294015" lon="18.084829">
        <ele>43</ele>
        <time>2020-01-13T09:04:38Z</time>
      </trkpt>
      <trkpt lat="59.293946" lon="18.084855">
        <ele>0</ele>
        <time>2020-01-13T09:04:38Z</time>
      </trkpt>
      <trkpt lat="59.293874" lon="18.084882">
        <ele>43</ele>
        <time>2020-01-13T09:04:39Z</time>
      </trkpt>
      <trkpt lat="59.29381" lon="18.084914">
        <ele>44</ele>
        <time>2020-01-13T09:04:41Z</time>
      </trkpt>
      <trkpt lat="59.293741" lon="18.084953">
        <ele>0</ele>
        <time>2020-01-13T09:04:41Z</time>
      </trkpt>
      <trkpt lat="59.293659" lon="18.08497">
        <ele>44</ele>
        <time>2020-01-13T09:04:42Z</time>
      </trkpt>
      <trkpt lat="59.293577" lon="18.08499">
        <ele>44</ele>
        <time>2020-01-13T09:04:44Z</time>
      </trkpt>
      <trkpt lat="59.293497" lon="18.08501">
        <ele>44</ele>
        <time>2020-01-13T09:04:45Z</time>
      </trkpt>
      <trkpt lat="59.293421" lon="18.085026">
        <ele>45</ele>
        <time>2020-01-13T09:04:46Z</time>
      </trkpt>
      <trkpt lat="59.29334" lon="18.085039">
        <ele>45</ele>
        <time>2020-01-13T09:04:47Z</time>
      </trkpt>
      <trkpt lat="59.293269" lon="18.085056">
        <ele>0</ele>
        <time>2020-01-13T09:04:47Z</time>
      </trkpt>
      <trkpt lat="59.293201" lon="18.085074">
        <ele>45</ele>
        <time>2020-01-13T09:04:48Z</time>
      </trkpt>
      <trkpt lat="59.293137" lon="18.085091">
        <ele>45</ele>
        <time>2020-01-13T09:04:50Z</time>
      </trkpt>
      <trkpt lat="59.293071" lon="18.085109">
        <ele>45</ele>
        <time>2020-01-13T09:04:51Z</time>
      </trkpt>
      <trkpt lat="59.293011" lon="18.085127">
        <ele>45</ele>
        <time>2020-01-13T09:04:52Z</time>
      </trkpt>
      <trkpt lat="59.292956" lon="18.085142">
        <ele>45</ele>
        <time>2020-01-13T09:04:53Z</time>
      </trkpt>
      <trkpt lat="59.292904" lon="18.085155">
        <ele>45</ele>
        <time>2020-01-13T09:04:54Z</time>
      </trkpt>
      <trkpt lat="59.292853" lon="18.085162">
        <ele>45</ele>
        <time>2020-01-13T09:04:55Z</time>
      </trkpt>
      <trkpt lat="59.292805" lon="18.085151">
        <ele>45</ele>
        <time>2020-01-13T09:04:56Z</time>
      </trkpt>
      <trkpt lat="59.292759" lon="18.085121">
        <ele>45</ele>
        <time>2020-01-13T09:04:57Z</time>
      </trkpt>
      <trkpt lat="59.292716" lon="18.085077">
        <ele>0</ele>
        <time>2020-01-13T09:04:57Z</time>
      </trkpt>
      <trkpt lat="59.292671" lon="18.085032">
        <ele>45</ele>
        <time>2020-01-13T09:04:58Z</time>
      </trkpt>
      <trkpt lat="59.292623" lon="18.084998">
        <ele>46</ele>
        <time>2020-01-13T09:05:00Z</time>
      </trkpt>
      <trkpt lat="59.292574" lon="18.084986">
        <ele>46</ele>
        <time>2020-01-13T09:05:01Z</time>
      </trkpt>
      <trkpt lat="59.292521" lon="18.08499">
        <ele>46</ele>
        <time>2020-01-13T09:05:02Z</time>
      </trkpt>
      <trkpt lat="59.292474" lon="18.085008">
        <ele>46</ele>
        <time>2020-01-13T09:05:03Z</time>
      </trkpt>
      <trkpt lat="59.292429" lon="18.08504">
        <ele>45</ele>
        <time>2020-01-13T09:05:04Z</time>
      </trkpt>
      <trkpt lat="59.292372" lon="18.085085">
        <ele>45</ele>
        <time>2020-01-13T09:05:05Z</time>
      </trkpt>
      <trkpt lat="59.292312" lon="18.085136">
        <ele>45</ele>
        <time>2020-01-13T09:05:06Z</time>
      </trkpt>
      <trkpt lat="59.292255" lon="18.08518">
        <ele>0</ele>
        <time>2020-01-13T09:05:06Z</time>
      </trkpt>
      <trkpt lat="59.2922" lon="18.085223">
        <ele>45</ele>
        <time>2020-01-13T09:05:07Z</time>
      </trkpt>
      <trkpt lat="59.292143" lon="18.085265">
        <ele>45</ele>
        <time>2020-01-13T09:05:09Z</time>
      </trkpt>
      <trkpt lat="59.292087" lon="18.085309">
        <ele>45</ele>
        <time>2020-01-13T09:05:10Z</time>
      </trkpt>
      <trkpt lat="59.292033" lon="18.085341">
        <ele>45</ele>
        <time>2020-01-13T09:05:11Z</time>
      </trkpt>
      <trkpt lat="59.291911" lon="18.085431">
        <ele>45</ele>
        <time>2020-01-13T09:05:13Z</time>
      </trkpt>
      <trkpt lat="59.291847" lon="18.085482">
        <ele>45</ele>
        <time>2020-01-13T09:05:14Z</time>
      </trkpt>
      <trkpt lat="59.291784" lon="18.085538">
        <ele>0</ele>
        <time>2020-01-13T09:05:14Z</time>
      </trkpt>
      <trkpt lat="59.291712" lon="18.085594">
        <ele>45</ele>
        <time>2020-01-13T09:05:15Z</time>
      </trkpt>
      <trkpt lat="59.291643" lon="18.085649">
        <ele>0</ele>
        <time>2020-01-13T09:05:16Z</time>
      </trkpt>
      <trkpt lat="59.291579" lon="18.085708">
        <ele>44</ele>
        <time>2020-01-13T09:05:17Z</time>
      </trkpt>
      <trkpt lat="59.291514" lon="18.085766">
        <ele>44</ele>
        <time>2020-01-13T09:05:19Z</time>
      </trkpt>
      <trkpt lat="59.29145" lon="18.085818">
        <ele>44</ele>
        <time>2020-01-13T09:05:20Z</time>
      </trkpt>
      <trkpt lat="59.291391" lon="18.085854">
        <ele>43</ele>
        <time>2020-01-13T09:05:21Z</time>
      </trkpt>
      <trkpt lat="59.29133" lon="18.0859">
        <ele>0</ele>
        <time>2020-01-13T09:05:21Z</time>
      </trkpt>
      <trkpt lat="59.291273" lon="18.085924">
        <ele>43</ele>
        <time>2020-01-13T09:05:22Z</time>
      </trkpt>
      <trkpt lat="59.291212" lon="18.085954">
        <ele>43</ele>
        <time>2020-01-13T09:05:24Z</time>
      </trkpt>
      <trkpt lat="59.291151" lon="18.085988">
        <ele>42</ele>
        <time>2020-01-13T09:05:25Z</time>
      </trkpt>
      <trkpt lat="59.291093" lon="18.086014">
        <ele>42</ele>
        <time>2020-01-13T09:05:26Z</time>
      </trkpt>
      <trkpt lat="59.291033" lon="18.086047">
        <ele>42</ele>
        <time>2020-01-13T09:05:27Z</time>
      </trkpt>
      <trkpt lat="59.290971" lon="18.086076">
        <ele>42</ele>
        <time>2020-01-13T09:05:28Z</time>
      </trkpt>
      <trkpt lat="59.290847" lon="18.08612">
        <ele>42</ele>
        <time>2020-01-13T09:05:30Z</time>
      </trkpt>
      <trkpt lat="59.290727" lon="18.086165">
        <ele>41</ele>
        <time>2020-01-13T09:05:31Z</time>
      </trkpt>
      <trkpt lat="59.290664" lon="18.086183">
        <ele>41</ele>
        <time>2020-01-13T09:05:33Z</time>
      </trkpt>
      <trkpt lat="59.290603" lon="18.086203">
        <ele>41</ele>
        <time>2020-01-13T09:05:34Z</time>
      </trkpt>
      <trkpt lat="59.290543" lon="18.086207">
        <ele>41</ele>
        <time>2020-01-13T09:05:35Z</time>
      </trkpt>
      <trkpt lat="59.290483" lon="18.086225">
        <ele>0</ele>
        <time>2020-01-13T09:05:35Z</time>
      </trkpt>
      <trkpt lat="59.290423" lon="18.086239">
        <ele>41</ele>
        <time>2020-01-13T09:05:36Z</time>
      </trkpt>
      <trkpt lat="59.290364" lon="18.086254">
        <ele>0</ele>
        <time>2020-01-13T09:05:37Z</time>
      </trkpt>
      <trkpt lat="59.290306" lon="18.086275">
        <ele>40</ele>
        <time>2020-01-13T09:05:38Z</time>
      </trkpt>
      <trkpt lat="59.290247" lon="18.086299">
        <ele>40</ele>
        <time>2020-01-13T09:05:40Z</time>
      </trkpt>
      <trkpt lat="59.290188" lon="18.086325">
        <ele>39</ele>
        <time>2020-01-13T09:05:41Z</time>
      </trkpt>
      <trkpt lat="59.290126" lon="18.086354">
        <ele>39</ele>
        <time>2020-01-13T09:05:42Z</time>
      </trkpt>
      <trkpt lat="59.290062" lon="18.086388">
        <ele>39</ele>
        <time>2020-01-13T09:05:43Z</time>
      </trkpt>
      <trkpt lat="59.289996" lon="18.086422">
        <ele>38</ele>
        <time>2020-01-13T09:05:44Z</time>
      </trkpt>
      <trkpt lat="59.289924" lon="18.086449">
        <ele>0</ele>
        <time>2020-01-13T09:05:44Z</time>
      </trkpt>
      <trkpt lat="59.28985" lon="18.08648">
        <ele>37</ele>
        <time>2020-01-13T09:05:45Z</time>
      </trkpt>
      <trkpt lat="59.289774" lon="18.086515">
        <ele>36</ele>
        <time>2020-01-13T09:05:47Z</time>
      </trkpt>
      <trkpt lat="59.289697" lon="18.086554">
        <ele>36</ele>
        <time>2020-01-13T09:05:48Z</time>
      </trkpt>
      <trkpt lat="59.289618" lon="18.086592">
        <ele>35</ele>
        <time>2020-01-13T09:05:49Z</time>
      </trkpt>
      <trkpt lat="59.289536" lon="18.086626">
        <ele>34</ele>
        <time>2020-01-13T09:05:50Z</time>
      </trkpt>
      <trkpt lat="59.289452" lon="18.086661">
        <ele>34</ele>
        <time>2020-01-13T09:05:51Z</time>
      </trkpt>
      <trkpt lat="59.289367" lon="18.086701">
        <ele>0</ele>
        <time>2020-01-13T09:05:51Z</time>
      </trkpt>
      <trkpt lat="59.289281" lon="18.08675">
        <ele>33</ele>
        <time>2020-01-13T09:05:52Z</time>
      </trkpt>
      <trkpt lat="59.289196" lon="18.086807">
        <ele>32</ele>
        <time>2020-01-13T09:05:54Z</time>
      </trkpt>
      <trkpt lat="59.289108" lon="18.086866">
        <ele>0</ele>
        <time>2020-01-13T09:05:54Z</time>
      </trkpt>
      <trkpt lat="59.289019" lon="18.086925">
        <ele>31</ele>
        <time>2020-01-13T09:05:55Z</time>
      </trkpt>
      <trkpt lat="59.288929" lon="18.086979">
        <ele>0</ele>
        <time>2020-01-13T09:05:56Z</time>
      </trkpt>
      <trkpt lat="59.288837" lon="18.087028">
        <ele>30</ele>
        <time>2020-01-13T09:05:57Z</time>
      </trkpt>
      <trkpt lat="59.288743" lon="18.08708">
        <ele>30</ele>
        <time>2020-01-13T09:05:59Z</time>
      </trkpt>
      <trkpt lat="59.288558" lon="18.087164">
        <ele>29</ele>
        <time>2020-01-13T09:06:01Z</time>
      </trkpt>
      <trkpt lat="59.288466" lon="18.087222">
        <ele>29</ele>
        <time>2020-01-13T09:06:01Z</time>
      </trkpt>
      <trkpt lat="59.288373" lon="18.087281">
        <ele>29</ele>
        <time>2020-01-13T09:06:02Z</time>
      </trkpt>
      <trkpt lat="59.288283" lon="18.087326">
        <ele>29</ele>
        <time>2020-01-13T09:06:04Z</time>
      </trkpt>
      <trkpt lat="59.288205" lon="18.087359">
        <ele>29</ele>
        <time>2020-01-13T09:06:05Z</time>
      </trkpt>
      <trkpt lat="59.28813" lon="18.0874">
        <ele>29</ele>
        <time>2020-01-13T09:06:06Z</time>
      </trkpt>
      <trkpt lat="59.288053" lon="18.087437">
        <ele>29</ele>
        <time>2020-01-13T09:06:07Z</time>
      </trkpt>
      <trkpt lat="59.287979" lon="18.087466">
        <ele>0</ele>
        <time>2020-01-13T09:06:07Z</time>
      </trkpt>
      <trkpt lat="59.287904" lon="18.087496">
        <ele>30</ele>
        <time>2020-01-13T09:06:08Z</time>
      </trkpt>
      <trkpt lat="59.287833" lon="18.087534">
        <ele>30</ele>
        <time>2020-01-13T09:06:10Z</time>
      </trkpt>
      <trkpt lat="59.287773" lon="18.087578">
        <ele>30</ele>
        <time>2020-01-13T09:06:11Z</time>
      </trkpt>
      <trkpt lat="59.287716" lon="18.087622">
        <ele>30</ele>
        <time>2020-01-13T09:06:12Z</time>
      </trkpt>
      <trkpt lat="59.287661" lon="18.087666">
        <ele>30</ele>
        <time>2020-01-13T09:06:13Z</time>
      </trkpt>
      <trkpt lat="59.287607" lon="18.087713">
        <ele>0</ele>
        <time>2020-01-13T09:06:13Z</time>
      </trkpt>
      <trkpt lat="59.287557" lon="18.087756">
        <ele>30</ele>
        <time>2020-01-13T09:06:14Z</time>
      </trkpt>
      <trkpt lat="59.287505" lon="18.087796">
        <ele>0</ele>
        <time>2020-01-13T09:06:15Z</time>
      </trkpt>
      <trkpt lat="59.287453" lon="18.087836">
        <ele>31</ele>
        <time>2020-01-13T09:06:16Z</time>
      </trkpt>
      <trkpt lat="59.287401" lon="18.08788">
        <ele>31</ele>
        <time>2020-01-13T09:06:18Z</time>
      </trkpt>
      <trkpt lat="59.287348" lon="18.087924">
        <ele>31</ele>
        <time>2020-01-13T09:06:19Z</time>
      </trkpt>
      <trkpt lat="59.287295" lon="18.087965">
        <ele>31</ele>
        <time>2020-01-13T09:06:20Z</time>
      </trkpt>
      <trkpt lat="59.287239" lon="18.088002">
        <ele>31</ele>
        <time>2020-01-13T09:06:21Z</time>
      </trkpt>
      <trkpt lat="59.287182" lon="18.088035">
        <ele>31</ele>
        <time>2020-01-13T09:06:22Z</time>
      </trkpt>
      <trkpt lat="59.287123" lon="18.088066">
        <ele>31</ele>
        <time>2020-01-13T09:06:23Z</time>
      </trkpt>
      <trkpt lat="59.287062" lon="18.088095">
        <ele>31</ele>
        <time>2020-01-13T09:06:24Z</time>
      </trkpt>
      <trkpt lat="59.287002" lon="18.088125">
        <ele>0</ele>
        <time>2020-01-13T09:06:24Z</time>
      </trkpt>
      <trkpt lat="59.286942" lon="18.088155">
        <ele>31</ele>
        <time>2020-01-13T09:06:25Z</time>
      </trkpt>
      <trkpt lat="59.286883" lon="18.088186">
        <ele>31</ele>
        <time>2020-01-13T09:06:27Z</time>
      </trkpt>
      <trkpt lat="59.286825" lon="18.088214">
        <ele>31</ele>
        <time>2020-01-13T09:06:28Z</time>
      </trkpt>
      <trkpt lat="59.286766" lon="18.088242">
        <ele>31</ele>
        <time>2020-01-13T09:06:29Z</time>
      </trkpt>
      <trkpt lat="59.286706" lon="18.088272">
        <ele>31</ele>
        <time>2020-01-13T09:06:30Z</time>
      </trkpt>
      <trkpt lat="59.286647" lon="18.0883">
        <ele>31</ele>
        <time>2020-01-13T09:06:31Z</time>
      </trkpt>
      <trkpt lat="59.286588" lon="18.088328">
        <ele>31</ele>
        <time>2020-01-13T09:06:32Z</time>
      </trkpt>
      <trkpt lat="59.286532" lon="18.088359">
        <ele>0</ele>
        <time>2020-01-13T09:06:32Z</time>
      </trkpt>
      <trkpt lat="59.286472" lon="18.088385">
        <ele>31</ele>
        <time>2020-01-13T09:06:33Z</time>
      </trkpt>
      <trkpt lat="59.286411" lon="18.088413">
        <ele>31</ele>
        <time>2020-01-13T09:06:35Z</time>
      </trkpt>
      <trkpt lat="59.286352" lon="18.088442">
        <ele>31</ele>
        <time>2020-01-13T09:06:36Z</time>
      </trkpt>
      <trkpt lat="59.286293" lon="18.088472">
        <ele>31</ele>
        <time>2020-01-13T09:06:37Z</time>
      </trkpt>
      <trkpt lat="59.286235" lon="18.088501">
        <ele>31</ele>
        <time>2020-01-13T09:06:38Z</time>
      </trkpt>
      <trkpt lat="59.286178" lon="18.08853">
        <ele>31</ele>
        <time>2020-01-13T09:06:39Z</time>
      </trkpt>
      <trkpt lat="59.286121" lon="18.088557">
        <ele>31</ele>
        <time>2020-01-13T09:06:40Z</time>
      </trkpt>
      <trkpt lat="59.28606" lon="18.088584">
        <ele>0</ele>
        <time>2020-01-13T09:06:40Z</time>
      </trkpt>
      <trkpt lat="59.286" lon="18.088614">
        <ele>31</ele>
        <time>2020-01-13T09:06:41Z</time>
      </trkpt>
      <trkpt lat="59.285941" lon="18.088643">
        <ele>31</ele>
        <time>2020-01-13T09:06:43Z</time>
      </trkpt>
      <trkpt lat="59.285881" lon="18.088672">
        <ele>31</ele>
        <time>2020-01-13T09:06:44Z</time>
      </trkpt>
      <trkpt lat="59.285821" lon="18.088701">
        <ele>31</ele>
        <time>2020-01-13T09:06:45Z</time>
      </trkpt>
      <trkpt lat="59.285761" lon="18.08873">
        <ele>31</ele>
        <time>2020-01-13T09:06:46Z</time>
      </trkpt>
      <trkpt lat="59.2857" lon="18.088759">
        <ele>31</ele>
        <time>2020-01-13T09:06:47Z</time>
      </trkpt>
      <trkpt lat="59.28564" lon="18.088791">
        <ele>31</ele>
        <time>2020-01-13T09:06:48Z</time>
      </trkpt>
      <trkpt lat="59.285579" lon="18.088821">
        <ele>0</ele>
        <time>2020-01-13T09:06:48Z</time>
      </trkpt>
      <trkpt lat="59.285519" lon="18.088854">
        <ele>31</ele>
        <time>2020-01-13T09:06:49Z</time>
      </trkpt>
      <trkpt lat="59.28546" lon="18.088884">
        <ele>32</ele>
        <time>2020-01-13T09:06:51Z</time>
      </trkpt>
      <trkpt lat="59.2854" lon="18.088916">
        <ele>0</ele>
        <time>2020-01-13T09:06:51Z</time>
      </trkpt>
      <trkpt lat="59.285341" lon="18.088943">
        <ele>32</ele>
        <time>2020-01-13T09:06:52Z</time>
      </trkpt>
      <trkpt lat="59.285281" lon="18.088973">
        <ele>31</ele>
        <time>2020-01-13T09:06:54Z</time>
      </trkpt>
      <trkpt lat="59.285221" lon="18.089001">
        <ele>31</ele>
        <time>2020-01-13T09:06:55Z</time>
      </trkpt>
      <trkpt lat="59.285157" lon="18.089033">
        <ele>31</ele>
        <time>2020-01-13T09:06:56Z</time>
      </trkpt>
      <trkpt lat="59.285096" lon="18.089063">
        <ele>0</ele>
        <time>2020-01-13T09:06:56Z</time>
      </trkpt>
      <trkpt lat="59.285035" lon="18.089091">
        <ele>31</ele>
        <time>2020-01-13T09:06:57Z</time>
      </trkpt>
      <trkpt lat="59.284973" lon="18.089121">
        <ele>31</ele>
        <time>2020-01-13T09:06:59Z</time>
      </trkpt>
      <trkpt lat="59.284911" lon="18.089147">
        <ele>31</ele>
        <time>2020-01-13T09:07:00Z</time>
      </trkpt>
      <trkpt lat="59.284847" lon="18.089178">
        <ele>31</ele>
        <time>2020-01-13T09:07:01Z</time>
      </trkpt>
      <trkpt lat="59.284787" lon="18.089212">
        <ele>31</ele>
        <time>2020-01-13T09:07:02Z</time>
      </trkpt>
      <trkpt lat="59.284727" lon="18.08925">
        <ele>31</ele>
        <time>2020-01-13T09:07:03Z</time>
      </trkpt>
      <trkpt lat="59.284667" lon="18.08929">
        <ele>31</ele>
        <time>2020-01-13T09:07:04Z</time>
      </trkpt>
      <trkpt lat="59.284608" lon="18.089323">
        <ele>0</ele>
        <time>2020-01-13T09:07:04Z</time>
      </trkpt>
      <trkpt lat="59.284545" lon="18.089347">
        <ele>31</ele>
        <time>2020-01-13T09:07:05Z</time>
      </trkpt>
      <trkpt lat="59.284482" lon="18.089368">
        <ele>31</ele>
        <time>2020-01-13T09:07:07Z</time>
      </trkpt>
      <trkpt lat="59.28442" lon="18.089395">
        <ele>32</ele>
        <time>2020-01-13T09:07:08Z</time>
      </trkpt>
      <trkpt lat="59.284361" lon="18.089425">
        <ele>32</ele>
        <time>2020-01-13T09:07:09Z</time>
      </trkpt>
      <trkpt lat="59.284302" lon="18.089457">
        <ele>32</ele>
        <time>2020-01-13T09:07:10Z</time>
      </trkpt>
      <trkpt lat="59.284239" lon="18.089491">
        <ele>0</ele>
        <time>2020-01-13T09:07:10Z</time>
      </trkpt>
      <trkpt lat="59.284174" lon="18.089523">
        <ele>32</ele>
        <time>2020-01-13T09:07:11Z</time>
      </trkpt>
      <trkpt lat="59.284111" lon="18.089556">
        <ele>0</ele>
        <time>2020-01-13T09:07:12Z</time>
      </trkpt>
      <trkpt lat="59.284053" lon="18.089584">
        <ele>32</ele>
        <time>2020-01-13T09:07:13Z</time>
      </trkpt>
      <trkpt lat="59.283995" lon="18.089619">
        <ele>32</ele>
        <time>2020-01-13T09:07:15Z</time>
      </trkpt>
      <trkpt lat="59.283934" lon="18.089656">
        <ele>32</ele>
        <time>2020-01-13T09:07:16Z</time>
      </trkpt>
      <trkpt lat="59.283874" lon="18.089686">
        <ele>32</ele>
        <time>2020-01-13T09:07:17Z</time>
      </trkpt>
      <trkpt lat="59.283815" lon="18.089711">
        <ele>32</ele>
        <time>2020-01-13T09:07:18Z</time>
      </trkpt>
      <trkpt lat="59.283758" lon="18.089736">
        <ele>33</ele>
        <time>2020-01-13T09:07:19Z</time>
      </trkpt>
      <trkpt lat="59.283702" lon="18.089763">
        <ele>33</ele>
        <time>2020-01-13T09:07:20Z</time>
      </trkpt>
      <trkpt lat="59.28364" lon="18.089798">
        <ele>0</ele>
        <time>2020-01-13T09:07:20Z</time>
      </trkpt>
      <trkpt lat="59.283578" lon="18.089821">
        <ele>33</ele>
        <time>2020-01-13T09:07:21Z</time>
      </trkpt>
      <trkpt lat="59.283509" lon="18.089844">
        <ele>32</ele>
        <time>2020-01-13T09:07:23Z</time>
      </trkpt>
      <trkpt lat="59.283447" lon="18.089869">
        <ele>32</ele>
        <time>2020-01-13T09:07:24Z</time>
      </trkpt>
      <trkpt lat="59.283386" lon="18.089891">
        <ele>32</ele>
        <time>2020-01-13T09:07:25Z</time>
      </trkpt>
      <trkpt lat="59.28332" lon="18.089919">
        <ele>32</ele>
        <time>2020-01-13T09:07:26Z</time>
      </trkpt>
      <trkpt lat="59.283257" lon="18.089942">
        <ele>32</ele>
        <time>2020-01-13T09:07:27Z</time>
      </trkpt>
      <trkpt lat="59.283192" lon="18.089965">
        <ele>32</ele>
        <time>2020-01-13T09:07:28Z</time>
      </trkpt>
      <trkpt lat="59.283126" lon="18.08999">
        <ele>0</ele>
        <time>2020-01-13T09:07:28Z</time>
      </trkpt>
      <trkpt lat="59.283061" lon="18.090016">
        <ele>32</ele>
        <time>2020-01-13T09:07:29Z</time>
      </trkpt>
      <trkpt lat="59.283" lon="18.090045">
        <ele>32</ele>
        <time>2020-01-13T09:07:30Z</time>
      </trkpt>
      <trkpt lat="59.28294" lon="18.090069">
        <ele>32</ele>
        <time>2020-01-13T09:07:32Z</time>
      </trkpt>
      <trkpt lat="59.282882" lon="18.090098">
        <ele>32</ele>
        <time>2020-01-13T09:07:33Z</time>
      </trkpt>
      <trkpt lat="59.282822" lon="18.090119">
        <ele>32</ele>
        <time>2020-01-13T09:07:34Z</time>
      </trkpt>
      <trkpt lat="59.282761" lon="18.090142">
        <ele>32</ele>
        <time>2020-01-13T09:07:35Z</time>
      </trkpt>
      <trkpt lat="59.282695" lon="18.090168">
        <ele>32</ele>
        <time>2020-01-13T09:07:36Z</time>
      </trkpt>
      <trkpt lat="59.28263" lon="18.090194">
        <ele>0</ele>
        <time>2020-01-13T09:07:36Z</time>
      </trkpt>
      <trkpt lat="59.282564" lon="18.090217">
        <ele>32</ele>
        <time>2020-01-13T09:07:37Z</time>
      </trkpt>
      <trkpt lat="59.282499" lon="18.09024">
        <ele>31</ele>
        <time>2020-01-13T09:07:39Z</time>
      </trkpt>
      <trkpt lat="59.282435" lon="18.090261">
        <ele>31</ele>
        <time>2020-01-13T09:07:40Z</time>
      </trkpt>
      <trkpt lat="59.282372" lon="18.090286">
        <ele>32</ele>
        <time>2020-01-13T09:07:41Z</time>
      </trkpt>
      <trkpt lat="59.282308" lon="18.090313">
        <ele>32</ele>
        <time>2020-01-13T09:07:42Z</time>
      </trkpt>
      <trkpt lat="59.282245" lon="18.090341">
        <ele>32</ele>
        <time>2020-01-13T09:07:43Z</time>
      </trkpt>
      <trkpt lat="59.282183" lon="18.090365">
        <ele>0</ele>
        <time>2020-01-13T09:07:43Z</time>
      </trkpt>
      <trkpt lat="59.282121" lon="18.090385">
        <ele>32</ele>
        <time>2020-01-13T09:07:44Z</time>
      </trkpt>
      <trkpt lat="59.282063" lon="18.090401">
        <ele>32</ele>
        <time>2020-01-13T09:07:46Z</time>
      </trkpt>
      <trkpt lat="59.282003" lon="18.090421">
        <ele>32</ele>
        <time>2020-01-13T09:07:47Z</time>
      </trkpt>
      <trkpt lat="59.281942" lon="18.090444">
        <ele>32</ele>
        <time>2020-01-13T09:07:48Z</time>
      </trkpt>
      <trkpt lat="59.281885" lon="18.090468">
        <ele>0</ele>
        <time>2020-01-13T09:07:48Z</time>
      </trkpt>
      <trkpt lat="59.28183" lon="18.090492">
        <ele>32</ele>
        <time>2020-01-13T09:07:49Z</time>
      </trkpt>
      <trkpt lat="59.281771" lon="18.090515">
        <ele>33</ele>
        <time>2020-01-13T09:07:51Z</time>
      </trkpt>
      <trkpt lat="59.281714" lon="18.090536">
        <ele>33</ele>
        <time>2020-01-13T09:07:52Z</time>
      </trkpt>
      <trkpt lat="59.281658" lon="18.090556">
        <ele>0</ele>
        <time>2020-01-13T09:07:52Z</time>
      </trkpt>
      <trkpt lat="59.281592" lon="18.090581">
        <ele>33</ele>
        <time>2020-01-13T09:07:53Z</time>
      </trkpt>
      <trkpt lat="59.281531" lon="18.090605">
        <ele>33</ele>
        <time>2020-01-13T09:07:55Z</time>
      </trkpt>
      <trkpt lat="59.281471" lon="18.090629">
        <ele>33</ele>
        <time>2020-01-13T09:07:56Z</time>
      </trkpt>
      <trkpt lat="59.281407" lon="18.090656">
        <ele>33</ele>
        <time>2020-01-13T09:07:57Z</time>
      </trkpt>
      <trkpt lat="59.281346" lon="18.090682">
        <ele>33</ele>
        <time>2020-01-13T09:07:58Z</time>
      </trkpt>
      <trkpt lat="59.281284" lon="18.090706">
        <ele>33</ele>
        <time>2020-01-13T09:07:59Z</time>
      </trkpt>
      <trkpt lat="59.281221" lon="18.090728">
        <ele>33</ele>
        <time>2020-01-13T09:08:00Z</time>
      </trkpt>
      <trkpt lat="59.281162" lon="18.09075">
        <ele>0</ele>
        <time>2020-01-13T09:08:00Z</time>
      </trkpt>
      <trkpt lat="59.281104" lon="18.09077">
        <ele>33</ele>
        <time>2020-01-13T09:08:01Z</time>
      </trkpt>
      <trkpt lat="59.281046" lon="18.090792">
        <ele>32</ele>
        <time>2020-01-13T09:08:03Z</time>
      </trkpt>
      <trkpt lat="59.280989" lon="18.090814">
        <ele>32</ele>
        <time>2020-01-13T09:08:04Z</time>
      </trkpt>
      <trkpt lat="59.28093" lon="18.090834">
        <ele>32</ele>
        <time>2020-01-13T09:08:05Z</time>
      </trkpt>
      <trkpt lat="59.28087" lon="18.09085">
        <ele>32</ele>
        <time>2020-01-13T09:08:06Z</time>
      </trkpt>
      <trkpt lat="59.280811" lon="18.090869">
        <ele>32</ele>
        <time>2020-01-13T09:08:07Z</time>
      </trkpt>
      <trkpt lat="59.280753" lon="18.090889">
        <ele>0</ele>
        <time>2020-01-13T09:08:07Z</time>
      </trkpt>
      <trkpt lat="59.280695" lon="18.090906">
        <ele>32</ele>
        <time>2020-01-13T09:08:08Z</time>
      </trkpt>
      <trkpt lat="59.280637" lon="18.09093">
        <ele>32</ele>
        <time>2020-01-13T09:08:09Z</time>
      </trkpt>
      <trkpt lat="59.28058" lon="18.090951">
        <ele>31</ele>
        <time>2020-01-13T09:08:11Z</time>
      </trkpt>
      <trkpt lat="59.280524" lon="18.090969">
        <ele>31</ele>
        <time>2020-01-13T09:08:12Z</time>
      </trkpt>
      <trkpt lat="59.280467" lon="18.09099">
        <ele>31</ele>
        <time>2020-01-13T09:08:13Z</time>
      </trkpt>
      <trkpt lat="59.280409" lon="18.091009">
        <ele>31</ele>
        <time>2020-01-13T09:08:14Z</time>
      </trkpt>
      <trkpt lat="59.280352" lon="18.09103">
        <ele>31</ele>
        <time>2020-01-13T09:08:15Z</time>
      </trkpt>
      <trkpt lat="59.280294" lon="18.091055">
        <ele>31</ele>
        <time>2020-01-13T09:08:16Z</time>
      </trkpt>
      <trkpt lat="59.280234" lon="18.091075">
        <ele>31</ele>
        <time>2020-01-13T09:08:17Z</time>
      </trkpt>
      <trkpt lat="59.280176" lon="18.091096">
        <ele>0</ele>
        <time>2020-01-13T09:08:17Z</time>
      </trkpt>
      <trkpt lat="59.280117" lon="18.091124">
        <ele>31</ele>
        <time>2020-01-13T09:08:18Z</time>
      </trkpt>
      <trkpt lat="59.280059" lon="18.091149">
        <ele>31</ele>
        <time>2020-01-13T09:08:20Z</time>
      </trkpt>
      <trkpt lat="59.280003" lon="18.09117">
        <ele>32</ele>
        <time>2020-01-13T09:08:21Z</time>
      </trkpt>
      <trkpt lat="59.279947" lon="18.091194">
        <ele>32</ele>
        <time>2020-01-13T09:08:22Z</time>
      </trkpt>
      <trkpt lat="59.279893" lon="18.091215">
        <ele>32</ele>
        <time>2020-01-13T09:08:23Z</time>
      </trkpt>
      <trkpt lat="59.279842" lon="18.091233">
        <ele>32</ele>
        <time>2020-01-13T09:08:24Z</time>
      </trkpt>
      <trkpt lat="59.279791" lon="18.09125">
        <ele>32</ele>
        <time>2020-01-13T09:08:25Z</time>
      </trkpt>
      <trkpt lat="59.279741" lon="18.091258">
        <ele>31</ele>
        <time>2020-01-13T09:08:26Z</time>
      </trkpt>
      <trkpt lat="59.279691" lon="18.091267">
        <ele>0</ele>
        <time>2020-01-13T09:08:26Z</time>
      </trkpt>
      <trkpt lat="59.279642" lon="18.091274">
        <ele>31</ele>
        <time>2020-01-13T09:08:27Z</time>
      </trkpt>
      <trkpt lat="59.279597" lon="18.09128">
        <ele>31</ele>
        <time>2020-01-13T09:08:29Z</time>
      </trkpt>
      <trkpt lat="59.279554" lon="18.091286">
        <ele>30</ele>
        <time>2020-01-13T09:08:30Z</time>
      </trkpt>
      <trkpt lat="59.279515" lon="18.091293">
        <ele>30</ele>
        <time>2020-01-13T09:08:31Z</time>
      </trkpt>
      <trkpt lat="59.279481" lon="18.091298">
        <ele>30</ele>
        <time>2020-01-13T09:08:32Z</time>
      </trkpt>
      <trkpt lat="59.279454" lon="18.091301">
        <ele>30</ele>
        <time>2020-01-13T09:08:33Z</time>
      </trkpt>
      <trkpt lat="59.27943" lon="18.091303">
        <ele>30</ele>
        <time>2020-01-13T09:08:34Z</time>
      </trkpt>
      <trkpt lat="59.279409" lon="18.091305">
        <ele>30</ele>
        <time>2020-01-13T09:08:35Z</time>
      </trkpt>
      <trkpt lat="59.279376" lon="18.091303">
        <ele>30</ele>
        <time>2020-01-13T09:08:37Z</time>
      </trkpt>
      <trkpt lat="59.279356" lon="18.091306">
        <ele>30</ele>
        <time>2020-01-13T09:08:39Z</time>
      </trkpt>
      <trkpt lat="59.279357" lon="18.091306">
        <ele>0</ele>
        <time>2020-01-13T09:08:41Z</time>
      </trkpt>
      <trkpt lat="59.279278" lon="18.091332">
        <ele>30</ele>
        <time>2020-01-13T09:08:46Z</time>
      </trkpt>
      <trkpt lat="59.279243" lon="18.091348">
        <ele>30</ele>
        <time>2020-01-13T09:08:47Z</time>
      </trkpt>
      <trkpt lat="59.279205" lon="18.091363">
        <ele>30</ele>
        <time>2020-01-13T09:08:49Z</time>
      </trkpt>
      <trkpt lat="59.279165" lon="18.091381">
        <ele>30</ele>
        <time>2020-01-13T09:08:50Z</time>
      </trkpt>
      <trkpt lat="59.279127" lon="18.09141">
        <ele>30</ele>
        <time>2020-01-13T09:08:51Z</time>
      </trkpt>
      <trkpt lat="59.279088" lon="18.091449">
        <ele>0</ele>
        <time>2020-01-13T09:08:51Z</time>
      </trkpt>
      <trkpt lat="59.279044" lon="18.091488">
        <ele>30</ele>
        <time>2020-01-13T09:08:52Z</time>
      </trkpt>
      <trkpt lat="59.278997" lon="18.091519">
        <ele>30</ele>
        <time>2020-01-13T09:08:54Z</time>
      </trkpt>
      <trkpt lat="59.278948" lon="18.091545">
        <ele>30</ele>
        <time>2020-01-13T09:08:55Z</time>
      </trkpt>
      <trkpt lat="59.278898" lon="18.091567">
        <ele>30</ele>
        <time>2020-01-13T09:08:56Z</time>
      </trkpt>
      <trkpt lat="59.278847" lon="18.091587">
        <ele>30</ele>
        <time>2020-01-13T09:08:57Z</time>
      </trkpt>
      <trkpt lat="59.278793" lon="18.091604">
        <ele>30</ele>
        <time>2020-01-13T09:08:58Z</time>
      </trkpt>
      <trkpt lat="59.278741" lon="18.091621">
        <ele>30</ele>
        <time>2020-01-13T09:08:59Z</time>
      </trkpt>
      <trkpt lat="59.27869" lon="18.091639">
        <ele>30</ele>
        <time>2020-01-13T09:09:00Z</time>
      </trkpt>
      <trkpt lat="59.278638" lon="18.091654">
        <ele>30</ele>
        <time>2020-01-13T09:09:01Z</time>
      </trkpt>
      <trkpt lat="59.278586" lon="18.091666">
        <ele>30</ele>
        <time>2020-01-13T09:09:01Z</time>
      </trkpt>
      <trkpt lat="59.278535" lon="18.091673">
        <ele>30</ele>
        <time>2020-01-13T09:09:02Z</time>
      </trkpt>
      <trkpt lat="59.278483" lon="18.091673">
        <ele>30</ele>
        <time>2020-01-13T09:09:04Z</time>
      </trkpt>
      <trkpt lat="59.278432" lon="18.09167">
        <ele>30</ele>
        <time>2020-01-13T09:09:05Z</time>
      </trkpt>
      <trkpt lat="59.278382" lon="18.091665">
        <ele>0</ele>
        <time>2020-01-13T09:09:05Z</time>
      </trkpt>
      <trkpt lat="59.278331" lon="18.091661">
        <ele>30</ele>
        <time>2020-01-13T09:09:06Z</time>
      </trkpt>
      <trkpt lat="59.278282" lon="18.091668">
        <ele>30</ele>
        <time>2020-01-13T09:09:08Z</time>
      </trkpt>
      <trkpt lat="59.278235" lon="18.0917">
        <ele>30</ele>
        <time>2020-01-13T09:09:09Z</time>
      </trkpt>
      <trkpt lat="59.278189" lon="18.091742">
        <ele>30</ele>
        <time>2020-01-13T09:09:10Z</time>
      </trkpt>
      <trkpt lat="59.278141" lon="18.09177">
        <ele>30</ele>
        <time>2020-01-13T09:09:11Z</time>
      </trkpt>
      <trkpt lat="59.278092" lon="18.091783">
        <ele>0</ele>
        <time>2020-01-13T09:09:11Z</time>
      </trkpt>
      <trkpt lat="59.278043" lon="18.091793">
        <ele>31</ele>
        <time>2020-01-13T09:09:12Z</time>
      </trkpt>
      <trkpt lat="59.277995" lon="18.091799">
        <ele>31</ele>
        <time>2020-01-13T09:09:14Z</time>
      </trkpt>
      <trkpt lat="59.277947" lon="18.091802">
        <ele>31</ele>
        <time>2020-01-13T09:09:15Z</time>
      </trkpt>
      <trkpt lat="59.277899" lon="18.091804">
        <ele>31</ele>
        <time>2020-01-13T09:09:16Z</time>
      </trkpt>
      <trkpt lat="59.277852" lon="18.091808">
        <ele>31</ele>
        <time>2020-01-13T09:09:17Z</time>
      </trkpt>
      <trkpt lat="59.277805" lon="18.091812">
        <ele>31</ele>
        <time>2020-01-13T09:09:18Z</time>
      </trkpt>
      <trkpt lat="59.277759" lon="18.091817">
        <ele>31</ele>
        <time>2020-01-13T09:09:19Z</time>
      </trkpt>
      <trkpt lat="59.277714" lon="18.091825">
        <ele>31</ele>
        <time>2020-01-13T09:09:20Z</time>
      </trkpt>
      <trkpt lat="59.277669" lon="18.091833">
        <ele>31</ele>
        <time>2020-01-13T09:09:21Z</time>
      </trkpt>
      <trkpt lat="59.277624" lon="18.091843">
        <ele>0</ele>
        <time>2020-01-13T09:09:21Z</time>
      </trkpt>
      <trkpt lat="59.277579" lon="18.091854">
        <ele>32</ele>
        <time>2020-01-13T09:09:22Z</time>
      </trkpt>
      <trkpt lat="59.277534" lon="18.091866">
        <ele>32</ele>
        <time>2020-01-13T09:09:24Z</time>
      </trkpt>
      <trkpt lat="59.277488" lon="18.091877">
        <ele>0</ele>
        <time>2020-01-13T09:09:24Z</time>
      </trkpt>
      <trkpt lat="59.27744" lon="18.091889">
        <ele>32</ele>
        <time>2020-01-13T09:09:25Z</time>
      </trkpt>
      <trkpt lat="59.277391" lon="18.091901">
        <ele>32</ele>
        <time>2020-01-13T09:09:27Z</time>
      </trkpt>
      <trkpt lat="59.277341" lon="18.091913">
        <ele>32</ele>
        <time>2020-01-13T09:09:28Z</time>
      </trkpt>
      <trkpt lat="59.277292" lon="18.091927">
        <ele>32</ele>
        <time>2020-01-13T09:09:29Z</time>
      </trkpt>
      <trkpt lat="59.277243" lon="18.091939">
        <ele>32</ele>
        <time>2020-01-13T09:09:30Z</time>
      </trkpt>
      <trkpt lat="59.277195" lon="18.091952">
        <ele>32</ele>
        <time>2020-01-13T09:09:31Z</time>
      </trkpt>
      <trkpt lat="59.277146" lon="18.091963">
        <ele>32</ele>
        <time>2020-01-13T09:09:32Z</time>
      </trkpt>
      <trkpt lat="59.277098" lon="18.091975">
        <ele>0</ele>
        <time>2020-01-13T09:09:32Z</time>
      </trkpt>
      <trkpt lat="59.277051" lon="18.09199">
        <ele>32</ele>
        <time>2020-01-13T09:09:33Z</time>
      </trkpt>
      <trkpt lat="59.277003" lon="18.092007">
        <ele>33</ele>
        <time>2020-01-13T09:09:35Z</time>
      </trkpt>
      <trkpt lat="59.276955" lon="18.092022">
        <ele>33</ele>
        <time>2020-01-13T09:09:36Z</time>
      </trkpt>
      <trkpt lat="59.276907" lon="18.092038">
        <ele>33</ele>
        <time>2020-01-13T09:09:37Z</time>
      </trkpt>
      <trkpt lat="59.276859" lon="18.092053">
        <ele>33</ele>
        <time>2020-01-13T09:09:38Z</time>
      </trkpt>
      <trkpt lat="59.276811" lon="18.09207">
        <ele>33</ele>
        <time>2020-01-13T09:09:39Z</time>
      </trkpt>
      <trkpt lat="59.276763" lon="18.092089">
        <ele>33</ele>
        <time>2020-01-13T09:09:40Z</time>
      </trkpt>
      <trkpt lat="59.276715" lon="18.092108">
        <ele>33</ele>
        <time>2020-01-13T09:09:41Z</time>
      </trkpt>
      <trkpt lat="59.276665" lon="18.092126">
        <ele>33</ele>
        <time>2020-01-13T09:09:42Z</time>
      </trkpt>
      <trkpt lat="59.276616" lon="18.092144">
        <ele>0</ele>
        <time>2020-01-13T09:09:42Z</time>
      </trkpt>
      <trkpt lat="59.276565" lon="18.092163">
        <ele>33</ele>
        <time>2020-01-13T09:09:43Z</time>
      </trkpt>
      <trkpt lat="59.276515" lon="18.092184">
        <ele>33</ele>
        <time>2020-01-13T09:09:44Z</time>
      </trkpt>
      <trkpt lat="59.276464" lon="18.092205">
        <ele>34</ele>
        <time>2020-01-13T09:09:46Z</time>
      </trkpt>
      <trkpt lat="59.276413" lon="18.092222">
        <ele>34</ele>
        <time>2020-01-13T09:09:47Z</time>
      </trkpt>
      <trkpt lat="59.27636" lon="18.092239">
        <ele>34</ele>
        <time>2020-01-13T09:09:48Z</time>
      </trkpt>
      <trkpt lat="59.276308" lon="18.092257">
        <ele>34</ele>
        <time>2020-01-13T09:09:49Z</time>
      </trkpt>
      <trkpt lat="59.276256" lon="18.092276">
        <ele>34</ele>
        <time>2020-01-13T09:09:50Z</time>
      </trkpt>
      <trkpt lat="59.276203" lon="18.092294">
        <ele>34</ele>
        <time>2020-01-13T09:09:51Z</time>
      </trkpt>
      <trkpt lat="59.27615" lon="18.092311">
        <ele>0</ele>
        <time>2020-01-13T09:09:51Z</time>
      </trkpt>
      <trkpt lat="59.276098" lon="18.092327">
        <ele>34</ele>
        <time>2020-01-13T09:09:52Z</time>
      </trkpt>
      <trkpt lat="59.276045" lon="18.092341">
        <ele>34</ele>
        <time>2020-01-13T09:09:54Z</time>
      </trkpt>
      <trkpt lat="59.275992" lon="18.092356">
        <ele>34</ele>
        <time>2020-01-13T09:09:55Z</time>
      </trkpt>
      <trkpt lat="59.275939" lon="18.092373">
        <ele>34</ele>
        <time>2020-01-13T09:09:56Z</time>
      </trkpt>
      <trkpt lat="59.275886" lon="18.092388">
        <ele>34</ele>
        <time>2020-01-13T09:09:57Z</time>
      </trkpt>
      <trkpt lat="59.275834" lon="18.092404">
        <ele>34</ele>
        <time>2020-01-13T09:09:58Z</time>
      </trkpt>
      <trkpt lat="59.275783" lon="18.092419">
        <ele>34</ele>
        <time>2020-01-13T09:09:59Z</time>
      </trkpt>
      <trkpt lat="59.275731" lon="18.092431">
        <ele>34</ele>
        <time>2020-01-13T09:10:00Z</time>
      </trkpt>
      <trkpt lat="59.275679" lon="18.092444">
        <ele>34</ele>
        <time>2020-01-13T09:10:01Z</time>
      </trkpt>
      <trkpt lat="59.275627" lon="18.092456">
        <ele>34</ele>
        <time>2020-01-13T09:10:01Z</time>
      </trkpt>
      <trkpt lat="59.275575" lon="18.092465">
        <ele>34</ele>
        <time>2020-01-13T09:10:02Z</time>
      </trkpt>
      <trkpt lat="59.275523" lon="18.092472">
        <ele>34</ele>
        <time>2020-01-13T09:10:03Z</time>
      </trkpt>
      <trkpt lat="59.27547" lon="18.09248">
        <ele>34</ele>
        <time>2020-01-13T09:10:05Z</time>
      </trkpt>
      <trkpt lat="59.275418" lon="18.092487">
        <ele>34</ele>
        <time>2020-01-13T09:10:06Z</time>
      </trkpt>
      <trkpt lat="59.275366" lon="18.092495">
        <ele>34</ele>
        <time>2020-01-13T09:10:07Z</time>
      </trkpt>
      <trkpt lat="59.275315" lon="18.092504">
        <ele>34</ele>
        <time>2020-01-13T09:10:08Z</time>
      </trkpt>
      <trkpt lat="59.275262" lon="18.092514">
        <ele>34</ele>
        <time>2020-01-13T09:10:09Z</time>
      </trkpt>
      <trkpt lat="59.275209" lon="18.092523">
        <ele>34</ele>
        <time>2020-01-13T09:10:10Z</time>
      </trkpt>
      <trkpt lat="59.275156" lon="18.09253">
        <ele>0</ele>
        <time>2020-01-13T09:10:10Z</time>
      </trkpt>
      <trkpt lat="59.275102" lon="18.092535">
        <ele>34</ele>
        <time>2020-01-13T09:10:11Z</time>
      </trkpt>
      <trkpt lat="59.275048" lon="18.092538">
        <ele>34</ele>
        <time>2020-01-13T09:10:13Z</time>
      </trkpt>
      <trkpt lat="59.274996" lon="18.09254">
        <ele>34</ele>
        <time>2020-01-13T09:10:14Z</time>
      </trkpt>
      <trkpt lat="59.274943" lon="18.092535">
        <ele>34</ele>
        <time>2020-01-13T09:10:15Z</time>
      </trkpt>
      <trkpt lat="59.274892" lon="18.092519">
        <ele>34</ele>
        <time>2020-01-13T09:10:16Z</time>
      </trkpt>
      <trkpt lat="59.274843" lon="18.092487">
        <ele>34</ele>
        <time>2020-01-13T09:10:17Z</time>
      </trkpt>
      <trkpt lat="59.274797" lon="18.092443">
        <ele>35</ele>
        <time>2020-01-13T09:10:18Z</time>
      </trkpt>
      <trkpt lat="59.274753" lon="18.092388">
        <ele>35</ele>
        <time>2020-01-13T09:10:19Z</time>
      </trkpt>
      <trkpt lat="59.274713" lon="18.092328">
        <ele>35</ele>
        <time>2020-01-13T09:10:20Z</time>
      </trkpt>
      <trkpt lat="59.274674" lon="18.092268">
        <ele>0</ele>
        <time>2020-01-13T09:10:20Z</time>
      </trkpt>
      <trkpt lat="59.274633" lon="18.092205">
        <ele>35</ele>
        <time>2020-01-13T09:10:21Z</time>
      </trkpt>
      <trkpt lat="59.274591" lon="18.092143">
        <ele>35</ele>
        <time>2020-01-13T09:10:22Z</time>
      </trkpt>
      <trkpt lat="59.274548" lon="18.092085">
        <ele>35</ele>
        <time>2020-01-13T09:10:24Z</time>
      </trkpt>
      <trkpt lat="59.274503" lon="18.092036">
        <ele>35</ele>
        <time>2020-01-13T09:10:25Z</time>
      </trkpt>
      <trkpt lat="59.274458" lon="18.092001">
        <ele>35</ele>
        <time>2020-01-13T09:10:26Z</time>
      </trkpt>
      <trkpt lat="59.274409" lon="18.091974">
        <ele>35</ele>
        <time>2020-01-13T09:10:27Z</time>
      </trkpt>
      <trkpt lat="59.274356" lon="18.09195">
        <ele>35</ele>
        <time>2020-01-13T09:10:28Z</time>
      </trkpt>
      <trkpt lat="59.274303" lon="18.091924">
        <ele>35</ele>
        <time>2020-01-13T09:10:29Z</time>
      </trkpt>
      <trkpt lat="59.274248" lon="18.091893">
        <ele>0</ele>
        <time>2020-01-13T09:10:29Z</time>
      </trkpt>
      <trkpt lat="59.274197" lon="18.091853">
        <ele>35</ele>
        <time>2020-01-13T09:10:30Z</time>
      </trkpt>
      <trkpt lat="59.27415" lon="18.0918">
        <ele>36</ele>
        <time>2020-01-13T09:10:32Z</time>
      </trkpt>
      <trkpt lat="59.274112" lon="18.091732">
        <ele>36</ele>
        <time>2020-01-13T09:10:33Z</time>
      </trkpt>
      <trkpt lat="59.274081" lon="18.091655">
        <ele>36</ele>
        <time>2020-01-13T09:10:34Z</time>
      </trkpt>
      <trkpt lat="59.274053" lon="18.091579">
        <ele>36</ele>
        <time>2020-01-13T09:10:35Z</time>
      </trkpt>
      <trkpt lat="59.274027" lon="18.091504">
        <ele>36</ele>
        <time>2020-01-13T09:10:36Z</time>
      </trkpt>
      <trkpt lat="59.274" lon="18.091432">
        <ele>36</ele>
        <time>2020-01-13T09:10:37Z</time>
      </trkpt>
      <trkpt lat="59.273974" lon="18.091362">
        <ele>36</ele>
        <time>2020-01-13T09:10:38Z</time>
      </trkpt>
      <trkpt lat="59.273947" lon="18.091294">
        <ele>36</ele>
        <time>2020-01-13T09:10:39Z</time>
      </trkpt>
      <trkpt lat="59.27392" lon="18.091226">
        <ele>36</ele>
        <time>2020-01-13T09:10:40Z</time>
      </trkpt>
      <trkpt lat="59.273893" lon="18.091157">
        <ele>0</ele>
        <time>2020-01-13T09:10:40Z</time>
      </trkpt>
      <trkpt lat="59.273866" lon="18.091088">
        <ele>37</ele>
        <time>2020-01-13T09:10:41Z</time>
      </trkpt>
      <trkpt lat="59.273838" lon="18.091017">
        <ele>37</ele>
        <time>2020-01-13T09:10:43Z</time>
      </trkpt>
      <trkpt lat="59.273808" lon="18.090949">
        <ele>37</ele>
        <time>2020-01-13T09:10:44Z</time>
      </trkpt>
      <trkpt lat="59.273775" lon="18.090888">
        <ele>37</ele>
        <time>2020-01-13T09:10:45Z</time>
      </trkpt>
      <trkpt lat="59.273735" lon="18.090849">
        <ele>37</ele>
        <time>2020-01-13T09:10:46Z</time>
      </trkpt>
      <trkpt lat="59.273691" lon="18.090836">
        <ele>37</ele>
        <time>2020-01-13T09:10:47Z</time>
      </trkpt>
      <trkpt lat="59.273647" lon="18.090843">
        <ele>37</ele>
        <time>2020-01-13T09:10:48Z</time>
      </trkpt>
      <trkpt lat="59.273605" lon="18.090861">
        <ele>37</ele>
        <time>2020-01-13T09:10:49Z</time>
      </trkpt>
      <trkpt lat="59.273562" lon="18.090883">
        <ele>37</ele>
        <time>2020-01-13T09:10:50Z</time>
      </trkpt>
      <trkpt lat="59.273519" lon="18.090908">
        <ele>38</ele>
        <time>2020-01-13T09:10:51Z</time>
      </trkpt>
      <trkpt lat="59.273475" lon="18.090934">
        <ele>0</ele>
        <time>2020-01-13T09:10:51Z</time>
      </trkpt>
      <trkpt lat="59.273433" lon="18.090958">
        <ele>38</ele>
        <time>2020-01-13T09:10:52Z</time>
      </trkpt>
      <trkpt lat="59.273394" lon="18.090981">
        <ele>38</ele>
        <time>2020-01-13T09:10:53Z</time>
      </trkpt>
      <trkpt lat="59.273358" lon="18.091">
        <ele>39</ele>
        <time>2020-01-13T09:10:55Z</time>
      </trkpt>
      <trkpt lat="59.273317" lon="18.091024">
        <ele>39</ele>
        <time>2020-01-13T09:10:56Z</time>
      </trkpt>
      <trkpt lat="59.273284" lon="18.091038">
        <ele>39</ele>
        <time>2020-01-13T09:10:57Z</time>
      </trkpt>
      <trkpt lat="59.273253" lon="18.091056">
        <ele>39</ele>
        <time>2020-01-13T09:10:58Z</time>
      </trkpt>
      <trkpt lat="59.273214" lon="18.09108">
        <ele>40</ele>
        <time>2020-01-13T09:10:59Z</time>
      </trkpt>
      <trkpt lat="59.273168" lon="18.09111">
        <ele>0</ele>
        <time>2020-01-13T09:10:59Z</time>
      </trkpt>
      <trkpt lat="59.273124" lon="18.09114">
        <ele>40</ele>
        <time>2020-01-13T09:11:00Z</time>
      </trkpt>
      <trkpt lat="59.273084" lon="18.091167">
        <ele>40</ele>
        <time>2020-01-13T09:11:02Z</time>
      </trkpt>
      <trkpt lat="59.273043" lon="18.091193">
        <ele>40</ele>
        <time>2020-01-13T09:11:03Z</time>
      </trkpt>
      <trkpt lat="59.273002" lon="18.091216">
        <ele>0</ele>
        <time>2020-01-13T09:11:03Z</time>
      </trkpt>
      <trkpt lat="59.272961" lon="18.091246">
        <ele>41</ele>
        <time>2020-01-13T09:11:04Z</time>
      </trkpt>
      <trkpt lat="59.272922" lon="18.091278">
        <ele>41</ele>
        <time>2020-01-13T09:11:06Z</time>
      </trkpt>
      <trkpt lat="59.272882" lon="18.09133">
        <ele>41</ele>
        <time>2020-01-13T09:11:07Z</time>
      </trkpt>
      <trkpt lat="59.27284" lon="18.091392">
        <ele>41</ele>
        <time>2020-01-13T09:11:08Z</time>
      </trkpt>
      <trkpt lat="59.272805" lon="18.091482">
        <ele>41</ele>
        <time>2020-01-13T09:11:09Z</time>
      </trkpt>
      <trkpt lat="59.272776" lon="18.091584">
        <ele>42</ele>
        <time>2020-01-13T09:11:10Z</time>
      </trkpt>
      <trkpt lat="59.27275" lon="18.0917">
        <ele>42</ele>
        <time>2020-01-13T09:11:11Z</time>
      </trkpt>
      <trkpt lat="59.272734" lon="18.091815">
        <ele>42</ele>
        <time>2020-01-13T09:11:12Z</time>
      </trkpt>
      <trkpt lat="59.272719" lon="18.091924">
        <ele>0</ele>
        <time>2020-01-13T09:11:12Z</time>
      </trkpt>
      <trkpt lat="59.272708" lon="18.09203">
        <ele>42</ele>
        <time>2020-01-13T09:11:13Z</time>
      </trkpt>
      <trkpt lat="59.2727" lon="18.09214">
        <ele>42</ele>
        <time>2020-01-13T09:11:15Z</time>
      </trkpt>
      <trkpt lat="59.272694" lon="18.092252">
        <ele>42</ele>
        <time>2020-01-13T09:11:16Z</time>
      </trkpt>
      <trkpt lat="59.272683" lon="18.092362">
        <ele>42</ele>
        <time>2020-01-13T09:11:17Z</time>
      </trkpt>
      <trkpt lat="59.272668" lon="18.092476">
        <ele>42</ele>
        <time>2020-01-13T09:11:18Z</time>
      </trkpt>
      <trkpt lat="59.272651" lon="18.092588">
        <ele>0</ele>
        <time>2020-01-13T09:11:18Z</time>
      </trkpt>
      <trkpt lat="59.272632" lon="18.092704">
        <ele>42</ele>
        <time>2020-01-13T09:11:19Z</time>
      </trkpt>
      <trkpt lat="59.272611" lon="18.09282">
        <ele>42</ele>
        <time>2020-01-13T09:11:21Z</time>
      </trkpt>
      <trkpt lat="59.27259" lon="18.09293">
        <ele>0</ele>
        <time>2020-01-13T09:11:21Z</time>
      </trkpt>
      <trkpt lat="59.272573" lon="18.093032">
        <ele>42</ele>
        <time>2020-01-13T09:11:22Z</time>
      </trkpt>
      <trkpt lat="59.272561" lon="18.093127">
        <ele>42</ele>
        <time>2020-01-13T09:11:24Z</time>
      </trkpt>
      <trkpt lat="59.272543" lon="18.09323">
        <ele>42</ele>
        <time>2020-01-13T09:11:25Z</time>
      </trkpt>
      <trkpt lat="59.272484" lon="18.093402">
        <ele>42</ele>
        <time>2020-01-13T09:11:27Z</time>
      </trkpt>
      <trkpt lat="59.272369" lon="18.093498">
        <ele>42</ele>
        <time>2020-01-13T09:11:29Z</time>
      </trkpt>
      <trkpt lat="59.272303" lon="18.093523">
        <ele>0</ele>
        <time>2020-01-13T09:11:29Z</time>
      </trkpt>
      <trkpt lat="59.272244" lon="18.093538">
        <ele>41</ele>
        <time>2020-01-13T09:11:30Z</time>
      </trkpt>
      <trkpt lat="59.272185" lon="18.093548">
        <ele>41</ele>
        <time>2020-01-13T09:11:32Z</time>
      </trkpt>
      <trkpt lat="59.272124" lon="18.093564">
        <ele>41</ele>
        <time>2020-01-13T09:11:33Z</time>
      </trkpt>
      <trkpt lat="59.272062" lon="18.093583">
        <ele>40</ele>
        <time>2020-01-13T09:11:34Z</time>
      </trkpt>
      <trkpt lat="59.272001" lon="18.093608">
        <ele>40</ele>
        <time>2020-01-13T09:11:35Z</time>
      </trkpt>
      <trkpt lat="59.271942" lon="18.09364">
        <ele>40</ele>
        <time>2020-01-13T09:11:36Z</time>
      </trkpt>
      <trkpt lat="59.271882" lon="18.093672">
        <ele>40</ele>
        <time>2020-01-13T09:11:37Z</time>
      </trkpt>
      <trkpt lat="59.271821" lon="18.093706">
        <ele>0</ele>
        <time>2020-01-13T09:11:37Z</time>
      </trkpt>
      <trkpt lat="59.271758" lon="18.093738">
        <ele>39</ele>
        <time>2020-01-13T09:11:38Z</time>
      </trkpt>
      <trkpt lat="59.271697" lon="18.093768">
        <ele>39</ele>
        <time>2020-01-13T09:11:40Z</time>
      </trkpt>
      <trkpt lat="59.271635" lon="18.0938">
        <ele>39</ele>
        <time>2020-01-13T09:11:41Z</time>
      </trkpt>
      <trkpt lat="59.271573" lon="18.09383">
        <ele>39</ele>
        <time>2020-01-13T09:11:42Z</time>
      </trkpt>
      <trkpt lat="59.271508" lon="18.093858">
        <ele>38</ele>
        <time>2020-01-13T09:11:43Z</time>
      </trkpt>
      <trkpt lat="59.27144" lon="18.093881">
        <ele>38</ele>
        <time>2020-01-13T09:11:44Z</time>
      </trkpt>
      <trkpt lat="59.271372" lon="18.093901">
        <ele>38</ele>
        <time>2020-01-13T09:11:45Z</time>
      </trkpt>
      <trkpt lat="59.271304" lon="18.093918">
        <ele>0</ele>
        <time>2020-01-13T09:11:45Z</time>
      </trkpt>
      <trkpt lat="59.271238" lon="18.093938">
        <ele>38</ele>
        <time>2020-01-13T09:11:46Z</time>
      </trkpt>
      <trkpt lat="59.271173" lon="18.093963">
        <ele>38</ele>
        <time>2020-01-13T09:11:48Z</time>
      </trkpt>
      <trkpt lat="59.271111" lon="18.093986">
        <ele>38</ele>
        <time>2020-01-13T09:11:49Z</time>
      </trkpt>
      <trkpt lat="59.271051" lon="18.094008">
        <ele>38</ele>
        <time>2020-01-13T09:11:50Z</time>
      </trkpt>
      <trkpt lat="59.270991" lon="18.094032">
        <ele>38</ele>
        <time>2020-01-13T09:11:51Z</time>
      </trkpt>
      <trkpt lat="59.27093" lon="18.094064">
        <ele>38</ele>
        <time>2020-01-13T09:11:52Z</time>
      </trkpt>
      <trkpt lat="59.270866" lon="18.094098">
        <ele>38</ele>
        <time>2020-01-13T09:11:53Z</time>
      </trkpt>
      <trkpt lat="59.270799" lon="18.094134">
        <ele>0</ele>
        <time>2020-01-13T09:11:53Z</time>
      </trkpt>
      <trkpt lat="59.270733" lon="18.09417">
        <ele>38</ele>
        <time>2020-01-13T09:11:54Z</time>
      </trkpt>
      <trkpt lat="59.270665" lon="18.094202">
        <ele>37</ele>
        <time>2020-01-13T09:11:56Z</time>
      </trkpt>
      <trkpt lat="59.2706" lon="18.09423">
        <ele>0</ele>
        <time>2020-01-13T09:11:56Z</time>
      </trkpt>
      <trkpt lat="59.270535" lon="18.094256">
        <ele>37</ele>
        <time>2020-01-13T09:11:57Z</time>
      </trkpt>
      <trkpt lat="59.270472" lon="18.094278">
        <ele>37</ele>
        <time>2020-01-13T09:11:59Z</time>
      </trkpt>
      <trkpt lat="59.270408" lon="18.0943">
        <ele>37</ele>
        <time>2020-01-13T09:12:00Z</time>
      </trkpt>
      <trkpt lat="59.270342" lon="18.094322">
        <ele>0</ele>
        <time>2020-01-13T09:12:00Z</time>
      </trkpt>
      <trkpt lat="59.270279" lon="18.094343">
        <ele>36</ele>
        <time>2020-01-13T09:12:01Z</time>
      </trkpt>
      <trkpt lat="59.270216" lon="18.094366">
        <ele>36</ele>
        <time>2020-01-13T09:12:03Z</time>
      </trkpt>
      <trkpt lat="59.270154" lon="18.094389">
        <ele>36</ele>
        <time>2020-01-13T09:12:04Z</time>
      </trkpt>
      <trkpt lat="59.270092" lon="18.094414">
        <ele>36</ele>
        <time>2020-01-13T09:12:05Z</time>
      </trkpt>
      <trkpt lat="59.270035" lon="18.094439">
        <ele>36</ele>
        <time>2020-01-13T09:12:06Z</time>
      </trkpt>
      <trkpt lat="59.269977" lon="18.094465">
        <ele>36</ele>
        <time>2020-01-13T09:12:07Z</time>
      </trkpt>
      <trkpt lat="59.269921" lon="18.094494">
        <ele>36</ele>
        <time>2020-01-13T09:12:08Z</time>
      </trkpt>
      <trkpt lat="59.269865" lon="18.094532">
        <ele>0</ele>
        <time>2020-01-13T09:12:08Z</time>
      </trkpt>
      <trkpt lat="59.269809" lon="18.094578">
        <ele>36</ele>
        <time>2020-01-13T09:12:09Z</time>
      </trkpt>
      <trkpt lat="59.269758" lon="18.094626">
        <ele>36</ele>
        <time>2020-01-13T09:12:11Z</time>
      </trkpt>
      <trkpt lat="59.269706" lon="18.094668">
        <ele>36</ele>
        <time>2020-01-13T09:12:12Z</time>
      </trkpt>
      <trkpt lat="59.269653" lon="18.094705">
        <ele>36</ele>
        <time>2020-01-13T09:12:13Z</time>
      </trkpt>
      <trkpt lat="59.269603" lon="18.094733">
        <ele>36</ele>
        <time>2020-01-13T09:12:14Z</time>
      </trkpt>
      <trkpt lat="59.269559" lon="18.094757">
        <ele>36</ele>
        <time>2020-01-13T09:12:15Z</time>
      </trkpt>
      <trkpt lat="59.269511" lon="18.094776">
        <ele>0</ele>
        <time>2020-01-13T09:12:15Z</time>
      </trkpt>
      <trkpt lat="59.269453" lon="18.0948">
        <ele>36</ele>
        <time>2020-01-13T09:12:16Z</time>
      </trkpt>
      <trkpt lat="59.269398" lon="18.094823">
        <ele>36</ele>
        <time>2020-01-13T09:12:18Z</time>
      </trkpt>
      <trkpt lat="59.269349" lon="18.094842">
        <ele>0</ele>
        <time>2020-01-13T09:12:18Z</time>
      </trkpt>
      <trkpt lat="59.269299" lon="18.094867">
        <ele>37</ele>
        <time>2020-01-13T09:12:19Z</time>
      </trkpt>
      <trkpt lat="59.269257" lon="18.094896">
        <ele>37</ele>
        <time>2020-01-13T09:12:21Z</time>
      </trkpt>
      <trkpt lat="59.269219" lon="18.09492">
        <ele>37</ele>
        <time>2020-01-13T09:12:22Z</time>
      </trkpt>
      <trkpt lat="59.269166" lon="18.094948">
        <ele>37</ele>
        <time>2020-01-13T09:12:23Z</time>
      </trkpt>
      <trkpt lat="59.269106" lon="18.094978">
        <ele>37</ele>
        <time>2020-01-13T09:12:24Z</time>
      </trkpt>
      <trkpt lat="59.269041" lon="18.09501">
        <ele>38</ele>
        <time>2020-01-13T09:12:25Z</time>
      </trkpt>
      <trkpt lat="59.268986" lon="18.095038">
        <ele>38</ele>
        <time>2020-01-13T09:12:26Z</time>
      </trkpt>
      <trkpt lat="59.268929" lon="18.09507">
        <ele>38</ele>
        <time>2020-01-13T09:12:27Z</time>
      </trkpt>
      <trkpt lat="59.268876" lon="18.095105">
        <ele>0</ele>
        <time>2020-01-13T09:12:27Z</time>
      </trkpt>
      <trkpt lat="59.268827" lon="18.095133">
        <ele>38</ele>
        <time>2020-01-13T09:12:28Z</time>
      </trkpt>
      <trkpt lat="59.268764" lon="18.095161">
        <ele>38</ele>
        <time>2020-01-13T09:12:30Z</time>
      </trkpt>
      <trkpt lat="59.26871" lon="18.095191">
        <ele>39</ele>
        <time>2020-01-13T09:12:31Z</time>
      </trkpt>
      <trkpt lat="59.268656" lon="18.095227">
        <ele>39</ele>
        <time>2020-01-13T09:12:32Z</time>
      </trkpt>
      <trkpt lat="59.268596" lon="18.095262">
        <ele>39</ele>
        <time>2020-01-13T09:12:33Z</time>
      </trkpt>
      <trkpt lat="59.268533" lon="18.095298">
        <ele>39</ele>
        <time>2020-01-13T09:12:34Z</time>
      </trkpt>
      <trkpt lat="59.26847" lon="18.095336">
        <ele>0</ele>
        <time>2020-01-13T09:12:34Z</time>
      </trkpt>
      <trkpt lat="59.268411" lon="18.095374">
        <ele>39</ele>
        <time>2020-01-13T09:12:35Z</time>
      </trkpt>
      <trkpt lat="59.268353" lon="18.095412">
        <ele>39</ele>
        <time>2020-01-13T09:12:36Z</time>
      </trkpt>
      <trkpt lat="59.268297" lon="18.09545">
        <ele>39</ele>
        <time>2020-01-13T09:12:38Z</time>
      </trkpt>
      <trkpt lat="59.26824" lon="18.095488">
        <ele>39</ele>
        <time>2020-01-13T09:12:39Z</time>
      </trkpt>
      <trkpt lat="59.268179" lon="18.095529">
        <ele>39</ele>
        <time>2020-01-13T09:12:40Z</time>
      </trkpt>
      <trkpt lat="59.268117" lon="18.095572">
        <ele>39</ele>
        <time>2020-01-13T09:12:41Z</time>
      </trkpt>
      <trkpt lat="59.268067" lon="18.095613">
        <ele>39</ele>
        <time>2020-01-13T09:12:42Z</time>
      </trkpt>
      <trkpt lat="59.268013" lon="18.095648">
        <ele>38</ele>
        <time>2020-01-13T09:12:43Z</time>
      </trkpt>
      <trkpt lat="59.267952" lon="18.095682">
        <ele>0</ele>
        <time>2020-01-13T09:12:43Z</time>
      </trkpt>
      <trkpt lat="59.267885" lon="18.095714">
        <ele>38</ele>
        <time>2020-01-13T09:12:44Z</time>
      </trkpt>
      <trkpt lat="59.267823" lon="18.095734">
        <ele>38</ele>
        <time>2020-01-13T09:12:46Z</time>
      </trkpt>
      <trkpt lat="59.26776" lon="18.095754">
        <ele>38</ele>
        <time>2020-01-13T09:12:47Z</time>
      </trkpt>
      <trkpt lat="59.267693" lon="18.095773">
        <ele>38</ele>
        <time>2020-01-13T09:12:48Z</time>
      </trkpt>
      <trkpt lat="59.267628" lon="18.095792">
        <ele>37</ele>
        <time>2020-01-13T09:12:49Z</time>
      </trkpt>
      <trkpt lat="59.26756" lon="18.095815">
        <ele>37</ele>
        <time>2020-01-13T09:12:50Z</time>
      </trkpt>
      <trkpt lat="59.267498" lon="18.095836">
        <ele>37</ele>
        <time>2020-01-13T09:12:51Z</time>
      </trkpt>
      <trkpt lat="59.267435" lon="18.095859">
        <ele>0</ele>
        <time>2020-01-13T09:12:51Z</time>
      </trkpt>
      <trkpt lat="59.267374" lon="18.095878">
        <ele>37</ele>
        <time>2020-01-13T09:12:52Z</time>
      </trkpt>
      <trkpt lat="59.267314" lon="18.095897">
        <ele>0</ele>
        <time>2020-01-13T09:12:53Z</time>
      </trkpt>
      <trkpt lat="59.267255" lon="18.095916">
        <ele>37</ele>
        <time>2020-01-13T09:12:54Z</time>
      </trkpt>
      <trkpt lat="59.267199" lon="18.095936">
        <ele>37</ele>
        <time>2020-01-13T09:12:56Z</time>
      </trkpt>
      <trkpt lat="59.267145" lon="18.095953">
        <ele>37</ele>
        <time>2020-01-13T09:12:57Z</time>
      </trkpt>
      <trkpt lat="59.267098" lon="18.095963">
        <ele>38</ele>
        <time>2020-01-13T09:12:58Z</time>
      </trkpt>
      <trkpt lat="59.267051" lon="18.095969">
        <ele>38</ele>
        <time>2020-01-13T09:12:59Z</time>
      </trkpt>
      <trkpt lat="59.266995" lon="18.095993">
        <ele>38</ele>
        <time>2020-01-13T09:13:00Z</time>
      </trkpt>
      <trkpt lat="59.266936" lon="18.096029">
        <ele>0</ele>
        <time>2020-01-13T09:13:00Z</time>
      </trkpt>
      <trkpt lat="59.26688" lon="18.096076">
        <ele>38</ele>
        <time>2020-01-13T09:13:01Z</time>
      </trkpt>
      <trkpt lat="59.26683" lon="18.096134">
        <ele>38</ele>
        <time>2020-01-13T09:13:03Z</time>
      </trkpt>
      <trkpt lat="59.266788" lon="18.096196">
        <ele>38</ele>
        <time>2020-01-13T09:13:04Z</time>
      </trkpt>
      <trkpt lat="59.266738" lon="18.096262">
        <ele>37</ele>
        <time>2020-01-13T09:13:05Z</time>
      </trkpt>
      <trkpt lat="59.266688" lon="18.096334">
        <ele>37</ele>
        <time>2020-01-13T09:13:06Z</time>
      </trkpt>
      <trkpt lat="59.266642" lon="18.096406">
        <ele>37</ele>
        <time>2020-01-13T09:13:07Z</time>
      </trkpt>
      <trkpt lat="59.2666" lon="18.096474">
        <ele>37</ele>
        <time>2020-01-13T09:13:08Z</time>
      </trkpt>
      <trkpt lat="59.266546" lon="18.096542">
        <ele>0</ele>
        <time>2020-01-13T09:13:08Z</time>
      </trkpt>
      <trkpt lat="59.266492" lon="18.096606">
        <ele>37</ele>
        <time>2020-01-13T09:13:09Z</time>
      </trkpt>
      <trkpt lat="59.266437" lon="18.096672">
        <ele>37</ele>
        <time>2020-01-13T09:13:11Z</time>
      </trkpt>
      <trkpt lat="59.266387" lon="18.096734">
        <ele>37</ele>
        <time>2020-01-13T09:13:12Z</time>
      </trkpt>
      <trkpt lat="59.266339" lon="18.096792">
        <ele>0</ele>
        <time>2020-01-13T09:13:12Z</time>
      </trkpt>
      <trkpt lat="59.266285" lon="18.096841">
        <ele>37</ele>
        <time>2020-01-13T09:13:13Z</time>
      </trkpt>
      <trkpt lat="59.266224" lon="18.096888">
        <ele>36</ele>
        <time>2020-01-13T09:13:15Z</time>
      </trkpt>
      <trkpt lat="59.26616" lon="18.09693">
        <ele>36</ele>
        <time>2020-01-13T09:13:16Z</time>
      </trkpt>
      <trkpt lat="59.266103" lon="18.09697">
        <ele>0</ele>
        <time>2020-01-13T09:13:16Z</time>
      </trkpt>
      <trkpt lat="59.266044" lon="18.097005">
        <ele>36</ele>
        <time>2020-01-13T09:13:17Z</time>
      </trkpt>
      <trkpt lat="59.265986" lon="18.097038">
        <ele>36</ele>
        <time>2020-01-13T09:13:19Z</time>
      </trkpt>
      <trkpt lat="59.265927" lon="18.097074">
        <ele>36</ele>
        <time>2020-01-13T09:13:20Z</time>
      </trkpt>
      <trkpt lat="59.265865" lon="18.097108">
        <ele>35</ele>
        <time>2020-01-13T09:13:21Z</time>
      </trkpt>
      <trkpt lat="59.265801" lon="18.097142">
        <ele>35</ele>
        <time>2020-01-13T09:13:22Z</time>
      </trkpt>
      <trkpt lat="59.265737" lon="18.097172">
        <ele>35</ele>
        <time>2020-01-13T09:13:23Z</time>
      </trkpt>
      <trkpt lat="59.265671" lon="18.0972">
        <ele>34</ele>
        <time>2020-01-13T09:13:24Z</time>
      </trkpt>
      <trkpt lat="59.265602" lon="18.097226">
        <ele>0</ele>
        <time>2020-01-13T09:13:24Z</time>
      </trkpt>
      <trkpt lat="59.265527" lon="18.097257">
        <ele>34</ele>
        <time>2020-01-13T09:13:25Z</time>
      </trkpt>
      <trkpt lat="59.265452" lon="18.097288">
        <ele>33</ele>
        <time>2020-01-13T09:13:27Z</time>
      </trkpt>
      <trkpt lat="59.265374" lon="18.097314">
        <ele>33</ele>
        <time>2020-01-13T09:13:28Z</time>
      </trkpt>
      <trkpt lat="59.265298" lon="18.097328">
        <ele>33</ele>
        <time>2020-01-13T09:13:29Z</time>
      </trkpt>
      <trkpt lat="59.265225" lon="18.097344">
        <ele>33</ele>
        <time>2020-01-13T09:13:30Z</time>
      </trkpt>
      <trkpt lat="59.265156" lon="18.097368">
        <ele>0</ele>
        <time>2020-01-13T09:13:30Z</time>
      </trkpt>
      <trkpt lat="59.265091" lon="18.097397">
        <ele>33</ele>
        <time>2020-01-13T09:13:31Z</time>
      </trkpt>
      <trkpt lat="59.265031" lon="18.097422">
        <ele>33</ele>
        <time>2020-01-13T09:13:32Z</time>
      </trkpt>
      <trkpt lat="59.264972" lon="18.097448">
        <ele>33</ele>
        <time>2020-01-13T09:13:34Z</time>
      </trkpt>
      <trkpt lat="59.264918" lon="18.097471">
        <ele>33</ele>
        <time>2020-01-13T09:13:35Z</time>
      </trkpt>
      <trkpt lat="59.264865" lon="18.097496">
        <ele>33</ele>
        <time>2020-01-13T09:13:36Z</time>
      </trkpt>
      <trkpt lat="59.264814" lon="18.097518">
        <ele>33</ele>
        <time>2020-01-13T09:13:37Z</time>
      </trkpt>
      <trkpt lat="59.264766" lon="18.09754">
        <ele>33</ele>
        <time>2020-01-13T09:13:38Z</time>
      </trkpt>
      <trkpt lat="59.264719" lon="18.097558">
        <ele>33</ele>
        <time>2020-01-13T09:13:39Z</time>
      </trkpt>
      <trkpt lat="59.26467" lon="18.097578">
        <ele>33</ele>
        <time>2020-01-13T09:13:40Z</time>
      </trkpt>
      <trkpt lat="59.26462" lon="18.097598">
        <ele>0</ele>
        <time>2020-01-13T09:13:40Z</time>
      </trkpt>
      <trkpt lat="59.264571" lon="18.09762">
        <ele>34</ele>
        <time>2020-01-13T09:13:41Z</time>
      </trkpt>
      <trkpt lat="59.264524" lon="18.09764">
        <ele>34</ele>
        <time>2020-01-13T09:13:43Z</time>
      </trkpt>
      <trkpt lat="59.264474" lon="18.097664">
        <ele>34</ele>
        <time>2020-01-13T09:13:44Z</time>
      </trkpt>
      <trkpt lat="59.264425" lon="18.097686">
        <ele>34</ele>
        <time>2020-01-13T09:13:45Z</time>
      </trkpt>
      <trkpt lat="59.264373" lon="18.097704">
        <ele>34</ele>
        <time>2020-01-13T09:13:46Z</time>
      </trkpt>
      <trkpt lat="59.26432" lon="18.097724">
        <ele>34</ele>
        <time>2020-01-13T09:13:47Z</time>
      </trkpt>
      <trkpt lat="59.264265" lon="18.097748">
        <ele>34</ele>
        <time>2020-01-13T09:13:48Z</time>
      </trkpt>
      <trkpt lat="59.26421" lon="18.09777">
        <ele>34</ele>
        <time>2020-01-13T09:13:49Z</time>
      </trkpt>
      <trkpt lat="59.264155" lon="18.097792">
        <ele>0</ele>
        <time>2020-01-13T09:13:49Z</time>
      </trkpt>
      <trkpt lat="59.264099" lon="18.09781">
        <ele>34</ele>
        <time>2020-01-13T09:13:50Z</time>
      </trkpt>
      <trkpt lat="59.264043" lon="18.097826">
        <ele>34</ele>
        <time>2020-01-13T09:13:51Z</time>
      </trkpt>
      <trkpt lat="59.263987" lon="18.097844">
        <ele>34</ele>
        <time>2020-01-13T09:13:53Z</time>
      </trkpt>
      <trkpt lat="59.263928" lon="18.097864">
        <ele>34</ele>
        <time>2020-01-13T09:13:54Z</time>
      </trkpt>
      <trkpt lat="59.263869" lon="18.097884">
        <ele>34</ele>
        <time>2020-01-13T09:13:55Z</time>
      </trkpt>
      <trkpt lat="59.263809" lon="18.097904">
        <ele>34</ele>
        <time>2020-01-13T09:13:56Z</time>
      </trkpt>
      <trkpt lat="59.26375" lon="18.097924">
        <ele>34</ele>
        <time>2020-01-13T09:13:57Z</time>
      </trkpt>
      <trkpt lat="59.263694" lon="18.09794">
        <ele>34</ele>
        <time>2020-01-13T09:13:58Z</time>
      </trkpt>
      <trkpt lat="59.263636" lon="18.097956">
        <ele>0</ele>
        <time>2020-01-13T09:13:58Z</time>
      </trkpt>
      <trkpt lat="59.263573" lon="18.097974">
        <ele>34</ele>
        <time>2020-01-13T09:13:59Z</time>
      </trkpt>
      <trkpt lat="59.263507" lon="18.097996">
        <ele>34</ele>
        <time>2020-01-13T09:14:01Z</time>
      </trkpt>
      <trkpt lat="59.263439" lon="18.098017">
        <ele>34</ele>
        <time>2020-01-13T09:14:02Z</time>
      </trkpt>
      <trkpt lat="59.263372" lon="18.098036">
        <ele>34</ele>
        <time>2020-01-13T09:14:03Z</time>
      </trkpt>
      <trkpt lat="59.263308" lon="18.098051">
        <ele>34</ele>
        <time>2020-01-13T09:14:04Z</time>
      </trkpt>
      <trkpt lat="59.263248" lon="18.098068">
        <ele>34</ele>
        <time>2020-01-13T09:14:05Z</time>
      </trkpt>
      <trkpt lat="59.263181" lon="18.098086">
        <ele>0</ele>
        <time>2020-01-13T09:14:05Z</time>
      </trkpt>
      <trkpt lat="59.263109" lon="18.098099">
        <ele>33</ele>
        <time>2020-01-13T09:14:06Z</time>
      </trkpt>
      <trkpt lat="59.263037" lon="18.098106">
        <ele>33</ele>
        <time>2020-01-13T09:14:08Z</time>
      </trkpt>
      <trkpt lat="59.262966" lon="18.09811">
        <ele>33</ele>
        <time>2020-01-13T09:14:09Z</time>
      </trkpt>
      <trkpt lat="59.262893" lon="18.098112">
        <ele>0</ele>
        <time>2020-01-13T09:14:09Z</time>
      </trkpt>
      <trkpt lat="59.262817" lon="18.098115">
        <ele>33</ele>
        <time>2020-01-13T09:14:10Z</time>
      </trkpt>
      <trkpt lat="59.262743" lon="18.09812">
        <ele>32</ele>
        <time>2020-01-13T09:14:12Z</time>
      </trkpt>
      <trkpt lat="59.262666" lon="18.098126">
        <ele>0</ele>
        <time>2020-01-13T09:14:12Z</time>
      </trkpt>
      <trkpt lat="59.262592" lon="18.098125">
        <ele>32</ele>
        <time>2020-01-13T09:14:13Z</time>
      </trkpt>
      <trkpt lat="59.262514" lon="18.098123">
        <ele>31</ele>
        <time>2020-01-13T09:14:15Z</time>
      </trkpt>
      <trkpt lat="59.262439" lon="18.098111">
        <ele>31</ele>
        <time>2020-01-13T09:14:16Z</time>
      </trkpt>
      <trkpt lat="59.262365" lon="18.098091">
        <ele>31</ele>
        <time>2020-01-13T09:14:17Z</time>
      </trkpt>
      <trkpt lat="59.262292" lon="18.098057">
        <ele>30</ele>
        <time>2020-01-13T09:14:18Z</time>
      </trkpt>
      <trkpt lat="59.262224" lon="18.098002">
        <ele>30</ele>
        <time>2020-01-13T09:14:19Z</time>
      </trkpt>
      <trkpt lat="59.262162" lon="18.09793">
        <ele>0</ele>
        <time>2020-01-13T09:14:19Z</time>
      </trkpt>
      <trkpt lat="59.262104" lon="18.097849">
        <ele>30</ele>
        <time>2020-01-13T09:14:20Z</time>
      </trkpt>
      <trkpt lat="59.262047" lon="18.097765">
        <ele>30</ele>
        <time>2020-01-13T09:14:22Z</time>
      </trkpt>
      <trkpt lat="59.261992" lon="18.09768">
        <ele>30</ele>
        <time>2020-01-13T09:14:23Z</time>
      </trkpt>
      <trkpt lat="59.261939" lon="18.097595">
        <ele>30</ele>
        <time>2020-01-13T09:14:24Z</time>
      </trkpt>
      <trkpt lat="59.261886" lon="18.097512">
        <ele>29</ele>
        <time>2020-01-13T09:14:25Z</time>
      </trkpt>
      <trkpt lat="59.261833" lon="18.097427">
        <ele>29</ele>
        <time>2020-01-13T09:14:26Z</time>
      </trkpt>
      <trkpt lat="59.261783" lon="18.097341">
        <ele>0</ele>
        <time>2020-01-13T09:14:26Z</time>
      </trkpt>
      <trkpt lat="59.261733" lon="18.097257">
        <ele>29</ele>
        <time>2020-01-13T09:14:27Z</time>
      </trkpt>
      <trkpt lat="59.261684" lon="18.097176">
        <ele>0</ele>
        <time>2020-01-13T09:14:28Z</time>
      </trkpt>
      <trkpt lat="59.261635" lon="18.097096">
        <ele>29</ele>
        <time>2020-01-13T09:14:29Z</time>
      </trkpt>
      <trkpt lat="59.261587" lon="18.097017">
        <ele>29</ele>
        <time>2020-01-13T09:14:31Z</time>
      </trkpt>
      <trkpt lat="59.26154" lon="18.09694">
        <ele>29</ele>
        <time>2020-01-13T09:14:32Z</time>
      </trkpt>
      <trkpt lat="59.261493" lon="18.096867">
        <ele>29</ele>
        <time>2020-01-13T09:14:33Z</time>
      </trkpt>
      <trkpt lat="59.261445" lon="18.096798">
        <ele>29</ele>
        <time>2020-01-13T09:14:34Z</time>
      </trkpt>
      <trkpt lat="59.261397" lon="18.096736">
        <ele>0</ele>
        <time>2020-01-13T09:14:34Z</time>
      </trkpt>
      <trkpt lat="59.261349" lon="18.09668">
        <ele>29</ele>
        <time>2020-01-13T09:14:35Z</time>
      </trkpt>
      <trkpt lat="59.2613" lon="18.096631">
        <ele>29</ele>
        <time>2020-01-13T09:14:37Z</time>
      </trkpt>
      <trkpt lat="59.261249" lon="18.096588">
        <ele>29</ele>
        <time>2020-01-13T09:14:38Z</time>
      </trkpt>
      <trkpt lat="59.261198" lon="18.096547">
        <ele>29</ele>
        <time>2020-01-13T09:14:39Z</time>
      </trkpt>
      <trkpt lat="59.261144" lon="18.096511">
        <ele>29</ele>
        <time>2020-01-13T09:14:40Z</time>
      </trkpt>
      <trkpt lat="59.261089" lon="18.096477">
        <ele>29</ele>
        <time>2020-01-13T09:14:41Z</time>
      </trkpt>
      <trkpt lat="59.261034" lon="18.09645">
        <ele>28</ele>
        <time>2020-01-13T09:14:42Z</time>
      </trkpt>
      <trkpt lat="59.260976" lon="18.096434">
        <ele>28</ele>
        <time>2020-01-13T09:14:43Z</time>
      </trkpt>
      <trkpt lat="59.260916" lon="18.096429">
        <ele>0</ele>
        <time>2020-01-13T09:14:43Z</time>
      </trkpt>
      <trkpt lat="59.260854" lon="18.096433">
        <ele>28</ele>
        <time>2020-01-13T09:14:44Z</time>
      </trkpt>
      <trkpt lat="59.260789" lon="18.096443">
        <ele>27</ele>
        <time>2020-01-13T09:14:46Z</time>
      </trkpt>
      <trkpt lat="59.260722" lon="18.096456">
        <ele>27</ele>
        <time>2020-01-13T09:14:47Z</time>
      </trkpt>
      <trkpt lat="59.260652" lon="18.096471">
        <ele>0</ele>
        <time>2020-01-13T09:14:47Z</time>
      </trkpt>
      <trkpt lat="59.26058" lon="18.096489">
        <ele>26</ele>
        <time>2020-01-13T09:14:48Z</time>
      </trkpt>
      <trkpt lat="59.260506" lon="18.096509">
        <ele>26</ele>
        <time>2020-01-13T09:14:50Z</time>
      </trkpt>
      <trkpt lat="59.260432" lon="18.096538">
        <ele>0</ele>
        <time>2020-01-13T09:14:50Z</time>
      </trkpt>
      <trkpt lat="59.260358" lon="18.09657">
        <ele>25</ele>
        <time>2020-01-13T09:14:51Z</time>
      </trkpt>
      <trkpt lat="59.260286" lon="18.0966">
        <ele>25</ele>
        <time>2020-01-13T09:14:53Z</time>
      </trkpt>
      <trkpt lat="59.260214" lon="18.096627">
        <ele>25</ele>
        <time>2020-01-13T09:14:54Z</time>
      </trkpt>
      <trkpt lat="59.260139" lon="18.096649">
        <ele>25</ele>
        <time>2020-01-13T09:14:55Z</time>
      </trkpt>
      <trkpt lat="59.260008" lon="18.096766">
        <ele>26</ele>
        <time>2020-01-13T09:14:57Z</time>
      </trkpt>
      <trkpt lat="59.259953" lon="18.096831">
        <ele>0</ele>
        <time>2020-01-13T09:14:57Z</time>
      </trkpt>
      <trkpt lat="59.259902" lon="18.096896">
        <ele>26</ele>
        <time>2020-01-13T09:14:58Z</time>
      </trkpt>
      <trkpt lat="59.259857" lon="18.096962">
        <ele>26</ele>
        <time>2020-01-13T09:15:00Z</time>
      </trkpt>
      <trkpt lat="59.259816" lon="18.097033">
        <ele>26</ele>
        <time>2020-01-13T09:15:01Z</time>
      </trkpt>
      <trkpt lat="59.259783" lon="18.09711">
        <ele>26</ele>
        <time>2020-01-13T09:15:02Z</time>
      </trkpt>
      <trkpt lat="59.259752" lon="18.097193">
        <ele>27</ele>
        <time>2020-01-13T09:15:03Z</time>
      </trkpt>
      <trkpt lat="59.259726" lon="18.097281">
        <ele>27</ele>
        <time>2020-01-13T09:15:04Z</time>
      </trkpt>
      <trkpt lat="59.259704" lon="18.097378">
        <ele>27</ele>
        <time>2020-01-13T09:15:05Z</time>
      </trkpt>
      <trkpt lat="59.259688" lon="18.097479">
        <ele>27</ele>
        <time>2020-01-13T09:15:06Z</time>
      </trkpt>
      <trkpt lat="59.259676" lon="18.097586">
        <ele>0</ele>
        <time>2020-01-13T09:15:06Z</time>
      </trkpt>
      <trkpt lat="59.259668" lon="18.097697">
        <ele>27</ele>
        <time>2020-01-13T09:15:07Z</time>
      </trkpt>
      <trkpt lat="59.259662" lon="18.097812">
        <ele>27</ele>
        <time>2020-01-13T09:15:09Z</time>
      </trkpt>
      <trkpt lat="59.259654" lon="18.097928">
        <ele>27</ele>
        <time>2020-01-13T09:15:10Z</time>
      </trkpt>
      <trkpt lat="59.259647" lon="18.09805">
        <ele>28</ele>
        <time>2020-01-13T09:15:11Z</time>
      </trkpt>
      <trkpt lat="59.25964" lon="18.098176">
        <ele>28</ele>
        <time>2020-01-13T09:15:12Z</time>
      </trkpt>
      <trkpt lat="59.259629" lon="18.098303">
        <ele>28</ele>
        <time>2020-01-13T09:15:13Z</time>
      </trkpt>
      <trkpt lat="59.25962" lon="18.098431">
        <ele>28</ele>
        <time>2020-01-13T09:15:14Z</time>
      </trkpt>
      <trkpt lat="59.259608" lon="18.098561">
        <ele>0</ele>
        <time>2020-01-13T09:15:14Z</time>
      </trkpt>
      <trkpt lat="59.259588" lon="18.098689">
        <ele>28</ele>
        <time>2020-01-13T09:15:15Z</time>
      </trkpt>
      <trkpt lat="59.259556" lon="18.098809">
        <ele>28</ele>
        <time>2020-01-13T09:15:17Z</time>
      </trkpt>
      <trkpt lat="59.259512" lon="18.098921">
        <ele>27</ele>
        <time>2020-01-13T09:15:18Z</time>
      </trkpt>
      <trkpt lat="59.259462" lon="18.099016">
        <ele>27</ele>
        <time>2020-01-13T09:15:19Z</time>
      </trkpt>
      <trkpt lat="59.259407" lon="18.099094">
        <ele>27</ele>
        <time>2020-01-13T09:15:20Z</time>
      </trkpt>
      <trkpt lat="59.259348" lon="18.099154">
        <ele>27</ele>
        <time>2020-01-13T09:15:21Z</time>
      </trkpt>
      <trkpt lat="59.259286" lon="18.099201">
        <ele>0</ele>
        <time>2020-01-13T09:15:21Z</time>
      </trkpt>
      <trkpt lat="59.259224" lon="18.09923">
        <ele>27</ele>
        <time>2020-01-13T09:15:22Z</time>
      </trkpt>
      <trkpt lat="59.259161" lon="18.099241">
        <ele>27</ele>
        <time>2020-01-13T09:15:24Z</time>
      </trkpt>
      <trkpt lat="59.259098" lon="18.099243">
        <ele>27</ele>
        <time>2020-01-13T09:15:25Z</time>
      </trkpt>
      <trkpt lat="59.259037" lon="18.099246">
        <ele>0</ele>
        <time>2020-01-13T09:15:25Z</time>
      </trkpt>
      <trkpt lat="59.258978" lon="18.099248">
        <ele>27</ele>
        <time>2020-01-13T09:15:26Z</time>
      </trkpt>
      <trkpt lat="59.258922" lon="18.099251">
        <ele>28</ele>
        <time>2020-01-13T09:15:28Z</time>
      </trkpt>
      <trkpt lat="59.258866" lon="18.099253">
        <ele>28</ele>
        <time>2020-01-13T09:15:29Z</time>
      </trkpt>
      <trkpt lat="59.258809" lon="18.099255">
        <ele>28</ele>
        <time>2020-01-13T09:15:30Z</time>
      </trkpt>
      <trkpt lat="59.25875" lon="18.099257">
        <ele>0</ele>
        <time>2020-01-13T09:15:30Z</time>
      </trkpt>
      <trkpt lat="59.258689" lon="18.099262">
        <ele>27</ele>
        <time>2020-01-13T09:15:31Z</time>
      </trkpt>
      <trkpt lat="59.258627" lon="18.099264">
        <ele>27</ele>
        <time>2020-01-13T09:15:33Z</time>
      </trkpt>
      <trkpt lat="59.258567" lon="18.099265">
        <ele>27</ele>
        <time>2020-01-13T09:15:34Z</time>
      </trkpt>
      <trkpt lat="59.258507" lon="18.099263">
        <ele>27</ele>
        <time>2020-01-13T09:15:35Z</time>
      </trkpt>
      <trkpt lat="59.258446" lon="18.099256">
        <ele>28</ele>
        <time>2020-01-13T09:15:36Z</time>
      </trkpt>
      <trkpt lat="59.258388" lon="18.09925">
        <ele>28</ele>
        <time>2020-01-13T09:15:37Z</time>
      </trkpt>
      <trkpt lat="59.258328" lon="18.099245">
        <ele>28</ele>
        <time>2020-01-13T09:15:38Z</time>
      </trkpt>
      <trkpt lat="59.258268" lon="18.099241">
        <ele>0</ele>
        <time>2020-01-13T09:15:38Z</time>
      </trkpt>
      <trkpt lat="59.25821" lon="18.099236">
        <ele>28</ele>
        <time>2020-01-13T09:15:39Z</time>
      </trkpt>
      <trkpt lat="59.258151" lon="18.09923">
        <ele>28</ele>
        <time>2020-01-13T09:15:41Z</time>
      </trkpt>
      <trkpt lat="59.25809" lon="18.099221">
        <ele>28</ele>
        <time>2020-01-13T09:15:42Z</time>
      </trkpt>
      <trkpt lat="59.258025" lon="18.099211">
        <ele>28</ele>
        <time>2020-01-13T09:15:43Z</time>
      </trkpt>
      <trkpt lat="59.257965" lon="18.099197">
        <ele>27</ele>
        <time>2020-01-13T09:15:44Z</time>
      </trkpt>
      <trkpt lat="59.2579" lon="18.09918">
        <ele>0</ele>
        <time>2020-01-13T09:15:44Z</time>
      </trkpt>
      <trkpt lat="59.257836" lon="18.099166">
        <ele>27</ele>
        <time>2020-01-13T09:15:45Z</time>
      </trkpt>
      <trkpt lat="59.257772" lon="18.099159">
        <ele>0</ele>
        <time>2020-01-13T09:15:46Z</time>
      </trkpt>
      <trkpt lat="59.257706" lon="18.099166">
        <ele>27</ele>
        <time>2020-01-13T09:15:47Z</time>
      </trkpt>
      <trkpt lat="59.257642" lon="18.099191">
        <ele>27</ele>
        <time>2020-01-13T09:15:49Z</time>
      </trkpt>
      <trkpt lat="59.25758" lon="18.099234">
        <ele>27</ele>
        <time>2020-01-13T09:15:50Z</time>
      </trkpt>
      <trkpt lat="59.257518" lon="18.099295">
        <ele>26</ele>
        <time>2020-01-13T09:15:51Z</time>
      </trkpt>
      <trkpt lat="59.257462" lon="18.099371">
        <ele>26</ele>
        <time>2020-01-13T09:15:52Z</time>
      </trkpt>
      <trkpt lat="59.257409" lon="18.099466">
        <ele>26</ele>
        <time>2020-01-13T09:15:53Z</time>
      </trkpt>
      <trkpt lat="59.257361" lon="18.09958">
        <ele>0</ele>
        <time>2020-01-13T09:15:53Z</time>
      </trkpt>
      <trkpt lat="59.257318" lon="18.099701">
        <ele>25</ele>
        <time>2020-01-13T09:15:54Z</time>
      </trkpt>
      <trkpt lat="59.25728" lon="18.099824">
        <ele>25</ele>
        <time>2020-01-13T09:15:56Z</time>
      </trkpt>
      <trkpt lat="59.257242" lon="18.099949">
        <ele>25</ele>
        <time>2020-01-13T09:15:57Z</time>
      </trkpt>
      <trkpt lat="59.257207" lon="18.100073">
        <ele>25</ele>
        <time>2020-01-13T09:15:58Z</time>
      </trkpt>
      <trkpt lat="59.257172" lon="18.100196">
        <ele>25</ele>
        <time>2020-01-13T09:15:59Z</time>
      </trkpt>
      <trkpt lat="59.257133" lon="18.100322">
        <ele>25</ele>
        <time>2020-01-13T09:16:00Z</time>
      </trkpt>
      <trkpt lat="59.257018" lon="18.100756">
        <ele>24</ele>
        <time>2020-01-13T09:16:02Z</time>
      </trkpt>
      <trkpt lat="59.256974" lon="18.100954">
        <ele>24</ele>
        <time>2020-01-13T09:16:04Z</time>
      </trkpt>
      <trkpt lat="59.25691" lon="18.101121">
        <ele>24</ele>
        <time>2020-01-13T09:16:08Z</time>
      </trkpt>
      <trkpt lat="59.256866" lon="18.101119">
        <ele>24</ele>
        <time>2020-01-13T09:16:09Z</time>
      </trkpt>
      <trkpt lat="59.256818" lon="18.10111">
        <ele>0</ele>
        <time>2020-01-13T09:16:09Z</time>
      </trkpt>
      <trkpt lat="59.256771" lon="18.101106">
        <ele>24</ele>
        <time>2020-01-13T09:16:10Z</time>
      </trkpt>
      <trkpt lat="59.256721" lon="18.1011">
        <ele>24</ele>
        <time>2020-01-13T09:16:12Z</time>
      </trkpt>
      <trkpt lat="59.256666" lon="18.10109">
        <ele>24</ele>
        <time>2020-01-13T09:16:13Z</time>
      </trkpt>
      <trkpt lat="59.256611" lon="18.101082">
        <ele>24</ele>
        <time>2020-01-13T09:16:14Z</time>
      </trkpt>
      <trkpt lat="59.256553" lon="18.101076">
        <ele>23</ele>
        <time>2020-01-13T09:16:15Z</time>
      </trkpt>
      <trkpt lat="59.256495" lon="18.10107">
        <ele>23</ele>
        <time>2020-01-13T09:16:16Z</time>
      </trkpt>
      <trkpt lat="59.256436" lon="18.101067">
        <ele>23</ele>
        <time>2020-01-13T09:16:17Z</time>
      </trkpt>
      <trkpt lat="59.256376" lon="18.101065">
        <ele>23</ele>
        <time>2020-01-13T09:16:18Z</time>
      </trkpt>
      <trkpt lat="59.256316" lon="18.101063">
        <ele>0</ele>
        <time>2020-01-13T09:16:18Z</time>
      </trkpt>
      <trkpt lat="59.256257" lon="18.101058">
        <ele>23</ele>
        <time>2020-01-13T09:16:19Z</time>
      </trkpt>
      <trkpt lat="59.2562" lon="18.101054">
        <ele>23</ele>
        <time>2020-01-13T09:16:21Z</time>
      </trkpt>
      <trkpt lat="59.256144" lon="18.101052">
        <ele>23</ele>
        <time>2020-01-13T09:16:22Z</time>
      </trkpt>
      <trkpt lat="59.25609" lon="18.10105">
        <ele>0</ele>
        <time>2020-01-13T09:16:22Z</time>
      </trkpt>
      <trkpt lat="59.256033" lon="18.101045">
        <ele>23</ele>
        <time>2020-01-13T09:16:23Z</time>
      </trkpt>
      <trkpt lat="59.255975" lon="18.101045">
        <ele>23</ele>
        <time>2020-01-13T09:16:25Z</time>
      </trkpt>
      <trkpt lat="59.255916" lon="18.101047">
        <ele>23</ele>
        <time>2020-01-13T09:16:26Z</time>
      </trkpt>
      <trkpt lat="59.255858" lon="18.101044">
        <ele>23</ele>
        <time>2020-01-13T09:16:27Z</time>
      </trkpt>
      <trkpt lat="59.255799" lon="18.101036">
        <ele>0</ele>
        <time>2020-01-13T09:16:27Z</time>
      </trkpt>
      <trkpt lat="59.255741" lon="18.101021">
        <ele>23</ele>
        <time>2020-01-13T09:16:28Z</time>
      </trkpt>
      <trkpt lat="59.255683" lon="18.101002">
        <ele>23</ele>
        <time>2020-01-13T09:16:30Z</time>
      </trkpt>
      <trkpt lat="59.255625" lon="18.100984">
        <ele>23</ele>
        <time>2020-01-13T09:16:31Z</time>
      </trkpt>
      <trkpt lat="59.255565" lon="18.100964">
        <ele>23</ele>
        <time>2020-01-13T09:16:32Z</time>
      </trkpt>
      <trkpt lat="59.255505" lon="18.100949">
        <ele>23</ele>
        <time>2020-01-13T09:16:33Z</time>
      </trkpt>
      <trkpt lat="59.255445" lon="18.100936">
        <ele>22</ele>
        <time>2020-01-13T09:16:34Z</time>
      </trkpt>
      <trkpt lat="59.255385" lon="18.100923">
        <ele>22</ele>
        <time>2020-01-13T09:16:35Z</time>
      </trkpt>
      <trkpt lat="59.255326" lon="18.100909">
        <ele>0</ele>
        <time>2020-01-13T09:16:35Z</time>
      </trkpt>
      <trkpt lat="59.255269" lon="18.100896">
        <ele>22</ele>
        <time>2020-01-13T09:16:36Z</time>
      </trkpt>
      <trkpt lat="59.255214" lon="18.100885">
        <ele>23</ele>
        <time>2020-01-13T09:16:38Z</time>
      </trkpt>
      <trkpt lat="59.25516" lon="18.100877">
        <ele>23</ele>
        <time>2020-01-13T09:16:39Z</time>
      </trkpt>
      <trkpt lat="59.255103" lon="18.100868">
        <ele>23</ele>
        <time>2020-01-13T09:16:40Z</time>
      </trkpt>
      <trkpt lat="59.255043" lon="18.100856">
        <ele>23</ele>
        <time>2020-01-13T09:16:41Z</time>
      </trkpt>
      <trkpt lat="59.254982" lon="18.100847">
        <ele>0</ele>
        <time>2020-01-13T09:16:41Z</time>
      </trkpt>
      <trkpt lat="59.254922" lon="18.100838">
        <ele>23</ele>
        <time>2020-01-13T09:16:42Z</time>
      </trkpt>
      <trkpt lat="59.254861" lon="18.100829">
        <ele>23</ele>
        <time>2020-01-13T09:16:44Z</time>
      </trkpt>
      <trkpt lat="59.254801" lon="18.10082">
        <ele>0</ele>
        <time>2020-01-13T09:16:44Z</time>
      </trkpt>
      <trkpt lat="59.254741" lon="18.100811">
        <ele>23</ele>
        <time>2020-01-13T09:16:45Z</time>
      </trkpt>
      <trkpt lat="59.254684" lon="18.100796">
        <ele>23</ele>
        <time>2020-01-13T09:16:47Z</time>
      </trkpt>
      <trkpt lat="59.254628" lon="18.100775">
        <ele>23</ele>
        <time>2020-01-13T09:16:48Z</time>
      </trkpt>
      <trkpt lat="59.254572" lon="18.100744">
        <ele>23</ele>
        <time>2020-01-13T09:16:49Z</time>
      </trkpt>
      <trkpt lat="59.254513" lon="18.100714">
        <ele>23</ele>
        <time>2020-01-13T09:16:50Z</time>
      </trkpt>
      <trkpt lat="59.254453" lon="18.100687">
        <ele>22</ele>
        <time>2020-01-13T09:16:51Z</time>
      </trkpt>
      <trkpt lat="59.254394" lon="18.10066">
        <ele>22</ele>
        <time>2020-01-13T09:16:52Z</time>
      </trkpt>
      <trkpt lat="59.254336" lon="18.10063">
        <ele>0</ele>
        <time>2020-01-13T09:16:52Z</time>
      </trkpt>
      <trkpt lat="59.254279" lon="18.100608">
        <ele>22</ele>
        <time>2020-01-13T09:16:53Z</time>
      </trkpt>
      <trkpt lat="59.254221" lon="18.100593">
        <ele>22</ele>
        <time>2020-01-13T09:16:55Z</time>
      </trkpt>
      <trkpt lat="59.254164" lon="18.100586">
        <ele>22</ele>
        <time>2020-01-13T09:16:56Z</time>
      </trkpt>
      <trkpt lat="59.254105" lon="18.100585">
        <ele>22</ele>
        <time>2020-01-13T09:16:57Z</time>
      </trkpt>
      <trkpt lat="59.254046" lon="18.100587">
        <ele>22</ele>
        <time>2020-01-13T09:16:58Z</time>
      </trkpt>
      <trkpt lat="59.253987" lon="18.100592">
        <ele>22</ele>
        <time>2020-01-13T09:16:59Z</time>
      </trkpt>
      <trkpt lat="59.253928" lon="18.100586">
        <ele>22</ele>
        <time>2020-01-13T09:17:00Z</time>
      </trkpt>
      <trkpt lat="59.253871" lon="18.100562">
        <ele>0</ele>
        <time>2020-01-13T09:17:00Z</time>
      </trkpt>
      <trkpt lat="59.253813" lon="18.100538">
        <ele>22</ele>
        <time>2020-01-13T09:17:01Z</time>
      </trkpt>
      <trkpt lat="59.253753" lon="18.100515">
        <ele>21</ele>
        <time>2020-01-13T09:17:02Z</time>
      </trkpt>
      <trkpt lat="59.253692" lon="18.10049">
        <ele>21</ele>
        <time>2020-01-13T09:17:04Z</time>
      </trkpt>
      <trkpt lat="59.253632" lon="18.100463">
        <ele>21</ele>
        <time>2020-01-13T09:17:05Z</time>
      </trkpt>
      <trkpt lat="59.253573" lon="18.100434">
        <ele>21</ele>
        <time>2020-01-13T09:17:06Z</time>
      </trkpt>
      <trkpt lat="59.253514" lon="18.100402">
        <ele>21</ele>
        <time>2020-01-13T09:17:07Z</time>
      </trkpt>
      <trkpt lat="59.253458" lon="18.100367">
        <ele>21</ele>
        <time>2020-01-13T09:17:08Z</time>
      </trkpt>
      <trkpt lat="59.253401" lon="18.100329">
        <ele>21</ele>
        <time>2020-01-13T09:17:09Z</time>
      </trkpt>
      <trkpt lat="59.253348" lon="18.100288">
        <ele>0</ele>
        <time>2020-01-13T09:17:09Z</time>
      </trkpt>
      <trkpt lat="59.253296" lon="18.100245">
        <ele>21</ele>
        <time>2020-01-13T09:17:10Z</time>
      </trkpt>
      <trkpt lat="59.253244" lon="18.100202">
        <ele>21</ele>
        <time>2020-01-13T09:17:12Z</time>
      </trkpt>
      <trkpt lat="59.253189" lon="18.100167">
        <ele>20</ele>
        <time>2020-01-13T09:17:13Z</time>
      </trkpt>
      <trkpt lat="59.25313" lon="18.100142">
        <ele>20</ele>
        <time>2020-01-13T09:17:14Z</time>
      </trkpt>
      <trkpt lat="59.253071" lon="18.100128">
        <ele>20</ele>
        <time>2020-01-13T09:17:15Z</time>
      </trkpt>
      <trkpt lat="59.253009" lon="18.100124">
        <ele>20</ele>
        <time>2020-01-13T09:17:16Z</time>
      </trkpt>
      <trkpt lat="59.252949" lon="18.100128">
        <ele>20</ele>
        <time>2020-01-13T09:17:17Z</time>
      </trkpt>
      <trkpt lat="59.252889" lon="18.100137">
        <ele>0</ele>
        <time>2020-01-13T09:17:17Z</time>
      </trkpt>
      <trkpt lat="59.25283" lon="18.100147">
        <ele>20</ele>
        <time>2020-01-13T09:17:18Z</time>
      </trkpt>
      <trkpt lat="59.25277" lon="18.100161">
        <ele>0</ele>
        <time>2020-01-13T09:17:19Z</time>
      </trkpt>
      <trkpt lat="59.252711" lon="18.10018">
        <ele>20</ele>
        <time>2020-01-13T09:17:20Z</time>
      </trkpt>
      <trkpt lat="59.252654" lon="18.1002">
        <ele>20</ele>
        <time>2020-01-13T09:17:22Z</time>
      </trkpt>
      <trkpt lat="59.252598" lon="18.100221">
        <ele>20</ele>
        <time>2020-01-13T09:17:23Z</time>
      </trkpt>
      <trkpt lat="59.252543" lon="18.100244">
        <ele>20</ele>
        <time>2020-01-13T09:17:24Z</time>
      </trkpt>
      <trkpt lat="59.25249" lon="18.10027">
        <ele>20</ele>
        <time>2020-01-13T09:17:25Z</time>
      </trkpt>
      <trkpt lat="59.252437" lon="18.100298">
        <ele>20</ele>
        <time>2020-01-13T09:17:26Z</time>
      </trkpt>
      <trkpt lat="59.252386" lon="18.100326">
        <ele>0</ele>
        <time>2020-01-13T09:17:26Z</time>
      </trkpt>
      <trkpt lat="59.252337" lon="18.100355">
        <ele>21</ele>
        <time>2020-01-13T09:17:27Z</time>
      </trkpt>
      <trkpt lat="59.252289" lon="18.100383">
        <ele>21</ele>
        <time>2020-01-13T09:17:29Z</time>
      </trkpt>
      <trkpt lat="59.252242" lon="18.100411">
        <ele>21</ele>
        <time>2020-01-13T09:17:30Z</time>
      </trkpt>
      <trkpt lat="59.252197" lon="18.100439">
        <ele>21</ele>
        <time>2020-01-13T09:17:31Z</time>
      </trkpt>
      <trkpt lat="59.252155" lon="18.100466">
        <ele>21</ele>
        <time>2020-01-13T09:17:32Z</time>
      </trkpt>
      <trkpt lat="59.252114" lon="18.100492">
        <ele>22</ele>
        <time>2020-01-13T09:17:33Z</time>
      </trkpt>
      <trkpt lat="59.252075" lon="18.100516">
        <ele>22</ele>
        <time>2020-01-13T09:17:34Z</time>
      </trkpt>
      <trkpt lat="59.252037" lon="18.100539">
        <ele>22</ele>
        <time>2020-01-13T09:17:35Z</time>
      </trkpt>
      <trkpt lat="59.252002" lon="18.100562">
        <ele>22</ele>
        <time>2020-01-13T09:17:36Z</time>
      </trkpt>
      <trkpt lat="59.251966" lon="18.100584">
        <ele>22</ele>
        <time>2020-01-13T09:17:37Z</time>
      </trkpt>
      <trkpt lat="59.251931" lon="18.100607">
        <ele>23</ele>
        <time>2020-01-13T09:17:38Z</time>
      </trkpt>
      <trkpt lat="59.251896" lon="18.10063">
        <ele>0</ele>
        <time>2020-01-13T09:17:38Z</time>
      </trkpt>
      <trkpt lat="59.25186" lon="18.100652">
        <ele>23</ele>
        <time>2020-01-13T09:17:39Z</time>
      </trkpt>
      <trkpt lat="59.251822" lon="18.100675">
        <ele>23</ele>
        <time>2020-01-13T09:17:41Z</time>
      </trkpt>
      <trkpt lat="59.251786" lon="18.100699">
        <ele>23</ele>
        <time>2020-01-13T09:17:42Z</time>
      </trkpt>
      <trkpt lat="59.251749" lon="18.100723">
        <ele>23</ele>
        <time>2020-01-13T09:17:43Z</time>
      </trkpt>
      <trkpt lat="59.251712" lon="18.100748">
        <ele>24</ele>
        <time>2020-01-13T09:17:44Z</time>
      </trkpt>
      <trkpt lat="59.251673" lon="18.100773">
        <ele>24</ele>
        <time>2020-01-13T09:17:45Z</time>
      </trkpt>
      <trkpt lat="59.251634" lon="18.100798">
        <ele>24</ele>
        <time>2020-01-13T09:17:46Z</time>
      </trkpt>
      <trkpt lat="59.251595" lon="18.100823">
        <ele>24</ele>
        <time>2020-01-13T09:17:47Z</time>
      </trkpt>
      <trkpt lat="59.251556" lon="18.100847">
        <ele>24</ele>
        <time>2020-01-13T09:17:48Z</time>
      </trkpt>
      <trkpt lat="59.251518" lon="18.10087">
        <ele>25</ele>
        <time>2020-01-13T09:17:49Z</time>
      </trkpt>
      <trkpt lat="59.251478" lon="18.100891">
        <ele>25</ele>
        <time>2020-01-13T09:17:50Z</time>
      </trkpt>
      <trkpt lat="59.251437" lon="18.10091">
        <ele>0</ele>
        <time>2020-01-13T09:17:50Z</time>
      </trkpt>
      <trkpt lat="59.251394" lon="18.100921">
        <ele>25</ele>
        <time>2020-01-13T09:17:51Z</time>
      </trkpt>
      <trkpt lat="59.251351" lon="18.100925">
        <ele>26</ele>
        <time>2020-01-13T09:17:53Z</time>
      </trkpt>
      <trkpt lat="59.251311" lon="18.100925">
        <ele>26</ele>
        <time>2020-01-13T09:17:54Z</time>
      </trkpt>
      <trkpt lat="59.251272" lon="18.100921">
        <ele>26</ele>
        <time>2020-01-13T09:17:55Z</time>
      </trkpt>
      <trkpt lat="59.251232" lon="18.10091">
        <ele>26</ele>
        <time>2020-01-13T09:17:56Z</time>
      </trkpt>
      <trkpt lat="59.251193" lon="18.100892">
        <ele>26</ele>
        <time>2020-01-13T09:17:57Z</time>
      </trkpt>
      <trkpt lat="59.251158" lon="18.100864">
        <ele>0</ele>
        <time>2020-01-13T09:17:57Z</time>
      </trkpt>
      <trkpt lat="59.251124" lon="18.100829">
        <ele>27</ele>
        <time>2020-01-13T09:17:58Z</time>
      </trkpt>
      <trkpt lat="59.251092" lon="18.10079">
        <ele>27</ele>
        <time>2020-01-13T09:18:00Z</time>
      </trkpt>
      <trkpt lat="59.251059" lon="18.100752">
        <ele>27</ele>
        <time>2020-01-13T09:18:01Z</time>
      </trkpt>
      <trkpt lat="59.251026" lon="18.100714">
        <ele>28</ele>
        <time>2020-01-13T09:18:02Z</time>
      </trkpt>
      <trkpt lat="59.250993" lon="18.100676">
        <ele>28</ele>
        <time>2020-01-13T09:18:03Z</time>
      </trkpt>
      <trkpt lat="59.250961" lon="18.100635">
        <ele>0</ele>
        <time>2020-01-13T09:18:03Z</time>
      </trkpt>
      <trkpt lat="59.25093" lon="18.100595">
        <ele>28</ele>
        <time>2020-01-13T09:18:04Z</time>
      </trkpt>
      <trkpt lat="59.250898" lon="18.10055">
        <ele>29</ele>
        <time>2020-01-13T09:18:06Z</time>
      </trkpt>
      <trkpt lat="59.250867" lon="18.100501">
        <ele>29</ele>
        <time>2020-01-13T09:18:07Z</time>
      </trkpt>
      <trkpt lat="59.250838" lon="18.10045">
        <ele>29</ele>
        <time>2020-01-13T09:18:08Z</time>
      </trkpt>
      <trkpt lat="59.250811" lon="18.100397">
        <ele>29</ele>
        <time>2020-01-13T09:18:09Z</time>
      </trkpt>
      <trkpt lat="59.250784" lon="18.100338">
        <ele>29</ele>
        <time>2020-01-13T09:18:10Z</time>
      </trkpt>
      <trkpt lat="59.250758" lon="18.100279">
        <ele>29</ele>
        <time>2020-01-13T09:18:11Z</time>
      </trkpt>
      <trkpt lat="59.250736" lon="18.100217">
        <ele>29</ele>
        <time>2020-01-13T09:18:12Z</time>
      </trkpt>
      <trkpt lat="59.250712" lon="18.100158">
        <ele>29</ele>
        <time>2020-01-13T09:18:13Z</time>
      </trkpt>
      <trkpt lat="59.250683" lon="18.100101">
        <ele>29</ele>
        <time>2020-01-13T09:18:14Z</time>
      </trkpt>
      <trkpt lat="59.250655" lon="18.100046">
        <ele>29</ele>
        <time>2020-01-13T09:18:15Z</time>
      </trkpt>
      <trkpt lat="59.250625" lon="18.099994">
        <ele>30</ele>
        <time>2020-01-13T09:18:16Z</time>
      </trkpt>
      <trkpt lat="59.250595" lon="18.099943">
        <ele>0</ele>
        <time>2020-01-13T09:18:16Z</time>
      </trkpt>
      <trkpt lat="59.250564" lon="18.099896">
        <ele>30</ele>
        <time>2020-01-13T09:18:17Z</time>
      </trkpt>
      <trkpt lat="59.250528" lon="18.099851">
        <ele>30</ele>
        <time>2020-01-13T09:18:19Z</time>
      </trkpt>
      <trkpt lat="59.250491" lon="18.09981">
        <ele>30</ele>
        <time>2020-01-13T09:18:20Z</time>
      </trkpt>
      <trkpt lat="59.250453" lon="18.099772">
        <ele>30</ele>
        <time>2020-01-13T09:18:21Z</time>
      </trkpt>
      <trkpt lat="59.250411" lon="18.099739">
        <ele>30</ele>
        <time>2020-01-13T09:18:22Z</time>
      </trkpt>
      <trkpt lat="59.250363" lon="18.099711">
        <ele>0</ele>
        <time>2020-01-13T09:18:22Z</time>
      </trkpt>
      <trkpt lat="59.250312" lon="18.099685">
        <ele>30</ele>
        <time>2020-01-13T09:18:23Z</time>
      </trkpt>
      <trkpt lat="59.250258" lon="18.099662">
        <ele>29</ele>
        <time>2020-01-13T09:18:25Z</time>
      </trkpt>
      <trkpt lat="59.250201" lon="18.099642">
        <ele>29</ele>
        <time>2020-01-13T09:18:26Z</time>
      </trkpt>
      <trkpt lat="59.250143" lon="18.09962">
        <ele>0</ele>
        <time>2020-01-13T09:18:26Z</time>
      </trkpt>
      <trkpt lat="59.250086" lon="18.099598">
        <ele>29</ele>
        <time>2020-01-13T09:18:27Z</time>
      </trkpt>
      <trkpt lat="59.25003" lon="18.099575">
        <ele>29</ele>
        <time>2020-01-13T09:18:29Z</time>
      </trkpt>
      <trkpt lat="59.249972" lon="18.099551">
        <ele>28</ele>
        <time>2020-01-13T09:18:30Z</time>
      </trkpt>
      <trkpt lat="59.249911" lon="18.099529">
        <ele>28</ele>
        <time>2020-01-13T09:18:31Z</time>
      </trkpt>
      <trkpt lat="59.249848" lon="18.099506">
        <ele>28</ele>
        <time>2020-01-13T09:18:32Z</time>
      </trkpt>
      <trkpt lat="59.249785" lon="18.099482">
        <ele>28</ele>
        <time>2020-01-13T09:18:33Z</time>
      </trkpt>
      <trkpt lat="59.24972" lon="18.099464">
        <ele>27</ele>
        <time>2020-01-13T09:18:34Z</time>
      </trkpt>
      <trkpt lat="59.249651" lon="18.099451">
        <ele>0</ele>
        <time>2020-01-13T09:18:34Z</time>
      </trkpt>
      <trkpt lat="59.249583" lon="18.099449">
        <ele>27</ele>
        <time>2020-01-13T09:18:35Z</time>
      </trkpt>
      <trkpt lat="59.249516" lon="18.099459">
        <ele>27</ele>
        <time>2020-01-13T09:18:36Z</time>
      </trkpt>
      <trkpt lat="59.249453" lon="18.099478">
        <ele>27</ele>
        <time>2020-01-13T09:18:38Z</time>
      </trkpt>
      <trkpt lat="59.249393" lon="18.099502">
        <ele>27</ele>
        <time>2020-01-13T09:18:39Z</time>
      </trkpt>
      <trkpt lat="59.249336" lon="18.099525">
        <ele>27</ele>
        <time>2020-01-13T09:18:40Z</time>
      </trkpt>
      <trkpt lat="59.24928" lon="18.09955">
        <ele>27</ele>
        <time>2020-01-13T09:18:41Z</time>
      </trkpt>
      <trkpt lat="59.249226" lon="18.099576">
        <ele>28</ele>
        <time>2020-01-13T09:18:42Z</time>
      </trkpt>
      <trkpt lat="59.249174" lon="18.099601">
        <ele>0</ele>
        <time>2020-01-13T09:18:42Z</time>
      </trkpt>
      <trkpt lat="59.249123" lon="18.099628">
        <ele>28</ele>
        <time>2020-01-13T09:18:43Z</time>
      </trkpt>
      <trkpt lat="59.249073" lon="18.099657">
        <ele>28</ele>
        <time>2020-01-13T09:18:45Z</time>
      </trkpt>
      <trkpt lat="59.249025" lon="18.09969">
        <ele>28</ele>
        <time>2020-01-13T09:18:46Z</time>
      </trkpt>
      <trkpt lat="59.248978" lon="18.099728">
        <ele>28</ele>
        <time>2020-01-13T09:18:47Z</time>
      </trkpt>
      <trkpt lat="59.248933" lon="18.09977">
        <ele>28</ele>
        <time>2020-01-13T09:18:48Z</time>
      </trkpt>
      <trkpt lat="59.24889" lon="18.099814">
        <ele>29</ele>
        <time>2020-01-13T09:18:49Z</time>
      </trkpt>
      <trkpt lat="59.248846" lon="18.099861">
        <ele>29</ele>
        <time>2020-01-13T09:18:50Z</time>
      </trkpt>
      <trkpt lat="59.248803" lon="18.099912">
        <ele>29</ele>
        <time>2020-01-13T09:18:51Z</time>
      </trkpt>
      <trkpt lat="59.24876" lon="18.099965">
        <ele>29</ele>
        <time>2020-01-13T09:18:52Z</time>
      </trkpt>
      <trkpt lat="59.248718" lon="18.100025">
        <ele>0</ele>
        <time>2020-01-13T09:18:52Z</time>
      </trkpt>
      <trkpt lat="59.248677" lon="18.100087">
        <ele>29</ele>
        <time>2020-01-13T09:18:53Z</time>
      </trkpt>
      <trkpt lat="59.248645" lon="18.100142">
        <ele>0</ele>
        <time>2020-01-13T09:18:54Z</time>
      </trkpt>
      <trkpt lat="59.248614" lon="18.100194">
        <ele>29</ele>
        <time>2020-01-13T09:18:55Z</time>
      </trkpt>
      <trkpt lat="59.248578" lon="18.100248">
        <ele>30</ele>
        <time>2020-01-13T09:18:57Z</time>
      </trkpt>
      <trkpt lat="59.248539" lon="18.100304">
        <ele>30</ele>
        <time>2020-01-13T09:18:58Z</time>
      </trkpt>
      <trkpt lat="59.248497" lon="18.100358">
        <ele>30</ele>
        <time>2020-01-13T09:18:59Z</time>
      </trkpt>
      <trkpt lat="59.248445" lon="18.10041">
        <ele>30</ele>
        <time>2020-01-13T09:19:00Z</time>
      </trkpt>
      <trkpt lat="59.248397" lon="18.100454">
        <ele>30</ele>
        <time>2020-01-13T09:19:01Z</time>
      </trkpt>
      <trkpt lat="59.248343" lon="18.100501">
        <ele>30</ele>
        <time>2020-01-13T09:19:02Z</time>
      </trkpt>
      <trkpt lat="59.248296" lon="18.10054">
        <ele>0</ele>
        <time>2020-01-13T09:19:02Z</time>
      </trkpt>
      <trkpt lat="59.248257" lon="18.100578">
        <ele>30</ele>
        <time>2020-01-13T09:19:03Z</time>
      </trkpt>
      <trkpt lat="59.248216" lon="18.100627">
        <ele>30</ele>
        <time>2020-01-13T09:19:05Z</time>
      </trkpt>
      <trkpt lat="59.248174" lon="18.100679">
        <ele>30</ele>
        <time>2020-01-13T09:19:06Z</time>
      </trkpt>
      <trkpt lat="59.248134" lon="18.100732">
        <ele>30</ele>
        <time>2020-01-13T09:19:07Z</time>
      </trkpt>
      <trkpt lat="59.248095" lon="18.100786">
        <ele>30</ele>
        <time>2020-01-13T09:19:08Z</time>
      </trkpt>
      <trkpt lat="59.248061" lon="18.100847">
        <ele>30</ele>
        <time>2020-01-13T09:19:09Z</time>
      </trkpt>
      <trkpt lat="59.248033" lon="18.100913">
        <ele>30</ele>
        <time>2020-01-13T09:19:10Z</time>
      </trkpt>
      <trkpt lat="59.248005" lon="18.100983">
        <ele>30</ele>
        <time>2020-01-13T09:19:11Z</time>
      </trkpt>
      <trkpt lat="59.247979" lon="18.101052">
        <ele>30</ele>
        <time>2020-01-13T09:19:12Z</time>
      </trkpt>
      <trkpt lat="59.247951" lon="18.101121">
        <ele>30</ele>
        <time>2020-01-13T09:19:13Z</time>
      </trkpt>
      <trkpt lat="59.247926" lon="18.101192">
        <ele>0</ele>
        <time>2020-01-13T09:19:13Z</time>
      </trkpt>
      <trkpt lat="59.247901" lon="18.101265">
        <ele>30</ele>
        <time>2020-01-13T09:19:14Z</time>
      </trkpt>
      <trkpt lat="59.247878" lon="18.101338">
        <ele>30</ele>
        <time>2020-01-13T09:19:16Z</time>
      </trkpt>
      <trkpt lat="59.247855" lon="18.10141">
        <ele>30</ele>
        <time>2020-01-13T09:19:17Z</time>
      </trkpt>
      <trkpt lat="59.24783" lon="18.101484">
        <ele>30</ele>
        <time>2020-01-13T09:19:18Z</time>
      </trkpt>
      <trkpt lat="59.247805" lon="18.101561">
        <ele>30</ele>
        <time>2020-01-13T09:19:19Z</time>
      </trkpt>
      <trkpt lat="59.247784" lon="18.101641">
        <ele>30</ele>
        <time>2020-01-13T09:19:20Z</time>
      </trkpt>
      <trkpt lat="59.247763" lon="18.101724">
        <ele>30</ele>
        <time>2020-01-13T09:19:21Z</time>
      </trkpt>
      <trkpt lat="59.247742" lon="18.10181">
        <ele>30</ele>
        <time>2020-01-13T09:19:22Z</time>
      </trkpt>
      <trkpt lat="59.247721" lon="18.101896">
        <ele>30</ele>
        <time>2020-01-13T09:19:23Z</time>
      </trkpt>
      <trkpt lat="59.2477" lon="18.101983">
        <ele>30</ele>
        <time>2020-01-13T09:19:24Z</time>
      </trkpt>
      <trkpt lat="59.24768" lon="18.10207">
        <ele>0</ele>
        <time>2020-01-13T09:19:24Z</time>
      </trkpt>
      <trkpt lat="59.247659" lon="18.102158">
        <ele>30</ele>
        <time>2020-01-13T09:19:25Z</time>
      </trkpt>
      <trkpt lat="59.247637" lon="18.102242">
        <ele>30</ele>
        <time>2020-01-13T09:19:27Z</time>
      </trkpt>
      <trkpt lat="59.247618" lon="18.102327">
        <ele>30</ele>
        <time>2020-01-13T09:19:28Z</time>
      </trkpt>
      <trkpt lat="59.247599" lon="18.102414">
        <ele>30</ele>
        <time>2020-01-13T09:19:29Z</time>
      </trkpt>
      <trkpt lat="59.247576" lon="18.102507">
        <ele>30</ele>
        <time>2020-01-13T09:19:30Z</time>
      </trkpt>
      <trkpt lat="59.24755" lon="18.1026">
        <ele>30</ele>
        <time>2020-01-13T09:19:31Z</time>
      </trkpt>
      <trkpt lat="59.247523" lon="18.102693">
        <ele>30</ele>
        <time>2020-01-13T09:19:32Z</time>
      </trkpt>
      <trkpt lat="59.247497" lon="18.102785">
        <ele>0</ele>
        <time>2020-01-13T09:19:32Z</time>
      </trkpt>
      <trkpt lat="59.24747" lon="18.102878">
        <ele>30</ele>
        <time>2020-01-13T09:19:33Z</time>
      </trkpt>
      <trkpt lat="59.247438" lon="18.102967">
        <ele>30</ele>
        <time>2020-01-13T09:19:34Z</time>
      </trkpt>
      <trkpt lat="59.247401" lon="18.103051">
        <ele>30</ele>
        <time>2020-01-13T09:19:36Z</time>
      </trkpt>
      <trkpt lat="59.247354" lon="18.103135">
        <ele>30</ele>
        <time>2020-01-13T09:19:37Z</time>
      </trkpt>
      <trkpt lat="59.247304" lon="18.103218">
        <ele>30</ele>
        <time>2020-01-13T09:19:38Z</time>
      </trkpt>
      <trkpt lat="59.247252" lon="18.103301">
        <ele>29</ele>
        <time>2020-01-13T09:19:39Z</time>
      </trkpt>
      <trkpt lat="59.2472" lon="18.103391">
        <ele>29</ele>
        <time>2020-01-13T09:19:40Z</time>
      </trkpt>
      <trkpt lat="59.247148" lon="18.103493">
        <ele>29</ele>
        <time>2020-01-13T09:19:41Z</time>
      </trkpt>
      <trkpt lat="59.247094" lon="18.103614">
        <ele>0</ele>
        <time>2020-01-13T09:19:41Z</time>
      </trkpt>
      <trkpt lat="59.247047" lon="18.103749">
        <ele>29</ele>
        <time>2020-01-13T09:19:42Z</time>
      </trkpt>
      <trkpt lat="59.247009" lon="18.103892">
        <ele>28</ele>
        <time>2020-01-13T09:19:44Z</time>
      </trkpt>
      <trkpt lat="59.246981" lon="18.10404">
        <ele>28</ele>
        <time>2020-01-13T09:19:45Z</time>
      </trkpt>
      <trkpt lat="59.246965" lon="18.10419">
        <ele>28</ele>
        <time>2020-01-13T09:19:46Z</time>
      </trkpt>
      <trkpt lat="59.246955" lon="18.104337">
        <ele>28</ele>
        <time>2020-01-13T09:19:47Z</time>
      </trkpt>
      <trkpt lat="59.246948" lon="18.104474">
        <ele>0</ele>
        <time>2020-01-13T09:19:47Z</time>
      </trkpt>
      <trkpt lat="59.246952" lon="18.104609">
        <ele>28</ele>
        <time>2020-01-13T09:19:48Z</time>
      </trkpt>
      <trkpt lat="59.246953" lon="18.104736">
        <ele>28</ele>
        <time>2020-01-13T09:19:50Z</time>
      </trkpt>
      <trkpt lat="59.24693" lon="18.104839">
        <ele>27</ele>
        <time>2020-01-13T09:19:51Z</time>
      </trkpt>
      <trkpt lat="59.24689" lon="18.104914">
        <ele>0</ele>
        <time>2020-01-13T09:19:51Z</time>
      </trkpt>
      <trkpt lat="59.24685" lon="18.10497">
        <ele>27</ele>
        <time>2020-01-13T09:19:52Z</time>
      </trkpt>
      <trkpt lat="59.246807" lon="18.105024">
        <ele>27</ele>
        <time>2020-01-13T09:19:54Z</time>
      </trkpt>
      <trkpt lat="59.246763" lon="18.105077">
        <ele>27</ele>
        <time>2020-01-13T09:19:55Z</time>
      </trkpt>
      <trkpt lat="59.246724" lon="18.105125">
        <ele>27</ele>
        <time>2020-01-13T09:19:56Z</time>
      </trkpt>
      <trkpt lat="59.246692" lon="18.105171">
        <ele>27</ele>
        <time>2020-01-13T09:19:57Z</time>
      </trkpt>
      <trkpt lat="59.246661" lon="18.105213">
        <ele>0</ele>
        <time>2020-01-13T09:19:57Z</time>
      </trkpt>
      <trkpt lat="59.246628" lon="18.105254">
        <ele>27</ele>
        <time>2020-01-13T09:19:58Z</time>
      </trkpt>
      <trkpt lat="59.246593" lon="18.105297">
        <ele>27</ele>
        <time>2020-01-13T09:20:00Z</time>
      </trkpt>
      <trkpt lat="59.246558" lon="18.105338">
        <ele>27</ele>
        <time>2020-01-13T09:20:01Z</time>
      </trkpt>
      <trkpt lat="59.246522" lon="18.105363">
        <ele>27</ele>
        <time>2020-01-13T09:20:02Z</time>
      </trkpt>
      <trkpt lat="59.246482" lon="18.105375">
        <ele>27</ele>
        <time>2020-01-13T09:20:03Z</time>
      </trkpt>
      <trkpt lat="59.246439" lon="18.10538">
        <ele>28</ele>
        <time>2020-01-13T09:20:04Z</time>
      </trkpt>
      <trkpt lat="59.246399" lon="18.105383">
        <ele>28</ele>
        <time>2020-01-13T09:20:05Z</time>
      </trkpt>
      <trkpt lat="59.246357" lon="18.105389">
        <ele>28</ele>
        <time>2020-01-13T09:20:06Z</time>
      </trkpt>
      <trkpt lat="59.246315" lon="18.105398">
        <ele>28</ele>
        <time>2020-01-13T09:20:07Z</time>
      </trkpt>
      <trkpt lat="59.246273" lon="18.105411">
        <ele>28</ele>
        <time>2020-01-13T09:20:08Z</time>
      </trkpt>
      <trkpt lat="59.246231" lon="18.105431">
        <ele>28</ele>
        <time>2020-01-13T09:20:09Z</time>
      </trkpt>
      <trkpt lat="59.246191" lon="18.105461">
        <ele>0</ele>
        <time>2020-01-13T09:20:09Z</time>
      </trkpt>
      <trkpt lat="59.246156" lon="18.105499">
        <ele>28</ele>
        <time>2020-01-13T09:20:10Z</time>
      </trkpt>
      <trkpt lat="59.246121" lon="18.105547">
        <ele>28</ele>
        <time>2020-01-13T09:20:11Z</time>
      </trkpt>
      <trkpt lat="59.246087" lon="18.105595">
        <ele>29</ele>
        <time>2020-01-13T09:20:13Z</time>
      </trkpt>
      <trkpt lat="59.246056" lon="18.105644">
        <ele>29</ele>
        <time>2020-01-13T09:20:14Z</time>
      </trkpt>
      <trkpt lat="59.246026" lon="18.105691">
        <ele>29</ele>
        <time>2020-01-13T09:20:15Z</time>
      </trkpt>
      <trkpt lat="59.245993" lon="18.105739">
        <ele>29</ele>
        <time>2020-01-13T09:20:16Z</time>
      </trkpt>
      <trkpt lat="59.245957" lon="18.105788">
        <ele>29</ele>
        <time>2020-01-13T09:20:17Z</time>
      </trkpt>
      <trkpt lat="59.245919" lon="18.105839">
        <ele>29</ele>
        <time>2020-01-13T09:20:18Z</time>
      </trkpt>
      <trkpt lat="59.245879" lon="18.105892">
        <ele>29</ele>
        <time>2020-01-13T09:20:19Z</time>
      </trkpt>
      <trkpt lat="59.245841" lon="18.105942">
        <ele>29</ele>
        <time>2020-01-13T09:20:20Z</time>
      </trkpt>
      <trkpt lat="59.245807" lon="18.105988">
        <ele>29</ele>
        <time>2020-01-13T09:20:21Z</time>
      </trkpt>
      <trkpt lat="59.245779" lon="18.106032">
        <ele>0</ele>
        <time>2020-01-13T09:20:21Z</time>
      </trkpt>
      <trkpt lat="59.245756" lon="18.10607">
        <ele>29</ele>
        <time>2020-01-13T09:20:22Z</time>
      </trkpt>
      <trkpt lat="59.245732" lon="18.106107">
        <ele>30</ele>
        <time>2020-01-13T09:20:24Z</time>
      </trkpt>
      <trkpt lat="59.245707" lon="18.106144">
        <ele>30</ele>
        <time>2020-01-13T09:20:25Z</time>
      </trkpt>
      <trkpt lat="59.245686" lon="18.106181">
        <ele>30</ele>
        <time>2020-01-13T09:20:26Z</time>
      </trkpt>
      <trkpt lat="59.245662" lon="18.106222">
        <ele>31</ele>
        <time>2020-01-13T09:20:27Z</time>
      </trkpt>
      <trkpt lat="59.245635" lon="18.106263">
        <ele>30</ele>
        <time>2020-01-13T09:20:28Z</time>
      </trkpt>
      <trkpt lat="59.245598" lon="18.106315">
        <ele>30</ele>
        <time>2020-01-13T09:20:29Z</time>
      </trkpt>
      <trkpt lat="59.245564" lon="18.106364">
        <ele>0</ele>
        <time>2020-01-13T09:20:29Z</time>
      </trkpt>
      <trkpt lat="59.245524" lon="18.106429">
        <ele>30</ele>
        <time>2020-01-13T09:20:30Z</time>
      </trkpt>
      <trkpt lat="59.245496" lon="18.106485">
        <ele>31</ele>
        <time>2020-01-13T09:20:32Z</time>
      </trkpt>
      <trkpt lat="59.245466" lon="18.10654">
        <ele>31</ele>
        <time>2020-01-13T09:20:33Z</time>
      </trkpt>
      <trkpt lat="59.245434" lon="18.106598">
        <ele>31</ele>
        <time>2020-01-13T09:20:34Z</time>
      </trkpt>
      <trkpt lat="59.245402" lon="18.106659">
        <ele>0</ele>
        <time>2020-01-13T09:20:34Z</time>
      </trkpt>
      <trkpt lat="59.245371" lon="18.106717">
        <ele>31</ele>
        <time>2020-01-13T09:20:35Z</time>
      </trkpt>
      <trkpt lat="59.245342" lon="18.106773">
        <ele>31</ele>
        <time>2020-01-13T09:20:37Z</time>
      </trkpt>
      <trkpt lat="59.245315" lon="18.106828">
        <ele>32</ele>
        <time>2020-01-13T09:20:38Z</time>
      </trkpt>
      <trkpt lat="59.245281" lon="18.106888">
        <ele>32</ele>
        <time>2020-01-13T09:20:39Z</time>
      </trkpt>
      <trkpt lat="59.245246" lon="18.106951">
        <ele>32</ele>
        <time>2020-01-13T09:20:40Z</time>
      </trkpt>
      <trkpt lat="59.245209" lon="18.107015">
        <ele>32</ele>
        <time>2020-01-13T09:20:41Z</time>
      </trkpt>
      <trkpt lat="59.245172" lon="18.107079">
        <ele>31</ele>
        <time>2020-01-13T09:20:42Z</time>
      </trkpt>
      <trkpt lat="59.245134" lon="18.107139">
        <ele>31</ele>
        <time>2020-01-13T09:20:43Z</time>
      </trkpt>
      <trkpt lat="59.2451" lon="18.107199">
        <ele>31</ele>
        <time>2020-01-13T09:20:44Z</time>
      </trkpt>
      <trkpt lat="59.245067" lon="18.107259">
        <ele>31</ele>
        <time>2020-01-13T09:20:45Z</time>
      </trkpt>
      <trkpt lat="59.245032" lon="18.107319">
        <ele>0</ele>
        <time>2020-01-13T09:20:45Z</time>
      </trkpt>
      <trkpt lat="59.244997" lon="18.107375">
        <ele>31</ele>
        <time>2020-01-13T09:20:46Z</time>
      </trkpt>
      <trkpt lat="59.244961" lon="18.107431">
        <ele>31</ele>
        <time>2020-01-13T09:20:48Z</time>
      </trkpt>
      <trkpt lat="59.244927" lon="18.107488">
        <ele>0</ele>
        <time>2020-01-13T09:20:48Z</time>
      </trkpt>
      <trkpt lat="59.244892" lon="18.107547">
        <ele>31</ele>
        <time>2020-01-13T09:20:49Z</time>
      </trkpt>
      <trkpt lat="59.244857" lon="18.107606">
        <ele>30</ele>
        <time>2020-01-13T09:20:51Z</time>
      </trkpt>
      <trkpt lat="59.244824" lon="18.107666">
        <ele>30</ele>
        <time>2020-01-13T09:20:52Z</time>
      </trkpt>
      <trkpt lat="59.244787" lon="18.107729">
        <ele>30</ele>
        <time>2020-01-13T09:20:53Z</time>
      </trkpt>
      <trkpt lat="59.24475" lon="18.107795">
        <ele>31</ele>
        <time>2020-01-13T09:20:54Z</time>
      </trkpt>
      <trkpt lat="59.244714" lon="18.107863">
        <ele>31</ele>
        <time>2020-01-13T09:20:55Z</time>
      </trkpt>
      <trkpt lat="59.244677" lon="18.107932">
        <ele>0</ele>
        <time>2020-01-13T09:20:55Z</time>
      </trkpt>
      <trkpt lat="59.24464" lon="18.108002">
        <ele>31</ele>
        <time>2020-01-13T09:20:56Z</time>
      </trkpt>
      <trkpt lat="59.244601" lon="18.108073">
        <ele>30</ele>
        <time>2020-01-13T09:20:58Z</time>
      </trkpt>
      <trkpt lat="59.244562" lon="18.108148">
        <ele>30</ele>
        <time>2020-01-13T09:20:59Z</time>
      </trkpt>
      <trkpt lat="59.244521" lon="18.108225">
        <ele>30</ele>
        <time>2020-01-13T09:21:00Z</time>
      </trkpt>
      <trkpt lat="59.244479" lon="18.108303">
        <ele>30</ele>
        <time>2020-01-13T09:21:01Z</time>
      </trkpt>
      <trkpt lat="59.244438" lon="18.108383">
        <ele>30</ele>
        <time>2020-01-13T09:21:02Z</time>
      </trkpt>
      <trkpt lat="59.244395" lon="18.108462">
        <ele>30</ele>
        <time>2020-01-13T09:21:03Z</time>
      </trkpt>
      <trkpt lat="59.244351" lon="18.108541">
        <ele>30</ele>
        <time>2020-01-13T09:21:04Z</time>
      </trkpt>
      <trkpt lat="59.244308" lon="18.108623">
        <ele>0</ele>
        <time>2020-01-13T09:21:04Z</time>
      </trkpt>
      <trkpt lat="59.244266" lon="18.108705">
        <ele>30</ele>
        <time>2020-01-13T09:21:05Z</time>
      </trkpt>
      <trkpt lat="59.244223" lon="18.108789">
        <ele>30</ele>
        <time>2020-01-13T09:21:07Z</time>
      </trkpt>
      <trkpt lat="59.244181" lon="18.108872">
        <ele>0</ele>
        <time>2020-01-13T09:21:07Z</time>
      </trkpt>
      <trkpt lat="59.244139" lon="18.108959">
        <ele>30</ele>
        <time>2020-01-13T09:21:08Z</time>
      </trkpt>
      <trkpt lat="59.244098" lon="18.10905">
        <ele>30</ele>
        <time>2020-01-13T09:21:10Z</time>
      </trkpt>
      <trkpt lat="59.244059" lon="18.109147">
        <ele>29</ele>
        <time>2020-01-13T09:21:11Z</time>
      </trkpt>
      <trkpt lat="59.244024" lon="18.109252">
        <ele>29</ele>
        <time>2020-01-13T09:21:12Z</time>
      </trkpt>
      <trkpt lat="59.243995" lon="18.109363">
        <ele>0</ele>
        <time>2020-01-13T09:21:12Z</time>
      </trkpt>
      <trkpt lat="59.243971" lon="18.109479">
        <ele>29</ele>
        <time>2020-01-13T09:21:13Z</time>
      </trkpt>
      <trkpt lat="59.24395" lon="18.1096">
        <ele>29</ele>
        <time>2020-01-13T09:21:15Z</time>
      </trkpt>
      <trkpt lat="59.24393" lon="18.109727">
        <ele>29</ele>
        <time>2020-01-13T09:21:16Z</time>
      </trkpt>
      <trkpt lat="59.243916" lon="18.10986">
        <ele>29</ele>
        <time>2020-01-13T09:21:17Z</time>
      </trkpt>
      <trkpt lat="59.243907" lon="18.109996">
        <ele>30</ele>
        <time>2020-01-13T09:21:18Z</time>
      </trkpt>
      <trkpt lat="59.243899" lon="18.110137">
        <ele>30</ele>
        <time>2020-01-13T09:21:19Z</time>
      </trkpt>
      <trkpt lat="59.243895" lon="18.110278">
        <ele>0</ele>
        <time>2020-01-13T09:21:19Z</time>
      </trkpt>
      <trkpt lat="59.243893" lon="18.110421">
        <ele>30</ele>
        <time>2020-01-13T09:21:20Z</time>
      </trkpt>
      <trkpt lat="59.243891" lon="18.110566">
        <ele>30</ele>
        <time>2020-01-13T09:21:22Z</time>
      </trkpt>
      <trkpt lat="59.243892" lon="18.110711">
        <ele>30</ele>
        <time>2020-01-13T09:21:23Z</time>
      </trkpt>
      <trkpt lat="59.243892" lon="18.110863">
        <ele>30</ele>
        <time>2020-01-13T09:21:24Z</time>
      </trkpt>
      <trkpt lat="59.24389" lon="18.111021">
        <ele>30</ele>
        <time>2020-01-13T09:21:25Z</time>
      </trkpt>
      <trkpt lat="59.243888" lon="18.111184">
        <ele>30</ele>
        <time>2020-01-13T09:21:26Z</time>
      </trkpt>
      <trkpt lat="59.243887" lon="18.111349">
        <ele>0</ele>
        <time>2020-01-13T09:21:26Z</time>
      </trkpt>
      <trkpt lat="59.243886" lon="18.111513">
        <ele>29</ele>
        <time>2020-01-13T09:21:27Z</time>
      </trkpt>
      <trkpt lat="59.243883" lon="18.11168">
        <ele>28</ele>
        <time>2020-01-13T09:21:29Z</time>
      </trkpt>
      <trkpt lat="59.243884" lon="18.11185">
        <ele>28</ele>
        <time>2020-01-13T09:21:30Z</time>
      </trkpt>
      <trkpt lat="59.243884" lon="18.112021">
        <ele>28</ele>
        <time>2020-01-13T09:21:31Z</time>
      </trkpt>
      <trkpt lat="59.243884" lon="18.112192">
        <ele>0</ele>
        <time>2020-01-13T09:21:31Z</time>
      </trkpt>
      <trkpt lat="59.243882" lon="18.11236">
        <ele>27</ele>
        <time>2020-01-13T09:21:32Z</time>
      </trkpt>
      <trkpt lat="59.24388" lon="18.112529">
        <ele>27</ele>
        <time>2020-01-13T09:21:34Z</time>
      </trkpt>
      <trkpt lat="59.243876" lon="18.112695">
        <ele>27</ele>
        <time>2020-01-13T09:21:35Z</time>
      </trkpt>
      <trkpt lat="59.243872" lon="18.112859">
        <ele>27</ele>
        <time>2020-01-13T09:21:36Z</time>
      </trkpt>
      <trkpt lat="59.243864" lon="18.113022">
        <ele>27</ele>
        <time>2020-01-13T09:21:37Z</time>
      </trkpt>
      <trkpt lat="59.243854" lon="18.113182">
        <ele>0</ele>
        <time>2020-01-13T09:21:37Z</time>
      </trkpt>
      <trkpt lat="59.243841" lon="18.113339">
        <ele>27</ele>
        <time>2020-01-13T09:21:38Z</time>
      </trkpt>
      <trkpt lat="59.243826" lon="18.113493">
        <ele>27</ele>
        <time>2020-01-13T09:21:40Z</time>
      </trkpt>
      <trkpt lat="59.243812" lon="18.113645">
        <ele>27</ele>
        <time>2020-01-13T09:21:41Z</time>
      </trkpt>
      <trkpt lat="59.243798" lon="18.113795">
        <ele>27</ele>
        <time>2020-01-13T09:21:42Z</time>
      </trkpt>
      <trkpt lat="59.243781" lon="18.113941">
        <ele>27</ele>
        <time>2020-01-13T09:21:43Z</time>
      </trkpt>
      <trkpt lat="59.24376" lon="18.114088">
        <ele>27</ele>
        <time>2020-01-13T09:21:44Z</time>
      </trkpt>
      <trkpt lat="59.243741" lon="18.114233">
        <ele>0</ele>
        <time>2020-01-13T09:21:44Z</time>
      </trkpt>
      <trkpt lat="59.24372" lon="18.11438">
        <ele>27</ele>
        <time>2020-01-13T09:21:45Z</time>
      </trkpt>
      <trkpt lat="59.243694" lon="18.114525">
        <ele>27</ele>
        <time>2020-01-13T09:21:46Z</time>
      </trkpt>
      <trkpt lat="59.243669" lon="18.114666">
        <ele>27</ele>
        <time>2020-01-13T09:21:48Z</time>
      </trkpt>
      <trkpt lat="59.243644" lon="18.114803">
        <ele>27</ele>
        <time>2020-01-13T09:21:49Z</time>
      </trkpt>
      <trkpt lat="59.243615" lon="18.114942">
        <ele>27</ele>
        <time>2020-01-13T09:21:50Z</time>
      </trkpt>
      <trkpt lat="59.243591" lon="18.11508">
        <ele>0</ele>
        <time>2020-01-13T09:21:50Z</time>
      </trkpt>
      <trkpt lat="59.243578" lon="18.115219">
        <ele>27</ele>
        <time>2020-01-13T09:21:51Z</time>
      </trkpt>
      <trkpt lat="59.243567" lon="18.115362">
        <ele>26</ele>
        <time>2020-01-13T09:21:53Z</time>
      </trkpt>
      <trkpt lat="59.243551" lon="18.115509">
        <ele>26</ele>
        <time>2020-01-13T09:21:54Z</time>
      </trkpt>
      <trkpt lat="59.243528" lon="18.115654">
        <ele>26</ele>
        <time>2020-01-13T09:21:55Z</time>
      </trkpt>
      <trkpt lat="59.243495" lon="18.115792">
        <ele>26</ele>
        <time>2020-01-13T09:21:56Z</time>
      </trkpt>
      <trkpt lat="59.243455" lon="18.115924">
        <ele>25</ele>
        <time>2020-01-13T09:21:57Z</time>
      </trkpt>
      <trkpt lat="59.243414" lon="18.11605">
        <ele>0</ele>
        <time>2020-01-13T09:21:57Z</time>
      </trkpt>
      <trkpt lat="59.243375" lon="18.116178">
        <ele>25</ele>
        <time>2020-01-13T09:21:58Z</time>
      </trkpt>
      <trkpt lat="59.243336" lon="18.116303">
        <ele>25</ele>
        <time>2020-01-13T09:22:00Z</time>
      </trkpt>
      <trkpt lat="59.243298" lon="18.116425">
        <ele>25</ele>
        <time>2020-01-13T09:22:01Z</time>
      </trkpt>
      <trkpt lat="59.24326" lon="18.116544">
        <ele>24</ele>
        <time>2020-01-13T09:22:02Z</time>
      </trkpt>
      <trkpt lat="59.243223" lon="18.116663">
        <ele>24</ele>
        <time>2020-01-13T09:22:03Z</time>
      </trkpt>
      <trkpt lat="59.243186" lon="18.116783">
        <ele>24</ele>
        <time>2020-01-13T09:22:04Z</time>
      </trkpt>
      <trkpt lat="59.243149" lon="18.116901">
        <ele>0</ele>
        <time>2020-01-13T09:22:04Z</time>
      </trkpt>
      <trkpt lat="59.243111" lon="18.11702">
        <ele>24</ele>
        <time>2020-01-13T09:22:05Z</time>
      </trkpt>
      <trkpt lat="59.243074" lon="18.117138">
        <ele>24</ele>
        <time>2020-01-13T09:22:07Z</time>
      </trkpt>
      <trkpt lat="59.243036" lon="18.117255">
        <ele>23</ele>
        <time>2020-01-13T09:22:08Z</time>
      </trkpt>
      <trkpt lat="59.242999" lon="18.117372">
        <ele>23</ele>
        <time>2020-01-13T09:22:09Z</time>
      </trkpt>
      <trkpt lat="59.242964" lon="18.117489">
        <ele>23</ele>
        <time>2020-01-13T09:22:10Z</time>
      </trkpt>
      <trkpt lat="59.242929" lon="18.117605">
        <ele>23</ele>
        <time>2020-01-13T09:22:11Z</time>
      </trkpt>
      <trkpt lat="59.242895" lon="18.117716">
        <ele>0</ele>
        <time>2020-01-13T09:22:11Z</time>
      </trkpt>
      <trkpt lat="59.242861" lon="18.117825">
        <ele>23</ele>
        <time>2020-01-13T09:22:12Z</time>
      </trkpt>
      <trkpt lat="59.242828" lon="18.117931">
        <ele>23</ele>
        <time>2020-01-13T09:22:14Z</time>
      </trkpt>
      <trkpt lat="59.242795" lon="18.118034">
        <ele>22</ele>
        <time>2020-01-13T09:22:15Z</time>
      </trkpt>
      <trkpt lat="59.242762" lon="18.118135">
        <ele>22</ele>
        <time>2020-01-13T09:22:16Z</time>
      </trkpt>
      <trkpt lat="59.24273" lon="18.118235">
        <ele>22</ele>
        <time>2020-01-13T09:22:17Z</time>
      </trkpt>
      <trkpt lat="59.2427" lon="18.118334">
        <ele>22</ele>
        <time>2020-01-13T09:22:18Z</time>
      </trkpt>
      <trkpt lat="59.242669" lon="18.118431">
        <ele>22</ele>
        <time>2020-01-13T09:22:19Z</time>
      </trkpt>
      <trkpt lat="59.242637" lon="18.118527">
        <ele>0</ele>
        <time>2020-01-13T09:22:19Z</time>
      </trkpt>
      <trkpt lat="59.242605" lon="18.118621">
        <ele>22</ele>
        <time>2020-01-13T09:22:20Z</time>
      </trkpt>
      <trkpt lat="59.242574" lon="18.118713">
        <ele>22</ele>
        <time>2020-01-13T09:22:22Z</time>
      </trkpt>
      <trkpt lat="59.242538" lon="18.118805">
        <ele>22</ele>
        <time>2020-01-13T09:22:23Z</time>
      </trkpt>
      <trkpt lat="59.242497" lon="18.118891">
        <ele>0</ele>
        <time>2020-01-13T09:22:23Z</time>
      </trkpt>
      <trkpt lat="59.242452" lon="18.118969">
        <ele>22</ele>
        <time>2020-01-13T09:22:24Z</time>
      </trkpt>
      <trkpt lat="59.242407" lon="18.119036">
        <ele>23</ele>
        <time>2020-01-13T09:22:26Z</time>
      </trkpt>
      <trkpt lat="59.242368" lon="18.119083">
        <ele>23</ele>
        <time>2020-01-13T09:22:27Z</time>
      </trkpt>
      <trkpt lat="59.242324" lon="18.119123">
        <ele>23</ele>
        <time>2020-01-13T09:22:28Z</time>
      </trkpt>
      <trkpt lat="59.242272" lon="18.119168">
        <ele>0</ele>
        <time>2020-01-13T09:22:28Z</time>
      </trkpt>
      <trkpt lat="59.242216" lon="18.119209">
        <ele>23</ele>
        <time>2020-01-13T09:22:29Z</time>
      </trkpt>
      <trkpt lat="59.242158" lon="18.119244">
        <ele>23</ele>
        <time>2020-01-13T09:22:31Z</time>
      </trkpt>
      <trkpt lat="59.242101" lon="18.119277">
        <ele>24</ele>
        <time>2020-01-13T09:22:32Z</time>
      </trkpt>
      <trkpt lat="59.242044" lon="18.119305">
        <ele>24</ele>
        <time>2020-01-13T09:22:33Z</time>
      </trkpt>
      <trkpt lat="59.241988" lon="18.119325">
        <ele>24</ele>
        <time>2020-01-13T09:22:34Z</time>
      </trkpt>
      <trkpt lat="59.241934" lon="18.119348">
        <ele>24</ele>
        <time>2020-01-13T09:22:35Z</time>
      </trkpt>
      <trkpt lat="59.241881" lon="18.119377">
        <ele>23</ele>
        <time>2020-01-13T09:22:36Z</time>
      </trkpt>
      <trkpt lat="59.241827" lon="18.119393">
        <ele>23</ele>
        <time>2020-01-13T09:22:37Z</time>
      </trkpt>
      <trkpt lat="59.241769" lon="18.11938">
        <ele>0</ele>
        <time>2020-01-13T09:22:37Z</time>
      </trkpt>
      <trkpt lat="59.24171" lon="18.119354">
        <ele>23</ele>
        <time>2020-01-13T09:22:38Z</time>
      </trkpt>
      <trkpt lat="59.241652" lon="18.119324">
        <ele>23</ele>
        <time>2020-01-13T09:22:40Z</time>
      </trkpt>
      <trkpt lat="59.241592" lon="18.119298">
        <ele>23</ele>
        <time>2020-01-13T09:22:41Z</time>
      </trkpt>
      <trkpt lat="59.241535" lon="18.119279">
        <ele>23</ele>
        <time>2020-01-13T09:22:42Z</time>
      </trkpt>
      <trkpt lat="59.241477" lon="18.119266">
        <ele>0</ele>
        <time>2020-01-13T09:22:42Z</time>
      </trkpt>
      <trkpt lat="59.241418" lon="18.119258">
        <ele>23</ele>
        <time>2020-01-13T09:22:43Z</time>
      </trkpt>
      <trkpt lat="59.241359" lon="18.119241">
        <ele>22</ele>
        <time>2020-01-13T09:22:45Z</time>
      </trkpt>
      <trkpt lat="59.241294" lon="18.119217">
        <ele>0</ele>
        <time>2020-01-13T09:22:45Z</time>
      </trkpt>
      <trkpt lat="59.241232" lon="18.119209">
        <ele>23</ele>
        <time>2020-01-13T09:22:46Z</time>
      </trkpt>
      <trkpt lat="59.241182" lon="18.119243">
        <ele>23</ele>
        <time>2020-01-13T09:22:48Z</time>
      </trkpt>
      <trkpt lat="59.241148" lon="18.119312">
        <ele>23</ele>
        <time>2020-01-13T09:22:49Z</time>
      </trkpt>
      <trkpt lat="59.241142" lon="18.11939">
        <ele>23</ele>
        <time>2020-01-13T09:22:50Z</time>
      </trkpt>
      <trkpt lat="59.241148" lon="18.119474">
        <ele>23</ele>
        <time>2020-01-13T09:22:51Z</time>
      </trkpt>
      <trkpt lat="59.241155" lon="18.119555">
        <ele>22</ele>
        <time>2020-01-13T09:22:52Z</time>
      </trkpt>
      <trkpt lat="59.241162" lon="18.119643">
        <ele>22</ele>
        <time>2020-01-13T09:22:53Z</time>
      </trkpt>
      <trkpt lat="59.241155" lon="18.119744">
        <ele>22</ele>
        <time>2020-01-13T09:22:54Z</time>
      </trkpt>
      <trkpt lat="59.241138" lon="18.119816">
        <ele>22</ele>
        <time>2020-01-13T09:22:55Z</time>
      </trkpt>
      <trkpt lat="59.241107" lon="18.119858">
        <ele>22</ele>
        <time>2020-01-13T09:22:56Z</time>
      </trkpt>
      <trkpt lat="59.24107" lon="18.119858">
        <ele>0</ele>
        <time>2020-01-13T09:22:56Z</time>
      </trkpt>
      <trkpt lat="59.241032" lon="18.119828">
        <ele>22</ele>
        <time>2020-01-13T09:22:57Z</time>
      </trkpt>
      <trkpt lat="59.240992" lon="18.119771">
        <ele>22</ele>
        <time>2020-01-13T09:22:59Z</time>
      </trkpt>
      <trkpt lat="59.240945" lon="18.119698">
        <ele>22</ele>
        <time>2020-01-13T09:23:00Z</time>
      </trkpt>
      <trkpt lat="59.240898" lon="18.119652">
        <ele>22</ele>
        <time>2020-01-13T09:23:01Z</time>
      </trkpt>
      <trkpt lat="59.240853" lon="18.119617">
        <ele>21</ele>
        <time>2020-01-13T09:23:01Z</time>
      </trkpt>
      <trkpt lat="59.240797" lon="18.119582">
        <ele>22</ele>
        <time>2020-01-13T09:23:02Z</time>
      </trkpt>
      <trkpt lat="59.240737" lon="18.119562">
        <ele>22</ele>
        <time>2020-01-13T09:23:04Z</time>
      </trkpt>
      <trkpt lat="59.240675" lon="18.119555">
        <ele>22</ele>
        <time>2020-01-13T09:23:05Z</time>
      </trkpt>
      <trkpt lat="59.240616" lon="18.119557">
        <ele>0</ele>
        <time>2020-01-13T09:23:05Z</time>
      </trkpt>
      <trkpt lat="59.240558" lon="18.119561">
        <ele>22</ele>
        <time>2020-01-13T09:23:06Z</time>
      </trkpt>
      <trkpt lat="59.240506" lon="18.119544">
        <ele>22</ele>
        <time>2020-01-13T09:23:08Z</time>
      </trkpt>
      <trkpt lat="59.240463" lon="18.119499">
        <ele>22</ele>
        <time>2020-01-13T09:23:09Z</time>
      </trkpt>
      <trkpt lat="59.24043" lon="18.119445">
        <ele>22</ele>
        <time>2020-01-13T09:23:10Z</time>
      </trkpt>
      <trkpt lat="59.240395" lon="18.119409">
        <ele>22</ele>
        <time>2020-01-13T09:23:11Z</time>
      </trkpt>
      <trkpt lat="59.240352" lon="18.119397">
        <ele>22</ele>
        <time>2020-01-13T09:23:12Z</time>
      </trkpt>
      <trkpt lat="59.240307" lon="18.1194">
        <ele>22</ele>
        <time>2020-01-13T09:23:13Z</time>
      </trkpt>
      <trkpt lat="59.240259" lon="18.119413">
        <ele>22</ele>
        <time>2020-01-13T09:23:14Z</time>
      </trkpt>
      <trkpt lat="59.240212" lon="18.119432">
        <ele>22</ele>
        <time>2020-01-13T09:23:15Z</time>
      </trkpt>
      <trkpt lat="59.240163" lon="18.119452">
        <ele>22</ele>
        <time>2020-01-13T09:23:16Z</time>
      </trkpt>
      <trkpt lat="59.240113" lon="18.119473">
        <ele>0</ele>
        <time>2020-01-13T09:23:16Z</time>
      </trkpt>
      <trkpt lat="59.240063" lon="18.119494">
        <ele>22</ele>
        <time>2020-01-13T09:23:17Z</time>
      </trkpt>
      <trkpt lat="59.240012" lon="18.119515">
        <ele>22</ele>
        <time>2020-01-13T09:23:19Z</time>
      </trkpt>
      <trkpt lat="59.239961" lon="18.119536">
        <ele>22</ele>
        <time>2020-01-13T09:23:20Z</time>
      </trkpt>
      <trkpt lat="59.239909" lon="18.119556">
        <ele>0</ele>
        <time>2020-01-13T09:23:20Z</time>
      </trkpt>
      <trkpt lat="59.239857" lon="18.119575">
        <ele>22</ele>
        <time>2020-01-13T09:23:21Z</time>
      </trkpt>
      <trkpt lat="59.239806" lon="18.119595">
        <ele>22</ele>
        <time>2020-01-13T09:23:23Z</time>
      </trkpt>
      <trkpt lat="59.239754" lon="18.119618">
        <ele>22</ele>
        <time>2020-01-13T09:23:24Z</time>
      </trkpt>
      <trkpt lat="59.239704" lon="18.119639">
        <ele>22</ele>
        <time>2020-01-13T09:23:25Z</time>
      </trkpt>
      <trkpt lat="59.239654" lon="18.119656">
        <ele>0</ele>
        <time>2020-01-13T09:23:25Z</time>
      </trkpt>
      <trkpt lat="59.239604" lon="18.119671">
        <ele>22</ele>
        <time>2020-01-13T09:23:26Z</time>
      </trkpt>
      <trkpt lat="59.239555" lon="18.119687">
        <ele>23</ele>
        <time>2020-01-13T09:23:28Z</time>
      </trkpt>
      <trkpt lat="59.239506" lon="18.119709">
        <ele>23</ele>
        <time>2020-01-13T09:23:29Z</time>
      </trkpt>
      <trkpt lat="59.239457" lon="18.119728">
        <ele>23</ele>
        <time>2020-01-13T09:23:30Z</time>
      </trkpt>
      <trkpt lat="59.239408" lon="18.119748">
        <ele>23</ele>
        <time>2020-01-13T09:23:31Z</time>
      </trkpt>
      <trkpt lat="59.239359" lon="18.119766">
        <ele>23</ele>
        <time>2020-01-13T09:23:32Z</time>
      </trkpt>
      <trkpt lat="59.239308" lon="18.119782">
        <ele>23</ele>
        <time>2020-01-13T09:23:33Z</time>
      </trkpt>
      <trkpt lat="59.239258" lon="18.119795">
        <ele>23</ele>
        <time>2020-01-13T09:23:34Z</time>
      </trkpt>
      <trkpt lat="59.239206" lon="18.119806">
        <ele>23</ele>
        <time>2020-01-13T09:23:35Z</time>
      </trkpt>
      <trkpt lat="59.239155" lon="18.119813">
        <ele>0</ele>
        <time>2020-01-13T09:23:35Z</time>
      </trkpt>
      <trkpt lat="59.239104" lon="18.119818">
        <ele>23</ele>
        <time>2020-01-13T09:23:36Z</time>
      </trkpt>
      <trkpt lat="59.239052" lon="18.119825">
        <ele>23</ele>
        <time>2020-01-13T09:23:38Z</time>
      </trkpt>
      <trkpt lat="59.239" lon="18.119832">
        <ele>23</ele>
        <time>2020-01-13T09:23:39Z</time>
      </trkpt>
      <trkpt lat="59.238948" lon="18.119835">
        <ele>0</ele>
        <time>2020-01-13T09:23:39Z</time>
      </trkpt>
      <trkpt lat="59.238895" lon="18.119834">
        <ele>23</ele>
        <time>2020-01-13T09:23:40Z</time>
      </trkpt>
      <trkpt lat="59.238844" lon="18.119833">
        <ele>23</ele>
        <time>2020-01-13T09:23:42Z</time>
      </trkpt>
      <trkpt lat="59.238793" lon="18.119828">
        <ele>23</ele>
        <time>2020-01-13T09:23:43Z</time>
      </trkpt>
      <trkpt lat="59.238741" lon="18.119821">
        <ele>23</ele>
        <time>2020-01-13T09:23:44Z</time>
      </trkpt>
      <trkpt lat="59.23869" lon="18.11981">
        <ele>23</ele>
        <time>2020-01-13T09:23:45Z</time>
      </trkpt>
      <trkpt lat="59.238639" lon="18.119801">
        <ele>0</ele>
        <time>2020-01-13T09:23:45Z</time>
      </trkpt>
      <trkpt lat="59.238588" lon="18.119793">
        <ele>24</ele>
        <time>2020-01-13T09:23:46Z</time>
      </trkpt>
      <trkpt lat="59.238538" lon="18.119785">
        <ele>24</ele>
        <time>2020-01-13T09:23:48Z</time>
      </trkpt>
      <trkpt lat="59.238488" lon="18.119777">
        <ele>24</ele>
        <time>2020-01-13T09:23:49Z</time>
      </trkpt>
      <trkpt lat="59.23844" lon="18.11977">
        <ele>24</ele>
        <time>2020-01-13T09:23:50Z</time>
      </trkpt>
      <trkpt lat="59.238392" lon="18.119763">
        <ele>24</ele>
        <time>2020-01-13T09:23:51Z</time>
      </trkpt>
      <trkpt lat="59.238344" lon="18.119757">
        <ele>24</ele>
        <time>2020-01-13T09:23:52Z</time>
      </trkpt>
      <trkpt lat="59.238298" lon="18.119752">
        <ele>24</ele>
        <time>2020-01-13T09:23:53Z</time>
      </trkpt>
      <trkpt lat="59.238251" lon="18.119744">
        <ele>25</ele>
        <time>2020-01-13T09:23:54Z</time>
      </trkpt>
      <trkpt lat="59.238204" lon="18.119738">
        <ele>25</ele>
        <time>2020-01-13T09:23:55Z</time>
      </trkpt>
      <trkpt lat="59.238157" lon="18.119729">
        <ele>0</ele>
        <time>2020-01-13T09:23:55Z</time>
      </trkpt>
      <trkpt lat="59.238111" lon="18.119721">
        <ele>25</ele>
        <time>2020-01-13T09:23:56Z</time>
      </trkpt>
      <trkpt lat="59.238064" lon="18.119713">
        <ele>25</ele>
        <time>2020-01-13T09:23:58Z</time>
      </trkpt>
      <trkpt lat="59.238018" lon="18.119703">
        <ele>0</ele>
        <time>2020-01-13T09:23:58Z</time>
      </trkpt>
      <trkpt lat="59.237971" lon="18.119694">
        <ele>25</ele>
        <time>2020-01-13T09:23:59Z</time>
      </trkpt>
      <trkpt lat="59.237926" lon="18.119688">
        <ele>25</ele>
        <time>2020-01-13T09:24:01Z</time>
      </trkpt>
      <trkpt lat="59.237881" lon="18.119682">
        <ele>25</ele>
        <time>2020-01-13T09:24:02Z</time>
      </trkpt>
      <trkpt lat="59.237837" lon="18.119677">
        <ele>25</ele>
        <time>2020-01-13T09:24:03Z</time>
      </trkpt>
      <trkpt lat="59.237793" lon="18.119673">
        <ele>25</ele>
        <time>2020-01-13T09:24:04Z</time>
      </trkpt>
      <trkpt lat="59.237749" lon="18.119666">
        <ele>25</ele>
        <time>2020-01-13T09:24:05Z</time>
      </trkpt>
      <trkpt lat="59.237706" lon="18.119657">
        <ele>26</ele>
        <time>2020-01-13T09:24:06Z</time>
      </trkpt>
      <trkpt lat="59.237663" lon="18.119649">
        <ele>0</ele>
        <time>2020-01-13T09:24:06Z</time>
      </trkpt>
      <trkpt lat="59.23762" lon="18.119642">
        <ele>26</ele>
        <time>2020-01-13T09:24:07Z</time>
      </trkpt>
      <trkpt lat="59.237575" lon="18.119634">
        <ele>26</ele>
        <time>2020-01-13T09:24:09Z</time>
      </trkpt>
      <trkpt lat="59.237528" lon="18.119626">
        <ele>26</ele>
        <time>2020-01-13T09:24:10Z</time>
      </trkpt>
      <trkpt lat="59.237481" lon="18.11962">
        <ele>26</ele>
        <time>2020-01-13T09:24:11Z</time>
      </trkpt>
      <trkpt lat="59.237433" lon="18.119611">
        <ele>26</ele>
        <time>2020-01-13T09:24:12Z</time>
      </trkpt>
      <trkpt lat="59.237384" lon="18.119603">
        <ele>26</ele>
        <time>2020-01-13T09:24:13Z</time>
      </trkpt>
      <trkpt lat="59.237335" lon="18.119597">
        <ele>26</ele>
        <time>2020-01-13T09:24:14Z</time>
      </trkpt>
      <trkpt lat="59.237286" lon="18.119592">
        <ele>26</ele>
        <time>2020-01-13T09:24:15Z</time>
      </trkpt>
      <trkpt lat="59.237237" lon="18.119585">
        <ele>26</ele>
        <time>2020-01-13T09:24:16Z</time>
      </trkpt>
      <trkpt lat="59.237188" lon="18.119577">
        <ele>26</ele>
        <time>2020-01-13T09:24:17Z</time>
      </trkpt>
      <trkpt lat="59.237138" lon="18.119571">
        <ele>0</ele>
        <time>2020-01-13T09:24:17Z</time>
      </trkpt>
      <trkpt lat="59.237088" lon="18.119563">
        <ele>26</ele>
        <time>2020-01-13T09:24:18Z</time>
      </trkpt>
      <trkpt lat="59.237038" lon="18.119554">
        <ele>26</ele>
        <time>2020-01-13T09:24:20Z</time>
      </trkpt>
      <trkpt lat="59.236988" lon="18.119548">
        <ele>26</ele>
        <time>2020-01-13T09:24:21Z</time>
      </trkpt>
      <trkpt lat="59.236939" lon="18.119543">
        <ele>26</ele>
        <time>2020-01-13T09:24:22Z</time>
      </trkpt>
      <trkpt lat="59.23689" lon="18.11954">
        <ele>26</ele>
        <time>2020-01-13T09:24:23Z</time>
      </trkpt>
      <trkpt lat="59.236841" lon="18.119538">
        <ele>26</ele>
        <time>2020-01-13T09:24:24Z</time>
      </trkpt>
      <trkpt lat="59.236794" lon="18.119534">
        <ele>26</ele>
        <time>2020-01-13T09:24:25Z</time>
      </trkpt>
      <trkpt lat="59.236746" lon="18.119531">
        <ele>26</ele>
        <time>2020-01-13T09:24:26Z</time>
      </trkpt>
      <trkpt lat="59.2367" lon="18.11953">
        <ele>26</ele>
        <time>2020-01-13T09:24:27Z</time>
      </trkpt>
      <trkpt lat="59.236654" lon="18.11953">
        <ele>0</ele>
        <time>2020-01-13T09:24:27Z</time>
      </trkpt>
      <trkpt lat="59.236607" lon="18.119532">
        <ele>26</ele>
        <time>2020-01-13T09:24:28Z</time>
      </trkpt>
      <trkpt lat="59.236561" lon="18.119536">
        <ele>26</ele>
        <time>2020-01-13T09:24:30Z</time>
      </trkpt>
      <trkpt lat="59.236513" lon="18.119541">
        <ele>26</ele>
        <time>2020-01-13T09:24:31Z</time>
      </trkpt>
      <trkpt lat="59.236466" lon="18.119544">
        <ele>26</ele>
        <time>2020-01-13T09:24:32Z</time>
      </trkpt>
      <trkpt lat="59.236418" lon="18.119548">
        <ele>26</ele>
        <time>2020-01-13T09:24:33Z</time>
      </trkpt>
      <trkpt lat="59.23637" lon="18.119554">
        <ele>27</ele>
        <time>2020-01-13T09:24:34Z</time>
      </trkpt>
      <trkpt lat="59.23632" lon="18.11956">
        <ele>27</ele>
        <time>2020-01-13T09:24:35Z</time>
      </trkpt>
      <trkpt lat="59.236271" lon="18.119568">
        <ele>27</ele>
        <time>2020-01-13T09:24:36Z</time>
      </trkpt>
      <trkpt lat="59.236222" lon="18.119577">
        <ele>0</ele>
        <time>2020-01-13T09:24:36Z</time>
      </trkpt>
      <trkpt lat="59.236172" lon="18.119589">
        <ele>27</ele>
        <time>2020-01-13T09:24:37Z</time>
      </trkpt>
      <trkpt lat="59.236123" lon="18.119601">
        <ele>27</ele>
        <time>2020-01-13T09:24:38Z</time>
      </trkpt>
      <trkpt lat="59.236072" lon="18.119616">
        <ele>27</ele>
        <time>2020-01-13T09:24:40Z</time>
      </trkpt>
      <trkpt lat="59.23602" lon="18.119632">
        <ele>27</ele>
        <time>2020-01-13T09:24:41Z</time>
      </trkpt>
      <trkpt lat="59.235968" lon="18.119648">
        <ele>27</ele>
        <time>2020-01-13T09:24:42Z</time>
      </trkpt>
      <trkpt lat="59.235915" lon="18.119667">
        <ele>27</ele>
        <time>2020-01-13T09:24:43Z</time>
      </trkpt>
      <trkpt lat="59.235862" lon="18.119687">
        <ele>27</ele>
        <time>2020-01-13T09:24:44Z</time>
      </trkpt>
      <trkpt lat="59.235809" lon="18.119708">
        <ele>27</ele>
        <time>2020-01-13T09:24:45Z</time>
      </trkpt>
      <trkpt lat="59.235757" lon="18.119731">
        <ele>27</ele>
        <time>2020-01-13T09:24:46Z</time>
      </trkpt>
      <trkpt lat="59.235707" lon="18.119759">
        <ele>27</ele>
        <time>2020-01-13T09:24:47Z</time>
      </trkpt>
      <trkpt lat="59.235656" lon="18.11979">
        <ele>0</ele>
        <time>2020-01-13T09:24:47Z</time>
      </trkpt>
      <trkpt lat="59.235604" lon="18.119822">
        <ele>27</ele>
        <time>2020-01-13T09:24:48Z</time>
      </trkpt>
      <trkpt lat="59.235553" lon="18.119854">
        <ele>27</ele>
        <time>2020-01-13T09:24:50Z</time>
      </trkpt>
      <trkpt lat="59.235501" lon="18.119886">
        <ele>27</ele>
        <time>2020-01-13T09:24:51Z</time>
      </trkpt>
      <trkpt lat="59.235448" lon="18.119918">
        <ele>27</ele>
        <time>2020-01-13T09:24:52Z</time>
      </trkpt>
      <trkpt lat="59.235395" lon="18.119949">
        <ele>27</ele>
        <time>2020-01-13T09:24:53Z</time>
      </trkpt>
      <trkpt lat="59.235341" lon="18.119978">
        <ele>27</ele>
        <time>2020-01-13T09:24:54Z</time>
      </trkpt>
      <trkpt lat="59.235287" lon="18.120002">
        <ele>27</ele>
        <time>2020-01-13T09:24:55Z</time>
      </trkpt>
      <trkpt lat="59.235234" lon="18.120023">
        <ele>0</ele>
        <time>2020-01-13T09:24:55Z</time>
      </trkpt>
      <trkpt lat="59.235181" lon="18.120042">
        <ele>27</ele>
        <time>2020-01-13T09:24:56Z</time>
      </trkpt>
      <trkpt lat="59.23513" lon="18.120061">
        <ele>27</ele>
        <time>2020-01-13T09:24:57Z</time>
      </trkpt>
      <trkpt lat="59.235079" lon="18.120074">
        <ele>27</ele>
        <time>2020-01-13T09:24:59Z</time>
      </trkpt>
      <trkpt lat="59.23503" lon="18.120088">
        <ele>27</ele>
        <time>2020-01-13T09:25:00Z</time>
      </trkpt>
      <trkpt lat="59.234983" lon="18.120108">
        <ele>27</ele>
        <time>2020-01-13T09:25:01Z</time>
      </trkpt>
      <trkpt lat="59.234936" lon="18.120132">
        <ele>27</ele>
        <time>2020-01-13T09:25:02Z</time>
      </trkpt>
      <trkpt lat="59.234889" lon="18.120157">
        <ele>27</ele>
        <time>2020-01-13T09:25:03Z</time>
      </trkpt>
      <trkpt lat="59.234843" lon="18.120183">
        <ele>27</ele>
        <time>2020-01-13T09:25:04Z</time>
      </trkpt>
      <trkpt lat="59.234798" lon="18.120212">
        <ele>27</ele>
        <time>2020-01-13T09:25:05Z</time>
      </trkpt>
      <trkpt lat="59.234757" lon="18.120243">
        <ele>28</ele>
        <time>2020-01-13T09:25:06Z</time>
      </trkpt>
      <trkpt lat="59.234717" lon="18.120272">
        <ele>0</ele>
        <time>2020-01-13T09:25:06Z</time>
      </trkpt>
      <trkpt lat="59.234682" lon="18.120295">
        <ele>28</ele>
        <time>2020-01-13T09:25:07Z</time>
      </trkpt>
      <trkpt lat="59.234651" lon="18.120316">
        <ele>28</ele>
        <time>2020-01-13T09:25:09Z</time>
      </trkpt>
      <trkpt lat="59.234622" lon="18.120336">
        <ele>28</ele>
        <time>2020-01-13T09:25:10Z</time>
      </trkpt>
      <trkpt lat="59.234597" lon="18.120354">
        <ele>28</ele>
        <time>2020-01-13T09:25:11Z</time>
      </trkpt>
      <trkpt lat="59.234573" lon="18.120371">
        <ele>28</ele>
        <time>2020-01-13T09:25:12Z</time>
      </trkpt>
      <trkpt lat="59.234548" lon="18.120388">
        <ele>28</ele>
        <time>2020-01-13T09:25:13Z</time>
      </trkpt>
      <trkpt lat="59.234523" lon="18.120403">
        <ele>28</ele>
        <time>2020-01-13T09:25:14Z</time>
      </trkpt>
      <trkpt lat="59.234498" lon="18.12042">
        <ele>0</ele>
        <time>2020-01-13T09:25:14Z</time>
      </trkpt>
      <trkpt lat="59.234472" lon="18.120438">
        <ele>28</ele>
        <time>2020-01-13T09:25:15Z</time>
      </trkpt>
      <trkpt lat="59.234446" lon="18.120453">
        <ele>29</ele>
        <time>2020-01-13T09:25:17Z</time>
      </trkpt>
      <trkpt lat="59.234419" lon="18.120468">
        <ele>29</ele>
        <time>2020-01-13T09:25:18Z</time>
      </trkpt>
      <trkpt lat="59.234393" lon="18.120486">
        <ele>29</ele>
        <time>2020-01-13T09:25:19Z</time>
      </trkpt>
      <trkpt lat="59.234367" lon="18.120505">
        <ele>29</ele>
        <time>2020-01-13T09:25:20Z</time>
      </trkpt>
      <trkpt lat="59.234342" lon="18.120523">
        <ele>29</ele>
        <time>2020-01-13T09:25:21Z</time>
      </trkpt>
      <trkpt lat="59.234317" lon="18.12054">
        <ele>29</ele>
        <time>2020-01-13T09:25:22Z</time>
      </trkpt>
      <trkpt lat="59.23429" lon="18.120558">
        <ele>29</ele>
        <time>2020-01-13T09:25:23Z</time>
      </trkpt>
      <trkpt lat="59.234264" lon="18.120575">
        <ele>29</ele>
        <time>2020-01-13T09:25:24Z</time>
      </trkpt>
      <trkpt lat="59.234241" lon="18.120593">
        <ele>30</ele>
        <time>2020-01-13T09:25:25Z</time>
      </trkpt>
      <trkpt lat="59.234218" lon="18.120611">
        <ele>0</ele>
        <time>2020-01-13T09:25:25Z</time>
      </trkpt>
      <trkpt lat="59.234196" lon="18.120629">
        <ele>30</ele>
        <time>2020-01-13T09:25:26Z</time>
      </trkpt>
      <trkpt lat="59.234176" lon="18.120646">
        <ele>30</ele>
        <time>2020-01-13T09:25:28Z</time>
      </trkpt>
      <trkpt lat="59.234153" lon="18.12066">
        <ele>31</ele>
        <time>2020-01-13T09:25:29Z</time>
      </trkpt>
      <trkpt lat="59.234131" lon="18.120676">
        <ele>31</ele>
        <time>2020-01-13T09:25:30Z</time>
      </trkpt>
      <trkpt lat="59.234108" lon="18.120692">
        <ele>31</ele>
        <time>2020-01-13T09:25:31Z</time>
      </trkpt>
      <trkpt lat="59.234082" lon="18.120711">
        <ele>31</ele>
        <time>2020-01-13T09:25:32Z</time>
      </trkpt>
      <trkpt lat="59.234059" lon="18.120731">
        <ele>32</ele>
        <time>2020-01-13T09:25:33Z</time>
      </trkpt>
      <trkpt lat="59.234033" lon="18.120743">
        <ele>0</ele>
        <time>2020-01-13T09:25:33Z</time>
      </trkpt>
      <trkpt lat="59.23401" lon="18.120758">
        <ele>32</ele>
        <time>2020-01-13T09:25:34Z</time>
      </trkpt>
      <trkpt lat="59.233987" lon="18.120771">
        <ele>33</ele>
        <time>2020-01-13T09:25:36Z</time>
      </trkpt>
      <trkpt lat="59.233965" lon="18.12079">
        <ele>33</ele>
        <time>2020-01-13T09:25:37Z</time>
      </trkpt>
      <trkpt lat="59.233944" lon="18.120803">
        <ele>33</ele>
        <time>2020-01-13T09:25:38Z</time>
      </trkpt>
      <trkpt lat="59.233926" lon="18.120817">
        <ele>34</ele>
        <time>2020-01-13T09:25:39Z</time>
      </trkpt>
      <trkpt lat="59.233905" lon="18.120824">
        <ele>34</ele>
        <time>2020-01-13T09:25:40Z</time>
      </trkpt>
      <trkpt lat="59.233885" lon="18.120838">
        <ele>34</ele>
        <time>2020-01-13T09:25:41Z</time>
      </trkpt>
      <trkpt lat="59.233864" lon="18.120852">
        <ele>35</ele>
        <time>2020-01-13T09:25:42Z</time>
      </trkpt>
      <trkpt lat="59.233841" lon="18.120862">
        <ele>35</ele>
        <time>2020-01-13T09:25:43Z</time>
      </trkpt>
      <trkpt lat="59.233815" lon="18.120875">
        <ele>35</ele>
        <time>2020-01-13T09:25:44Z</time>
      </trkpt>
      <trkpt lat="59.23379" lon="18.120888">
        <ele>36</ele>
        <time>2020-01-13T09:25:45Z</time>
      </trkpt>
      <trkpt lat="59.233763" lon="18.12091">
        <ele>0</ele>
        <time>2020-01-13T09:25:45Z</time>
      </trkpt>
      <trkpt lat="59.23374" lon="18.120927">
        <ele>36</ele>
        <time>2020-01-13T09:25:46Z</time>
      </trkpt>
      <trkpt lat="59.233713" lon="18.120948">
        <ele>37</ele>
        <time>2020-01-13T09:25:48Z</time>
      </trkpt>
      <trkpt lat="59.233681" lon="18.12097">
        <ele>37</ele>
        <time>2020-01-13T09:25:49Z</time>
      </trkpt>
      <trkpt lat="59.233649" lon="18.120989">
        <ele>37</ele>
        <time>2020-01-13T09:25:50Z</time>
      </trkpt>
      <trkpt lat="59.233622" lon="18.121005">
        <ele>38</ele>
        <time>2020-01-13T09:25:51Z</time>
      </trkpt>
      <trkpt lat="59.233595" lon="18.121021">
        <ele>38</ele>
        <time>2020-01-13T09:25:52Z</time>
      </trkpt>
      <trkpt lat="59.233568" lon="18.121042">
        <ele>0</ele>
        <time>2020-01-13T09:25:52Z</time>
      </trkpt>
      <trkpt lat="59.233542" lon="18.121065">
        <ele>38</ele>
        <time>2020-01-13T09:25:53Z</time>
      </trkpt>
      <trkpt lat="59.233511" lon="18.121088">
        <ele>38</ele>
        <time>2020-01-13T09:25:55Z</time>
      </trkpt>
      <trkpt lat="59.233478" lon="18.121111">
        <ele>38</ele>
        <time>2020-01-13T09:25:56Z</time>
      </trkpt>
      <trkpt lat="59.233453" lon="18.12113">
        <ele>38</ele>
        <time>2020-01-13T09:25:57Z</time>
      </trkpt>
      <trkpt lat="59.233426" lon="18.121147">
        <ele>38</ele>
        <time>2020-01-13T09:25:58Z</time>
      </trkpt>
      <trkpt lat="59.233397" lon="18.121163">
        <ele>39</ele>
        <time>2020-01-13T09:25:59Z</time>
      </trkpt>
      <trkpt lat="59.233367" lon="18.121179">
        <ele>39</ele>
        <time>2020-01-13T09:26:00Z</time>
      </trkpt>
      <trkpt lat="59.233339" lon="18.121194">
        <ele>39</ele>
        <time>2020-01-13T09:26:01Z</time>
      </trkpt>
      <trkpt lat="59.233313" lon="18.121212">
        <ele>39</ele>
        <time>2020-01-13T09:26:02Z</time>
      </trkpt>
      <trkpt lat="59.233286" lon="18.121233">
        <ele>0</ele>
        <time>2020-01-13T09:26:02Z</time>
      </trkpt>
      <trkpt lat="59.233258" lon="18.121253">
        <ele>39</ele>
        <time>2020-01-13T09:26:03Z</time>
      </trkpt>
      <trkpt lat="59.233228" lon="18.121276">
        <ele>39</ele>
        <time>2020-01-13T09:26:05Z</time>
      </trkpt>
      <trkpt lat="59.233196" lon="18.121301">
        <ele>39</ele>
        <time>2020-01-13T09:26:06Z</time>
      </trkpt>
      <trkpt lat="59.233163" lon="18.121323">
        <ele>39</ele>
        <time>2020-01-13T09:26:07Z</time>
      </trkpt>
      <trkpt lat="59.233132" lon="18.121339">
        <ele>40</ele>
        <time>2020-01-13T09:26:08Z</time>
      </trkpt>
      <trkpt lat="59.233098" lon="18.121352">
        <ele>40</ele>
        <time>2020-01-13T09:26:09Z</time>
      </trkpt>
      <trkpt lat="59.233066" lon="18.121362">
        <ele>40</ele>
        <time>2020-01-13T09:26:10Z</time>
      </trkpt>
      <trkpt lat="59.233036" lon="18.121367">
        <ele>40</ele>
        <time>2020-01-13T09:26:11Z</time>
      </trkpt>
      <trkpt lat="59.233006" lon="18.121362">
        <ele>0</ele>
        <time>2020-01-13T09:26:11Z</time>
      </trkpt>
      <trkpt lat="59.232975" lon="18.121351">
        <ele>40</ele>
        <time>2020-01-13T09:26:12Z</time>
      </trkpt>
      <trkpt lat="59.232942" lon="18.121337">
        <ele>40</ele>
        <time>2020-01-13T09:26:14Z</time>
      </trkpt>
      <trkpt lat="59.232913" lon="18.121316">
        <ele>40</ele>
        <time>2020-01-13T09:26:15Z</time>
      </trkpt>
      <trkpt lat="59.232884" lon="18.121289">
        <ele>40</ele>
        <time>2020-01-13T09:26:16Z</time>
      </trkpt>
      <trkpt lat="59.232854" lon="18.121261">
        <ele>40</ele>
        <time>2020-01-13T09:26:17Z</time>
      </trkpt>
      <trkpt lat="59.232826" lon="18.12123">
        <ele>40</ele>
        <time>2020-01-13T09:26:18Z</time>
      </trkpt>
      <trkpt lat="59.232798" lon="18.1212">
        <ele>0</ele>
        <time>2020-01-13T09:26:18Z</time>
      </trkpt>
      <trkpt lat="59.232773" lon="18.121168">
        <ele>40</ele>
        <time>2020-01-13T09:26:19Z</time>
      </trkpt>
      <trkpt lat="59.232748" lon="18.121136">
        <ele>40</ele>
        <time>2020-01-13T09:26:21Z</time>
      </trkpt>
      <trkpt lat="59.232724" lon="18.121105">
        <ele>40</ele>
        <time>2020-01-13T09:26:22Z</time>
      </trkpt>
      <trkpt lat="59.232698" lon="18.121078">
        <ele>39</ele>
        <time>2020-01-13T09:26:23Z</time>
      </trkpt>
      <trkpt lat="59.232672" lon="18.121057">
        <ele>39</ele>
        <time>2020-01-13T09:26:24Z</time>
      </trkpt>
      <trkpt lat="59.232651" lon="18.121046">
        <ele>39</ele>
        <time>2020-01-13T09:26:25Z</time>
      </trkpt>
      <trkpt lat="59.23262" lon="18.121034">
        <ele>39</ele>
        <time>2020-01-13T09:26:27Z</time>
      </trkpt>
      <trkpt lat="59.232613" lon="18.121025">
        <ele>0</ele>
        <time>2020-01-13T09:26:30Z</time>
      </trkpt>
      <trkpt lat="59.232578" lon="18.120937">
        <ele>38</ele>
        <time>2020-01-13T09:26:47Z</time>
      </trkpt>
      <trkpt lat="59.232557" lon="18.120881">
        <ele>38</ele>
        <time>2020-01-13T09:26:48Z</time>
      </trkpt>
      <trkpt lat="59.232536" lon="18.120814">
        <ele>38</ele>
        <time>2020-01-13T09:26:50Z</time>
      </trkpt>
      <trkpt lat="59.232514" lon="18.120742">
        <ele>38</ele>
        <time>2020-01-13T09:26:51Z</time>
      </trkpt>
      <trkpt lat="59.23249" lon="18.120669">
        <ele>38</ele>
        <time>2020-01-13T09:26:52Z</time>
      </trkpt>
      <trkpt lat="59.232466" lon="18.120589">
        <ele>38</ele>
        <time>2020-01-13T09:26:53Z</time>
      </trkpt>
      <trkpt lat="59.232441" lon="18.120508">
        <ele>37</ele>
        <time>2020-01-13T09:26:54Z</time>
      </trkpt>
      <trkpt lat="59.232411" lon="18.120431">
        <ele>0</ele>
        <time>2020-01-13T09:26:54Z</time>
      </trkpt>
      <trkpt lat="59.232374" lon="18.12037">
        <ele>38</ele>
        <time>2020-01-13T09:26:55Z</time>
      </trkpt>
      <trkpt lat="59.232332" lon="18.120327">
        <ele>38</ele>
        <time>2020-01-13T09:26:57Z</time>
      </trkpt>
      <trkpt lat="59.232283" lon="18.120298">
        <ele>38</ele>
        <time>2020-01-13T09:26:58Z</time>
      </trkpt>
      <trkpt lat="59.232231" lon="18.120285">
        <ele>38</ele>
        <time>2020-01-13T09:26:59Z</time>
      </trkpt>
      <trkpt lat="59.232177" lon="18.120283">
        <ele>38</ele>
        <time>2020-01-13T09:27:00Z</time>
      </trkpt>
      <trkpt lat="59.232124" lon="18.120282">
        <ele>38</ele>
        <time>2020-01-13T09:27:01Z</time>
      </trkpt>
      <trkpt lat="59.232073" lon="18.120285">
        <ele>38</ele>
        <time>2020-01-13T09:27:02Z</time>
      </trkpt>
      <trkpt lat="59.232025" lon="18.120292">
        <ele>38</ele>
        <time>2020-01-13T09:27:03Z</time>
      </trkpt>
      <trkpt lat="59.231977" lon="18.120301">
        <ele>38</ele>
        <time>2020-01-13T09:27:04Z</time>
      </trkpt>
      <trkpt lat="59.231933" lon="18.120311">
        <ele>0</ele>
        <time>2020-01-13T09:27:04Z</time>
      </trkpt>
      <trkpt lat="59.231892" lon="18.120324">
        <ele>38</ele>
        <time>2020-01-13T09:27:05Z</time>
      </trkpt>
      <trkpt lat="59.231855" lon="18.120344">
        <ele>0</ele>
        <time>2020-01-13T09:27:06Z</time>
      </trkpt>
      <trkpt lat="59.23182" lon="18.120367">
        <ele>39</ele>
        <time>2020-01-13T09:27:07Z</time>
      </trkpt>
      <trkpt lat="59.231778" lon="18.120382">
        <ele>39</ele>
        <time>2020-01-13T09:27:09Z</time>
      </trkpt>
      <trkpt lat="59.231733" lon="18.120394">
        <ele>39</ele>
        <time>2020-01-13T09:27:10Z</time>
      </trkpt>
      <trkpt lat="59.23169" lon="18.12041">
        <ele>39</ele>
        <time>2020-01-13T09:27:11Z</time>
      </trkpt>
      <trkpt lat="59.231647" lon="18.120431">
        <ele>39</ele>
        <time>2020-01-13T09:27:12Z</time>
      </trkpt>
      <trkpt lat="59.231602" lon="18.120457">
        <ele>40</ele>
        <time>2020-01-13T09:27:13Z</time>
      </trkpt>
      <trkpt lat="59.231557" lon="18.120486">
        <ele>40</ele>
        <time>2020-01-13T09:27:14Z</time>
      </trkpt>
      <trkpt lat="59.231511" lon="18.120523">
        <ele>40</ele>
        <time>2020-01-13T09:27:15Z</time>
      </trkpt>
      <trkpt lat="59.231464" lon="18.120562">
        <ele>40</ele>
        <time>2020-01-13T09:27:16Z</time>
      </trkpt>
      <trkpt lat="59.231424" lon="18.120597">
        <ele>0</ele>
        <time>2020-01-13T09:27:16Z</time>
      </trkpt>
      <trkpt lat="59.231381" lon="18.120632">
        <ele>40</ele>
        <time>2020-01-13T09:27:17Z</time>
      </trkpt>
      <trkpt lat="59.231334" lon="18.120659">
        <ele>40</ele>
        <time>2020-01-13T09:27:19Z</time>
      </trkpt>
      <trkpt lat="59.231282" lon="18.120695">
        <ele>40</ele>
        <time>2020-01-13T09:27:20Z</time>
      </trkpt>
      <trkpt lat="59.231227" lon="18.120732">
        <ele>40</ele>
        <time>2020-01-13T09:27:21Z</time>
      </trkpt>
      <trkpt lat="59.231173" lon="18.120768">
        <ele>40</ele>
        <time>2020-01-13T09:27:22Z</time>
      </trkpt>
      <trkpt lat="59.231117" lon="18.120806">
        <ele>40</ele>
        <time>2020-01-13T09:27:23Z</time>
      </trkpt>
      <trkpt lat="59.231056" lon="18.120848">
        <ele>40</ele>
        <time>2020-01-13T09:27:24Z</time>
      </trkpt>
      <trkpt lat="59.230996" lon="18.120891">
        <ele>0</ele>
        <time>2020-01-13T09:27:24Z</time>
      </trkpt>
      <trkpt lat="59.230933" lon="18.12093">
        <ele>40</ele>
        <time>2020-01-13T09:27:25Z</time>
      </trkpt>
      <trkpt lat="59.23087" lon="18.120965">
        <ele>40</ele>
        <time>2020-01-13T09:27:26Z</time>
      </trkpt>
      <trkpt lat="59.230801" lon="18.121006">
        <ele>40</ele>
        <time>2020-01-13T09:27:28Z</time>
      </trkpt>
      <trkpt lat="59.230734" lon="18.121046">
        <ele>40</ele>
        <time>2020-01-13T09:27:29Z</time>
      </trkpt>
      <trkpt lat="59.230668" lon="18.121077">
        <ele>39</ele>
        <time>2020-01-13T09:27:30Z</time>
      </trkpt>
      <trkpt lat="59.230597" lon="18.121099">
        <ele>39</ele>
        <time>2020-01-13T09:27:31Z</time>
      </trkpt>
      <trkpt lat="59.230519" lon="18.121111">
        <ele>0</ele>
        <time>2020-01-13T09:27:31Z</time>
      </trkpt>
      <trkpt lat="59.230443" lon="18.121114">
        <ele>39</ele>
        <time>2020-01-13T09:27:32Z</time>
      </trkpt>
      <trkpt lat="59.230374" lon="18.121118">
        <ele>38</ele>
        <time>2020-01-13T09:27:34Z</time>
      </trkpt>
      <trkpt lat="59.230304" lon="18.121131">
        <ele>38</ele>
        <time>2020-01-13T09:27:35Z</time>
      </trkpt>
      <trkpt lat="59.230234" lon="18.121166">
        <ele>38</ele>
        <time>2020-01-13T09:27:36Z</time>
      </trkpt>
      <trkpt lat="59.230169" lon="18.121219">
        <ele>37</ele>
        <time>2020-01-13T09:27:37Z</time>
      </trkpt>
      <trkpt lat="59.230103" lon="18.121279">
        <ele>37</ele>
        <time>2020-01-13T09:27:38Z</time>
      </trkpt>
      <trkpt lat="59.230045" lon="18.121336">
        <ele>0</ele>
        <time>2020-01-13T09:27:38Z</time>
      </trkpt>
      <trkpt lat="59.229989" lon="18.121393">
        <ele>37</ele>
        <time>2020-01-13T09:27:39Z</time>
      </trkpt>
      <trkpt lat="59.229933" lon="18.121454">
        <ele>37</ele>
        <time>2020-01-13T09:27:41Z</time>
      </trkpt>
      <trkpt lat="59.229875" lon="18.121512">
        <ele>37</ele>
        <time>2020-01-13T09:27:42Z</time>
      </trkpt>
      <trkpt lat="59.229824" lon="18.121575">
        <ele>37</ele>
        <time>2020-01-13T09:27:43Z</time>
      </trkpt>
      <trkpt lat="59.229788" lon="18.121655">
        <ele>37</ele>
        <time>2020-01-13T09:27:44Z</time>
      </trkpt>
      <trkpt lat="59.22977" lon="18.121752">
        <ele>0</ele>
        <time>2020-01-13T09:27:44Z</time>
      </trkpt>
      <trkpt lat="59.229767" lon="18.121859">
        <ele>37</ele>
        <time>2020-01-13T09:27:45Z</time>
      </trkpt>
      <trkpt lat="59.229775" lon="18.121961">
        <ele>37</ele>
        <time>2020-01-13T09:27:47Z</time>
      </trkpt>
      <trkpt lat="59.229793" lon="18.122055">
        <ele>0</ele>
        <time>2020-01-13T09:27:47Z</time>
      </trkpt>
      <trkpt lat="59.229814" lon="18.122142">
        <ele>37</ele>
        <time>2020-01-13T09:27:48Z</time>
      </trkpt>
      <trkpt lat="59.229835" lon="18.122221">
        <ele>37</ele>
        <time>2020-01-13T09:27:50Z</time>
      </trkpt>
      <trkpt lat="59.229855" lon="18.122297">
        <ele>37</ele>
        <time>2020-01-13T09:27:51Z</time>
      </trkpt>
      <trkpt lat="59.229877" lon="18.122367">
        <ele>37</ele>
        <time>2020-01-13T09:27:52Z</time>
      </trkpt>
      <trkpt lat="59.229899" lon="18.122434">
        <ele>37</ele>
        <time>2020-01-13T09:27:53Z</time>
      </trkpt>
      <trkpt lat="59.22992" lon="18.122505">
        <ele>37</ele>
        <time>2020-01-13T09:27:54Z</time>
      </trkpt>
      <trkpt lat="59.229941" lon="18.122576">
        <ele>37</ele>
        <time>2020-01-13T09:27:55Z</time>
      </trkpt>
      <trkpt lat="59.22996" lon="18.122647">
        <ele>37</ele>
        <time>2020-01-13T09:27:56Z</time>
      </trkpt>
      <trkpt lat="59.229981" lon="18.122718">
        <ele>37</ele>
        <time>2020-01-13T09:27:57Z</time>
      </trkpt>
      <trkpt lat="59.23" lon="18.122789">
        <ele>37</ele>
        <time>2020-01-13T09:27:58Z</time>
      </trkpt>
      <trkpt lat="59.230018" lon="18.122861">
        <ele>37</ele>
        <time>2020-01-13T09:27:59Z</time>
      </trkpt>
      <trkpt lat="59.230035" lon="18.122932">
        <ele>0</ele>
        <time>2020-01-13T09:27:59Z</time>
      </trkpt>
      <trkpt lat="59.230047" lon="18.123003">
        <ele>37</ele>
        <time>2020-01-13T09:28:00Z</time>
      </trkpt>
      <trkpt lat="59.230051" lon="18.12308">
        <ele>37</ele>
        <time>2020-01-13T09:28:02Z</time>
      </trkpt>
      <trkpt lat="59.230047" lon="18.123155">
        <ele>38</ele>
        <time>2020-01-13T09:28:03Z</time>
      </trkpt>
      <trkpt lat="59.230037" lon="18.123229">
        <ele>0</ele>
        <time>2020-01-13T09:28:03Z</time>
      </trkpt>
      <trkpt lat="59.230022" lon="18.123305">
        <ele>38</ele>
        <time>2020-01-13T09:28:04Z</time>
      </trkpt>
      <trkpt lat="59.230002" lon="18.123378">
        <ele>38</ele>
        <time>2020-01-13T09:28:06Z</time>
      </trkpt>
      <trkpt lat="59.229976" lon="18.123443">
        <ele>37</ele>
        <time>2020-01-13T09:28:07Z</time>
      </trkpt>
      <trkpt lat="59.229944" lon="18.123497">
        <ele>37</ele>
        <time>2020-01-13T09:28:08Z</time>
      </trkpt>
      <trkpt lat="59.229907" lon="18.12354">
        <ele>37</ele>
        <time>2020-01-13T09:28:09Z</time>
      </trkpt>
      <trkpt lat="59.229867" lon="18.12358">
        <ele>37</ele>
        <time>2020-01-13T09:28:10Z</time>
      </trkpt>
      <trkpt lat="59.229827" lon="18.123618">
        <ele>37</ele>
        <time>2020-01-13T09:28:11Z</time>
      </trkpt>
      <trkpt lat="59.229787" lon="18.123656">
        <ele>0</ele>
        <time>2020-01-13T09:28:11Z</time>
      </trkpt>
      <trkpt lat="59.229747" lon="18.123694">
        <ele>37</ele>
        <time>2020-01-13T09:28:12Z</time>
      </trkpt>
      <trkpt lat="59.229706" lon="18.123733">
        <ele>37</ele>
        <time>2020-01-13T09:28:14Z</time>
      </trkpt>
      <trkpt lat="59.229665" lon="18.123773">
        <ele>37</ele>
        <time>2020-01-13T09:28:15Z</time>
      </trkpt>
      <trkpt lat="59.229624" lon="18.123816">
        <ele>37</ele>
        <time>2020-01-13T09:28:16Z</time>
      </trkpt>
      <trkpt lat="59.229584" lon="18.123857">
        <ele>37</ele>
        <time>2020-01-13T09:28:17Z</time>
      </trkpt>
      <trkpt lat="59.229542" lon="18.123899">
        <ele>37</ele>
        <time>2020-01-13T09:28:18Z</time>
      </trkpt>
      <trkpt lat="59.229499" lon="18.12394">
        <ele>37</ele>
        <time>2020-01-13T09:28:19Z</time>
      </trkpt>
      <trkpt lat="59.229456" lon="18.123982">
        <ele>37</ele>
        <time>2020-01-13T09:28:20Z</time>
      </trkpt>
      <trkpt lat="59.229412" lon="18.124023">
        <ele>37</ele>
        <time>2020-01-13T09:28:21Z</time>
      </trkpt>
      <trkpt lat="59.229367" lon="18.124071">
        <ele>37</ele>
        <time>2020-01-13T09:28:22Z</time>
      </trkpt>
      <trkpt lat="59.229327" lon="18.124134">
        <ele>0</ele>
        <time>2020-01-13T09:28:22Z</time>
      </trkpt>
      <trkpt lat="59.229294" lon="18.124208">
        <ele>37</ele>
        <time>2020-01-13T09:28:23Z</time>
      </trkpt>
      <trkpt lat="59.229274" lon="18.124294">
        <ele>37</ele>
        <time>2020-01-13T09:28:25Z</time>
      </trkpt>
      <trkpt lat="59.229264" lon="18.1244">
        <ele>37</ele>
        <time>2020-01-13T09:28:26Z</time>
      </trkpt>
      <trkpt lat="59.229261" lon="18.124511">
        <ele>37</ele>
        <time>2020-01-13T09:28:27Z</time>
      </trkpt>
      <trkpt lat="59.22926" lon="18.124618">
        <ele>37</ele>
        <time>2020-01-13T09:28:28Z</time>
      </trkpt>
      <trkpt lat="59.229255" lon="18.12471">
        <ele>37</ele>
        <time>2020-01-13T09:28:29Z</time>
      </trkpt>
      <trkpt lat="59.22924" lon="18.124789">
        <ele>37</ele>
        <time>2020-01-13T09:28:30Z</time>
      </trkpt>
      <trkpt lat="59.229209" lon="18.124891">
        <ele>37</ele>
        <time>2020-01-13T09:28:31Z</time>
      </trkpt>
      <trkpt lat="59.229175" lon="18.124988">
        <ele>0</ele>
        <time>2020-01-13T09:28:31Z</time>
      </trkpt>
      <trkpt lat="59.229147" lon="18.125085">
        <ele>37</ele>
        <time>2020-01-13T09:28:32Z</time>
      </trkpt>
      <trkpt lat="59.229117" lon="18.125192">
        <ele>36</ele>
        <time>2020-01-13T09:28:34Z</time>
      </trkpt>
      <trkpt lat="59.229087" lon="18.125311">
        <ele>36</ele>
        <time>2020-01-13T09:28:35Z</time>
      </trkpt>
      <trkpt lat="59.229047" lon="18.125417">
        <ele>36</ele>
        <time>2020-01-13T09:28:36Z</time>
      </trkpt>
      <trkpt lat="59.229005" lon="18.125522">
        <ele>36</ele>
        <time>2020-01-13T09:28:37Z</time>
      </trkpt>
      <trkpt lat="59.228958" lon="18.12563">
        <ele>36</ele>
        <time>2020-01-13T09:28:38Z</time>
      </trkpt>
      <trkpt lat="59.228913" lon="18.125732">
        <ele>0</ele>
        <time>2020-01-13T09:28:38Z</time>
      </trkpt>
      <trkpt lat="59.228868" lon="18.125824">
        <ele>36</ele>
        <time>2020-01-13T09:28:39Z</time>
      </trkpt>
      <trkpt lat="59.228823" lon="18.125909">
        <ele>36</ele>
        <time>2020-01-13T09:28:41Z</time>
      </trkpt>
      <trkpt lat="59.228783" lon="18.12599">
        <ele>0</ele>
        <time>2020-01-13T09:28:41Z</time>
      </trkpt>
      <trkpt lat="59.22875" lon="18.126067">
        <ele>36</ele>
        <time>2020-01-13T09:28:42Z</time>
      </trkpt>
      <trkpt lat="59.22872" lon="18.126144">
        <ele>36</ele>
        <time>2020-01-13T09:28:44Z</time>
      </trkpt>
      <trkpt lat="59.228684" lon="18.126222">
        <ele>36</ele>
        <time>2020-01-13T09:28:45Z</time>
      </trkpt>
      <trkpt lat="59.228648" lon="18.126295">
        <ele>36</ele>
        <time>2020-01-13T09:28:46Z</time>
      </trkpt>
      <trkpt lat="59.228611" lon="18.126358">
        <ele>36</ele>
        <time>2020-01-13T09:28:47Z</time>
      </trkpt>
      <trkpt lat="59.228569" lon="18.126399">
        <ele>36</ele>
        <time>2020-01-13T09:28:48Z</time>
      </trkpt>
      <trkpt lat="59.228524" lon="18.126418">
        <ele>0</ele>
        <time>2020-01-13T09:28:48Z</time>
      </trkpt>
      <trkpt lat="59.228478" lon="18.126417">
        <ele>37</ele>
        <time>2020-01-13T09:28:49Z</time>
      </trkpt>
      <trkpt lat="59.228433" lon="18.126409">
        <ele>37</ele>
        <time>2020-01-13T09:28:51Z</time>
      </trkpt>
      <trkpt lat="59.228388" lon="18.126402">
        <ele>37</ele>
        <time>2020-01-13T09:28:52Z</time>
      </trkpt>
      <trkpt lat="59.228344" lon="18.126399">
        <ele>37</ele>
        <time>2020-01-13T09:28:53Z</time>
      </trkpt>
      <trkpt lat="59.2283" lon="18.126399">
        <ele>37</ele>
        <time>2020-01-13T09:28:54Z</time>
      </trkpt>
      <trkpt lat="59.228256" lon="18.126403">
        <ele>37</ele>
        <time>2020-01-13T09:28:55Z</time>
      </trkpt>
      <trkpt lat="59.228213" lon="18.12641">
        <ele>37</ele>
        <time>2020-01-13T09:28:56Z</time>
      </trkpt>
      <trkpt lat="59.228169" lon="18.126419">
        <ele>37</ele>
        <time>2020-01-13T09:28:57Z</time>
      </trkpt>
      <trkpt lat="59.228124" lon="18.12643">
        <ele>38</ele>
        <time>2020-01-13T09:28:58Z</time>
      </trkpt>
      <trkpt lat="59.228078" lon="18.126439">
        <ele>38</ele>
        <time>2020-01-13T09:28:59Z</time>
      </trkpt>
      <trkpt lat="59.228032" lon="18.126448">
        <ele>0</ele>
        <time>2020-01-13T09:28:59Z</time>
      </trkpt>
      <trkpt lat="59.227987" lon="18.126459">
        <ele>38</ele>
        <time>2020-01-13T09:29:00Z</time>
      </trkpt>
      <trkpt lat="59.227943" lon="18.126467">
        <ele>38</ele>
        <time>2020-01-13T09:29:01Z</time>
      </trkpt>
      <trkpt lat="59.227898" lon="18.126478">
        <ele>38</ele>
        <time>2020-01-13T09:29:03Z</time>
      </trkpt>
      <trkpt lat="59.227856" lon="18.126491">
        <ele>38</ele>
        <time>2020-01-13T09:29:04Z</time>
      </trkpt>
      <trkpt lat="59.227816" lon="18.126516">
        <ele>38</ele>
        <time>2020-01-13T09:29:05Z</time>
      </trkpt>
      <trkpt lat="59.227784" lon="18.126559">
        <ele>39</ele>
        <time>2020-01-13T09:29:06Z</time>
      </trkpt>
      <trkpt lat="59.227758" lon="18.126622">
        <ele>39</ele>
        <time>2020-01-13T09:29:07Z</time>
      </trkpt>
      <trkpt lat="59.227741" lon="18.126695">
        <ele>39</ele>
        <time>2020-01-13T09:29:08Z</time>
      </trkpt>
      <trkpt lat="59.227725" lon="18.126777">
        <ele>39</ele>
        <time>2020-01-13T09:29:09Z</time>
      </trkpt>
      <trkpt lat="59.22771" lon="18.126862">
        <ele>39</ele>
        <time>2020-01-13T09:29:10Z</time>
      </trkpt>
      <trkpt lat="59.227694" lon="18.126948">
        <ele>39</ele>
        <time>2020-01-13T09:29:11Z</time>
      </trkpt>
      <trkpt lat="59.227676" lon="18.127033">
        <ele>0</ele>
        <time>2020-01-13T09:29:11Z</time>
      </trkpt>
      <trkpt lat="59.227654" lon="18.127118">
        <ele>39</ele>
        <time>2020-01-13T09:29:12Z</time>
      </trkpt>
      <trkpt lat="59.227631" lon="18.127203">
        <ele>39</ele>
        <time>2020-01-13T09:29:14Z</time>
      </trkpt>
      <trkpt lat="59.227604" lon="18.127286">
        <ele>39</ele>
        <time>2020-01-13T09:29:15Z</time>
      </trkpt>
      <trkpt lat="59.227574" lon="18.127368">
        <ele>39</ele>
        <time>2020-01-13T09:29:16Z</time>
      </trkpt>
      <trkpt lat="59.227542" lon="18.127452">
        <ele>39</ele>
        <time>2020-01-13T09:29:17Z</time>
      </trkpt>
      <trkpt lat="59.22751" lon="18.127539">
        <ele>39</ele>
        <time>2020-01-13T09:29:18Z</time>
      </trkpt>
      <trkpt lat="59.227479" lon="18.127628">
        <ele>39</ele>
        <time>2020-01-13T09:29:19Z</time>
      </trkpt>
      <trkpt lat="59.227447" lon="18.127718">
        <ele>0</ele>
        <time>2020-01-13T09:29:19Z</time>
      </trkpt>
      <trkpt lat="59.227415" lon="18.127809">
        <ele>39</ele>
        <time>2020-01-13T09:29:20Z</time>
      </trkpt>
      <trkpt lat="59.227383" lon="18.127901">
        <ele>39</ele>
        <time>2020-01-13T09:29:21Z</time>
      </trkpt>
      <trkpt lat="59.22735" lon="18.127991">
        <ele>39</ele>
        <time>2020-01-13T09:29:23Z</time>
      </trkpt>
      <trkpt lat="59.227318" lon="18.128083">
        <ele>39</ele>
        <time>2020-01-13T09:29:24Z</time>
      </trkpt>
      <trkpt lat="59.227286" lon="18.128174">
        <ele>39</ele>
        <time>2020-01-13T09:29:25Z</time>
      </trkpt>
      <trkpt lat="59.227254" lon="18.128263">
        <ele>39</ele>
        <time>2020-01-13T09:29:26Z</time>
      </trkpt>
      <trkpt lat="59.22722" lon="18.128353">
        <ele>39</ele>
        <time>2020-01-13T09:29:27Z</time>
      </trkpt>
      <trkpt lat="59.227188" lon="18.128443">
        <ele>39</ele>
        <time>2020-01-13T09:29:28Z</time>
      </trkpt>
      <trkpt lat="59.227156" lon="18.128533">
        <ele>39</ele>
        <time>2020-01-13T09:29:29Z</time>
      </trkpt>
      <trkpt lat="59.227127" lon="18.128616">
        <ele>0</ele>
        <time>2020-01-13T09:29:29Z</time>
      </trkpt>
      <trkpt lat="59.227102" lon="18.128695">
        <ele>39</ele>
        <time>2020-01-13T09:29:30Z</time>
      </trkpt>
      <trkpt lat="59.227078" lon="18.128771">
        <ele>40</ele>
        <time>2020-01-13T09:29:32Z</time>
      </trkpt>
      <trkpt lat="59.227054" lon="18.128852">
        <ele>40</ele>
        <time>2020-01-13T09:29:33Z</time>
      </trkpt>
      <trkpt lat="59.227026" lon="18.128941">
        <ele>40</ele>
        <time>2020-01-13T09:29:34Z</time>
      </trkpt>
      <trkpt lat="59.227" lon="18.129029">
        <ele>40</ele>
        <time>2020-01-13T09:29:35Z</time>
      </trkpt>
      <trkpt lat="59.226964" lon="18.129124">
        <ele>40</ele>
        <time>2020-01-13T09:29:36Z</time>
      </trkpt>
      <trkpt lat="59.226926" lon="18.129226">
        <ele>40</ele>
        <time>2020-01-13T09:29:37Z</time>
      </trkpt>
      <trkpt lat="59.226887" lon="18.129329">
        <ele>40</ele>
        <time>2020-01-13T09:29:38Z</time>
      </trkpt>
      <trkpt lat="59.226854" lon="18.129426">
        <ele>0</ele>
        <time>2020-01-13T09:29:38Z</time>
      </trkpt>
      <trkpt lat="59.226812" lon="18.129521">
        <ele>39</ele>
        <time>2020-01-13T09:29:39Z</time>
      </trkpt>
      <trkpt lat="59.226779" lon="18.129616">
        <ele>39</ele>
        <time>2020-01-13T09:29:41Z</time>
      </trkpt>
      <trkpt lat="59.226742" lon="18.129712">
        <ele>39</ele>
        <time>2020-01-13T09:29:42Z</time>
      </trkpt>
      <trkpt lat="59.226705" lon="18.129808">
        <ele>39</ele>
        <time>2020-01-13T09:29:43Z</time>
      </trkpt>
      <trkpt lat="59.22667" lon="18.129905">
        <ele>39</ele>
        <time>2020-01-13T09:29:44Z</time>
      </trkpt>
      <trkpt lat="59.226632" lon="18.13">
        <ele>39</ele>
        <time>2020-01-13T09:29:45Z</time>
      </trkpt>
      <trkpt lat="59.226594" lon="18.130096">
        <ele>39</ele>
        <time>2020-01-13T09:29:46Z</time>
      </trkpt>
      <trkpt lat="59.226556" lon="18.13019">
        <ele>0</ele>
        <time>2020-01-13T09:29:46Z</time>
      </trkpt>
      <trkpt lat="59.226515" lon="18.130282">
        <ele>39</ele>
        <time>2020-01-13T09:29:47Z</time>
      </trkpt>
      <trkpt lat="59.226472" lon="18.130368">
        <ele>39</ele>
        <time>2020-01-13T09:29:49Z</time>
      </trkpt>
      <trkpt lat="59.226428" lon="18.130448">
        <ele>39</ele>
        <time>2020-01-13T09:29:50Z</time>
      </trkpt>
      <trkpt lat="59.226383" lon="18.130525">
        <ele>39</ele>
        <time>2020-01-13T09:29:51Z</time>
      </trkpt>
      <trkpt lat="59.226332" lon="18.130602">
        <ele>39</ele>
        <time>2020-01-13T09:29:52Z</time>
      </trkpt>
      <trkpt lat="59.226277" lon="18.130678">
        <ele>39</ele>
        <time>2020-01-13T09:29:53Z</time>
      </trkpt>
      <trkpt lat="59.226226" lon="18.130755">
        <ele>39</ele>
        <time>2020-01-13T09:29:54Z</time>
      </trkpt>
      <trkpt lat="59.226178" lon="18.130831">
        <ele>0</ele>
        <time>2020-01-13T09:29:54Z</time>
      </trkpt>
      <trkpt lat="59.226132" lon="18.13091">
        <ele>39</ele>
        <time>2020-01-13T09:29:55Z</time>
      </trkpt>
      <trkpt lat="59.226081" lon="18.13099">
        <ele>39</ele>
        <time>2020-01-13T09:29:57Z</time>
      </trkpt>
      <trkpt lat="59.226026" lon="18.131065">
        <ele>0</ele>
        <time>2020-01-13T09:29:57Z</time>
      </trkpt>
      <trkpt lat="59.225974" lon="18.131137">
        <ele>38</ele>
        <time>2020-01-13T09:29:58Z</time>
      </trkpt>
      <trkpt lat="59.225886" lon="18.131262">
        <ele>39</ele>
        <time>2020-01-13T09:30:01Z</time>
      </trkpt>
      <trkpt lat="59.225858" lon="18.131311">
        <ele>39</ele>
        <time>2020-01-13T09:30:02Z</time>
      </trkpt>
      <trkpt lat="59.225831" lon="18.131362">
        <ele>39</ele>
        <time>2020-01-13T09:30:03Z</time>
      </trkpt>
      <trkpt lat="59.2258" lon="18.131414">
        <ele>39</ele>
        <time>2020-01-13T09:30:04Z</time>
      </trkpt>
      <trkpt lat="59.22577" lon="18.13147">
        <ele>0</ele>
        <time>2020-01-13T09:30:04Z</time>
      </trkpt>
      <trkpt lat="59.22575" lon="18.13153">
        <ele>38</ele>
        <time>2020-01-13T09:30:05Z</time>
      </trkpt>
      <trkpt lat="59.22574" lon="18.131588">
        <ele>38</ele>
        <time>2020-01-13T09:30:07Z</time>
      </trkpt>
      <trkpt lat="59.22574" lon="18.131649">
        <ele>38</ele>
        <time>2020-01-13T09:30:08Z</time>
      </trkpt>
      <trkpt lat="59.225741" lon="18.131714">
        <ele>38</ele>
        <time>2020-01-13T09:30:09Z</time>
      </trkpt>
      <trkpt lat="59.22574" lon="18.131782">
        <ele>38</ele>
        <time>2020-01-13T09:30:10Z</time>
      </trkpt>
      <trkpt lat="59.225732" lon="18.13185">
        <ele>38</ele>
        <time>2020-01-13T09:30:11Z</time>
      </trkpt>
      <trkpt lat="59.225718" lon="18.131916">
        <ele>38</ele>
        <time>2020-01-13T09:30:12Z</time>
      </trkpt>
      <trkpt lat="59.2257" lon="18.131978">
        <ele>38</ele>
        <time>2020-01-13T09:30:13Z</time>
      </trkpt>
      <trkpt lat="59.225686" lon="18.132035">
        <ele>38</ele>
        <time>2020-01-13T09:30:14Z</time>
      </trkpt>
      <trkpt lat="59.22567" lon="18.132089">
        <ele>38</ele>
        <time>2020-01-13T09:30:15Z</time>
      </trkpt>
      <trkpt lat="59.225639" lon="18.132143">
        <ele>38</ele>
        <time>2020-01-13T09:30:16Z</time>
      </trkpt>
      <trkpt lat="59.225605" lon="18.132189">
        <ele>0</ele>
        <time>2020-01-13T09:30:16Z</time>
      </trkpt>
      <trkpt lat="59.225572" lon="18.132234">
        <ele>38</ele>
        <time>2020-01-13T09:30:17Z</time>
      </trkpt>
      <trkpt lat="59.225535" lon="18.132286">
        <ele>0</ele>
        <time>2020-01-13T09:30:18Z</time>
      </trkpt>
      <trkpt lat="59.225499" lon="18.132338">
        <ele>38</ele>
        <time>2020-01-13T09:30:19Z</time>
      </trkpt>
      <trkpt lat="59.225463" lon="18.132384">
        <ele>39</ele>
        <time>2020-01-13T09:30:21Z</time>
      </trkpt>
      <trkpt lat="59.225424" lon="18.132449">
        <ele>39</ele>
        <time>2020-01-13T09:30:22Z</time>
      </trkpt>
      <trkpt lat="59.225385" lon="18.132518">
        <ele>39</ele>
        <time>2020-01-13T09:30:23Z</time>
      </trkpt>
      <trkpt lat="59.225345" lon="18.132589">
        <ele>39</ele>
        <time>2020-01-13T09:30:24Z</time>
      </trkpt>
      <trkpt lat="59.225308" lon="18.132669">
        <ele>39</ele>
        <time>2020-01-13T09:30:25Z</time>
      </trkpt>
      <trkpt lat="59.225265" lon="18.132749">
        <ele>40</ele>
        <time>2020-01-13T09:30:26Z</time>
      </trkpt>
      <trkpt lat="59.225226" lon="18.13283">
        <ele>40</ele>
        <time>2020-01-13T09:30:27Z</time>
      </trkpt>
      <trkpt lat="59.225188" lon="18.132918">
        <ele>0</ele>
        <time>2020-01-13T09:30:27Z</time>
      </trkpt>
      <trkpt lat="59.225136" lon="18.133007">
        <ele>40</ele>
        <time>2020-01-13T09:30:28Z</time>
      </trkpt>
      <trkpt lat="59.225075" lon="18.133092">
        <ele>39</ele>
        <time>2020-01-13T09:30:30Z</time>
      </trkpt>
      <trkpt lat="59.225008" lon="18.133186">
        <ele>39</ele>
        <time>2020-01-13T09:30:31Z</time>
      </trkpt>
      <trkpt lat="59.224938" lon="18.133284">
        <ele>38</ele>
        <time>2020-01-13T09:30:32Z</time>
      </trkpt>
      <trkpt lat="59.224871" lon="18.133395">
        <ele>37</ele>
        <time>2020-01-13T09:30:33Z</time>
      </trkpt>
      <trkpt lat="59.224801" lon="18.133519">
        <ele>0</ele>
        <time>2020-01-13T09:30:33Z</time>
      </trkpt>
      <trkpt lat="59.224735" lon="18.13365">
        <ele>37</ele>
        <time>2020-01-13T09:30:34Z</time>
      </trkpt>
      <trkpt lat="59.224673" lon="18.133784">
        <ele>0</ele>
        <time>2020-01-13T09:30:35Z</time>
      </trkpt>
      <trkpt lat="59.224612" lon="18.133919">
        <ele>35</ele>
        <time>2020-01-13T09:30:36Z</time>
      </trkpt>
      <trkpt lat="59.224554" lon="18.134055">
        <ele>34</ele>
        <time>2020-01-13T09:30:38Z</time>
      </trkpt>
      <trkpt lat="59.224498" lon="18.134189">
        <ele>0</ele>
        <time>2020-01-13T09:30:38Z</time>
      </trkpt>
      <trkpt lat="59.224441" lon="18.134324">
        <ele>34</ele>
        <time>2020-01-13T09:30:39Z</time>
      </trkpt>
      <trkpt lat="59.224386" lon="18.134455">
        <ele>33</ele>
        <time>2020-01-13T09:30:41Z</time>
      </trkpt>
      <trkpt lat="59.224333" lon="18.134588">
        <ele>33</ele>
        <time>2020-01-13T09:30:42Z</time>
      </trkpt>
      <trkpt lat="59.22428" lon="18.134715">
        <ele>33</ele>
        <time>2020-01-13T09:30:43Z</time>
      </trkpt>
      <trkpt lat="59.224233" lon="18.134835">
        <ele>33</ele>
        <time>2020-01-13T09:30:44Z</time>
      </trkpt>
      <trkpt lat="59.224187" lon="18.134957">
        <ele>0</ele>
        <time>2020-01-13T09:30:44Z</time>
      </trkpt>
      <trkpt lat="59.224136" lon="18.135078">
        <ele>32</ele>
        <time>2020-01-13T09:30:45Z</time>
      </trkpt>
      <trkpt lat="59.22409" lon="18.135191">
        <ele>31</ele>
        <time>2020-01-13T09:30:47Z</time>
      </trkpt>
      <trkpt lat="59.224047" lon="18.135299">
        <ele>31</ele>
        <time>2020-01-13T09:30:48Z</time>
      </trkpt>
      <trkpt lat="59.224004" lon="18.135406">
        <ele>31</ele>
        <time>2020-01-13T09:30:49Z</time>
      </trkpt>
      <trkpt lat="59.223961" lon="18.135509">
        <ele>31</ele>
        <time>2020-01-13T09:30:50Z</time>
      </trkpt>
      <trkpt lat="59.223924" lon="18.135606">
        <ele>31</ele>
        <time>2020-01-13T09:30:51Z</time>
      </trkpt>
      <trkpt lat="59.223892" lon="18.135696">
        <ele>31</ele>
        <time>2020-01-13T09:30:52Z</time>
      </trkpt>
      <trkpt lat="59.223857" lon="18.13579">
        <ele>0</ele>
        <time>2020-01-13T09:30:52Z</time>
      </trkpt>
      <trkpt lat="59.223821" lon="18.135883">
        <ele>31</ele>
        <time>2020-01-13T09:30:53Z</time>
      </trkpt>
      <trkpt lat="59.223785" lon="18.13597">
        <ele>0</ele>
        <time>2020-01-13T09:30:54Z</time>
      </trkpt>
      <trkpt lat="59.223751" lon="18.136052">
        <ele>30</ele>
        <time>2020-01-13T09:30:55Z</time>
      </trkpt>
      <trkpt lat="59.223717" lon="18.136129">
        <ele>30</ele>
        <time>2020-01-13T09:30:57Z</time>
      </trkpt>
      <trkpt lat="59.223684" lon="18.136204">
        <ele>30</ele>
        <time>2020-01-13T09:30:58Z</time>
      </trkpt>
      <trkpt lat="59.223653" lon="18.136279">
        <ele>30</ele>
        <time>2020-01-13T09:30:59Z</time>
      </trkpt>
      <trkpt lat="59.22362" lon="18.136353">
        <ele>30</ele>
        <time>2020-01-13T09:31:00Z</time>
      </trkpt>
      <trkpt lat="59.223584" lon="18.136428">
        <ele>30</ele>
        <time>2020-01-13T09:31:01Z</time>
      </trkpt>
      <trkpt lat="59.223546" lon="18.136501">
        <ele>30</ele>
        <time>2020-01-13T09:31:01Z</time>
      </trkpt>
      <trkpt lat="59.223508" lon="18.136572">
        <ele>30</ele>
        <time>2020-01-13T09:31:02Z</time>
      </trkpt>
      <trkpt lat="59.223469" lon="18.136642">
        <ele>30</ele>
        <time>2020-01-13T09:31:04Z</time>
      </trkpt>
      <trkpt lat="59.223429" lon="18.136714">
        <ele>30</ele>
        <time>2020-01-13T09:31:05Z</time>
      </trkpt>
      <trkpt lat="59.223391" lon="18.136784">
        <ele>30</ele>
        <time>2020-01-13T09:31:06Z</time>
      </trkpt>
      <trkpt lat="59.223352" lon="18.136853">
        <ele>30</ele>
        <time>2020-01-13T09:31:07Z</time>
      </trkpt>
      <trkpt lat="59.223312" lon="18.136921">
        <ele>31</ele>
        <time>2020-01-13T09:31:08Z</time>
      </trkpt>
      <trkpt lat="59.223272" lon="18.136988">
        <ele>31</ele>
        <time>2020-01-13T09:31:09Z</time>
      </trkpt>
      <trkpt lat="59.22323" lon="18.137054">
        <ele>31</ele>
        <time>2020-01-13T09:31:10Z</time>
      </trkpt>
      <trkpt lat="59.223189" lon="18.137116">
        <ele>31</ele>
        <time>2020-01-13T09:31:11Z</time>
      </trkpt>
      <trkpt lat="59.223148" lon="18.137176">
        <ele>0</ele>
        <time>2020-01-13T09:31:11Z</time>
      </trkpt>
      <trkpt lat="59.223106" lon="18.137235">
        <ele>31</ele>
        <time>2020-01-13T09:31:12Z</time>
      </trkpt>
      <trkpt lat="59.223062" lon="18.137287">
        <ele>0</ele>
        <time>2020-01-13T09:31:13Z</time>
      </trkpt>
      <trkpt lat="59.223016" lon="18.137341">
        <ele>31</ele>
        <time>2020-01-13T09:31:14Z</time>
      </trkpt>
      <trkpt lat="59.22297" lon="18.137392">
        <ele>31</ele>
        <time>2020-01-13T09:31:16Z</time>
      </trkpt>
      <trkpt lat="59.222923" lon="18.137444">
        <ele>31</ele>
        <time>2020-01-13T09:31:17Z</time>
      </trkpt>
      <trkpt lat="59.222879" lon="18.137493">
        <ele>31</ele>
        <time>2020-01-13T09:31:18Z</time>
      </trkpt>
      <trkpt lat="59.222833" lon="18.137539">
        <ele>31</ele>
        <time>2020-01-13T09:31:19Z</time>
      </trkpt>
      <trkpt lat="59.222783" lon="18.137583">
        <ele>31</ele>
        <time>2020-01-13T09:31:20Z</time>
      </trkpt>
      <trkpt lat="59.222731" lon="18.137625">
        <ele>0</ele>
        <time>2020-01-13T09:31:20Z</time>
      </trkpt>
      <trkpt lat="59.222678" lon="18.137664">
        <ele>31</ele>
        <time>2020-01-13T09:31:21Z</time>
      </trkpt>
      <trkpt lat="59.222625" lon="18.1377">
        <ele>31</ele>
        <time>2020-01-13T09:31:23Z</time>
      </trkpt>
      <trkpt lat="59.222575" lon="18.137732">
        <ele>31</ele>
        <time>2020-01-13T09:31:24Z</time>
      </trkpt>
      <trkpt lat="59.222523" lon="18.137764">
        <ele>31</ele>
        <time>2020-01-13T09:31:25Z</time>
      </trkpt>
      <trkpt lat="59.222472" lon="18.137795">
        <ele>31</ele>
        <time>2020-01-13T09:31:26Z</time>
      </trkpt>
      <trkpt lat="59.222422" lon="18.137821">
        <ele>31</ele>
        <time>2020-01-13T09:31:27Z</time>
      </trkpt>
      <trkpt lat="59.222374" lon="18.137849">
        <ele>31</ele>
        <time>2020-01-13T09:31:28Z</time>
      </trkpt>
      <trkpt lat="59.222326" lon="18.137876">
        <ele>31</ele>
        <time>2020-01-13T09:31:29Z</time>
      </trkpt>
      <trkpt lat="59.222276" lon="18.137904">
        <ele>31</ele>
        <time>2020-01-13T09:31:30Z</time>
      </trkpt>
      <trkpt lat="59.222225" lon="18.137927">
        <ele>0</ele>
        <time>2020-01-13T09:31:30Z</time>
      </trkpt>
      <trkpt lat="59.222173" lon="18.137949">
        <ele>31</ele>
        <time>2020-01-13T09:31:31Z</time>
      </trkpt>
      <trkpt lat="59.222122" lon="18.137968">
        <ele>0</ele>
        <time>2020-01-13T09:31:32Z</time>
      </trkpt>
      <trkpt lat="59.222072" lon="18.137991">
        <ele>31</ele>
        <time>2020-01-13T09:31:33Z</time>
      </trkpt>
      <trkpt lat="59.222024" lon="18.138018">
        <ele>31</ele>
        <time>2020-01-13T09:31:35Z</time>
      </trkpt>
      <trkpt lat="59.221974" lon="18.138042">
        <ele>31</ele>
        <time>2020-01-13T09:31:36Z</time>
      </trkpt>
      <trkpt lat="59.221922" lon="18.138063">
        <ele>31</ele>
        <time>2020-01-13T09:31:37Z</time>
      </trkpt>
      <trkpt lat="59.221872" lon="18.138084">
        <ele>31</ele>
        <time>2020-01-13T09:31:38Z</time>
      </trkpt>
      <trkpt lat="59.221818" lon="18.138104">
        <ele>31</ele>
        <time>2020-01-13T09:31:39Z</time>
      </trkpt>
      <trkpt lat="59.221765" lon="18.138124">
        <ele>0</ele>
        <time>2020-01-13T09:31:39Z</time>
      </trkpt>
      <trkpt lat="59.22171" lon="18.138146">
        <ele>31</ele>
        <time>2020-01-13T09:31:40Z</time>
      </trkpt>
      <trkpt lat="59.221657" lon="18.138166">
        <ele>31</ele>
        <time>2020-01-13T09:31:42Z</time>
      </trkpt>
      <trkpt lat="59.221604" lon="18.138189">
        <ele>31</ele>
        <time>2020-01-13T09:31:43Z</time>
      </trkpt>
      <trkpt lat="59.221548" lon="18.138213">
        <ele>31</ele>
        <time>2020-01-13T09:31:44Z</time>
      </trkpt>
      <trkpt lat="59.221493" lon="18.138237">
        <ele>31</ele>
        <time>2020-01-13T09:31:45Z</time>
      </trkpt>
      <trkpt lat="59.221439" lon="18.138261">
        <ele>31</ele>
        <time>2020-01-13T09:31:46Z</time>
      </trkpt>
      <trkpt lat="59.221382" lon="18.138286">
        <ele>31</ele>
        <time>2020-01-13T09:31:47Z</time>
      </trkpt>
      <trkpt lat="59.221325" lon="18.138309">
        <ele>31</ele>
        <time>2020-01-13T09:31:48Z</time>
      </trkpt>
      <trkpt lat="59.221268" lon="18.13833">
        <ele>0</ele>
        <time>2020-01-13T09:31:48Z</time>
      </trkpt>
      <trkpt lat="59.221211" lon="18.138352">
        <ele>31</ele>
        <time>2020-01-13T09:31:49Z</time>
      </trkpt>
      <trkpt lat="59.221153" lon="18.138375">
        <ele>31</ele>
        <time>2020-01-13T09:31:51Z</time>
      </trkpt>
      <trkpt lat="59.221095" lon="18.138395">
        <ele>0</ele>
        <time>2020-01-13T09:31:51Z</time>
      </trkpt>
      <trkpt lat="59.221038" lon="18.138415">
        <ele>31</ele>
        <time>2020-01-13T09:31:52Z</time>
      </trkpt>
      <trkpt lat="59.22098" lon="18.138436">
        <ele>31</ele>
        <time>2020-01-13T09:31:54Z</time>
      </trkpt>
      <trkpt lat="59.220922" lon="18.138459">
        <ele>31</ele>
        <time>2020-01-13T09:31:55Z</time>
      </trkpt>
      <trkpt lat="59.220863" lon="18.138484">
        <ele>31</ele>
        <time>2020-01-13T09:31:56Z</time>
      </trkpt>
      <trkpt lat="59.220804" lon="18.13851">
        <ele>0</ele>
        <time>2020-01-13T09:31:56Z</time>
      </trkpt>
      <trkpt lat="59.220745" lon="18.138538">
        <ele>31</ele>
        <time>2020-01-13T09:31:57Z</time>
      </trkpt>
      <trkpt lat="59.220686" lon="18.138569">
        <ele>31</ele>
        <time>2020-01-13T09:31:59Z</time>
      </trkpt>
      <trkpt lat="59.220625" lon="18.138602">
        <ele>31</ele>
        <time>2020-01-13T09:32:00Z</time>
      </trkpt>
      <trkpt lat="59.220563" lon="18.138636">
        <ele>31</ele>
        <time>2020-01-13T09:32:01Z</time>
      </trkpt>
      <trkpt lat="59.2205" lon="18.138675">
        <ele>31</ele>
        <time>2020-01-13T09:32:02Z</time>
      </trkpt>
      <trkpt lat="59.220436" lon="18.138718">
        <ele>31</ele>
        <time>2020-01-13T09:32:03Z</time>
      </trkpt>
      <trkpt lat="59.220372" lon="18.138763">
        <ele>31</ele>
        <time>2020-01-13T09:32:04Z</time>
      </trkpt>
      <trkpt lat="59.220308" lon="18.138813">
        <ele>0</ele>
        <time>2020-01-13T09:32:04Z</time>
      </trkpt>
      <trkpt lat="59.220245" lon="18.138873">
        <ele>31</ele>
        <time>2020-01-13T09:32:05Z</time>
      </trkpt>
      <trkpt lat="59.220183" lon="18.138943">
        <ele>31</ele>
        <time>2020-01-13T09:32:07Z</time>
      </trkpt>
      <trkpt lat="59.220121" lon="18.139019">
        <ele>31</ele>
        <time>2020-01-13T09:32:08Z</time>
      </trkpt>
      <trkpt lat="59.220059" lon="18.139102">
        <ele>31</ele>
        <time>2020-01-13T09:32:09Z</time>
      </trkpt>
      <trkpt lat="59.219997" lon="18.139189">
        <ele>31</ele>
        <time>2020-01-13T09:32:10Z</time>
      </trkpt>
      <trkpt lat="59.219934" lon="18.139277">
        <ele>0</ele>
        <time>2020-01-13T09:32:10Z</time>
      </trkpt>
      <trkpt lat="59.219867" lon="18.139364">
        <ele>31</ele>
        <time>2020-01-13T09:32:11Z</time>
      </trkpt>
      <trkpt lat="59.219799" lon="18.13945">
        <ele>31</ele>
        <time>2020-01-13T09:32:12Z</time>
      </trkpt>
      <trkpt lat="59.219717" lon="18.139532">
        <ele>30</ele>
        <time>2020-01-13T09:32:14Z</time>
      </trkpt>
      <trkpt lat="59.219642" lon="18.139611">
        <ele>30</ele>
        <time>2020-01-13T09:32:15Z</time>
      </trkpt>
      <trkpt lat="59.219564" lon="18.139695">
        <ele>29</ele>
        <time>2020-01-13T09:32:16Z</time>
      </trkpt>
      <trkpt lat="59.219492" lon="18.139784">
        <ele>29</ele>
        <time>2020-01-13T09:32:17Z</time>
      </trkpt>
      <trkpt lat="59.219425" lon="18.139869">
        <ele>0</ele>
        <time>2020-01-13T09:32:17Z</time>
      </trkpt>
      <trkpt lat="59.219356" lon="18.139953">
        <ele>28</ele>
        <time>2020-01-13T09:32:18Z</time>
      </trkpt>
      <trkpt lat="59.219289" lon="18.140034">
        <ele>27</ele>
        <time>2020-01-13T09:32:20Z</time>
      </trkpt>
      <trkpt lat="59.219223" lon="18.140113">
        <ele>27</ele>
        <time>2020-01-13T09:32:21Z</time>
      </trkpt>
      <trkpt lat="59.219157" lon="18.140189">
        <ele>27</ele>
        <time>2020-01-13T09:32:22Z</time>
      </trkpt>
      <trkpt lat="59.219095" lon="18.140262">
        <ele>26</ele>
        <time>2020-01-13T09:32:23Z</time>
      </trkpt>
      <trkpt lat="59.219033" lon="18.140335">
        <ele>0</ele>
        <time>2020-01-13T09:32:23Z</time>
      </trkpt>
      <trkpt lat="59.218973" lon="18.140406">
        <ele>26</ele>
        <time>2020-01-13T09:32:24Z</time>
      </trkpt>
      <trkpt lat="59.218914" lon="18.140476">
        <ele>26</ele>
        <time>2020-01-13T09:32:26Z</time>
      </trkpt>
      <trkpt lat="59.218858" lon="18.140546">
        <ele>25</ele>
        <time>2020-01-13T09:32:27Z</time>
      </trkpt>
      <trkpt lat="59.218803" lon="18.140615">
        <ele>25</ele>
        <time>2020-01-13T09:32:28Z</time>
      </trkpt>
      <trkpt lat="59.218751" lon="18.140689">
        <ele>25</ele>
        <time>2020-01-13T09:32:29Z</time>
      </trkpt>
      <trkpt lat="59.218708" lon="18.140773">
        <ele>0</ele>
        <time>2020-01-13T09:32:29Z</time>
      </trkpt>
      <trkpt lat="59.218674" lon="18.140865">
        <ele>25</ele>
        <time>2020-01-13T09:32:30Z</time>
      </trkpt>
      <trkpt lat="59.218647" lon="18.140967">
        <ele>0</ele>
        <time>2020-01-13T09:32:31Z</time>
      </trkpt>
      <trkpt lat="59.218628" lon="18.141072">
        <ele>25</ele>
        <time>2020-01-13T09:32:32Z</time>
      </trkpt>
      <trkpt lat="59.218615" lon="18.141179">
        <ele>25</ele>
        <time>2020-01-13T09:32:34Z</time>
      </trkpt>
      <trkpt lat="59.218605" lon="18.141285">
        <ele>24</ele>
        <time>2020-01-13T09:32:35Z</time>
      </trkpt>
      <trkpt lat="59.218598" lon="18.141383">
        <ele>24</ele>
        <time>2020-01-13T09:32:36Z</time>
      </trkpt>
      <trkpt lat="59.218588" lon="18.141468">
        <ele>24</ele>
        <time>2020-01-13T09:32:37Z</time>
      </trkpt>
      <trkpt lat="59.218565" lon="18.141529">
        <ele>24</ele>
        <time>2020-01-13T09:32:38Z</time>
      </trkpt>
      <trkpt lat="59.218537" lon="18.141555">
        <ele>24</ele>
        <time>2020-01-13T09:32:39Z</time>
      </trkpt>
      <trkpt lat="59.218512" lon="18.141559">
        <ele>24</ele>
        <time>2020-01-13T09:32:40Z</time>
      </trkpt>
      <trkpt lat="59.218487" lon="18.14156">
        <ele>24</ele>
        <time>2020-01-13T09:32:41Z</time>
      </trkpt>
      <trkpt lat="59.218456" lon="18.141569">
        <ele>24</ele>
        <time>2020-01-13T09:32:42Z</time>
      </trkpt>
      <trkpt lat="59.218419" lon="18.141586">
        <ele>24</ele>
        <time>2020-01-13T09:32:43Z</time>
      </trkpt>
      <trkpt lat="59.218379" lon="18.141611">
        <ele>0</ele>
        <time>2020-01-13T09:32:43Z</time>
      </trkpt>
      <trkpt lat="59.218339" lon="18.141632">
        <ele>24</ele>
        <time>2020-01-13T09:32:44Z</time>
      </trkpt>
      <trkpt lat="59.218296" lon="18.141627">
        <ele>24</ele>
        <time>2020-01-13T09:32:46Z</time>
      </trkpt>
      <trkpt lat="59.218258" lon="18.141587">
        <ele>24</ele>
        <time>2020-01-13T09:32:47Z</time>
      </trkpt>
      <trkpt lat="59.21822" lon="18.141533">
        <ele>24</ele>
        <time>2020-01-13T09:32:48Z</time>
      </trkpt>
      <trkpt lat="59.218178" lon="18.141491">
        <ele>0</ele>
        <time>2020-01-13T09:32:48Z</time>
      </trkpt>
      <trkpt lat="59.218133" lon="18.14148">
        <ele>24</ele>
        <time>2020-01-13T09:32:49Z</time>
      </trkpt>
      <trkpt lat="59.218085" lon="18.1415">
        <ele>24</ele>
        <time>2020-01-13T09:32:51Z</time>
      </trkpt>
      <trkpt lat="59.218037" lon="18.141535">
        <ele>24</ele>
        <time>2020-01-13T09:32:52Z</time>
      </trkpt>
      <trkpt lat="59.217989" lon="18.141578">
        <ele>24</ele>
        <time>2020-01-13T09:32:53Z</time>
      </trkpt>
      <trkpt lat="59.217941" lon="18.141629">
        <ele>0</ele>
        <time>2020-01-13T09:32:53Z</time>
      </trkpt>
      <trkpt lat="59.217893" lon="18.141688">
        <ele>24</ele>
        <time>2020-01-13T09:32:54Z</time>
      </trkpt>
      <trkpt lat="59.217845" lon="18.141748">
        <ele>24</ele>
        <time>2020-01-13T09:32:56Z</time>
      </trkpt>
      <trkpt lat="59.217796" lon="18.141807">
        <ele>24</ele>
        <time>2020-01-13T09:32:57Z</time>
      </trkpt>
      <trkpt lat="59.217746" lon="18.141864">
        <ele>24</ele>
        <time>2020-01-13T09:32:58Z</time>
      </trkpt>
      <trkpt lat="59.217695" lon="18.141919">
        <ele>24</ele>
        <time>2020-01-13T09:32:59Z</time>
      </trkpt>
      <trkpt lat="59.217645" lon="18.141974">
        <ele>24</ele>
        <time>2020-01-13T09:33:00Z</time>
      </trkpt>
      <trkpt lat="59.217595" lon="18.142029">
        <ele>24</ele>
        <time>2020-01-13T09:33:01Z</time>
      </trkpt>
      <trkpt lat="59.217544" lon="18.142083">
        <ele>24</ele>
        <time>2020-01-13T09:33:02Z</time>
      </trkpt>
      <trkpt lat="59.217493" lon="18.142138">
        <ele>0</ele>
        <time>2020-01-13T09:33:02Z</time>
      </trkpt>
      <trkpt lat="59.217442" lon="18.142196">
        <ele>24</ele>
        <time>2020-01-13T09:33:03Z</time>
      </trkpt>
      <trkpt lat="59.217392" lon="18.142255">
        <ele>24</ele>
        <time>2020-01-13T09:33:05Z</time>
      </trkpt>
      <trkpt lat="59.217339" lon="18.142315">
        <ele>25</ele>
        <time>2020-01-13T09:33:06Z</time>
      </trkpt>
      <trkpt lat="59.21729" lon="18.142375">
        <ele>25</ele>
        <time>2020-01-13T09:33:07Z</time>
      </trkpt>
      <trkpt lat="59.21724" lon="18.142436">
        <ele>0</ele>
        <time>2020-01-13T09:33:07Z</time>
      </trkpt>
      <trkpt lat="59.217188" lon="18.142497">
        <ele>25</ele>
        <time>2020-01-13T09:33:08Z</time>
      </trkpt>
      <trkpt lat="59.217135" lon="18.142559">
        <ele>25</ele>
        <time>2020-01-13T09:33:10Z</time>
      </trkpt>
      <trkpt lat="59.217084" lon="18.14262">
        <ele>0</ele>
        <time>2020-01-13T09:33:10Z</time>
      </trkpt>
      <trkpt lat="59.217032" lon="18.142682">
        <ele>25</ele>
        <time>2020-01-13T09:33:11Z</time>
      </trkpt>
      <trkpt lat="59.21698" lon="18.142742">
        <ele>25</ele>
        <time>2020-01-13T09:33:13Z</time>
      </trkpt>
      <trkpt lat="59.216926" lon="18.142804">
        <ele>25</ele>
        <time>2020-01-13T09:33:14Z</time>
      </trkpt>
      <trkpt lat="59.216874" lon="18.142866">
        <ele>25</ele>
        <time>2020-01-13T09:33:15Z</time>
      </trkpt>
      <trkpt lat="59.21682" lon="18.142929">
        <ele>24</ele>
        <time>2020-01-13T09:33:16Z</time>
      </trkpt>
      <trkpt lat="59.216766" lon="18.142993">
        <ele>24</ele>
        <time>2020-01-13T09:33:17Z</time>
      </trkpt>
      <trkpt lat="59.216711" lon="18.143058">
        <ele>25</ele>
        <time>2020-01-13T09:33:18Z</time>
      </trkpt>
      <trkpt lat="59.216657" lon="18.143123">
        <ele>0</ele>
        <time>2020-01-13T09:33:18Z</time>
      </trkpt>
      <trkpt lat="59.216601" lon="18.143187">
        <ele>25</ele>
        <time>2020-01-13T09:33:19Z</time>
      </trkpt>
      <trkpt lat="59.216545" lon="18.143252">
        <ele>25</ele>
        <time>2020-01-13T09:33:21Z</time>
      </trkpt>
      <trkpt lat="59.216489" lon="18.143318">
        <ele>25</ele>
        <time>2020-01-13T09:33:22Z</time>
      </trkpt>
      <trkpt lat="59.216434" lon="18.143382">
        <ele>0</ele>
        <time>2020-01-13T09:33:22Z</time>
      </trkpt>
      <trkpt lat="59.216381" lon="18.143446">
        <ele>25</ele>
        <time>2020-01-13T09:33:23Z</time>
      </trkpt>
      <trkpt lat="59.216328" lon="18.14351">
        <ele>25</ele>
        <time>2020-01-13T09:33:25Z</time>
      </trkpt>
      <trkpt lat="59.216276" lon="18.143571">
        <ele>25</ele>
        <time>2020-01-13T09:33:26Z</time>
      </trkpt>
      <trkpt lat="59.216224" lon="18.143632">
        <ele>0</ele>
        <time>2020-01-13T09:33:26Z</time>
      </trkpt>
      <trkpt lat="59.216172" lon="18.143693">
        <ele>25</ele>
        <time>2020-01-13T09:33:27Z</time>
      </trkpt>
      <trkpt lat="59.216122" lon="18.143754">
        <ele>26</ele>
        <time>2020-01-13T09:33:29Z</time>
      </trkpt>
      <trkpt lat="59.216074" lon="18.143811">
        <ele>26</ele>
        <time>2020-01-13T09:33:30Z</time>
      </trkpt>
      <trkpt lat="59.216024" lon="18.143862">
        <ele>26</ele>
        <time>2020-01-13T09:33:31Z</time>
      </trkpt>
      <trkpt lat="59.215976" lon="18.143913">
        <ele>26</ele>
        <time>2020-01-13T09:33:32Z</time>
      </trkpt>
      <trkpt lat="59.21593" lon="18.143964">
        <ele>26</ele>
        <time>2020-01-13T09:33:33Z</time>
      </trkpt>
      <trkpt lat="59.215887" lon="18.144013">
        <ele>26</ele>
        <time>2020-01-13T09:33:34Z</time>
      </trkpt>
      <trkpt lat="59.215844" lon="18.144064">
        <ele>26</ele>
        <time>2020-01-13T09:33:35Z</time>
      </trkpt>
      <trkpt lat="59.2158" lon="18.144112">
        <ele>26</ele>
        <time>2020-01-13T09:33:36Z</time>
      </trkpt>
      <trkpt lat="59.215757" lon="18.144162">
        <ele>0</ele>
        <time>2020-01-13T09:33:36Z</time>
      </trkpt>
      <trkpt lat="59.215714" lon="18.144212">
        <ele>27</ele>
        <time>2020-01-13T09:33:37Z</time>
      </trkpt>
      <trkpt lat="59.215672" lon="18.144263">
        <ele>27</ele>
        <time>2020-01-13T09:33:39Z</time>
      </trkpt>
      <trkpt lat="59.21563" lon="18.144314">
        <ele>27</ele>
        <time>2020-01-13T09:33:40Z</time>
      </trkpt>
      <trkpt lat="59.215588" lon="18.144362">
        <ele>27</ele>
        <time>2020-01-13T09:33:41Z</time>
      </trkpt>
      <trkpt lat="59.215549" lon="18.144407">
        <ele>27</ele>
        <time>2020-01-13T09:33:42Z</time>
      </trkpt>
      <trkpt lat="59.21551" lon="18.144454">
        <ele>27</ele>
        <time>2020-01-13T09:33:43Z</time>
      </trkpt>
      <trkpt lat="59.21547" lon="18.144501">
        <ele>27</ele>
        <time>2020-01-13T09:33:44Z</time>
      </trkpt>
      <trkpt lat="59.215431" lon="18.144548">
        <ele>27</ele>
        <time>2020-01-13T09:33:45Z</time>
      </trkpt>
      <trkpt lat="59.215392" lon="18.144597">
        <ele>0</ele>
        <time>2020-01-13T09:33:45Z</time>
      </trkpt>
      <trkpt lat="59.215352" lon="18.144646">
        <ele>28</ele>
        <time>2020-01-13T09:33:46Z</time>
      </trkpt>
      <trkpt lat="59.21531" lon="18.144691">
        <ele>28</ele>
        <time>2020-01-13T09:33:47Z</time>
      </trkpt>
      <trkpt lat="59.215268" lon="18.144736">
        <ele>28</ele>
        <time>2020-01-13T09:33:49Z</time>
      </trkpt>
      <trkpt lat="59.215228" lon="18.144781">
        <ele>28</ele>
        <time>2020-01-13T09:33:50Z</time>
      </trkpt>
      <trkpt lat="59.215188" lon="18.144827">
        <ele>28</ele>
        <time>2020-01-13T09:33:51Z</time>
      </trkpt>
      <trkpt lat="59.215148" lon="18.144873">
        <ele>28</ele>
        <time>2020-01-13T09:33:52Z</time>
      </trkpt>
      <trkpt lat="59.21511" lon="18.144918">
        <ele>29</ele>
        <time>2020-01-13T09:33:53Z</time>
      </trkpt>
      <trkpt lat="59.215072" lon="18.144961">
        <ele>29</ele>
        <time>2020-01-13T09:33:54Z</time>
      </trkpt>
      <trkpt lat="59.215036" lon="18.145004">
        <ele>29</ele>
        <time>2020-01-13T09:33:55Z</time>
      </trkpt>
      <trkpt lat="59.214998" lon="18.145047">
        <ele>29</ele>
        <time>2020-01-13T09:33:56Z</time>
      </trkpt>
      <trkpt lat="59.214965" lon="18.145087">
        <ele>30</ele>
        <time>2020-01-13T09:33:57Z</time>
      </trkpt>
      <trkpt lat="59.214935" lon="18.145127">
        <ele>30</ele>
        <time>2020-01-13T09:33:58Z</time>
      </trkpt>
      <trkpt lat="59.2149" lon="18.145169">
        <ele>0</ele>
        <time>2020-01-13T09:33:58Z</time>
      </trkpt>
      <trkpt lat="59.214862" lon="18.14521">
        <ele>30</ele>
        <time>2020-01-13T09:33:59Z</time>
      </trkpt>
      <trkpt lat="59.214828" lon="18.14525">
        <ele>31</ele>
        <time>2020-01-13T09:34:01Z</time>
      </trkpt>
      <trkpt lat="59.214794" lon="18.145291">
        <ele>31</ele>
        <time>2020-01-13T09:34:02Z</time>
      </trkpt>
      <trkpt lat="59.214759" lon="18.145333">
        <ele>31</ele>
        <time>2020-01-13T09:34:03Z</time>
      </trkpt>
      <trkpt lat="59.214724" lon="18.145376">
        <ele>31</ele>
        <time>2020-01-13T09:34:04Z</time>
      </trkpt>
      <trkpt lat="59.214688" lon="18.145417">
        <ele>0</ele>
        <time>2020-01-13T09:34:04Z</time>
      </trkpt>
      <trkpt lat="59.214652" lon="18.145459">
        <ele>31</ele>
        <time>2020-01-13T09:34:05Z</time>
      </trkpt>
      <trkpt lat="59.214617" lon="18.1455">
        <ele>31</ele>
        <time>2020-01-13T09:34:07Z</time>
      </trkpt>
      <trkpt lat="59.21458" lon="18.145539">
        <ele>32</ele>
        <time>2020-01-13T09:34:08Z</time>
      </trkpt>
      <trkpt lat="59.214544" lon="18.145581">
        <ele>32</ele>
        <time>2020-01-13T09:34:09Z</time>
      </trkpt>
      <trkpt lat="59.214508" lon="18.145627">
        <ele>32</ele>
        <time>2020-01-13T09:34:10Z</time>
      </trkpt>
      <trkpt lat="59.214473" lon="18.145672">
        <ele>0</ele>
        <time>2020-01-13T09:34:10Z</time>
      </trkpt>
      <trkpt lat="59.214437" lon="18.145714">
        <ele>32</ele>
        <time>2020-01-13T09:34:11Z</time>
      </trkpt>
      <trkpt lat="59.214398" lon="18.145757">
        <ele>32</ele>
        <time>2020-01-13T09:34:13Z</time>
      </trkpt>
      <trkpt lat="59.214359" lon="18.1458">
        <ele>33</ele>
        <time>2020-01-13T09:34:14Z</time>
      </trkpt>
      <trkpt lat="59.21432" lon="18.145843">
        <ele>33</ele>
        <time>2020-01-13T09:34:15Z</time>
      </trkpt>
      <trkpt lat="59.214285" lon="18.145885">
        <ele>33</ele>
        <time>2020-01-13T09:34:16Z</time>
      </trkpt>
      <trkpt lat="59.214248" lon="18.14593">
        <ele>33</ele>
        <time>2020-01-13T09:34:17Z</time>
      </trkpt>
      <trkpt lat="59.21421" lon="18.145974">
        <ele>33</ele>
        <time>2020-01-13T09:34:18Z</time>
      </trkpt>
      <trkpt lat="59.214173" lon="18.146019">
        <ele>33</ele>
        <time>2020-01-13T09:34:19Z</time>
      </trkpt>
      <trkpt lat="59.214135" lon="18.146062">
        <ele>33</ele>
        <time>2020-01-13T09:34:20Z</time>
      </trkpt>
      <trkpt lat="59.214097" lon="18.146103">
        <ele>33</ele>
        <time>2020-01-13T09:34:21Z</time>
      </trkpt>
      <trkpt lat="59.21406" lon="18.146145">
        <ele>0</ele>
        <time>2020-01-13T09:34:21Z</time>
      </trkpt>
      <trkpt lat="59.214024" lon="18.146189">
        <ele>33</ele>
        <time>2020-01-13T09:34:22Z</time>
      </trkpt>
      <trkpt lat="59.213987" lon="18.146231">
        <ele>0</ele>
        <time>2020-01-13T09:34:23Z</time>
      </trkpt>
      <trkpt lat="59.213953" lon="18.146274">
        <ele>33</ele>
        <time>2020-01-13T09:34:24Z</time>
      </trkpt>
      <trkpt lat="59.213918" lon="18.146318">
        <ele>33</ele>
        <time>2020-01-13T09:34:26Z</time>
      </trkpt>
      <trkpt lat="59.213883" lon="18.146364">
        <ele>33</ele>
        <time>2020-01-13T09:34:27Z</time>
      </trkpt>
      <trkpt lat="59.213849" lon="18.146407">
        <ele>34</ele>
        <time>2020-01-13T09:34:28Z</time>
      </trkpt>
      <trkpt lat="59.213816" lon="18.146445">
        <ele>34</ele>
        <time>2020-01-13T09:34:29Z</time>
      </trkpt>
      <trkpt lat="59.213787" lon="18.146476">
        <ele>34</ele>
        <time>2020-01-13T09:34:30Z</time>
      </trkpt>
      <trkpt lat="59.213753" lon="18.146513">
        <ele>34</ele>
        <time>2020-01-13T09:34:31Z</time>
      </trkpt>
      <trkpt lat="59.213718" lon="18.146549">
        <ele>34</ele>
        <time>2020-01-13T09:34:32Z</time>
      </trkpt>
      <trkpt lat="59.213682" lon="18.146585">
        <ele>34</ele>
        <time>2020-01-13T09:34:33Z</time>
      </trkpt>
      <trkpt lat="59.213645" lon="18.146622">
        <ele>34</ele>
        <time>2020-01-13T09:34:34Z</time>
      </trkpt>
      <trkpt lat="59.213606" lon="18.146659">
        <ele>0</ele>
        <time>2020-01-13T09:34:34Z</time>
      </trkpt>
      <trkpt lat="59.213567" lon="18.146693">
        <ele>34</ele>
        <time>2020-01-13T09:34:35Z</time>
      </trkpt>
      <trkpt lat="59.213529" lon="18.146726">
        <ele>34</ele>
        <time>2020-01-13T09:34:37Z</time>
      </trkpt>
      <trkpt lat="59.213491" lon="18.146755">
        <ele>35</ele>
        <time>2020-01-13T09:34:38Z</time>
      </trkpt>
      <trkpt lat="59.213454" lon="18.146781">
        <ele>35</ele>
        <time>2020-01-13T09:34:39Z</time>
      </trkpt>
      <trkpt lat="59.213416" lon="18.146809">
        <ele>35</ele>
        <time>2020-01-13T09:34:40Z</time>
      </trkpt>
      <trkpt lat="59.213376" lon="18.146837">
        <ele>35</ele>
        <time>2020-01-13T09:34:41Z</time>
      </trkpt>
      <trkpt lat="59.213337" lon="18.146861">
        <ele>35</ele>
        <time>2020-01-13T09:34:42Z</time>
      </trkpt>
      <trkpt lat="59.2133" lon="18.146882">
        <ele>0</ele>
        <time>2020-01-13T09:34:42Z</time>
      </trkpt>
      <trkpt lat="59.213266" lon="18.146903">
        <ele>35</ele>
        <time>2020-01-13T09:34:43Z</time>
      </trkpt>
      <trkpt lat="59.213232" lon="18.146923">
        <ele>35</ele>
        <time>2020-01-13T09:34:45Z</time>
      </trkpt>
      <trkpt lat="59.213199" lon="18.146942">
        <ele>35</ele>
        <time>2020-01-13T09:34:46Z</time>
      </trkpt>
      <trkpt lat="59.213166" lon="18.146959">
        <ele>35</ele>
        <time>2020-01-13T09:34:47Z</time>
      </trkpt>
      <trkpt lat="59.213134" lon="18.146976">
        <ele>0</ele>
        <time>2020-01-13T09:34:47Z</time>
      </trkpt>
      <trkpt lat="59.213103" lon="18.146991">
        <ele>35</ele>
        <time>2020-01-13T09:34:48Z</time>
      </trkpt>
      <trkpt lat="59.213072" lon="18.147006">
        <ele>35</ele>
        <time>2020-01-13T09:34:50Z</time>
      </trkpt>
      <trkpt lat="59.213041" lon="18.147021">
        <ele>35</ele>
        <time>2020-01-13T09:34:51Z</time>
      </trkpt>
      <trkpt lat="59.21301" lon="18.147036">
        <ele>35</ele>
        <time>2020-01-13T09:34:52Z</time>
      </trkpt>
      <trkpt lat="59.212979" lon="18.147048">
        <ele>35</ele>
        <time>2020-01-13T09:34:53Z</time>
      </trkpt>
      <trkpt lat="59.212948" lon="18.147059">
        <ele>35</ele>
        <time>2020-01-13T09:34:54Z</time>
      </trkpt>
      <trkpt lat="59.212917" lon="18.147069">
        <ele>35</ele>
        <time>2020-01-13T09:34:55Z</time>
      </trkpt>
      <trkpt lat="59.212886" lon="18.147079">
        <ele>35</ele>
        <time>2020-01-13T09:34:56Z</time>
      </trkpt>
      <trkpt lat="59.212856" lon="18.147088">
        <ele>35</ele>
        <time>2020-01-13T09:34:57Z</time>
      </trkpt>
      <trkpt lat="59.212826" lon="18.147097">
        <ele>35</ele>
        <time>2020-01-13T09:34:58Z</time>
      </trkpt>
      <trkpt lat="59.212798" lon="18.147105">
        <ele>36</ele>
        <time>2020-01-13T09:34:59Z</time>
      </trkpt>
      <trkpt lat="59.212771" lon="18.147112">
        <ele>36</ele>
        <time>2020-01-13T09:35:00Z</time>
      </trkpt>
      <trkpt lat="59.212744" lon="18.147118">
        <ele>36</ele>
        <time>2020-01-13T09:35:01Z</time>
      </trkpt>
      <trkpt lat="59.212719" lon="18.147124">
        <ele>35</ele>
        <time>2020-01-13T09:35:01Z</time>
      </trkpt>
      <trkpt lat="59.212693" lon="18.14713">
        <ele>36</ele>
        <time>2020-01-13T09:35:02Z</time>
      </trkpt>
      <trkpt lat="59.212668" lon="18.147136">
        <ele>36</ele>
        <time>2020-01-13T09:35:04Z</time>
      </trkpt>
      <trkpt lat="59.212642" lon="18.147144">
        <ele>0</ele>
        <time>2020-01-13T09:35:04Z</time>
      </trkpt>
      <trkpt lat="59.212615" lon="18.147148">
        <ele>36</ele>
        <time>2020-01-13T09:35:05Z</time>
      </trkpt>
      <trkpt lat="59.212589" lon="18.147154">
        <ele>36</ele>
        <time>2020-01-13T09:35:07Z</time>
      </trkpt>
      <trkpt lat="59.212562" lon="18.147158">
        <ele>36</ele>
        <time>2020-01-13T09:35:08Z</time>
      </trkpt>
      <trkpt lat="59.212534" lon="18.147162">
        <ele>36</ele>
        <time>2020-01-13T09:35:09Z</time>
      </trkpt>
      <trkpt lat="59.212507" lon="18.147166">
        <ele>36</ele>
        <time>2020-01-13T09:35:10Z</time>
      </trkpt>
      <trkpt lat="59.21248" lon="18.14717">
        <ele>36</ele>
        <time>2020-01-13T09:35:11Z</time>
      </trkpt>
      <trkpt lat="59.212453" lon="18.147176">
        <ele>36</ele>
        <time>2020-01-13T09:35:12Z</time>
      </trkpt>
      <trkpt lat="59.212426" lon="18.147182">
        <ele>37</ele>
        <time>2020-01-13T09:35:13Z</time>
      </trkpt>
      <trkpt lat="59.2124" lon="18.147186">
        <ele>37</ele>
        <time>2020-01-13T09:35:14Z</time>
      </trkpt>
      <trkpt lat="59.212373" lon="18.14719">
        <ele>37</ele>
        <time>2020-01-13T09:35:15Z</time>
      </trkpt>
      <trkpt lat="59.212346" lon="18.147192">
        <ele>37</ele>
        <time>2020-01-13T09:35:16Z</time>
      </trkpt>
      <trkpt lat="59.212318" lon="18.147192">
        <ele>37</ele>
        <time>2020-01-13T09:35:17Z</time>
      </trkpt>
      <trkpt lat="59.212291" lon="18.147192">
        <ele>37</ele>
        <time>2020-01-13T09:35:18Z</time>
      </trkpt>
      <trkpt lat="59.212264" lon="18.147194">
        <ele>37</ele>
        <time>2020-01-13T09:35:19Z</time>
      </trkpt>
      <trkpt lat="59.212238" lon="18.147194">
        <ele>37</ele>
        <time>2020-01-13T09:35:20Z</time>
      </trkpt>
      <trkpt lat="59.212212" lon="18.147192">
        <ele>0</ele>
        <time>2020-01-13T09:35:20Z</time>
      </trkpt>
      <trkpt lat="59.212185" lon="18.14719">
        <ele>38</ele>
        <time>2020-01-13T09:35:21Z</time>
      </trkpt>
      <trkpt lat="59.212158" lon="18.147188">
        <ele>0</ele>
        <time>2020-01-13T09:35:22Z</time>
      </trkpt>
      <trkpt lat="59.212133" lon="18.147186">
        <ele>38</ele>
        <time>2020-01-13T09:35:23Z</time>
      </trkpt>
      <trkpt lat="59.212106" lon="18.147184">
        <ele>38</ele>
        <time>2020-01-13T09:35:25Z</time>
      </trkpt>
      <trkpt lat="59.212078" lon="18.14718">
        <ele>38</ele>
        <time>2020-01-13T09:35:26Z</time>
      </trkpt>
      <trkpt lat="59.21205" lon="18.147176">
        <ele>38</ele>
        <time>2020-01-13T09:35:27Z</time>
      </trkpt>
      <trkpt lat="59.212022" lon="18.147172">
        <ele>39</ele>
        <time>2020-01-13T09:35:28Z</time>
      </trkpt>
      <trkpt lat="59.211993" lon="18.147172">
        <ele>39</ele>
        <time>2020-01-13T09:35:29Z</time>
      </trkpt>
      <trkpt lat="59.211966" lon="18.14717">
        <ele>39</ele>
        <time>2020-01-13T09:35:30Z</time>
      </trkpt>
      <trkpt lat="59.211939" lon="18.147168">
        <ele>39</ele>
        <time>2020-01-13T09:35:31Z</time>
      </trkpt>
      <trkpt lat="59.211912" lon="18.147168">
        <ele>39</ele>
        <time>2020-01-13T09:35:32Z</time>
      </trkpt>
      <trkpt lat="59.211885" lon="18.147166">
        <ele>40</ele>
        <time>2020-01-13T09:35:33Z</time>
      </trkpt>
      <trkpt lat="59.211858" lon="18.147166">
        <ele>40</ele>
        <time>2020-01-13T09:35:34Z</time>
      </trkpt>
      <trkpt lat="59.211834" lon="18.147164">
        <ele>40</ele>
        <time>2020-01-13T09:35:35Z</time>
      </trkpt>
      <trkpt lat="59.211815" lon="18.14716">
        <ele>41</ele>
        <time>2020-01-13T09:35:36Z</time>
      </trkpt>
      <trkpt lat="59.211796" lon="18.147152">
        <ele>41</ele>
        <time>2020-01-13T09:35:37Z</time>
      </trkpt>
      <trkpt lat="59.211775" lon="18.147142">
        <ele>41</ele>
        <time>2020-01-13T09:35:38Z</time>
      </trkpt>
      <trkpt lat="59.211749" lon="18.147132">
        <ele>41</ele>
        <time>2020-01-13T09:35:39Z</time>
      </trkpt>
      <trkpt lat="59.211716" lon="18.147124">
        <ele>0</ele>
        <time>2020-01-13T09:35:39Z</time>
      </trkpt>
      <trkpt lat="59.211686" lon="18.147116">
        <ele>41</ele>
        <time>2020-01-13T09:35:40Z</time>
      </trkpt>
      <trkpt lat="59.211656" lon="18.14711">
        <ele>0</ele>
        <time>2020-01-13T09:35:41Z</time>
      </trkpt>
      <trkpt lat="59.211626" lon="18.147106">
        <ele>41</ele>
        <time>2020-01-13T09:35:42Z</time>
      </trkpt>
      <trkpt lat="59.211601" lon="18.1471">
        <ele>42</ele>
        <time>2020-01-13T09:35:44Z</time>
      </trkpt>
      <trkpt lat="59.211576" lon="18.147094">
        <ele>42</ele>
        <time>2020-01-13T09:35:45Z</time>
      </trkpt>
      <trkpt lat="59.211555" lon="18.147086">
        <ele>42</ele>
        <time>2020-01-13T09:35:46Z</time>
      </trkpt>
      <trkpt lat="59.211531" lon="18.147078">
        <ele>43</ele>
        <time>2020-01-13T09:35:47Z</time>
      </trkpt>
      <trkpt lat="59.211506" lon="18.147066">
        <ele>43</ele>
        <time>2020-01-13T09:35:48Z</time>
      </trkpt>
      <trkpt lat="59.21148" lon="18.147054">
        <ele>43</ele>
        <time>2020-01-13T09:35:49Z</time>
      </trkpt>
      <trkpt lat="59.211455" lon="18.14704">
        <ele>43</ele>
        <time>2020-01-13T09:35:50Z</time>
      </trkpt>
      <trkpt lat="59.21143" lon="18.147025">
        <ele>44</ele>
        <time>2020-01-13T09:35:51Z</time>
      </trkpt>
      <trkpt lat="59.211403" lon="18.147008">
        <ele>44</ele>
        <time>2020-01-13T09:35:52Z</time>
      </trkpt>
      <trkpt lat="59.211374" lon="18.146992">
        <ele>44</ele>
        <time>2020-01-13T09:35:53Z</time>
      </trkpt>
      <trkpt lat="59.211345" lon="18.14698">
        <ele>44</ele>
        <time>2020-01-13T09:35:54Z</time>
      </trkpt>
      <trkpt lat="59.211316" lon="18.146962">
        <ele>44</ele>
        <time>2020-01-13T09:35:55Z</time>
      </trkpt>
      <trkpt lat="59.21129" lon="18.146944">
        <ele>44</ele>
        <time>2020-01-13T09:35:56Z</time>
      </trkpt>
      <trkpt lat="59.211263" lon="18.146926">
        <ele>44</ele>
        <time>2020-01-13T09:35:57Z</time>
      </trkpt>
      <trkpt lat="59.211238" lon="18.14691">
        <ele>45</ele>
        <time>2020-01-13T09:35:58Z</time>
      </trkpt>
      <trkpt lat="59.211213" lon="18.146896">
        <ele>0</ele>
        <time>2020-01-13T09:35:58Z</time>
      </trkpt>
      <trkpt lat="59.211187" lon="18.14688">
        <ele>45</ele>
        <time>2020-01-13T09:35:59Z</time>
      </trkpt>
      <trkpt lat="59.211159" lon="18.146862">
        <ele>0</ele>
        <time>2020-01-13T09:36:00Z</time>
      </trkpt>
      <trkpt lat="59.211131" lon="18.146842">
        <ele>45</ele>
        <time>2020-01-13T09:36:01Z</time>
      </trkpt>
      <trkpt lat="59.211103" lon="18.146821">
        <ele>45</ele>
        <time>2020-01-13T09:36:03Z</time>
      </trkpt>
      <trkpt lat="59.211075" lon="18.146801">
        <ele>45</ele>
        <time>2020-01-13T09:36:04Z</time>
      </trkpt>
      <trkpt lat="59.211045" lon="18.146782">
        <ele>45</ele>
        <time>2020-01-13T09:36:05Z</time>
      </trkpt>
      <trkpt lat="59.211016" lon="18.146759">
        <ele>45</ele>
        <time>2020-01-13T09:36:06Z</time>
      </trkpt>
      <trkpt lat="59.210989" lon="18.146732">
        <ele>45</ele>
        <time>2020-01-13T09:36:07Z</time>
      </trkpt>
      <trkpt lat="59.210961" lon="18.146704">
        <ele>45</ele>
        <time>2020-01-13T09:36:08Z</time>
      </trkpt>
      <trkpt lat="59.210931" lon="18.146679">
        <ele>45</ele>
        <time>2020-01-13T09:36:09Z</time>
      </trkpt>
      <trkpt lat="59.210904" lon="18.146656">
        <ele>45</ele>
        <time>2020-01-13T09:36:10Z</time>
      </trkpt>
      <trkpt lat="59.210876" lon="18.14663">
        <ele>45</ele>
        <time>2020-01-13T09:36:11Z</time>
      </trkpt>
      <trkpt lat="59.21085" lon="18.146602">
        <ele>45</ele>
        <time>2020-01-13T09:36:12Z</time>
      </trkpt>
      <trkpt lat="59.210823" lon="18.146574">
        <ele>46</ele>
        <time>2020-01-13T09:36:13Z</time>
      </trkpt>
      <trkpt lat="59.210798" lon="18.146548">
        <ele>46</ele>
        <time>2020-01-13T09:36:14Z</time>
      </trkpt>
      <trkpt lat="59.210773" lon="18.14652">
        <ele>46</ele>
        <time>2020-01-13T09:36:15Z</time>
      </trkpt>
      <trkpt lat="59.210745" lon="18.146492">
        <ele>46</ele>
        <time>2020-01-13T09:36:16Z</time>
      </trkpt>
      <trkpt lat="59.21072" lon="18.146465">
        <ele>0</ele>
        <time>2020-01-13T09:36:16Z</time>
      </trkpt>
      <trkpt lat="59.210694" lon="18.146438">
        <ele>46</ele>
        <time>2020-01-13T09:36:17Z</time>
      </trkpt>
      <trkpt lat="59.210668" lon="18.146411">
        <ele>46</ele>
        <time>2020-01-13T09:36:18Z</time>
      </trkpt>
      <trkpt lat="59.210643" lon="18.146382">
        <ele>46</ele>
        <time>2020-01-13T09:36:20Z</time>
      </trkpt>
      <trkpt lat="59.210615" lon="18.146354">
        <ele>46</ele>
        <time>2020-01-13T09:36:21Z</time>
      </trkpt>
      <trkpt lat="59.210589" lon="18.146326">
        <ele>47</ele>
        <time>2020-01-13T09:36:22Z</time>
      </trkpt>
      <trkpt lat="59.210563" lon="18.146299">
        <ele>47</ele>
        <time>2020-01-13T09:36:23Z</time>
      </trkpt>
      <trkpt lat="59.210536" lon="18.146269">
        <ele>47</ele>
        <time>2020-01-13T09:36:24Z</time>
      </trkpt>
      <trkpt lat="59.210512" lon="18.146237">
        <ele>47</ele>
        <time>2020-01-13T09:36:25Z</time>
      </trkpt>
      <trkpt lat="59.210488" lon="18.146205">
        <ele>47</ele>
        <time>2020-01-13T09:36:26Z</time>
      </trkpt>
      <trkpt lat="59.210464" lon="18.14617">
        <ele>47</ele>
        <time>2020-01-13T09:36:27Z</time>
      </trkpt>
      <trkpt lat="59.21044" lon="18.146139">
        <ele>47</ele>
        <time>2020-01-13T09:36:28Z</time>
      </trkpt>
      <trkpt lat="59.210415" lon="18.14611">
        <ele>48</ele>
        <time>2020-01-13T09:36:29Z</time>
      </trkpt>
      <trkpt lat="59.21039" lon="18.14608">
        <ele>48</ele>
        <time>2020-01-13T09:36:30Z</time>
      </trkpt>
      <trkpt lat="59.210365" lon="18.14605">
        <ele>48</ele>
        <time>2020-01-13T09:36:31Z</time>
      </trkpt>
      <trkpt lat="59.210338" lon="18.146021">
        <ele>48</ele>
        <time>2020-01-13T09:36:32Z</time>
      </trkpt>
      <trkpt lat="59.210312" lon="18.145991">
        <ele>48</ele>
        <time>2020-01-13T09:36:33Z</time>
      </trkpt>
      <trkpt lat="59.210284" lon="18.145964">
        <ele>0</ele>
        <time>2020-01-13T09:36:33Z</time>
      </trkpt>
      <trkpt lat="59.210256" lon="18.14594">
        <ele>48</ele>
        <time>2020-01-13T09:36:34Z</time>
      </trkpt>
      <trkpt lat="59.210226" lon="18.14592">
        <ele>48</ele>
        <time>2020-01-13T09:36:36Z</time>
      </trkpt>
      <trkpt lat="59.210198" lon="18.145901">
        <ele>0</ele>
        <time>2020-01-13T09:36:36Z</time>
      </trkpt>
      <trkpt lat="59.21017" lon="18.145878">
        <ele>48</ele>
        <time>2020-01-13T09:36:37Z</time>
      </trkpt>
      <trkpt lat="59.210144" lon="18.145849">
        <ele>49</ele>
        <time>2020-01-13T09:36:39Z</time>
      </trkpt>
      <trkpt lat="59.210119" lon="18.145815">
        <ele>49</ele>
        <time>2020-01-13T09:36:40Z</time>
      </trkpt>
      <trkpt lat="59.210093" lon="18.145773">
        <ele>49</ele>
        <time>2020-01-13T09:36:41Z</time>
      </trkpt>
      <trkpt lat="59.210068" lon="18.145728">
        <ele>49</ele>
        <time>2020-01-13T09:36:42Z</time>
      </trkpt>
      <trkpt lat="59.210043" lon="18.145682">
        <ele>49</ele>
        <time>2020-01-13T09:36:43Z</time>
      </trkpt>
      <trkpt lat="59.210021" lon="18.145632">
        <ele>49</ele>
        <time>2020-01-13T09:36:44Z</time>
      </trkpt>
      <trkpt lat="59.210002" lon="18.145578">
        <ele>49</ele>
        <time>2020-01-13T09:36:45Z</time>
      </trkpt>
      <trkpt lat="59.209983" lon="18.145523">
        <ele>49</ele>
        <time>2020-01-13T09:36:46Z</time>
      </trkpt>
      <trkpt lat="59.209962" lon="18.145469">
        <ele>49</ele>
        <time>2020-01-13T09:36:47Z</time>
      </trkpt>
      <trkpt lat="59.209942" lon="18.145414">
        <ele>50</ele>
        <time>2020-01-13T09:36:48Z</time>
      </trkpt>
      <trkpt lat="59.209923" lon="18.145359">
        <ele>0</ele>
        <time>2020-01-13T09:36:48Z</time>
      </trkpt>
      <trkpt lat="59.209901" lon="18.145303">
        <ele>50</ele>
        <time>2020-01-13T09:36:49Z</time>
      </trkpt>
      <trkpt lat="59.209879" lon="18.145249">
        <ele>50</ele>
        <time>2020-01-13T09:36:51Z</time>
      </trkpt>
      <trkpt lat="59.209855" lon="18.145195">
        <ele>50</ele>
        <time>2020-01-13T09:36:52Z</time>
      </trkpt>
      <trkpt lat="59.209829" lon="18.145142">
        <ele>50</ele>
        <time>2020-01-13T09:36:53Z</time>
      </trkpt>
      <trkpt lat="59.2098" lon="18.145093">
        <ele>50</ele>
        <time>2020-01-13T09:36:54Z</time>
      </trkpt>
      <trkpt lat="59.209771" lon="18.145046">
        <ele>50</ele>
        <time>2020-01-13T09:36:55Z</time>
      </trkpt>
      <trkpt lat="59.209739" lon="18.145002">
        <ele>0</ele>
        <time>2020-01-13T09:36:55Z</time>
      </trkpt>
      <trkpt lat="59.209707" lon="18.144963">
        <ele>50</ele>
        <time>2020-01-13T09:36:56Z</time>
      </trkpt>
      <trkpt lat="59.209671" lon="18.144933">
        <ele>51</ele>
        <time>2020-01-13T09:36:58Z</time>
      </trkpt>
      <trkpt lat="59.209634" lon="18.144912">
        <ele>51</ele>
        <time>2020-01-13T09:36:59Z</time>
      </trkpt>
      <trkpt lat="59.209597" lon="18.144883">
        <ele>50</ele>
        <time>2020-01-13T09:37:00Z</time>
      </trkpt>
      <trkpt lat="59.209564" lon="18.144838">
        <ele>50</ele>
        <time>2020-01-13T09:37:01Z</time>
      </trkpt>
      <trkpt lat="59.209534" lon="18.144784">
        <ele>50</ele>
        <time>2020-01-13T09:37:01Z</time>
      </trkpt>
      <trkpt lat="59.20951" lon="18.144723">
        <ele>50</ele>
        <time>2020-01-13T09:37:02Z</time>
      </trkpt>
      <trkpt lat="59.209496" lon="18.144651">
        <ele>50</ele>
        <time>2020-01-13T09:37:04Z</time>
      </trkpt>
      <trkpt lat="59.209492" lon="18.144576">
        <ele>50</ele>
        <time>2020-01-13T09:37:05Z</time>
      </trkpt>
      <trkpt lat="59.20949" lon="18.144501">
        <ele>50</ele>
        <time>2020-01-13T09:37:06Z</time>
      </trkpt>
      <trkpt lat="59.209483" lon="18.144426">
        <ele>50</ele>
        <time>2020-01-13T09:37:07Z</time>
      </trkpt>
      <trkpt lat="59.20947" lon="18.144351">
        <ele>50</ele>
        <time>2020-01-13T09:37:08Z</time>
      </trkpt>
      <trkpt lat="59.209453" lon="18.144278">
        <ele>50</ele>
        <time>2020-01-13T09:37:09Z</time>
      </trkpt>
      <trkpt lat="59.209434" lon="18.144208">
        <ele>50</ele>
        <time>2020-01-13T09:37:10Z</time>
      </trkpt>
      <trkpt lat="59.209411" lon="18.14414">
        <ele>50</ele>
        <time>2020-01-13T09:37:11Z</time>
      </trkpt>
      <trkpt lat="59.209386" lon="18.144073">
        <ele>51</ele>
        <time>2020-01-13T09:37:12Z</time>
      </trkpt>
      <trkpt lat="59.209361" lon="18.144007">
        <ele>51</ele>
        <time>2020-01-13T09:37:13Z</time>
      </trkpt>
      <trkpt lat="59.209335" lon="18.143942">
        <ele>0</ele>
        <time>2020-01-13T09:37:13Z</time>
      </trkpt>
      <trkpt lat="59.209308" lon="18.143878">
        <ele>51</ele>
        <time>2020-01-13T09:37:14Z</time>
      </trkpt>
      <trkpt lat="59.209281" lon="18.143815">
        <ele>51</ele>
        <time>2020-01-13T09:37:15Z</time>
      </trkpt>
      <trkpt lat="59.209255" lon="18.143749">
        <ele>51</ele>
        <time>2020-01-13T09:37:17Z</time>
      </trkpt>
      <trkpt lat="59.20923" lon="18.143681">
        <ele>51</ele>
        <time>2020-01-13T09:37:18Z</time>
      </trkpt>
      <trkpt lat="59.209204" lon="18.143614">
        <ele>51</ele>
        <time>2020-01-13T09:37:19Z</time>
      </trkpt>
      <trkpt lat="59.209178" lon="18.143548">
        <ele>51</ele>
        <time>2020-01-13T09:37:20Z</time>
      </trkpt>
      <trkpt lat="59.209152" lon="18.143482">
        <ele>51</ele>
        <time>2020-01-13T09:37:21Z</time>
      </trkpt>
      <trkpt lat="59.209126" lon="18.143416">
        <ele>51</ele>
        <time>2020-01-13T09:37:22Z</time>
      </trkpt>
      <trkpt lat="59.209101" lon="18.143349">
        <ele>51</ele>
        <time>2020-01-13T09:37:23Z</time>
      </trkpt>
      <trkpt lat="59.209073" lon="18.143282">
        <ele>51</ele>
        <time>2020-01-13T09:37:24Z</time>
      </trkpt>
      <trkpt lat="59.209045" lon="18.143217">
        <ele>52</ele>
        <time>2020-01-13T09:37:25Z</time>
      </trkpt>
      <trkpt lat="59.209019" lon="18.143153">
        <ele>0</ele>
        <time>2020-01-13T09:37:25Z</time>
      </trkpt>
      <trkpt lat="59.208991" lon="18.143087">
        <ele>52</ele>
        <time>2020-01-13T09:37:26Z</time>
      </trkpt>
      <trkpt lat="59.208962" lon="18.143021">
        <ele>52</ele>
        <time>2020-01-13T09:37:28Z</time>
      </trkpt>
      <trkpt lat="59.208934" lon="18.142952">
        <ele>52</ele>
        <time>2020-01-13T09:37:29Z</time>
      </trkpt>
      <trkpt lat="59.208908" lon="18.142881">
        <ele>52</ele>
        <time>2020-01-13T09:37:30Z</time>
      </trkpt>
      <trkpt lat="59.208879" lon="18.142809">
        <ele>53</ele>
        <time>2020-01-13T09:37:31Z</time>
      </trkpt>
      <trkpt lat="59.208849" lon="18.142736">
        <ele>53</ele>
        <time>2020-01-13T09:37:32Z</time>
      </trkpt>
      <trkpt lat="59.20882" lon="18.142664">
        <ele>53</ele>
        <time>2020-01-13T09:37:33Z</time>
      </trkpt>
      <trkpt lat="59.20879" lon="18.142591">
        <ele>0</ele>
        <time>2020-01-13T09:37:33Z</time>
      </trkpt>
      <trkpt lat="59.20876" lon="18.142517">
        <ele>53</ele>
        <time>2020-01-13T09:37:34Z</time>
      </trkpt>
      <trkpt lat="59.208733" lon="18.142444">
        <ele>53</ele>
        <time>2020-01-13T09:37:36Z</time>
      </trkpt>
      <trkpt lat="59.208703" lon="18.142371">
        <ele>0</ele>
        <time>2020-01-13T09:37:36Z</time>
      </trkpt>
      <trkpt lat="59.208673" lon="18.142298">
        <ele>53</ele>
        <time>2020-01-13T09:37:37Z</time>
      </trkpt>
      <trkpt lat="59.208643" lon="18.142223">
        <ele>53</ele>
        <time>2020-01-13T09:37:39Z</time>
      </trkpt>
      <trkpt lat="59.208611" lon="18.142149">
        <ele>53</ele>
        <time>2020-01-13T09:37:40Z</time>
      </trkpt>
      <trkpt lat="59.208577" lon="18.142074">
        <ele>53</ele>
        <time>2020-01-13T09:37:41Z</time>
      </trkpt>
      <trkpt lat="59.208539" lon="18.141997">
        <ele>53</ele>
        <time>2020-01-13T09:37:42Z</time>
      </trkpt>
      <trkpt lat="59.208502" lon="18.141918">
        <ele>53</ele>
        <time>2020-01-13T09:37:43Z</time>
      </trkpt>
      <trkpt lat="59.208462" lon="18.141838">
        <ele>52</ele>
        <time>2020-01-13T09:37:44Z</time>
      </trkpt>
      <trkpt lat="59.208419" lon="18.14176">
        <ele>52</ele>
        <time>2020-01-13T09:37:45Z</time>
      </trkpt>
      <trkpt lat="59.208374" lon="18.141679">
        <ele>0</ele>
        <time>2020-01-13T09:37:45Z</time>
      </trkpt>
      <trkpt lat="59.208326" lon="18.141595">
        <ele>52</ele>
        <time>2020-01-13T09:37:46Z</time>
      </trkpt>
      <trkpt lat="59.208276" lon="18.141512">
        <ele>52</ele>
        <time>2020-01-13T09:37:48Z</time>
      </trkpt>
      <trkpt lat="59.208223" lon="18.141428">
        <ele>52</ele>
        <time>2020-01-13T09:37:49Z</time>
      </trkpt>
      <trkpt lat="59.208171" lon="18.141343">
        <ele>52</ele>
        <time>2020-01-13T09:37:50Z</time>
      </trkpt>
      <trkpt lat="59.208116" lon="18.141263">
        <ele>51</ele>
        <time>2020-01-13T09:37:51Z</time>
      </trkpt>
      <trkpt lat="59.208058" lon="18.141188">
        <ele>51</ele>
        <time>2020-01-13T09:37:52Z</time>
      </trkpt>
      <trkpt lat="59.208" lon="18.141112">
        <ele>0</ele>
        <time>2020-01-13T09:37:52Z</time>
      </trkpt>
      <trkpt lat="59.207939" lon="18.141038">
        <ele>51</ele>
        <time>2020-01-13T09:37:53Z</time>
      </trkpt>
      <trkpt lat="59.207876" lon="18.140968">
        <ele>51</ele>
        <time>2020-01-13T09:37:55Z</time>
      </trkpt>
      <trkpt lat="59.207811" lon="18.140901">
        <ele>50</ele>
        <time>2020-01-13T09:37:56Z</time>
      </trkpt>
      <trkpt lat="59.207743" lon="18.140835">
        <ele>50</ele>
        <time>2020-01-13T09:37:57Z</time>
      </trkpt>
      <trkpt lat="59.207677" lon="18.140768">
        <ele>50</ele>
        <time>2020-01-13T09:37:58Z</time>
      </trkpt>
      <trkpt lat="59.207609" lon="18.140706">
        <ele>50</ele>
        <time>2020-01-13T09:37:59Z</time>
      </trkpt>
      <trkpt lat="59.20754" lon="18.140649">
        <ele>0</ele>
        <time>2020-01-13T09:37:59Z</time>
      </trkpt>
      <trkpt lat="59.207473" lon="18.140601">
        <ele>50</ele>
        <time>2020-01-13T09:38:00Z</time>
      </trkpt>
      <trkpt lat="59.207404" lon="18.14056">
        <ele>49</ele>
        <time>2020-01-13T09:38:02Z</time>
      </trkpt>
      <trkpt lat="59.207331" lon="18.140518">
        <ele>49</ele>
        <time>2020-01-13T09:38:03Z</time>
      </trkpt>
      <trkpt lat="59.207258" lon="18.14048">
        <ele>49</ele>
        <time>2020-01-13T09:38:04Z</time>
      </trkpt>
      <trkpt lat="59.207188" lon="18.140443">
        <ele>49</ele>
        <time>2020-01-13T09:38:05Z</time>
      </trkpt>
      <trkpt lat="59.207114" lon="18.140413">
        <ele>48</ele>
        <time>2020-01-13T09:38:06Z</time>
      </trkpt>
      <trkpt lat="59.20704" lon="18.14039">
        <ele>0</ele>
        <time>2020-01-13T09:38:06Z</time>
      </trkpt>
      <trkpt lat="59.206967" lon="18.140371">
        <ele>48</ele>
        <time>2020-01-13T09:38:07Z</time>
      </trkpt>
      <trkpt lat="59.206895" lon="18.140358">
        <ele>47</ele>
        <time>2020-01-13T09:38:09Z</time>
      </trkpt>
      <trkpt lat="59.206824" lon="18.140342">
        <ele>46</ele>
        <time>2020-01-13T09:38:10Z</time>
      </trkpt>
      <trkpt lat="59.206752" lon="18.140334">
        <ele>46</ele>
        <time>2020-01-13T09:38:11Z</time>
      </trkpt>
      <trkpt lat="59.206681" lon="18.140334">
        <ele>0</ele>
        <time>2020-01-13T09:38:11Z</time>
      </trkpt>
      <trkpt lat="59.20661" lon="18.140334">
        <ele>46</ele>
        <time>2020-01-13T09:38:12Z</time>
      </trkpt>
      <trkpt lat="59.206539" lon="18.140339">
        <ele>0</ele>
        <time>2020-01-13T09:38:13Z</time>
      </trkpt>
      <trkpt lat="59.20647" lon="18.140351">
        <ele>45</ele>
        <time>2020-01-13T09:38:14Z</time>
      </trkpt>
      <trkpt lat="59.206403" lon="18.140379">
        <ele>44</ele>
        <time>2020-01-13T09:38:16Z</time>
      </trkpt>
      <trkpt lat="59.206342" lon="18.140436">
        <ele>44</ele>
        <time>2020-01-13T09:38:17Z</time>
      </trkpt>
      <trkpt lat="59.20629" lon="18.140518">
        <ele>44</ele>
        <time>2020-01-13T09:38:18Z</time>
      </trkpt>
      <trkpt lat="59.206243" lon="18.140615">
        <ele>43</ele>
        <time>2020-01-13T09:38:19Z</time>
      </trkpt>
      <trkpt lat="59.206194" lon="18.140711">
        <ele>43</ele>
        <time>2020-01-13T09:38:20Z</time>
      </trkpt>
      <trkpt lat="59.206135" lon="18.140787">
        <ele>0</ele>
        <time>2020-01-13T09:38:20Z</time>
      </trkpt>
      <trkpt lat="59.206069" lon="18.140834">
        <ele>43</ele>
        <time>2020-01-13T09:38:21Z</time>
      </trkpt>
      <trkpt lat="59.206" lon="18.140868">
        <ele>43</ele>
        <time>2020-01-13T09:38:23Z</time>
      </trkpt>
      <trkpt lat="59.205933" lon="18.140903">
        <ele>43</ele>
        <time>2020-01-13T09:38:24Z</time>
      </trkpt>
      <trkpt lat="59.205869" lon="18.140943">
        <ele>43</ele>
        <time>2020-01-13T09:38:25Z</time>
      </trkpt>
      <trkpt lat="59.205805" lon="18.140989">
        <ele>43</ele>
        <time>2020-01-13T09:38:26Z</time>
      </trkpt>
      <trkpt lat="59.205743" lon="18.141037">
        <ele>43</ele>
        <time>2020-01-13T09:38:27Z</time>
      </trkpt>
      <trkpt lat="59.205682" lon="18.141087">
        <ele>0</ele>
        <time>2020-01-13T09:38:27Z</time>
      </trkpt>
      <trkpt lat="59.20562" lon="18.141139">
        <ele>43</ele>
        <time>2020-01-13T09:38:28Z</time>
      </trkpt>
      <trkpt lat="59.205561" lon="18.141192">
        <ele>43</ele>
        <time>2020-01-13T09:38:30Z</time>
      </trkpt>
      <trkpt lat="59.205502" lon="18.141243">
        <ele>0</ele>
        <time>2020-01-13T09:38:30Z</time>
      </trkpt>
      <trkpt lat="59.205442" lon="18.141295">
        <ele>43</ele>
        <time>2020-01-13T09:38:31Z</time>
      </trkpt>
      <trkpt lat="59.205383" lon="18.141344">
        <ele>42</ele>
        <time>2020-01-13T09:38:33Z</time>
      </trkpt>
      <trkpt lat="59.205321" lon="18.141393">
        <ele>42</ele>
        <time>2020-01-13T09:38:34Z</time>
      </trkpt>
      <trkpt lat="59.205257" lon="18.141447">
        <ele>41</ele>
        <time>2020-01-13T09:38:35Z</time>
      </trkpt>
      <trkpt lat="59.205189" lon="18.1415">
        <ele>0</ele>
        <time>2020-01-13T09:38:35Z</time>
      </trkpt>
      <trkpt lat="59.205121" lon="18.141551">
        <ele>41</ele>
        <time>2020-01-13T09:38:36Z</time>
      </trkpt>
      <trkpt lat="59.205052" lon="18.141602">
        <ele>41</ele>
        <time>2020-01-13T09:38:38Z</time>
      </trkpt>
      <trkpt lat="59.204984" lon="18.141651">
        <ele>40</ele>
        <time>2020-01-13T09:38:39Z</time>
      </trkpt>
      <trkpt lat="59.204914" lon="18.141698">
        <ele>40</ele>
        <time>2020-01-13T09:38:40Z</time>
      </trkpt>
      <trkpt lat="59.204849" lon="18.141747">
        <ele>40</ele>
        <time>2020-01-13T09:38:41Z</time>
      </trkpt>
      <trkpt lat="59.204785" lon="18.141801">
        <ele>40</ele>
        <time>2020-01-13T09:38:42Z</time>
      </trkpt>
      <trkpt lat="59.20472" lon="18.14185">
        <ele>0</ele>
        <time>2020-01-13T09:38:42Z</time>
      </trkpt>
      <trkpt lat="59.204652" lon="18.14189">
        <ele>40</ele>
        <time>2020-01-13T09:38:43Z</time>
      </trkpt>
      <trkpt lat="59.204582" lon="18.141921">
        <ele>40</ele>
        <time>2020-01-13T09:38:45Z</time>
      </trkpt>
      <trkpt lat="59.204513" lon="18.141949">
        <ele>40</ele>
        <time>2020-01-13T09:38:46Z</time>
      </trkpt>
      <trkpt lat="59.204442" lon="18.141979">
        <ele>39</ele>
        <time>2020-01-13T09:38:47Z</time>
      </trkpt>
      <trkpt lat="59.20437" lon="18.142004">
        <ele>39</ele>
        <time>2020-01-13T09:38:48Z</time>
      </trkpt>
      <trkpt lat="59.2043" lon="18.142032">
        <ele>38</ele>
        <time>2020-01-13T09:38:49Z</time>
      </trkpt>
      <trkpt lat="59.204229" lon="18.142059">
        <ele>0</ele>
        <time>2020-01-13T09:38:49Z</time>
      </trkpt>
      <trkpt lat="59.204158" lon="18.142083">
        <ele>38</ele>
        <time>2020-01-13T09:38:50Z</time>
      </trkpt>
      <trkpt lat="59.204087" lon="18.142107">
        <ele>38</ele>
        <time>2020-01-13T09:38:52Z</time>
      </trkpt>
      <trkpt lat="59.204018" lon="18.142132">
        <ele>38</ele>
        <time>2020-01-13T09:38:53Z</time>
      </trkpt>
      <trkpt lat="59.203951" lon="18.142156">
        <ele>38</ele>
        <time>2020-01-13T09:38:54Z</time>
      </trkpt>
      <trkpt lat="59.203884" lon="18.142179">
        <ele>38</ele>
        <time>2020-01-13T09:38:55Z</time>
      </trkpt>
      <trkpt lat="59.203818" lon="18.1422">
        <ele>38</ele>
        <time>2020-01-13T09:38:56Z</time>
      </trkpt>
      <trkpt lat="59.203754" lon="18.14222">
        <ele>0</ele>
        <time>2020-01-13T09:38:56Z</time>
      </trkpt>
      <trkpt lat="59.203691" lon="18.142236">
        <ele>38</ele>
        <time>2020-01-13T09:38:57Z</time>
      </trkpt>
      <trkpt lat="59.20363" lon="18.142248">
        <ele>38</ele>
        <time>2020-01-13T09:38:59Z</time>
      </trkpt>
      <trkpt lat="59.203569" lon="18.142256">
        <ele>38</ele>
        <time>2020-01-13T09:39:00Z</time>
      </trkpt>
      <trkpt lat="59.203509" lon="18.142259">
        <ele>38</ele>
        <time>2020-01-13T09:39:01Z</time>
      </trkpt>
      <trkpt lat="59.20345" lon="18.142258">
        <ele>38</ele>
        <time>2020-01-13T09:39:02Z</time>
      </trkpt>
      <trkpt lat="59.203391" lon="18.142256">
        <ele>38</ele>
        <time>2020-01-13T09:39:03Z</time>
      </trkpt>
      <trkpt lat="59.203333" lon="18.142251">
        <ele>38</ele>
        <time>2020-01-13T09:39:04Z</time>
      </trkpt>
      <trkpt lat="59.203274" lon="18.142244">
        <ele>0</ele>
        <time>2020-01-13T09:39:04Z</time>
      </trkpt>
      <trkpt lat="59.203214" lon="18.142237">
        <ele>38</ele>
        <time>2020-01-13T09:39:05Z</time>
      </trkpt>
      <trkpt lat="59.203156" lon="18.142229">
        <ele>38</ele>
        <time>2020-01-13T09:39:07Z</time>
      </trkpt>
      <trkpt lat="59.203097" lon="18.142222">
        <ele>38</ele>
        <time>2020-01-13T09:39:08Z</time>
      </trkpt>
      <trkpt lat="59.203039" lon="18.142214">
        <ele>0</ele>
        <time>2020-01-13T09:39:08Z</time>
      </trkpt>
      <trkpt lat="59.20298" lon="18.142205">
        <ele>38</ele>
        <time>2020-01-13T09:39:09Z</time>
      </trkpt>
      <trkpt lat="59.202922" lon="18.142195">
        <ele>38</ele>
        <time>2020-01-13T09:39:11Z</time>
      </trkpt>
      <trkpt lat="59.202864" lon="18.142189">
        <ele>38</ele>
        <time>2020-01-13T09:39:12Z</time>
      </trkpt>
      <trkpt lat="59.202807" lon="18.142185">
        <ele>38</ele>
        <time>2020-01-13T09:39:13Z</time>
      </trkpt>
      <trkpt lat="59.202749" lon="18.142183">
        <ele>0</ele>
        <time>2020-01-13T09:39:13Z</time>
      </trkpt>
      <trkpt lat="59.202691" lon="18.142187">
        <ele>37</ele>
        <time>2020-01-13T09:39:14Z</time>
      </trkpt>
      <trkpt lat="59.202631" lon="18.142194">
        <ele>37</ele>
        <time>2020-01-13T09:39:16Z</time>
      </trkpt>
      <trkpt lat="59.20257" lon="18.142207">
        <ele>37</ele>
        <time>2020-01-13T09:39:17Z</time>
      </trkpt>
      <trkpt lat="59.202508" lon="18.142221">
        <ele>37</ele>
        <time>2020-01-13T09:39:18Z</time>
      </trkpt>
      <trkpt lat="59.202443" lon="18.142233">
        <ele>37</ele>
        <time>2020-01-13T09:39:19Z</time>
      </trkpt>
      <trkpt lat="59.202378" lon="18.142239">
        <ele>36</ele>
        <time>2020-01-13T09:39:20Z</time>
      </trkpt>
      <trkpt lat="59.202313" lon="18.142234">
        <ele>36</ele>
        <time>2020-01-13T09:39:21Z</time>
      </trkpt>
      <trkpt lat="59.202246" lon="18.142215">
        <ele>0</ele>
        <time>2020-01-13T09:39:21Z</time>
      </trkpt>
      <trkpt lat="59.20218" lon="18.142186">
        <ele>36</ele>
        <time>2020-01-13T09:39:22Z</time>
      </trkpt>
      <trkpt lat="59.202113" lon="18.142153">
        <ele>36</ele>
        <time>2020-01-13T09:39:24Z</time>
      </trkpt>
      <trkpt lat="59.202046" lon="18.142119">
        <ele>36</ele>
        <time>2020-01-13T09:39:25Z</time>
      </trkpt>
      <trkpt lat="59.20198" lon="18.142087">
        <ele>35</ele>
        <time>2020-01-13T09:39:26Z</time>
      </trkpt>
      <trkpt lat="59.201913" lon="18.142059">
        <ele>35</ele>
        <time>2020-01-13T09:39:27Z</time>
      </trkpt>
      <trkpt lat="59.201846" lon="18.142031">
        <ele>0</ele>
        <time>2020-01-13T09:39:27Z</time>
      </trkpt>
      <trkpt lat="59.201779" lon="18.142">
        <ele>35</ele>
        <time>2020-01-13T09:39:28Z</time>
      </trkpt>
      <trkpt lat="59.201712" lon="18.141968">
        <ele>35</ele>
        <time>2020-01-13T09:39:29Z</time>
      </trkpt>
      <trkpt lat="59.201644" lon="18.141936">
        <ele>34</ele>
        <time>2020-01-13T09:39:31Z</time>
      </trkpt>
      <trkpt lat="59.201576" lon="18.141903">
        <ele>34</ele>
        <time>2020-01-13T09:39:32Z</time>
      </trkpt>
      <trkpt lat="59.201508" lon="18.141866">
        <ele>34</ele>
        <time>2020-01-13T09:39:33Z</time>
      </trkpt>
      <trkpt lat="59.201441" lon="18.141823">
        <ele>34</ele>
        <time>2020-01-13T09:39:34Z</time>
      </trkpt>
      <trkpt lat="59.201375" lon="18.141776">
        <ele>34</ele>
        <time>2020-01-13T09:39:35Z</time>
      </trkpt>
      <trkpt lat="59.201308" lon="18.141724">
        <ele>0</ele>
        <time>2020-01-13T09:39:35Z</time>
      </trkpt>
      <trkpt lat="59.201241" lon="18.14167">
        <ele>34</ele>
        <time>2020-01-13T09:39:36Z</time>
      </trkpt>
      <trkpt lat="59.201175" lon="18.141613">
        <ele>33</ele>
        <time>2020-01-13T09:39:38Z</time>
      </trkpt>
      <trkpt lat="59.201109" lon="18.141555">
        <ele>33</ele>
        <time>2020-01-13T09:39:39Z</time>
      </trkpt>
      <trkpt lat="59.201041" lon="18.141499">
        <ele>33</ele>
        <time>2020-01-13T09:39:40Z</time>
      </trkpt>
      <trkpt lat="59.200974" lon="18.14144">
        <ele>33</ele>
        <time>2020-01-13T09:39:41Z</time>
      </trkpt>
      <trkpt lat="59.200908" lon="18.14138">
        <ele>32</ele>
        <time>2020-01-13T09:39:42Z</time>
      </trkpt>
      <trkpt lat="59.200843" lon="18.141339">
        <ele>0</ele>
        <time>2020-01-13T09:39:42Z</time>
      </trkpt>
      <trkpt lat="59.200776" lon="18.141309">
        <ele>32</ele>
        <time>2020-01-13T09:39:43Z</time>
      </trkpt>
      <trkpt lat="59.200712" lon="18.141291">
        <ele>32</ele>
        <time>2020-01-13T09:39:45Z</time>
      </trkpt>
      <trkpt lat="59.200646" lon="18.141305">
        <ele>31</ele>
        <time>2020-01-13T09:39:46Z</time>
      </trkpt>
      <trkpt lat="59.200581" lon="18.141346">
        <ele>0</ele>
        <time>2020-01-13T09:39:46Z</time>
      </trkpt>
      <trkpt lat="59.200516" lon="18.141411">
        <ele>31</ele>
        <time>2020-01-13T09:39:47Z</time>
      </trkpt>
      <trkpt lat="59.200452" lon="18.141486">
        <ele>30</ele>
        <time>2020-01-13T09:39:49Z</time>
      </trkpt>
      <trkpt lat="59.200385" lon="18.141564">
        <ele>0</ele>
        <time>2020-01-13T09:39:49Z</time>
      </trkpt>
      <trkpt lat="59.200316" lon="18.14164">
        <ele>30</ele>
        <time>2020-01-13T09:39:50Z</time>
      </trkpt>
      <trkpt lat="59.200245" lon="18.141716">
        <ele>29</ele>
        <time>2020-01-13T09:39:52Z</time>
      </trkpt>
      <trkpt lat="59.200173" lon="18.141795">
        <ele>28</ele>
        <time>2020-01-13T09:39:53Z</time>
      </trkpt>
      <trkpt lat="59.2001" lon="18.141878">
        <ele>28</ele>
        <time>2020-01-13T09:39:54Z</time>
      </trkpt>
      <trkpt lat="59.200026" lon="18.141963">
        <ele>28</ele>
        <time>2020-01-13T09:39:55Z</time>
      </trkpt>
      <trkpt lat="59.199953" lon="18.142051">
        <ele>0</ele>
        <time>2020-01-13T09:39:55Z</time>
      </trkpt>
      <trkpt lat="59.199881" lon="18.142147">
        <ele>27</ele>
        <time>2020-01-13T09:39:56Z</time>
      </trkpt>
      <trkpt lat="59.199815" lon="18.142256">
        <ele>26</ele>
        <time>2020-01-13T09:39:58Z</time>
      </trkpt>
      <trkpt lat="59.199758" lon="18.142381">
        <ele>26</ele>
        <time>2020-01-13T09:39:59Z</time>
      </trkpt>
      <trkpt lat="59.199707" lon="18.142508">
        <ele>26</ele>
        <time>2020-01-13T09:40:00Z</time>
      </trkpt>
      <trkpt lat="59.199654" lon="18.142638">
        <ele>26</ele>
        <time>2020-01-13T09:40:01Z</time>
      </trkpt>
      <trkpt lat="59.199595" lon="18.142758">
        <ele>25</ele>
        <time>2020-01-13T09:40:01Z</time>
      </trkpt>
      <trkpt lat="59.19953" lon="18.14286">
        <ele>25</ele>
        <time>2020-01-13T09:40:02Z</time>
      </trkpt>
      <trkpt lat="59.199457" lon="18.142934">
        <ele>25</ele>
        <time>2020-01-13T09:40:04Z</time>
      </trkpt>
      <trkpt lat="59.19938" lon="18.142978">
        <ele>25</ele>
        <time>2020-01-13T09:40:05Z</time>
      </trkpt>
      <trkpt lat="59.199302" lon="18.143">
        <ele>0</ele>
        <time>2020-01-13T09:40:05Z</time>
      </trkpt>
      <trkpt lat="59.199226" lon="18.143004">
        <ele>24</ele>
        <time>2020-01-13T09:40:06Z</time>
      </trkpt>
      <trkpt lat="59.199152" lon="18.143003">
        <ele>0</ele>
        <time>2020-01-13T09:40:07Z</time>
      </trkpt>
      <trkpt lat="59.199081" lon="18.143">
        <ele>24</ele>
        <time>2020-01-13T09:40:08Z</time>
      </trkpt>
      <trkpt lat="59.199013" lon="18.142995">
        <ele>24</ele>
        <time>2020-01-13T09:40:10Z</time>
      </trkpt>
      <trkpt lat="59.198946" lon="18.14299">
        <ele>23</ele>
        <time>2020-01-13T09:40:11Z</time>
      </trkpt>
      <trkpt lat="59.198878" lon="18.142989">
        <ele>23</ele>
        <time>2020-01-13T09:40:12Z</time>
      </trkpt>
      <trkpt lat="59.198811" lon="18.142987">
        <ele>23</ele>
        <time>2020-01-13T09:40:13Z</time>
      </trkpt>
      <trkpt lat="59.198745" lon="18.142984">
        <ele>23</ele>
        <time>2020-01-13T09:40:14Z</time>
      </trkpt>
      <trkpt lat="59.198679" lon="18.142978">
        <ele>23</ele>
        <time>2020-01-13T09:40:15Z</time>
      </trkpt>
      <trkpt lat="59.198614" lon="18.142969">
        <ele>0</ele>
        <time>2020-01-13T09:40:15Z</time>
      </trkpt>
      <trkpt lat="59.198549" lon="18.142955">
        <ele>23</ele>
        <time>2020-01-13T09:40:16Z</time>
      </trkpt>
      <trkpt lat="59.198486" lon="18.142935">
        <ele>23</ele>
        <time>2020-01-13T09:40:18Z</time>
      </trkpt>
      <trkpt lat="59.198423" lon="18.142907">
        <ele>23</ele>
        <time>2020-01-13T09:40:19Z</time>
      </trkpt>
      <trkpt lat="59.198364" lon="18.14287">
        <ele>23</ele>
        <time>2020-01-13T09:40:20Z</time>
      </trkpt>
      <trkpt lat="59.198305" lon="18.142828">
        <ele>23</ele>
        <time>2020-01-13T09:40:21Z</time>
      </trkpt>
      <trkpt lat="59.198246" lon="18.142784">
        <ele>23</ele>
        <time>2020-01-13T09:40:22Z</time>
      </trkpt>
      <trkpt lat="59.198187" lon="18.14274">
        <ele>23</ele>
        <time>2020-01-13T09:40:23Z</time>
      </trkpt>
      <trkpt lat="59.198129" lon="18.142693">
        <ele>0</ele>
        <time>2020-01-13T09:40:23Z</time>
      </trkpt>
      <trkpt lat="59.198071" lon="18.142646">
        <ele>23</ele>
        <time>2020-01-13T09:40:24Z</time>
      </trkpt>
      <trkpt lat="59.198013" lon="18.142598">
        <ele>23</ele>
        <time>2020-01-13T09:40:25Z</time>
      </trkpt>
      <trkpt lat="59.197956" lon="18.142552">
        <ele>23</ele>
        <time>2020-01-13T09:40:27Z</time>
      </trkpt>
      <trkpt lat="59.197899" lon="18.142509">
        <ele>23</ele>
        <time>2020-01-13T09:40:28Z</time>
      </trkpt>
      <trkpt lat="59.197842" lon="18.142466">
        <ele>23</ele>
        <time>2020-01-13T09:40:29Z</time>
      </trkpt>
      <trkpt lat="59.197785" lon="18.142424">
        <ele>23</ele>
        <time>2020-01-13T09:40:30Z</time>
      </trkpt>
      <trkpt lat="59.197728" lon="18.142387">
        <ele>23</ele>
        <time>2020-01-13T09:40:31Z</time>
      </trkpt>
      <trkpt lat="59.197671" lon="18.142352">
        <ele>0</ele>
        <time>2020-01-13T09:40:31Z</time>
      </trkpt>
      <trkpt lat="59.197616" lon="18.142315">
        <ele>23</ele>
        <time>2020-01-13T09:40:32Z</time>
      </trkpt>
      <trkpt lat="59.197563" lon="18.142277">
        <ele>23</ele>
        <time>2020-01-13T09:40:34Z</time>
      </trkpt>
      <trkpt lat="59.197513" lon="18.142232">
        <ele>23</ele>
        <time>2020-01-13T09:40:35Z</time>
      </trkpt>
      <trkpt lat="59.197465" lon="18.142185">
        <ele>24</ele>
        <time>2020-01-13T09:40:36Z</time>
      </trkpt>
      <trkpt lat="59.197417" lon="18.142141">
        <ele>24</ele>
        <time>2020-01-13T09:40:37Z</time>
      </trkpt>
      <trkpt lat="59.19737" lon="18.142101">
        <ele>24</ele>
        <time>2020-01-13T09:40:38Z</time>
      </trkpt>
      <trkpt lat="59.197327" lon="18.142054">
        <ele>24</ele>
        <time>2020-01-13T09:40:39Z</time>
      </trkpt>
      <trkpt lat="59.197288" lon="18.142">
        <ele>24</ele>
        <time>2020-01-13T09:40:40Z</time>
      </trkpt>
      <trkpt lat="59.197251" lon="18.141945">
        <ele>0</ele>
        <time>2020-01-13T09:40:40Z</time>
      </trkpt>
      <trkpt lat="59.197215" lon="18.141893">
        <ele>24</ele>
        <time>2020-01-13T09:40:41Z</time>
      </trkpt>
      <trkpt lat="59.197178" lon="18.141845">
        <ele>25</ele>
        <time>2020-01-13T09:40:43Z</time>
      </trkpt>
      <trkpt lat="59.197141" lon="18.141799">
        <ele>0</ele>
        <time>2020-01-13T09:40:43Z</time>
      </trkpt>
      <trkpt lat="59.197106" lon="18.141754">
        <ele>25</ele>
        <time>2020-01-13T09:40:44Z</time>
      </trkpt>
      <trkpt lat="59.197077" lon="18.141706">
        <ele>25</ele>
        <time>2020-01-13T09:40:46Z</time>
      </trkpt>
      <trkpt lat="59.197048" lon="18.141657">
        <ele>25</ele>
        <time>2020-01-13T09:40:47Z</time>
      </trkpt>
      <trkpt lat="59.197019" lon="18.141609">
        <ele>25</ele>
        <time>2020-01-13T09:40:48Z</time>
      </trkpt>
      <trkpt lat="59.196992" lon="18.141561">
        <ele>26</ele>
        <time>2020-01-13T09:40:49Z</time>
      </trkpt>
      <trkpt lat="59.196966" lon="18.141513">
        <ele>26</ele>
        <time>2020-01-13T09:40:50Z</time>
      </trkpt>
      <trkpt lat="59.196941" lon="18.141464">
        <ele>26</ele>
        <time>2020-01-13T09:40:51Z</time>
      </trkpt>
      <trkpt lat="59.196916" lon="18.14142">
        <ele>26</ele>
        <time>2020-01-13T09:40:52Z</time>
      </trkpt>
      <trkpt lat="59.19689" lon="18.141374">
        <ele>0</ele>
        <time>2020-01-13T09:40:52Z</time>
      </trkpt>
      <trkpt lat="59.19686" lon="18.141333">
        <ele>26</ele>
        <time>2020-01-13T09:40:53Z</time>
      </trkpt>
      <trkpt lat="59.19683" lon="18.141291">
        <ele>0</ele>
        <time>2020-01-13T09:40:54Z</time>
      </trkpt>
      <trkpt lat="59.1968" lon="18.141252">
        <ele>27</ele>
        <time>2020-01-13T09:40:55Z</time>
      </trkpt>
      <trkpt lat="59.196769" lon="18.141215">
        <ele>27</ele>
        <time>2020-01-13T09:40:57Z</time>
      </trkpt>
      <trkpt lat="59.196741" lon="18.141176">
        <ele>28</ele>
        <time>2020-01-13T09:40:58Z</time>
      </trkpt>
      <trkpt lat="59.196711" lon="18.14114">
        <ele>28</ele>
        <time>2020-01-13T09:40:59Z</time>
      </trkpt>
      <trkpt lat="59.196678" lon="18.141109">
        <ele>28</ele>
        <time>2020-01-13T09:41:00Z</time>
      </trkpt>
      <trkpt lat="59.196648" lon="18.141077">
        <ele>28</ele>
        <time>2020-01-13T09:41:01Z</time>
      </trkpt>
      <trkpt lat="59.196619" lon="18.141045">
        <ele>28</ele>
        <time>2020-01-13T09:41:02Z</time>
      </trkpt>
      <trkpt lat="59.196588" lon="18.141016">
        <ele>0</ele>
        <time>2020-01-13T09:41:02Z</time>
      </trkpt>
      <trkpt lat="59.196556" lon="18.140989">
        <ele>28</ele>
        <time>2020-01-13T09:41:03Z</time>
      </trkpt>
      <trkpt lat="59.196525" lon="18.140966">
        <ele>29</ele>
        <time>2020-01-13T09:41:05Z</time>
      </trkpt>
      <trkpt lat="59.196495" lon="18.140943">
        <ele>29</ele>
        <time>2020-01-13T09:41:06Z</time>
      </trkpt>
      <trkpt lat="59.196464" lon="18.140923">
        <ele>29</ele>
        <time>2020-01-13T09:41:07Z</time>
      </trkpt>
      <trkpt lat="59.196433" lon="18.140905">
        <ele>29</ele>
        <time>2020-01-13T09:41:08Z</time>
      </trkpt>
      <trkpt lat="59.196403" lon="18.140887">
        <ele>0</ele>
        <time>2020-01-13T09:41:08Z</time>
      </trkpt>
      <trkpt lat="59.196375" lon="18.140872">
        <ele>29</ele>
        <time>2020-01-13T09:41:09Z</time>
      </trkpt>
      <trkpt lat="59.196343" lon="18.140858">
        <ele>29</ele>
        <time>2020-01-13T09:41:11Z</time>
      </trkpt>
      <trkpt lat="59.196311" lon="18.140845">
        <ele>29</ele>
        <time>2020-01-13T09:41:12Z</time>
      </trkpt>
      <trkpt lat="59.19628" lon="18.14083">
        <ele>29</ele>
        <time>2020-01-13T09:41:13Z</time>
      </trkpt>
      <trkpt lat="59.196247" lon="18.140818">
        <ele>30</ele>
        <time>2020-01-13T09:41:14Z</time>
      </trkpt>
      <trkpt lat="59.196215" lon="18.140807">
        <ele>30</ele>
        <time>2020-01-13T09:41:15Z</time>
      </trkpt>
      <trkpt lat="59.196182" lon="18.140797">
        <ele>30</ele>
        <time>2020-01-13T09:41:16Z</time>
      </trkpt>
      <trkpt lat="59.19615" lon="18.140786">
        <ele>30</ele>
        <time>2020-01-13T09:41:17Z</time>
      </trkpt>
      <trkpt lat="59.196118" lon="18.140778">
        <ele>30</ele>
        <time>2020-01-13T09:41:18Z</time>
      </trkpt>
      <trkpt lat="59.196086" lon="18.140769">
        <ele>30</ele>
        <time>2020-01-13T09:41:19Z</time>
      </trkpt>
      <trkpt lat="59.196054" lon="18.140762">
        <ele>30</ele>
        <time>2020-01-13T09:41:20Z</time>
      </trkpt>
      <trkpt lat="59.196021" lon="18.140757">
        <ele>30</ele>
        <time>2020-01-13T09:41:21Z</time>
      </trkpt>
      <trkpt lat="59.195989" lon="18.14075">
        <ele>0</ele>
        <time>2020-01-13T09:41:21Z</time>
      </trkpt>
      <trkpt lat="59.195957" lon="18.140745">
        <ele>30</ele>
        <time>2020-01-13T09:41:22Z</time>
      </trkpt>
      <trkpt lat="59.195925" lon="18.140739">
        <ele>30</ele>
        <time>2020-01-13T09:41:24Z</time>
      </trkpt>
      <trkpt lat="59.195894" lon="18.140732">
        <ele>0</ele>
        <time>2020-01-13T09:41:24Z</time>
      </trkpt>
      <trkpt lat="59.195861" lon="18.140725">
        <ele>30</ele>
        <time>2020-01-13T09:41:25Z</time>
      </trkpt>
      <trkpt lat="59.195828" lon="18.140717">
        <ele>30</ele>
        <time>2020-01-13T09:41:27Z</time>
      </trkpt>
      <trkpt lat="59.195795" lon="18.140709">
        <ele>31</ele>
        <time>2020-01-13T09:41:28Z</time>
      </trkpt>
      <trkpt lat="59.195762" lon="18.140704">
        <ele>31</ele>
        <time>2020-01-13T09:41:29Z</time>
      </trkpt>
      <trkpt lat="59.195729" lon="18.1407">
        <ele>31</ele>
        <time>2020-01-13T09:41:30Z</time>
      </trkpt>
      <trkpt lat="59.195696" lon="18.140694">
        <ele>31</ele>
        <time>2020-01-13T09:41:31Z</time>
      </trkpt>
      <trkpt lat="59.195663" lon="18.14069">
        <ele>31</ele>
        <time>2020-01-13T09:41:32Z</time>
      </trkpt>
      <trkpt lat="59.195628" lon="18.140685">
        <ele>31</ele>
        <time>2020-01-13T09:41:33Z</time>
      </trkpt>
      <trkpt lat="59.195594" lon="18.14068">
        <ele>31</ele>
        <time>2020-01-13T09:41:34Z</time>
      </trkpt>
      <trkpt lat="59.19556" lon="18.140674">
        <ele>32</ele>
        <time>2020-01-13T09:41:35Z</time>
      </trkpt>
      <trkpt lat="59.195526" lon="18.140668">
        <ele>32</ele>
        <time>2020-01-13T09:41:36Z</time>
      </trkpt>
      <trkpt lat="59.195492" lon="18.140662">
        <ele>32</ele>
        <time>2020-01-13T09:41:37Z</time>
      </trkpt>
      <trkpt lat="59.195459" lon="18.140658">
        <ele>32</ele>
        <time>2020-01-13T09:41:38Z</time>
      </trkpt>
      <trkpt lat="59.195425" lon="18.140654">
        <ele>32</ele>
        <time>2020-01-13T09:41:39Z</time>
      </trkpt>
      <trkpt lat="59.195392" lon="18.140651">
        <ele>0</ele>
        <time>2020-01-13T09:41:39Z</time>
      </trkpt>
      <trkpt lat="59.195358" lon="18.14065">
        <ele>32</ele>
        <time>2020-01-13T09:41:40Z</time>
      </trkpt>
      <trkpt lat="59.195324" lon="18.140652">
        <ele>32</ele>
        <time>2020-01-13T09:41:41Z</time>
      </trkpt>
      <trkpt lat="59.19529" lon="18.140657">
        <ele>33</ele>
        <time>2020-01-13T09:41:43Z</time>
      </trkpt>
      <trkpt lat="59.195256" lon="18.140663">
        <ele>33</ele>
        <time>2020-01-13T09:41:44Z</time>
      </trkpt>
      <trkpt lat="59.195222" lon="18.140669">
        <ele>33</ele>
        <time>2020-01-13T09:41:45Z</time>
      </trkpt>
      <trkpt lat="59.195188" lon="18.140675">
        <ele>33</ele>
        <time>2020-01-13T09:41:46Z</time>
      </trkpt>
      <trkpt lat="59.195155" lon="18.140685">
        <ele>34</ele>
        <time>2020-01-13T09:41:47Z</time>
      </trkpt>
      <trkpt lat="59.195121" lon="18.140697">
        <ele>34</ele>
        <time>2020-01-13T09:41:48Z</time>
      </trkpt>
      <trkpt lat="59.195088" lon="18.140712">
        <ele>34</ele>
        <time>2020-01-13T09:41:49Z</time>
      </trkpt>
      <trkpt lat="59.195054" lon="18.140729">
        <ele>34</ele>
        <time>2020-01-13T09:41:50Z</time>
      </trkpt>
      <trkpt lat="59.195022" lon="18.140747">
        <ele>34</ele>
        <time>2020-01-13T09:41:51Z</time>
      </trkpt>
      <trkpt lat="59.194991" lon="18.140769">
        <ele>35</ele>
        <time>2020-01-13T09:41:52Z</time>
      </trkpt>
      <trkpt lat="59.19496" lon="18.140793">
        <ele>35</ele>
        <time>2020-01-13T09:41:53Z</time>
      </trkpt>
      <trkpt lat="59.194929" lon="18.140817">
        <ele>0</ele>
        <time>2020-01-13T09:41:53Z</time>
      </trkpt>
      <trkpt lat="59.194899" lon="18.140841">
        <ele>35</ele>
        <time>2020-01-13T09:41:54Z</time>
      </trkpt>
      <trkpt lat="59.194869" lon="18.140867">
        <ele>36</ele>
        <time>2020-01-13T09:41:56Z</time>
      </trkpt>
      <trkpt lat="59.194838" lon="18.140895">
        <ele>36</ele>
        <time>2020-01-13T09:41:57Z</time>
      </trkpt>
      <trkpt lat="59.194806" lon="18.140925">
        <ele>36</ele>
        <time>2020-01-13T09:41:58Z</time>
      </trkpt>
      <trkpt lat="59.194774" lon="18.140955">
        <ele>36</ele>
        <time>2020-01-13T09:41:59Z</time>
      </trkpt>
      <trkpt lat="59.194742" lon="18.140985">
        <ele>0</ele>
        <time>2020-01-13T09:41:59Z</time>
      </trkpt>
      <trkpt lat="59.19471" lon="18.141016">
        <ele>36</ele>
        <time>2020-01-13T09:42:00Z</time>
      </trkpt>
      <trkpt lat="59.194679" lon="18.141047">
        <ele>37</ele>
        <time>2020-01-13T09:42:02Z</time>
      </trkpt>
      <trkpt lat="59.194648" lon="18.141079">
        <ele>37</ele>
        <time>2020-01-13T09:42:03Z</time>
      </trkpt>
      <trkpt lat="59.194622" lon="18.141108">
        <ele>37</ele>
        <time>2020-01-13T09:42:04Z</time>
      </trkpt>
      <trkpt lat="59.194598" lon="18.14113">
        <ele>38</ele>
        <time>2020-01-13T09:42:05Z</time>
      </trkpt>
      <trkpt lat="59.194576" lon="18.141156">
        <ele>38</ele>
        <time>2020-01-13T09:42:06Z</time>
      </trkpt>
      <trkpt lat="59.194553" lon="18.141186">
        <ele>39</ele>
        <time>2020-01-13T09:42:07Z</time>
      </trkpt>
      <trkpt lat="59.194528" lon="18.141218">
        <ele>39</ele>
        <time>2020-01-13T09:42:08Z</time>
      </trkpt>
      <trkpt lat="59.194506" lon="18.14125">
        <ele>39</ele>
        <time>2020-01-13T09:42:09Z</time>
      </trkpt>
      <trkpt lat="59.194477" lon="18.141281">
        <ele>0</ele>
        <time>2020-01-13T09:42:09Z</time>
      </trkpt>
      <trkpt lat="59.194444" lon="18.141309">
        <ele>40</ele>
        <time>2020-01-13T09:42:10Z</time>
      </trkpt>
      <trkpt lat="59.194411" lon="18.14134">
        <ele>40</ele>
        <time>2020-01-13T09:42:12Z</time>
      </trkpt>
      <trkpt lat="59.194376" lon="18.141368">
        <ele>40</ele>
        <time>2020-01-13T09:42:13Z</time>
      </trkpt>
      <trkpt lat="59.194334" lon="18.141398">
        <ele>40</ele>
        <time>2020-01-13T09:42:14Z</time>
      </trkpt>
      <trkpt lat="59.194293" lon="18.141425">
        <ele>40</ele>
        <time>2020-01-13T09:42:15Z</time>
      </trkpt>
      <trkpt lat="59.194256" lon="18.141456">
        <ele>40</ele>
        <time>2020-01-13T09:42:16Z</time>
      </trkpt>
      <trkpt lat="59.19422" lon="18.141489">
        <ele>40</ele>
        <time>2020-01-13T09:42:17Z</time>
      </trkpt>
      <trkpt lat="59.194184" lon="18.141526">
        <ele>40</ele>
        <time>2020-01-13T09:42:18Z</time>
      </trkpt>
      <trkpt lat="59.19415" lon="18.141562">
        <ele>0</ele>
        <time>2020-01-13T09:42:18Z</time>
      </trkpt>
      <trkpt lat="59.194115" lon="18.141595">
        <ele>40</ele>
        <time>2020-01-13T09:42:19Z</time>
      </trkpt>
      <trkpt lat="59.194079" lon="18.141626">
        <ele>40</ele>
        <time>2020-01-13T09:42:21Z</time>
      </trkpt>
      <trkpt lat="59.194044" lon="18.141655">
        <ele>40</ele>
        <time>2020-01-13T09:42:22Z</time>
      </trkpt>
      <trkpt lat="59.194009" lon="18.141687">
        <ele>0</ele>
        <time>2020-01-13T09:42:22Z</time>
      </trkpt>
      <trkpt lat="59.193973" lon="18.141717">
        <ele>40</ele>
        <time>2020-01-13T09:42:23Z</time>
      </trkpt>
      <trkpt lat="59.193938" lon="18.141752">
        <ele>40</ele>
        <time>2020-01-13T09:42:25Z</time>
      </trkpt>
      <trkpt lat="59.193903" lon="18.141786">
        <ele>40</ele>
        <time>2020-01-13T09:42:26Z</time>
      </trkpt>
      <trkpt lat="59.193867" lon="18.141816">
        <ele>41</ele>
        <time>2020-01-13T09:42:27Z</time>
      </trkpt>
      <trkpt lat="59.193832" lon="18.141851">
        <ele>41</ele>
        <time>2020-01-13T09:42:28Z</time>
      </trkpt>
      <trkpt lat="59.193797" lon="18.141889">
        <ele>41</ele>
        <time>2020-01-13T09:42:29Z</time>
      </trkpt>
      <trkpt lat="59.193762" lon="18.141926">
        <ele>41</ele>
        <time>2020-01-13T09:42:30Z</time>
      </trkpt>
      <trkpt lat="59.193728" lon="18.141961">
        <ele>41</ele>
        <time>2020-01-13T09:42:31Z</time>
      </trkpt>
      <trkpt lat="59.193692" lon="18.141997">
        <ele>41</ele>
        <time>2020-01-13T09:42:32Z</time>
      </trkpt>
      <trkpt lat="59.193653" lon="18.142028">
        <ele>41</ele>
        <time>2020-01-13T09:42:33Z</time>
      </trkpt>
      <trkpt lat="59.193616" lon="18.142061">
        <ele>42</ele>
        <time>2020-01-13T09:42:34Z</time>
      </trkpt>
      <trkpt lat="59.193579" lon="18.1421">
        <ele>0</ele>
        <time>2020-01-13T09:42:34Z</time>
      </trkpt>
      <trkpt lat="59.193542" lon="18.142138">
        <ele>42</ele>
        <time>2020-01-13T09:42:35Z</time>
      </trkpt>
      <trkpt lat="59.193503" lon="18.142176">
        <ele>42</ele>
        <time>2020-01-13T09:42:37Z</time>
      </trkpt>
      <trkpt lat="59.193467" lon="18.142209">
        <ele>0</ele>
        <time>2020-01-13T09:42:37Z</time>
      </trkpt>
      <trkpt lat="59.193427" lon="18.142239">
        <ele>42</ele>
        <time>2020-01-13T09:42:38Z</time>
      </trkpt>
      <trkpt lat="59.193384" lon="18.142267">
        <ele>42</ele>
        <time>2020-01-13T09:42:40Z</time>
      </trkpt>
      <trkpt lat="59.193339" lon="18.142296">
        <ele>42</ele>
        <time>2020-01-13T09:42:41Z</time>
      </trkpt>
      <trkpt lat="59.193291" lon="18.142324">
        <ele>42</ele>
        <time>2020-01-13T09:42:42Z</time>
      </trkpt>
      <trkpt lat="59.193246" lon="18.142354">
        <ele>42</ele>
        <time>2020-01-13T09:42:43Z</time>
      </trkpt>
      <trkpt lat="59.193201" lon="18.142389">
        <ele>42</ele>
        <time>2020-01-13T09:42:44Z</time>
      </trkpt>
      <trkpt lat="59.193155" lon="18.142428">
        <ele>42</ele>
        <time>2020-01-13T09:42:45Z</time>
      </trkpt>
      <trkpt lat="59.193109" lon="18.142467">
        <ele>0</ele>
        <time>2020-01-13T09:42:45Z</time>
      </trkpt>
      <trkpt lat="59.193062" lon="18.142508">
        <ele>42</ele>
        <time>2020-01-13T09:42:46Z</time>
      </trkpt>
      <trkpt lat="59.193015" lon="18.142552">
        <ele>42</ele>
        <time>2020-01-13T09:42:48Z</time>
      </trkpt>
      <trkpt lat="59.192968" lon="18.142598">
        <ele>42</ele>
        <time>2020-01-13T09:42:49Z</time>
      </trkpt>
      <trkpt lat="59.19292" lon="18.142647">
        <ele>42</ele>
        <time>2020-01-13T09:42:50Z</time>
      </trkpt>
      <trkpt lat="59.192874" lon="18.142697">
        <ele>42</ele>
        <time>2020-01-13T09:42:51Z</time>
      </trkpt>
      <trkpt lat="59.192824" lon="18.142747">
        <ele>42</ele>
        <time>2020-01-13T09:42:52Z</time>
      </trkpt>
      <trkpt lat="59.192773" lon="18.142799">
        <ele>42</ele>
        <time>2020-01-13T09:42:53Z</time>
      </trkpt>
      <trkpt lat="59.192721" lon="18.142854">
        <ele>42</ele>
        <time>2020-01-13T09:42:54Z</time>
      </trkpt>
      <trkpt lat="59.192668" lon="18.14291">
        <ele>0</ele>
        <time>2020-01-13T09:42:54Z</time>
      </trkpt>
      <trkpt lat="59.192614" lon="18.142967">
        <ele>42</ele>
        <time>2020-01-13T09:42:55Z</time>
      </trkpt>
      <trkpt lat="59.192557" lon="18.143026">
        <ele>0</ele>
        <time>2020-01-13T09:42:56Z</time>
      </trkpt>
      <trkpt lat="59.192497" lon="18.143087">
        <ele>42</ele>
        <time>2020-01-13T09:42:57Z</time>
      </trkpt>
      <trkpt lat="59.192436" lon="18.14315">
        <ele>42</ele>
        <time>2020-01-13T09:42:59Z</time>
      </trkpt>
      <trkpt lat="59.192371" lon="18.143217">
        <ele>42</ele>
        <time>2020-01-13T09:43:00Z</time>
      </trkpt>
      <trkpt lat="59.192303" lon="18.143287">
        <ele>42</ele>
        <time>2020-01-13T09:43:01Z</time>
      </trkpt>
      <trkpt lat="59.192234" lon="18.14336">
        <ele>41</ele>
        <time>2020-01-13T09:43:01Z</time>
      </trkpt>
      <trkpt lat="59.192162" lon="18.143437">
        <ele>41</ele>
        <time>2020-01-13T09:43:02Z</time>
      </trkpt>
      <trkpt lat="59.19209" lon="18.143512">
        <ele>41</ele>
        <time>2020-01-13T09:43:04Z</time>
      </trkpt>
      <trkpt lat="59.192016" lon="18.143585">
        <ele>41</ele>
        <time>2020-01-13T09:43:05Z</time>
      </trkpt>
      <trkpt lat="59.191942" lon="18.143655">
        <ele>41</ele>
        <time>2020-01-13T09:43:06Z</time>
      </trkpt>
      <trkpt lat="59.191871" lon="18.143719">
        <ele>41</ele>
        <time>2020-01-13T09:43:07Z</time>
      </trkpt>
      <trkpt lat="59.191796" lon="18.14378">
        <ele>0</ele>
        <time>2020-01-13T09:43:07Z</time>
      </trkpt>
      <trkpt lat="59.191719" lon="18.143839">
        <ele>40</ele>
        <time>2020-01-13T09:43:08Z</time>
      </trkpt>
      <trkpt lat="59.191641" lon="18.143893">
        <ele>39</ele>
        <time>2020-01-13T09:43:10Z</time>
      </trkpt>
      <trkpt lat="59.191561" lon="18.143943">
        <ele>39</ele>
        <time>2020-01-13T09:43:11Z</time>
      </trkpt>
      <trkpt lat="59.191478" lon="18.143985">
        <ele>39</ele>
        <time>2020-01-13T09:43:12Z</time>
      </trkpt>
      <trkpt lat="59.191395" lon="18.144025">
        <ele>39</ele>
        <time>2020-01-13T09:43:13Z</time>
      </trkpt>
      <trkpt lat="59.191309" lon="18.144062">
        <ele>0</ele>
        <time>2020-01-13T09:43:13Z</time>
      </trkpt>
      <trkpt lat="59.191223" lon="18.144097">
        <ele>38</ele>
        <time>2020-01-13T09:43:14Z</time>
      </trkpt>
      <trkpt lat="59.191138" lon="18.144124">
        <ele>0</ele>
        <time>2020-01-13T09:43:15Z</time>
      </trkpt>
      <trkpt lat="59.191052" lon="18.144145">
        <ele>37</ele>
        <time>2020-01-13T09:43:16Z</time>
      </trkpt>
      <trkpt lat="59.190965" lon="18.144162">
        <ele>36</ele>
        <time>2020-01-13T09:43:18Z</time>
      </trkpt>
      <trkpt lat="59.190877" lon="18.144182">
        <ele>36</ele>
        <time>2020-01-13T09:43:19Z</time>
      </trkpt>
      <trkpt lat="59.190789" lon="18.144202">
        <ele>0</ele>
        <time>2020-01-13T09:43:19Z</time>
      </trkpt>
      <trkpt lat="59.190699" lon="18.144222">
        <ele>35</ele>
        <time>2020-01-13T09:43:20Z</time>
      </trkpt>
      <trkpt lat="59.190609" lon="18.14424">
        <ele>34</ele>
        <time>2020-01-13T09:43:22Z</time>
      </trkpt>
      <trkpt lat="59.190521" lon="18.144259">
        <ele>34</ele>
        <time>2020-01-13T09:43:23Z</time>
      </trkpt>
      <trkpt lat="59.190441" lon="18.144281">
        <ele>34</ele>
        <time>2020-01-13T09:43:24Z</time>
      </trkpt>
      <trkpt lat="59.190366" lon="18.144308">
        <ele>34</ele>
        <time>2020-01-13T09:43:25Z</time>
      </trkpt>
      <trkpt lat="59.190297" lon="18.144335">
        <ele>0</ele>
        <time>2020-01-13T09:43:25Z</time>
      </trkpt>
      <trkpt lat="59.190232" lon="18.144361">
        <ele>34</ele>
        <time>2020-01-13T09:43:26Z</time>
      </trkpt>
      <trkpt lat="59.190168" lon="18.144368">
        <ele>34</ele>
        <time>2020-01-13T09:43:28Z</time>
      </trkpt>
      <trkpt lat="59.190108" lon="18.144366">
        <ele>34</ele>
        <time>2020-01-13T09:43:29Z</time>
      </trkpt>
      <trkpt lat="59.190032" lon="18.144374">
        <ele>34</ele>
        <time>2020-01-13T09:43:30Z</time>
      </trkpt>
      <trkpt lat="59.189884" lon="18.144435">
        <ele>33</ele>
        <time>2020-01-13T09:43:32Z</time>
      </trkpt>
      <trkpt lat="59.189799" lon="18.144475">
        <ele>0</ele>
        <time>2020-01-13T09:43:32Z</time>
      </trkpt>
      <trkpt lat="59.189719" lon="18.144512">
        <ele>33</ele>
        <time>2020-01-13T09:43:33Z</time>
      </trkpt>
      <trkpt lat="59.189648" lon="18.144543">
        <ele>0</ele>
        <time>2020-01-13T09:43:34Z</time>
      </trkpt>
      <trkpt lat="59.189584" lon="18.14458">
        <ele>33</ele>
        <time>2020-01-13T09:43:35Z</time>
      </trkpt>
      <trkpt lat="59.189522" lon="18.144613">
        <ele>33</ele>
        <time>2020-01-13T09:43:37Z</time>
      </trkpt>
      <trkpt lat="59.189465" lon="18.144652">
        <ele>33</ele>
        <time>2020-01-13T09:43:38Z</time>
      </trkpt>
      <trkpt lat="59.18941" lon="18.144692">
        <ele>32</ele>
        <time>2020-01-13T09:43:39Z</time>
      </trkpt>
      <trkpt lat="59.189358" lon="18.144737">
        <ele>0</ele>
        <time>2020-01-13T09:43:39Z</time>
      </trkpt>
      <trkpt lat="59.189306" lon="18.144782">
        <ele>32</ele>
        <time>2020-01-13T09:43:40Z</time>
      </trkpt>
      <trkpt lat="59.189257" lon="18.144831">
        <ele>32</ele>
        <time>2020-01-13T09:43:42Z</time>
      </trkpt>
      <trkpt lat="59.189213" lon="18.144888">
        <ele>32</ele>
        <time>2020-01-13T09:43:43Z</time>
      </trkpt>
      <trkpt lat="59.189166" lon="18.144949">
        <ele>32</ele>
        <time>2020-01-13T09:43:44Z</time>
      </trkpt>
      <trkpt lat="59.189119" lon="18.145013">
        <ele>32</ele>
        <time>2020-01-13T09:43:45Z</time>
      </trkpt>
      <trkpt lat="59.189074" lon="18.145083">
        <ele>31</ele>
        <time>2020-01-13T09:43:46Z</time>
      </trkpt>
      <trkpt lat="59.189027" lon="18.145155">
        <ele>31</ele>
        <time>2020-01-13T09:43:47Z</time>
      </trkpt>
      <trkpt lat="59.188981" lon="18.145228">
        <ele>30</ele>
        <time>2020-01-13T09:43:48Z</time>
      </trkpt>
      <trkpt lat="59.188933" lon="18.145299">
        <ele>0</ele>
        <time>2020-01-13T09:43:48Z</time>
      </trkpt>
      <trkpt lat="59.188882" lon="18.145364">
        <ele>30</ele>
        <time>2020-01-13T09:43:49Z</time>
      </trkpt>
      <trkpt lat="59.18883" lon="18.145428">
        <ele>30</ele>
        <time>2020-01-13T09:43:51Z</time>
      </trkpt>
      <trkpt lat="59.188778" lon="18.14549">
        <ele>29</ele>
        <time>2020-01-13T09:43:52Z</time>
      </trkpt>
      <trkpt lat="59.18872" lon="18.145552">
        <ele>29</ele>
        <time>2020-01-13T09:43:53Z</time>
      </trkpt>
      <trkpt lat="59.188662" lon="18.145612">
        <ele>0</ele>
        <time>2020-01-13T09:43:53Z</time>
      </trkpt>
      <trkpt lat="59.188602" lon="18.14567">
        <ele>28</ele>
        <time>2020-01-13T09:43:54Z</time>
      </trkpt>
      <trkpt lat="59.188541" lon="18.145726">
        <ele>28</ele>
        <time>2020-01-13T09:43:56Z</time>
      </trkpt>
      <trkpt lat="59.188479" lon="18.145776">
        <ele>0</ele>
        <time>2020-01-13T09:43:56Z</time>
      </trkpt>
      <trkpt lat="59.188417" lon="18.145821">
        <ele>28</ele>
        <time>2020-01-13T09:43:57Z</time>
      </trkpt>
      <trkpt lat="59.188354" lon="18.14587">
        <ele>28</ele>
        <time>2020-01-13T09:43:59Z</time>
      </trkpt>
      <trkpt lat="59.188291" lon="18.145922">
        <ele>28</ele>
        <time>2020-01-13T09:44:00Z</time>
      </trkpt>
      <trkpt lat="59.188227" lon="18.145972">
        <ele>27</ele>
        <time>2020-01-13T09:44:01Z</time>
      </trkpt>
      <trkpt lat="59.188163" lon="18.146015">
        <ele>27</ele>
        <time>2020-01-13T09:44:02Z</time>
      </trkpt>
      <trkpt lat="59.1881" lon="18.14605">
        <ele>27</ele>
        <time>2020-01-13T09:44:03Z</time>
      </trkpt>
      <trkpt lat="59.188032" lon="18.146091">
        <ele>0</ele>
        <time>2020-01-13T09:44:03Z</time>
      </trkpt>
      <trkpt lat="59.187962" lon="18.146142">
        <ele>27</ele>
        <time>2020-01-13T09:44:04Z</time>
      </trkpt>
      <trkpt lat="59.187895" lon="18.146192">
        <ele>26</ele>
        <time>2020-01-13T09:44:06Z</time>
      </trkpt>
      <trkpt lat="59.187829" lon="18.146244">
        <ele>26</ele>
        <time>2020-01-13T09:44:07Z</time>
      </trkpt>
      <trkpt lat="59.187763" lon="18.146294">
        <ele>26</ele>
        <time>2020-01-13T09:44:08Z</time>
      </trkpt>
      <trkpt lat="59.187697" lon="18.146343">
        <ele>25</ele>
        <time>2020-01-13T09:44:09Z</time>
      </trkpt>
      <trkpt lat="59.187629" lon="18.146389">
        <ele>25</ele>
        <time>2020-01-13T09:44:10Z</time>
      </trkpt>
      <trkpt lat="59.187559" lon="18.146429">
        <ele>0</ele>
        <time>2020-01-13T09:44:10Z</time>
      </trkpt>
      <trkpt lat="59.187489" lon="18.14646">
        <ele>25</ele>
        <time>2020-01-13T09:44:11Z</time>
      </trkpt>
      <trkpt lat="59.187419" lon="18.146487">
        <ele>0</ele>
        <time>2020-01-13T09:44:12Z</time>
      </trkpt>
      <trkpt lat="59.18735" lon="18.146508">
        <ele>24</ele>
        <time>2020-01-13T09:44:13Z</time>
      </trkpt>
      <trkpt lat="59.187282" lon="18.146522">
        <ele>24</ele>
        <time>2020-01-13T09:44:15Z</time>
      </trkpt>
      <trkpt lat="59.187216" lon="18.146536">
        <ele>24</ele>
        <time>2020-01-13T09:44:16Z</time>
      </trkpt>
      <trkpt lat="59.187153" lon="18.146551">
        <ele>24</ele>
        <time>2020-01-13T09:44:17Z</time>
      </trkpt>
      <trkpt lat="59.187091" lon="18.146566">
        <ele>0</ele>
        <time>2020-01-13T09:44:17Z</time>
      </trkpt>
      <trkpt lat="59.187031" lon="18.146583">
        <ele>24</ele>
        <time>2020-01-13T09:44:18Z</time>
      </trkpt>
      <trkpt lat="59.186972" lon="18.1466">
        <ele>24</ele>
        <time>2020-01-13T09:44:20Z</time>
      </trkpt>
      <trkpt lat="59.186913" lon="18.146614">
        <ele>24</ele>
        <time>2020-01-13T09:44:21Z</time>
      </trkpt>
      <trkpt lat="59.186855" lon="18.146629">
        <ele>24</ele>
        <time>2020-01-13T09:44:22Z</time>
      </trkpt>
      <trkpt lat="59.186797" lon="18.146644">
        <ele>24</ele>
        <time>2020-01-13T09:44:23Z</time>
      </trkpt>
      <trkpt lat="59.186739" lon="18.14666">
        <ele>24</ele>
        <time>2020-01-13T09:44:24Z</time>
      </trkpt>
      <trkpt lat="59.186682" lon="18.146678">
        <ele>24</ele>
        <time>2020-01-13T09:44:25Z</time>
      </trkpt>
      <trkpt lat="59.186626" lon="18.146694">
        <ele>24</ele>
        <time>2020-01-13T09:44:26Z</time>
      </trkpt>
      <trkpt lat="59.186571" lon="18.146707">
        <ele>0</ele>
        <time>2020-01-13T09:44:26Z</time>
      </trkpt>
      <trkpt lat="59.186515" lon="18.14672">
        <ele>24</ele>
        <time>2020-01-13T09:44:27Z</time>
      </trkpt>
      <trkpt lat="59.186459" lon="18.146732">
        <ele>24</ele>
        <time>2020-01-13T09:44:29Z</time>
      </trkpt>
      <trkpt lat="59.186402" lon="18.146744">
        <ele>24</ele>
        <time>2020-01-13T09:44:30Z</time>
      </trkpt>
      <trkpt lat="59.186346" lon="18.146757">
        <ele>24</ele>
        <time>2020-01-13T09:44:31Z</time>
      </trkpt>
      <trkpt lat="59.186291" lon="18.146773">
        <ele>0</ele>
        <time>2020-01-13T09:44:31Z</time>
      </trkpt>
      <trkpt lat="59.186236" lon="18.146791">
        <ele>24</ele>
        <time>2020-01-13T09:44:32Z</time>
      </trkpt>
      <trkpt lat="59.18618" lon="18.146804">
        <ele>24</ele>
        <time>2020-01-13T09:44:34Z</time>
      </trkpt>
      <trkpt lat="59.186125" lon="18.146814">
        <ele>24</ele>
        <time>2020-01-13T09:44:35Z</time>
      </trkpt>
      <trkpt lat="59.186071" lon="18.146824">
        <ele>0</ele>
        <time>2020-01-13T09:44:35Z</time>
      </trkpt>
      <trkpt lat="59.186016" lon="18.146831">
        <ele>24</ele>
        <time>2020-01-13T09:44:36Z</time>
      </trkpt>
      <trkpt lat="59.185962" lon="18.146835">
        <ele>24</ele>
        <time>2020-01-13T09:44:38Z</time>
      </trkpt>
      <trkpt lat="59.185908" lon="18.146842">
        <ele>24</ele>
        <time>2020-01-13T09:44:39Z</time>
      </trkpt>
      <trkpt lat="59.185854" lon="18.146853">
        <ele>23</ele>
        <time>2020-01-13T09:44:40Z</time>
      </trkpt>
      <trkpt lat="59.185801" lon="18.146864">
        <ele>23</ele>
        <time>2020-01-13T09:44:41Z</time>
      </trkpt>
      <trkpt lat="59.185747" lon="18.146875">
        <ele>23</ele>
        <time>2020-01-13T09:44:42Z</time>
      </trkpt>
      <trkpt lat="59.185692" lon="18.146883">
        <ele>23</ele>
        <time>2020-01-13T09:44:43Z</time>
      </trkpt>
      <trkpt lat="59.185637" lon="18.146892">
        <ele>23</ele>
        <time>2020-01-13T09:44:44Z</time>
      </trkpt>
      <trkpt lat="59.185583" lon="18.146904">
        <ele>0</ele>
        <time>2020-01-13T09:44:44Z</time>
      </trkpt>
      <trkpt lat="59.185532" lon="18.146916">
        <ele>23</ele>
        <time>2020-01-13T09:44:45Z</time>
      </trkpt>
      <trkpt lat="59.185485" lon="18.14693">
        <ele>24</ele>
        <time>2020-01-13T09:44:47Z</time>
      </trkpt>
      <trkpt lat="59.18544" lon="18.146938">
        <ele>24</ele>
        <time>2020-01-13T09:44:48Z</time>
      </trkpt>
      <trkpt lat="59.185397" lon="18.146934">
        <ele>24</ele>
        <time>2020-01-13T09:44:49Z</time>
      </trkpt>
      <trkpt lat="59.185359" lon="18.146903">
        <ele>24</ele>
        <time>2020-01-13T09:44:50Z</time>
      </trkpt>
      <trkpt lat="59.185329" lon="18.14685">
        <ele>0</ele>
        <time>2020-01-13T09:44:50Z</time>
      </trkpt>
      <trkpt lat="59.185304" lon="18.146796">
        <ele>24</ele>
        <time>2020-01-13T09:44:51Z</time>
      </trkpt>
      <trkpt lat="59.185275" lon="18.146758">
        <ele>25</ele>
        <time>2020-01-13T09:44:53Z</time>
      </trkpt>
      <trkpt lat="59.185241" lon="18.146739">
        <ele>25</ele>
        <time>2020-01-13T09:44:54Z</time>
      </trkpt>
      <trkpt lat="59.185207" lon="18.146738">
        <ele>25</ele>
        <time>2020-01-13T09:44:55Z</time>
      </trkpt>
      <trkpt lat="59.185172" lon="18.146747">
        <ele>25</ele>
        <time>2020-01-13T09:44:56Z</time>
      </trkpt>
      <trkpt lat="59.185137" lon="18.146762">
        <ele>25</ele>
        <time>2020-01-13T09:44:57Z</time>
      </trkpt>
      <trkpt lat="59.185103" lon="18.146785">
        <ele>0</ele>
        <time>2020-01-13T09:44:57Z</time>
      </trkpt>
      <trkpt lat="59.18507" lon="18.146814">
        <ele>25</ele>
        <time>2020-01-13T09:44:58Z</time>
      </trkpt>
      <trkpt lat="59.185036" lon="18.146844">
        <ele>25</ele>
        <time>2020-01-13T09:45:00Z</time>
      </trkpt>
      <trkpt lat="59.185002" lon="18.146873">
        <ele>25</ele>
        <time>2020-01-13T09:45:01Z</time>
      </trkpt>
      <trkpt lat="59.184968" lon="18.146904">
        <ele>25</ele>
        <time>2020-01-13T09:45:02Z</time>
      </trkpt>
      <trkpt lat="59.184933" lon="18.146936">
        <ele>25</ele>
        <time>2020-01-13T09:45:03Z</time>
      </trkpt>
      <trkpt lat="59.184898" lon="18.146966">
        <ele>26</ele>
        <time>2020-01-13T09:45:04Z</time>
      </trkpt>
      <trkpt lat="59.184862" lon="18.146992">
        <ele>26</ele>
        <time>2020-01-13T09:45:05Z</time>
      </trkpt>
      <trkpt lat="59.184824" lon="18.147014">
        <ele>26</ele>
        <time>2020-01-13T09:45:06Z</time>
      </trkpt>
      <trkpt lat="59.184787" lon="18.147028">
        <ele>26</ele>
        <time>2020-01-13T09:45:07Z</time>
      </trkpt>
      <trkpt lat="59.184749" lon="18.147042">
        <ele>26</ele>
        <time>2020-01-13T09:45:08Z</time>
      </trkpt>
      <trkpt lat="59.184712" lon="18.147052">
        <ele>26</ele>
        <time>2020-01-13T09:45:09Z</time>
      </trkpt>
      <trkpt lat="59.184674" lon="18.147063">
        <ele>0</ele>
        <time>2020-01-13T09:45:09Z</time>
      </trkpt>
      <trkpt lat="59.184637" lon="18.147072">
        <ele>26</ele>
        <time>2020-01-13T09:45:10Z</time>
      </trkpt>
      <trkpt lat="59.1846" lon="18.147082">
        <ele>26</ele>
        <time>2020-01-13T09:45:11Z</time>
      </trkpt>
      <trkpt lat="59.184563" lon="18.147092">
        <ele>26</ele>
        <time>2020-01-13T09:45:13Z</time>
      </trkpt>
      <trkpt lat="59.184525" lon="18.147104">
        <ele>26</ele>
        <time>2020-01-13T09:45:14Z</time>
      </trkpt>
      <trkpt lat="59.184488" lon="18.147114">
        <ele>27</ele>
        <time>2020-01-13T09:45:15Z</time>
      </trkpt>
      <trkpt lat="59.184449" lon="18.147122">
        <ele>27</ele>
        <time>2020-01-13T09:45:16Z</time>
      </trkpt>
      <trkpt lat="59.184411" lon="18.14713">
        <ele>27</ele>
        <time>2020-01-13T09:45:17Z</time>
      </trkpt>
      <trkpt lat="59.184374" lon="18.147136">
        <ele>27</ele>
        <time>2020-01-13T09:45:18Z</time>
      </trkpt>
      <trkpt lat="59.184338" lon="18.147142">
        <ele>27</ele>
        <time>2020-01-13T09:45:19Z</time>
      </trkpt>
      <trkpt lat="59.184304" lon="18.147146">
        <ele>28</ele>
        <time>2020-01-13T09:45:20Z</time>
      </trkpt>
      <trkpt lat="59.184269" lon="18.147152">
        <ele>28</ele>
        <time>2020-01-13T09:45:21Z</time>
      </trkpt>
      <trkpt lat="59.184236" lon="18.14716">
        <ele>28</ele>
        <time>2020-01-13T09:45:22Z</time>
      </trkpt>
      <trkpt lat="59.184202" lon="18.147167">
        <ele>28</ele>
        <time>2020-01-13T09:45:23Z</time>
      </trkpt>
      <trkpt lat="59.184168" lon="18.147174">
        <ele>28</ele>
        <time>2020-01-13T09:45:24Z</time>
      </trkpt>
      <trkpt lat="59.184134" lon="18.14718">
        <ele>0</ele>
        <time>2020-01-13T09:45:24Z</time>
      </trkpt>
      <trkpt lat="59.1841" lon="18.147186">
        <ele>28</ele>
        <time>2020-01-13T09:45:25Z</time>
      </trkpt>
      <trkpt lat="59.184065" lon="18.147192">
        <ele>28</ele>
        <time>2020-01-13T09:45:27Z</time>
      </trkpt>
      <trkpt lat="59.184028" lon="18.1472">
        <ele>29</ele>
        <time>2020-01-13T09:45:28Z</time>
      </trkpt>
      <trkpt lat="59.183991" lon="18.14721">
        <ele>0</ele>
        <time>2020-01-13T09:45:28Z</time>
      </trkpt>
      <trkpt lat="59.183954" lon="18.147218">
        <ele>29</ele>
        <time>2020-01-13T09:45:29Z</time>
      </trkpt>
      <trkpt lat="59.183916" lon="18.147226">
        <ele>29</ele>
        <time>2020-01-13T09:45:31Z</time>
      </trkpt>
      <trkpt lat="59.183878" lon="18.147233">
        <ele>29</ele>
        <time>2020-01-13T09:45:32Z</time>
      </trkpt>
      <trkpt lat="59.183839" lon="18.147238">
        <ele>29</ele>
        <time>2020-01-13T09:45:33Z</time>
      </trkpt>
      <trkpt lat="59.1838" lon="18.147244">
        <ele>29</ele>
        <time>2020-01-13T09:45:34Z</time>
      </trkpt>
      <trkpt lat="59.183761" lon="18.147248">
        <ele>30</ele>
        <time>2020-01-13T09:45:35Z</time>
      </trkpt>
      <trkpt lat="59.183722" lon="18.14725">
        <ele>30</ele>
        <time>2020-01-13T09:45:36Z</time>
      </trkpt>
      <trkpt lat="59.183684" lon="18.147254">
        <ele>30</ele>
        <time>2020-01-13T09:45:37Z</time>
      </trkpt>
      <trkpt lat="59.183648" lon="18.147263">
        <ele>0</ele>
        <time>2020-01-13T09:45:37Z</time>
      </trkpt>
      <trkpt lat="59.183613" lon="18.14728">
        <ele>30</ele>
        <time>2020-01-13T09:45:38Z</time>
      </trkpt>
      <trkpt lat="59.18358" lon="18.147301">
        <ele>30</ele>
        <time>2020-01-13T09:45:40Z</time>
      </trkpt>
      <trkpt lat="59.183547" lon="18.147326">
        <ele>30</ele>
        <time>2020-01-13T09:45:41Z</time>
      </trkpt>
      <trkpt lat="59.183513" lon="18.147342">
        <ele>30</ele>
        <time>2020-01-13T09:45:42Z</time>
      </trkpt>
      <trkpt lat="59.183477" lon="18.147346">
        <ele>30</ele>
        <time>2020-01-13T09:45:43Z</time>
      </trkpt>
      <trkpt lat="59.183442" lon="18.147339">
        <ele>30</ele>
        <time>2020-01-13T09:45:44Z</time>
      </trkpt>
      <trkpt lat="59.183408" lon="18.147331">
        <ele>31</ele>
        <time>2020-01-13T09:45:45Z</time>
      </trkpt>
      <trkpt lat="59.183375" lon="18.147316">
        <ele>31</ele>
        <time>2020-01-13T09:45:46Z</time>
      </trkpt>
      <trkpt lat="59.183344" lon="18.147288">
        <ele>31</ele>
        <time>2020-01-13T09:45:47Z</time>
      </trkpt>
      <trkpt lat="59.183316" lon="18.147253">
        <ele>0</ele>
        <time>2020-01-13T09:45:47Z</time>
      </trkpt>
      <trkpt lat="59.183288" lon="18.147222">
        <ele>31</ele>
        <time>2020-01-13T09:45:48Z</time>
      </trkpt>
      <trkpt lat="59.183259" lon="18.147196">
        <ele>32</ele>
        <time>2020-01-13T09:45:50Z</time>
      </trkpt>
      <trkpt lat="59.183225" lon="18.147176">
        <ele>32</ele>
        <time>2020-01-13T09:45:51Z</time>
      </trkpt>
      <trkpt lat="59.183188" lon="18.147162">
        <ele>32</ele>
        <time>2020-01-13T09:45:52Z</time>
      </trkpt>
      <trkpt lat="59.183149" lon="18.14715">
        <ele>0</ele>
        <time>2020-01-13T09:45:52Z</time>
      </trkpt>
      <trkpt lat="59.18311" lon="18.147138">
        <ele>32</ele>
        <time>2020-01-13T09:45:53Z</time>
      </trkpt>
      <trkpt lat="59.183071" lon="18.147124">
        <ele>32</ele>
        <time>2020-01-13T09:45:55Z</time>
      </trkpt>
      <trkpt lat="59.183031" lon="18.147111">
        <ele>32</ele>
        <time>2020-01-13T09:45:56Z</time>
      </trkpt>
      <trkpt lat="59.182991" lon="18.147099">
        <ele>32</ele>
        <time>2020-01-13T09:45:57Z</time>
      </trkpt>
      <trkpt lat="59.182951" lon="18.147084">
        <ele>33</ele>
        <time>2020-01-13T09:45:58Z</time>
      </trkpt>
      <trkpt lat="59.182911" lon="18.147062">
        <ele>33</ele>
        <time>2020-01-13T09:45:59Z</time>
      </trkpt>
      <trkpt lat="59.182873" lon="18.147038">
        <ele>33</ele>
        <time>2020-01-13T09:46:00Z</time>
      </trkpt>
      <trkpt lat="59.182834" lon="18.147012">
        <ele>33</ele>
        <time>2020-01-13T09:46:01Z</time>
      </trkpt>
      <trkpt lat="59.182798" lon="18.146987">
        <ele>33</ele>
        <time>2020-01-13T09:46:02Z</time>
      </trkpt>
      <trkpt lat="59.182761" lon="18.146964">
        <ele>33</ele>
        <time>2020-01-13T09:46:03Z</time>
      </trkpt>
      <trkpt lat="59.182724" lon="18.146938">
        <ele>33</ele>
        <time>2020-01-13T09:46:04Z</time>
      </trkpt>
      <trkpt lat="59.182689" lon="18.14691">
        <ele>0</ele>
        <time>2020-01-13T09:46:04Z</time>
      </trkpt>
      <trkpt lat="59.182651" lon="18.14688">
        <ele>33</ele>
        <time>2020-01-13T09:46:05Z</time>
      </trkpt>
      <trkpt lat="59.182615" lon="18.146848">
        <ele>0</ele>
        <time>2020-01-13T09:46:06Z</time>
      </trkpt>
      <trkpt lat="59.182577" lon="18.146818">
        <ele>34</ele>
        <time>2020-01-13T09:46:07Z</time>
      </trkpt>
      <trkpt lat="59.182543" lon="18.146786">
        <ele>34</ele>
        <time>2020-01-13T09:46:09Z</time>
      </trkpt>
      <trkpt lat="59.182514" lon="18.146757">
        <ele>34</ele>
        <time>2020-01-13T09:46:10Z</time>
      </trkpt>
      <trkpt lat="59.182485" lon="18.146736">
        <ele>34</ele>
        <time>2020-01-13T09:46:11Z</time>
      </trkpt>
      <trkpt lat="59.182457" lon="18.146702">
        <ele>35</ele>
        <time>2020-01-13T09:46:12Z</time>
      </trkpt>
      <trkpt lat="59.182418" lon="18.146665">
        <ele>35</ele>
        <time>2020-01-13T09:46:13Z</time>
      </trkpt>
      <trkpt lat="59.182383" lon="18.146621">
        <ele>35</ele>
        <time>2020-01-13T09:46:14Z</time>
      </trkpt>
      <trkpt lat="59.182348" lon="18.146582">
        <ele>35</ele>
        <time>2020-01-13T09:46:15Z</time>
      </trkpt>
      <trkpt lat="59.182315" lon="18.14654">
        <ele>35</ele>
        <time>2020-01-13T09:46:16Z</time>
      </trkpt>
      <trkpt lat="59.182281" lon="18.1465">
        <ele>36</ele>
        <time>2020-01-13T09:46:17Z</time>
      </trkpt>
      <trkpt lat="59.182241" lon="18.146461">
        <ele>0</ele>
        <time>2020-01-13T09:46:17Z</time>
      </trkpt>
      <trkpt lat="59.1822" lon="18.146412">
        <ele>36</ele>
        <time>2020-01-13T09:46:18Z</time>
      </trkpt>
      <trkpt lat="59.182153" lon="18.146364">
        <ele>36</ele>
        <time>2020-01-13T09:46:20Z</time>
      </trkpt>
      <trkpt lat="59.18211" lon="18.146316">
        <ele>36</ele>
        <time>2020-01-13T09:46:21Z</time>
      </trkpt>
      <trkpt lat="59.182068" lon="18.14627">
        <ele>36</ele>
        <time>2020-01-13T09:46:22Z</time>
      </trkpt>
      <trkpt lat="59.182028" lon="18.146222">
        <ele>36</ele>
        <time>2020-01-13T09:46:23Z</time>
      </trkpt>
      <trkpt lat="59.181986" lon="18.146178">
        <ele>36</ele>
        <time>2020-01-13T09:46:24Z</time>
      </trkpt>
      <trkpt lat="59.181948" lon="18.146132">
        <ele>36</ele>
        <time>2020-01-13T09:46:25Z</time>
      </trkpt>
      <trkpt lat="59.18191" lon="18.146087">
        <ele>0</ele>
        <time>2020-01-13T09:46:25Z</time>
      </trkpt>
      <trkpt lat="59.181871" lon="18.146044">
        <ele>36</ele>
        <time>2020-01-13T09:46:26Z</time>
      </trkpt>
      <trkpt lat="59.181832" lon="18.146003">
        <ele>36</ele>
        <time>2020-01-13T09:46:28Z</time>
      </trkpt>
      <trkpt lat="59.181794" lon="18.145961">
        <ele>0</ele>
        <time>2020-01-13T09:46:28Z</time>
      </trkpt>
      <trkpt lat="59.181754" lon="18.145921">
        <ele>36</ele>
        <time>2020-01-13T09:46:29Z</time>
      </trkpt>
      <trkpt lat="59.181716" lon="18.145877">
        <ele>37</ele>
        <time>2020-01-13T09:46:31Z</time>
      </trkpt>
      <trkpt lat="59.181682" lon="18.145829">
        <ele>37</ele>
        <time>2020-01-13T09:46:32Z</time>
      </trkpt>
      <trkpt lat="59.181648" lon="18.145782">
        <ele>37</ele>
        <time>2020-01-13T09:46:33Z</time>
      </trkpt>
      <trkpt lat="59.181613" lon="18.145735">
        <ele>37</ele>
        <time>2020-01-13T09:46:34Z</time>
      </trkpt>
      <trkpt lat="59.181579" lon="18.145686">
        <ele>37</ele>
        <time>2020-01-13T09:46:35Z</time>
      </trkpt>
      <trkpt lat="59.18154" lon="18.145643">
        <ele>37</ele>
        <time>2020-01-13T09:46:36Z</time>
      </trkpt>
      <trkpt lat="59.181498" lon="18.145604">
        <ele>37</ele>
        <time>2020-01-13T09:46:37Z</time>
      </trkpt>
      <trkpt lat="59.18146" lon="18.14556">
        <ele>37</ele>
        <time>2020-01-13T09:46:38Z</time>
      </trkpt>
      <trkpt lat="59.181419" lon="18.145517">
        <ele>37</ele>
        <time>2020-01-13T09:46:39Z</time>
      </trkpt>
      <trkpt lat="59.181377" lon="18.145474">
        <ele>0</ele>
        <time>2020-01-13T09:46:39Z</time>
      </trkpt>
      <trkpt lat="59.18134" lon="18.145428">
        <ele>37</ele>
        <time>2020-01-13T09:46:40Z</time>
      </trkpt>
      <trkpt lat="59.181301" lon="18.145385">
        <ele>37</ele>
        <time>2020-01-13T09:46:42Z</time>
      </trkpt>
      <trkpt lat="59.181261" lon="18.145342">
        <ele>37</ele>
        <time>2020-01-13T09:46:43Z</time>
      </trkpt>
      <trkpt lat="59.18122" lon="18.145299">
        <ele>37</ele>
        <time>2020-01-13T09:46:44Z</time>
      </trkpt>
      <trkpt lat="59.18118" lon="18.145257">
        <ele>0</ele>
        <time>2020-01-13T09:46:44Z</time>
      </trkpt>
      <trkpt lat="59.181137" lon="18.145217">
        <ele>37</ele>
        <time>2020-01-13T09:46:45Z</time>
      </trkpt>
      <trkpt lat="59.181095" lon="18.145177">
        <ele>37</ele>
        <time>2020-01-13T09:46:47Z</time>
      </trkpt>
      <trkpt lat="59.181054" lon="18.14514">
        <ele>37</ele>
        <time>2020-01-13T09:46:48Z</time>
      </trkpt>
      <trkpt lat="59.181011" lon="18.145098">
        <ele>37</ele>
        <time>2020-01-13T09:46:49Z</time>
      </trkpt>
      <trkpt lat="59.180969" lon="18.145052">
        <ele>37</ele>
        <time>2020-01-13T09:46:50Z</time>
      </trkpt>
      <trkpt lat="59.180928" lon="18.145002">
        <ele>0</ele>
        <time>2020-01-13T09:46:50Z</time>
      </trkpt>
      <trkpt lat="59.180885" lon="18.144954">
        <ele>37</ele>
        <time>2020-01-13T09:46:51Z</time>
      </trkpt>
      <trkpt lat="59.180837" lon="18.144911">
        <ele>38</ele>
        <time>2020-01-13T09:46:53Z</time>
      </trkpt>
      <trkpt lat="59.180793" lon="18.144868">
        <ele>37</ele>
        <time>2020-01-13T09:46:54Z</time>
      </trkpt>
      <trkpt lat="59.180749" lon="18.144823">
        <ele>37</ele>
        <time>2020-01-13T09:46:55Z</time>
      </trkpt>
      <trkpt lat="59.180705" lon="18.144767">
        <ele>37</ele>
        <time>2020-01-13T09:46:56Z</time>
      </trkpt>
      <trkpt lat="59.180663" lon="18.144705">
        <ele>37</ele>
        <time>2020-01-13T09:46:57Z</time>
      </trkpt>
      <trkpt lat="59.180623" lon="18.144641">
        <ele>37</ele>
        <time>2020-01-13T09:46:58Z</time>
      </trkpt>
      <trkpt lat="59.180582" lon="18.144576">
        <ele>37</ele>
        <time>2020-01-13T09:46:59Z</time>
      </trkpt>
      <trkpt lat="59.180539" lon="18.144511">
        <ele>0</ele>
        <time>2020-01-13T09:46:59Z</time>
      </trkpt>
      <trkpt lat="59.180494" lon="18.14445">
        <ele>37</ele>
        <time>2020-01-13T09:47:00Z</time>
      </trkpt>
      <trkpt lat="59.18045" lon="18.144392">
        <ele>37</ele>
        <time>2020-01-13T09:47:02Z</time>
      </trkpt>
      <trkpt lat="59.180404" lon="18.144334">
        <ele>37</ele>
        <time>2020-01-13T09:47:03Z</time>
      </trkpt>
      <trkpt lat="59.180358" lon="18.144277">
        <ele>0</ele>
        <time>2020-01-13T09:47:03Z</time>
      </trkpt>
      <trkpt lat="59.180309" lon="18.144219">
        <ele>37</ele>
        <time>2020-01-13T09:47:04Z</time>
      </trkpt>
      <trkpt lat="59.180261" lon="18.144158">
        <ele>37</ele>
        <time>2020-01-13T09:47:06Z</time>
      </trkpt>
      <trkpt lat="59.180211" lon="18.144097">
        <ele>37</ele>
        <time>2020-01-13T09:47:07Z</time>
      </trkpt>
      <trkpt lat="59.180158" lon="18.144038">
        <ele>37</ele>
        <time>2020-01-13T09:47:08Z</time>
      </trkpt>
      <trkpt lat="59.180109" lon="18.143981">
        <ele>0</ele>
        <time>2020-01-13T09:47:08Z</time>
      </trkpt>
      <trkpt lat="59.180061" lon="18.143924">
        <ele>37</ele>
        <time>2020-01-13T09:47:09Z</time>
      </trkpt>
      <trkpt lat="59.180012" lon="18.14387">
        <ele>36</ele>
        <time>2020-01-13T09:47:11Z</time>
      </trkpt>
      <trkpt lat="59.179959" lon="18.14382">
        <ele>36</ele>
        <time>2020-01-13T09:47:12Z</time>
      </trkpt>
      <trkpt lat="59.179908" lon="18.143774">
        <ele>36</ele>
        <time>2020-01-13T09:47:13Z</time>
      </trkpt>
      <trkpt lat="59.179858" lon="18.14373">
        <ele>37</ele>
        <time>2020-01-13T09:47:14Z</time>
      </trkpt>
      <trkpt lat="59.179808" lon="18.143687">
        <ele>37</ele>
        <time>2020-01-13T09:47:15Z</time>
      </trkpt>
      <trkpt lat="59.179757" lon="18.143646">
        <ele>37</ele>
        <time>2020-01-13T09:47:16Z</time>
      </trkpt>
      <trkpt lat="59.1797" lon="18.143618">
        <ele>37</ele>
        <time>2020-01-13T09:47:17Z</time>
      </trkpt>
      <trkpt lat="59.179644" lon="18.143606">
        <ele>0</ele>
        <time>2020-01-13T09:47:17Z</time>
      </trkpt>
      <trkpt lat="59.179588" lon="18.143611">
        <ele>37</ele>
        <time>2020-01-13T09:47:18Z</time>
      </trkpt>
      <trkpt lat="59.179539" lon="18.143629">
        <ele>37</ele>
        <time>2020-01-13T09:47:20Z</time>
      </trkpt>
      <trkpt lat="59.179487" lon="18.143653">
        <ele>37</ele>
        <time>2020-01-13T09:47:21Z</time>
      </trkpt>
      <trkpt lat="59.179437" lon="18.143677">
        <ele>37</ele>
        <time>2020-01-13T09:47:22Z</time>
      </trkpt>
      <trkpt lat="59.17939" lon="18.143688">
        <ele>0</ele>
        <time>2020-01-13T09:47:22Z</time>
      </trkpt>
      <trkpt lat="59.179341" lon="18.143673">
        <ele>37</ele>
        <time>2020-01-13T09:47:23Z</time>
      </trkpt>
      <trkpt lat="59.179284" lon="18.143622">
        <ele>36</ele>
        <time>2020-01-13T09:47:25Z</time>
      </trkpt>
      <trkpt lat="59.17922" lon="18.14355">
        <ele>35</ele>
        <time>2020-01-13T09:47:26Z</time>
      </trkpt>
      <trkpt lat="59.179159" lon="18.143476">
        <ele>0</ele>
        <time>2020-01-13T09:47:26Z</time>
      </trkpt>
      <trkpt lat="59.179101" lon="18.143405">
        <ele>35</ele>
        <time>2020-01-13T09:47:27Z</time>
      </trkpt>
      <trkpt lat="59.179044" lon="18.143344">
        <ele>34</ele>
        <time>2020-01-13T09:47:29Z</time>
      </trkpt>
      <trkpt lat="59.178985" lon="18.143291">
        <ele>34</ele>
        <time>2020-01-13T09:47:30Z</time>
      </trkpt>
      <trkpt lat="59.178925" lon="18.143243">
        <ele>34</ele>
        <time>2020-01-13T09:47:31Z</time>
      </trkpt>
      <trkpt lat="59.178866" lon="18.143202">
        <ele>34</ele>
        <time>2020-01-13T09:47:32Z</time>
      </trkpt>
      <trkpt lat="59.178809" lon="18.143162">
        <ele>34</ele>
        <time>2020-01-13T09:47:33Z</time>
      </trkpt>
      <trkpt lat="59.178751" lon="18.143122">
        <ele>0</ele>
        <time>2020-01-13T09:47:33Z</time>
      </trkpt>
      <trkpt lat="59.178694" lon="18.143083">
        <ele>34</ele>
        <time>2020-01-13T09:47:34Z</time>
      </trkpt>
      <trkpt lat="59.178639" lon="18.143044">
        <ele>34</ele>
        <time>2020-01-13T09:47:36Z</time>
      </trkpt>
      <trkpt lat="59.178585" lon="18.143004">
        <ele>34</ele>
        <time>2020-01-13T09:47:37Z</time>
      </trkpt>
      <trkpt lat="59.178532" lon="18.142965">
        <ele>33</ele>
        <time>2020-01-13T09:47:38Z</time>
      </trkpt>
      <trkpt lat="59.178481" lon="18.142927">
        <ele>33</ele>
        <time>2020-01-13T09:47:39Z</time>
      </trkpt>
      <trkpt lat="59.178432" lon="18.142893">
        <ele>33</ele>
        <time>2020-01-13T09:47:40Z</time>
      </trkpt>
      <trkpt lat="59.178385" lon="18.142862">
        <ele>33</ele>
        <time>2020-01-13T09:47:41Z</time>
      </trkpt>
      <trkpt lat="59.178341" lon="18.142834">
        <ele>0</ele>
        <time>2020-01-13T09:47:41Z</time>
      </trkpt>
      <trkpt lat="59.178299" lon="18.142811">
        <ele>33</ele>
        <time>2020-01-13T09:47:42Z</time>
      </trkpt>
      <trkpt lat="59.178261" lon="18.142788">
        <ele>0</ele>
        <time>2020-01-13T09:47:43Z</time>
      </trkpt>
      <trkpt lat="59.178224" lon="18.142759">
        <ele>33</ele>
        <time>2020-01-13T09:47:44Z</time>
      </trkpt>
      <trkpt lat="59.178189" lon="18.142731">
        <ele>33</ele>
        <time>2020-01-13T09:47:46Z</time>
      </trkpt>
      <trkpt lat="59.178156" lon="18.142708">
        <ele>33</ele>
        <time>2020-01-13T09:47:47Z</time>
      </trkpt>
      <trkpt lat="59.178123" lon="18.142688">
        <ele>33</ele>
        <time>2020-01-13T09:47:48Z</time>
      </trkpt>
      <trkpt lat="59.17809" lon="18.142666">
        <ele>33</ele>
        <time>2020-01-13T09:47:49Z</time>
      </trkpt>
      <trkpt lat="59.178056" lon="18.142647">
        <ele>33</ele>
        <time>2020-01-13T09:47:50Z</time>
      </trkpt>
      <trkpt lat="59.178022" lon="18.142634">
        <ele>33</ele>
        <time>2020-01-13T09:47:51Z</time>
      </trkpt>
      <trkpt lat="59.177987" lon="18.142631">
        <ele>33</ele>
        <time>2020-01-13T09:47:52Z</time>
      </trkpt>
      <trkpt lat="59.177949" lon="18.142637">
        <ele>33</ele>
        <time>2020-01-13T09:47:53Z</time>
      </trkpt>
      <trkpt lat="59.177911" lon="18.14265">
        <ele>33</ele>
        <time>2020-01-13T09:47:54Z</time>
      </trkpt>
      <trkpt lat="59.17787" lon="18.142668">
        <ele>33</ele>
        <time>2020-01-13T09:47:55Z</time>
      </trkpt>
      <trkpt lat="59.177825" lon="18.142682">
        <ele>33</ele>
        <time>2020-01-13T09:47:56Z</time>
      </trkpt>
      <trkpt lat="59.177774" lon="18.142694">
        <ele>0</ele>
        <time>2020-01-13T09:47:56Z</time>
      </trkpt>
      <trkpt lat="59.17772" lon="18.142706">
        <ele>33</ele>
        <time>2020-01-13T09:47:57Z</time>
      </trkpt>
      <trkpt lat="59.177666" lon="18.142717">
        <ele>33</ele>
        <time>2020-01-13T09:47:59Z</time>
      </trkpt>
      <trkpt lat="59.177612" lon="18.14273">
        <ele>33</ele>
        <time>2020-01-13T09:48:00Z</time>
      </trkpt>
      <trkpt lat="59.177562" lon="18.142743">
        <ele>0</ele>
        <time>2020-01-13T09:48:00Z</time>
      </trkpt>
      <trkpt lat="59.177514" lon="18.142752">
        <ele>34</ele>
        <time>2020-01-13T09:48:01Z</time>
      </trkpt>
      <trkpt lat="59.177468" lon="18.142756">
        <ele>34</ele>
        <time>2020-01-13T09:48:03Z</time>
      </trkpt>
      <trkpt lat="59.177425" lon="18.142759">
        <ele>34</ele>
        <time>2020-01-13T09:48:04Z</time>
      </trkpt>
      <trkpt lat="59.177384" lon="18.142759">
        <ele>34</ele>
        <time>2020-01-13T09:48:05Z</time>
      </trkpt>
      <trkpt lat="59.177345" lon="18.142757">
        <ele>34</ele>
        <time>2020-01-13T09:48:06Z</time>
      </trkpt>
      <trkpt lat="59.17731" lon="18.142754">
        <ele>34</ele>
        <time>2020-01-13T09:48:07Z</time>
      </trkpt>
      <trkpt lat="59.177276" lon="18.142757">
        <ele>0</ele>
        <time>2020-01-13T09:48:07Z</time>
      </trkpt>
      <trkpt lat="59.177242" lon="18.142759">
        <ele>35</ele>
        <time>2020-01-13T09:48:08Z</time>
      </trkpt>
      <trkpt lat="59.177208" lon="18.142761">
        <ele>35</ele>
        <time>2020-01-13T09:48:10Z</time>
      </trkpt>
      <trkpt lat="59.177176" lon="18.142761">
        <ele>35</ele>
        <time>2020-01-13T09:48:11Z</time>
      </trkpt>
      <trkpt lat="59.177143" lon="18.14276">
        <ele>35</ele>
        <time>2020-01-13T09:48:12Z</time>
      </trkpt>
      <trkpt lat="59.17711" lon="18.142759">
        <ele>35</ele>
        <time>2020-01-13T09:48:13Z</time>
      </trkpt>
      <trkpt lat="59.177077" lon="18.142756">
        <ele>35</ele>
        <time>2020-01-13T09:48:14Z</time>
      </trkpt>
      <trkpt lat="59.177042" lon="18.142753">
        <ele>36</ele>
        <time>2020-01-13T09:48:15Z</time>
      </trkpt>
      <trkpt lat="59.177006" lon="18.142752">
        <ele>36</ele>
        <time>2020-01-13T09:48:16Z</time>
      </trkpt>
      <trkpt lat="59.176972" lon="18.142746">
        <ele>36</ele>
        <time>2020-01-13T09:48:17Z</time>
      </trkpt>
      <trkpt lat="59.176936" lon="18.142742">
        <ele>36</ele>
        <time>2020-01-13T09:48:18Z</time>
      </trkpt>
      <trkpt lat="59.176903" lon="18.142735">
        <ele>36</ele>
        <time>2020-01-13T09:48:19Z</time>
      </trkpt>
      <trkpt lat="59.17687" lon="18.142728">
        <ele>0</ele>
        <time>2020-01-13T09:48:19Z</time>
      </trkpt>
      <trkpt lat="59.176837" lon="18.14272">
        <ele>36</ele>
        <time>2020-01-13T09:48:20Z</time>
      </trkpt>
      <trkpt lat="59.176805" lon="18.142712">
        <ele>37</ele>
        <time>2020-01-13T09:48:22Z</time>
      </trkpt>
      <trkpt lat="59.176773" lon="18.142701">
        <ele>0</ele>
        <time>2020-01-13T09:48:22Z</time>
      </trkpt>
      <trkpt lat="59.176739" lon="18.142688">
        <ele>37</ele>
        <time>2020-01-13T09:48:23Z</time>
      </trkpt>
      <trkpt lat="59.176706" lon="18.142671">
        <ele>37</ele>
        <time>2020-01-13T09:48:25Z</time>
      </trkpt>
      <trkpt lat="59.176674" lon="18.142654">
        <ele>37</ele>
        <time>2020-01-13T09:48:26Z</time>
      </trkpt>
      <trkpt lat="59.176641" lon="18.142637">
        <ele>37</ele>
        <time>2020-01-13T09:48:27Z</time>
      </trkpt>
      <trkpt lat="59.176608" lon="18.14262">
        <ele>37</ele>
        <time>2020-01-13T09:48:28Z</time>
      </trkpt>
      <trkpt lat="59.176573" lon="18.142606">
        <ele>37</ele>
        <time>2020-01-13T09:48:29Z</time>
      </trkpt>
      <trkpt lat="59.176539" lon="18.14259">
        <ele>37</ele>
        <time>2020-01-13T09:48:30Z</time>
      </trkpt>
      <trkpt lat="59.176506" lon="18.142572">
        <ele>37</ele>
        <time>2020-01-13T09:48:31Z</time>
      </trkpt>
      <trkpt lat="59.176473" lon="18.142553">
        <ele>37</ele>
        <time>2020-01-13T09:48:32Z</time>
      </trkpt>
      <trkpt lat="59.176441" lon="18.142533">
        <ele>37</ele>
        <time>2020-01-13T09:48:33Z</time>
      </trkpt>
      <trkpt lat="59.176409" lon="18.142514">
        <ele>37</ele>
        <time>2020-01-13T09:48:34Z</time>
      </trkpt>
      <trkpt lat="59.176376" lon="18.142493">
        <ele>37</ele>
        <time>2020-01-13T09:48:35Z</time>
      </trkpt>
      <trkpt lat="59.176343" lon="18.142469">
        <ele>37</ele>
        <time>2020-01-13T09:48:36Z</time>
      </trkpt>
      <trkpt lat="59.17631" lon="18.142445">
        <ele>38</ele>
        <time>2020-01-13T09:48:37Z</time>
      </trkpt>
      <trkpt lat="59.176278" lon="18.142421">
        <ele>0</ele>
        <time>2020-01-13T09:48:37Z</time>
      </trkpt>
      <trkpt lat="59.176248" lon="18.142391">
        <ele>38</ele>
        <time>2020-01-13T09:48:38Z</time>
      </trkpt>
      <trkpt lat="59.17622" lon="18.14235">
        <ele>38</ele>
        <time>2020-01-13T09:48:39Z</time>
      </trkpt>
      <trkpt lat="59.176197" lon="18.142303">
        <ele>38</ele>
        <time>2020-01-13T09:48:41Z</time>
      </trkpt>
      <trkpt lat="59.176175" lon="18.142252">
        <ele>38</ele>
        <time>2020-01-13T09:48:42Z</time>
      </trkpt>
      <trkpt lat="59.176157" lon="18.142195">
        <ele>38</ele>
        <time>2020-01-13T09:48:43Z</time>
      </trkpt>
      <trkpt lat="59.176142" lon="18.142135">
        <ele>38</ele>
        <time>2020-01-13T09:48:44Z</time>
      </trkpt>
      <trkpt lat="59.176131" lon="18.142074">
        <ele>39</ele>
        <time>2020-01-13T09:48:45Z</time>
      </trkpt>
      <trkpt lat="59.176121" lon="18.142015">
        <ele>39</ele>
        <time>2020-01-13T09:48:46Z</time>
      </trkpt>
      <trkpt lat="59.176115" lon="18.141956">
        <ele>39</ele>
        <time>2020-01-13T09:48:47Z</time>
      </trkpt>
      <trkpt lat="59.176107" lon="18.141899">
        <ele>39</ele>
        <time>2020-01-13T09:48:48Z</time>
      </trkpt>
      <trkpt lat="59.176099" lon="18.14184">
        <ele>38</ele>
        <time>2020-01-13T09:48:49Z</time>
      </trkpt>
      <trkpt lat="59.176091" lon="18.141773">
        <ele>38</ele>
        <time>2020-01-13T09:48:50Z</time>
      </trkpt>
      <trkpt lat="59.176079" lon="18.141704">
        <ele>38</ele>
        <time>2020-01-13T09:48:51Z</time>
      </trkpt>
      <trkpt lat="59.176064" lon="18.141633">
        <ele>0</ele>
        <time>2020-01-13T09:48:51Z</time>
      </trkpt>
      <trkpt lat="59.176049" lon="18.141563">
        <ele>38</ele>
        <time>2020-01-13T09:48:52Z</time>
      </trkpt>
      <trkpt lat="59.176034" lon="18.141493">
        <ele>38</ele>
        <time>2020-01-13T09:48:54Z</time>
      </trkpt>
      <trkpt lat="59.176018" lon="18.141423">
        <ele>38</ele>
        <time>2020-01-13T09:48:55Z</time>
      </trkpt>
      <trkpt lat="59.176002" lon="18.141354">
        <ele>38</ele>
        <time>2020-01-13T09:48:56Z</time>
      </trkpt>
      <trkpt lat="59.175982" lon="18.141293">
        <ele>38</ele>
        <time>2020-01-13T09:48:57Z</time>
      </trkpt>
      <trkpt lat="59.175954" lon="18.141251">
        <ele>0</ele>
        <time>2020-01-13T09:48:57Z</time>
      </trkpt>
      <trkpt lat="59.175916" lon="18.141236">
        <ele>39</ele>
        <time>2020-01-13T09:48:58Z</time>
      </trkpt>
      <trkpt lat="59.175873" lon="18.141229">
        <ele>39</ele>
        <time>2020-01-13T09:49:00Z</time>
      </trkpt>
      <trkpt lat="59.175829" lon="18.141216">
        <ele>39</ele>
        <time>2020-01-13T09:49:01Z</time>
      </trkpt>
      <trkpt lat="59.175783" lon="18.141203">
        <ele>39</ele>
        <time>2020-01-13T09:49:02Z</time>
      </trkpt>
      <trkpt lat="59.175738" lon="18.141194">
        <ele>39</ele>
        <time>2020-01-13T09:49:03Z</time>
      </trkpt>
      <trkpt lat="59.175694" lon="18.141197">
        <ele>39</ele>
        <time>2020-01-13T09:49:04Z</time>
      </trkpt>
      <trkpt lat="59.175652" lon="18.141214">
        <ele>0</ele>
        <time>2020-01-13T09:49:04Z</time>
      </trkpt>
      <trkpt lat="59.175613" lon="18.141242">
        <ele>39</ele>
        <time>2020-01-13T09:49:05Z</time>
      </trkpt>
      <trkpt lat="59.175582" lon="18.141286">
        <ele>40</ele>
        <time>2020-01-13T09:49:07Z</time>
      </trkpt>
      <trkpt lat="59.175559" lon="18.141341">
        <ele>40</ele>
        <time>2020-01-13T09:49:08Z</time>
      </trkpt>
      <trkpt lat="59.175535" lon="18.141404">
        <ele>40</ele>
        <time>2020-01-13T09:49:09Z</time>
      </trkpt>
      <trkpt lat="59.175511" lon="18.141464">
        <ele>40</ele>
        <time>2020-01-13T09:49:10Z</time>
      </trkpt>
      <trkpt lat="59.175486" lon="18.141525">
        <ele>40</ele>
        <time>2020-01-13T09:49:11Z</time>
      </trkpt>
      <trkpt lat="59.175461" lon="18.14159">
        <ele>40</ele>
        <time>2020-01-13T09:49:12Z</time>
      </trkpt>
      <trkpt lat="59.175433" lon="18.141653">
        <ele>40</ele>
        <time>2020-01-13T09:49:13Z</time>
      </trkpt>
      <trkpt lat="59.175406" lon="18.141702">
        <ele>40</ele>
        <time>2020-01-13T09:49:14Z</time>
      </trkpt>
      <trkpt lat="59.175379" lon="18.14174">
        <ele>40</ele>
        <time>2020-01-13T09:49:15Z</time>
      </trkpt>
      <trkpt lat="59.175352" lon="18.141769">
        <ele>40</ele>
        <time>2020-01-13T09:49:16Z</time>
      </trkpt>
      <trkpt lat="59.175321" lon="18.14179">
        <ele>0</ele>
        <time>2020-01-13T09:49:16Z</time>
      </trkpt>
      <trkpt lat="59.175288" lon="18.141805">
        <ele>40</ele>
        <time>2020-01-13T09:49:17Z</time>
      </trkpt>
      <trkpt lat="59.175253" lon="18.141814">
        <ele>40</ele>
        <time>2020-01-13T09:49:18Z</time>
      </trkpt>
      <trkpt lat="59.175218" lon="18.141823">
        <ele>40</ele>
        <time>2020-01-13T09:49:20Z</time>
      </trkpt>
      <trkpt lat="59.175184" lon="18.141832">
        <ele>40</ele>
        <time>2020-01-13T09:49:21Z</time>
      </trkpt>
      <trkpt lat="59.175148" lon="18.141841">
        <ele>40</ele>
        <time>2020-01-13T09:49:22Z</time>
      </trkpt>
      <trkpt lat="59.175111" lon="18.141842">
        <ele>40</ele>
        <time>2020-01-13T09:49:23Z</time>
      </trkpt>
      <trkpt lat="59.175072" lon="18.141842">
        <ele>40</ele>
        <time>2020-01-13T09:49:24Z</time>
      </trkpt>
      <trkpt lat="59.175032" lon="18.141851">
        <ele>40</ele>
        <time>2020-01-13T09:49:25Z</time>
      </trkpt>
      <trkpt lat="59.174995" lon="18.141861">
        <ele>40</ele>
        <time>2020-01-13T09:49:26Z</time>
      </trkpt>
      <trkpt lat="59.174959" lon="18.141878">
        <ele>41</ele>
        <time>2020-01-13T09:49:27Z</time>
      </trkpt>
      <trkpt lat="59.174926" lon="18.141905">
        <ele>41</ele>
        <time>2020-01-13T09:49:28Z</time>
      </trkpt>
      <trkpt lat="59.1749" lon="18.141935">
        <ele>41</ele>
        <time>2020-01-13T09:49:29Z</time>
      </trkpt>
      <trkpt lat="59.174874" lon="18.141966">
        <ele>41</ele>
        <time>2020-01-13T09:49:30Z</time>
      </trkpt>
      <trkpt lat="59.174846" lon="18.141996">
        <ele>41</ele>
        <time>2020-01-13T09:49:31Z</time>
      </trkpt>
      <trkpt lat="59.174817" lon="18.142019">
        <ele>0</ele>
        <time>2020-01-13T09:49:31Z</time>
      </trkpt>
      <trkpt lat="59.174789" lon="18.142046">
        <ele>41</ele>
        <time>2020-01-13T09:49:32Z</time>
      </trkpt>
      <trkpt lat="59.174761" lon="18.142084">
        <ele>41</ele>
        <time>2020-01-13T09:49:34Z</time>
      </trkpt>
      <trkpt lat="59.174739" lon="18.14213">
        <ele>41</ele>
        <time>2020-01-13T09:49:35Z</time>
      </trkpt>
      <trkpt lat="59.17472" lon="18.142185">
        <ele>0</ele>
        <time>2020-01-13T09:49:35Z</time>
      </trkpt>
      <trkpt lat="59.174699" lon="18.14224">
        <ele>41</ele>
        <time>2020-01-13T09:49:36Z</time>
      </trkpt>
      <trkpt lat="59.174671" lon="18.14228">
        <ele>41</ele>
        <time>2020-01-13T09:49:38Z</time>
      </trkpt>
      <trkpt lat="59.174639" lon="18.142298">
        <ele>41</ele>
        <time>2020-01-13T09:49:39Z</time>
      </trkpt>
      <trkpt lat="59.174607" lon="18.1423">
        <ele>41</ele>
        <time>2020-01-13T09:49:40Z</time>
      </trkpt>
      <trkpt lat="59.174573" lon="18.142298">
        <ele>42</ele>
        <time>2020-01-13T09:49:41Z</time>
      </trkpt>
      <trkpt lat="59.174539" lon="18.142292">
        <ele>42</ele>
        <time>2020-01-13T09:49:42Z</time>
      </trkpt>
      <trkpt lat="59.174505" lon="18.142283">
        <ele>42</ele>
        <time>2020-01-13T09:49:43Z</time>
      </trkpt>
      <trkpt lat="59.174471" lon="18.142274">
        <ele>42</ele>
        <time>2020-01-13T09:49:44Z</time>
      </trkpt>
      <trkpt lat="59.174437" lon="18.142269">
        <ele>42</ele>
        <time>2020-01-13T09:49:45Z</time>
      </trkpt>
      <trkpt lat="59.174402" lon="18.142268">
        <ele>42</ele>
        <time>2020-01-13T09:49:46Z</time>
      </trkpt>
      <trkpt lat="59.174367" lon="18.142269">
        <ele>0</ele>
        <time>2020-01-13T09:49:46Z</time>
      </trkpt>
      <trkpt lat="59.174332" lon="18.142272">
        <ele>42</ele>
        <time>2020-01-13T09:49:47Z</time>
      </trkpt>
      <trkpt lat="59.174299" lon="18.142278">
        <ele>42</ele>
        <time>2020-01-13T09:49:49Z</time>
      </trkpt>
      <trkpt lat="59.174267" lon="18.142288">
        <ele>42</ele>
        <time>2020-01-13T09:49:50Z</time>
      </trkpt>
      <trkpt lat="59.17424" lon="18.142305">
        <ele>42</ele>
        <time>2020-01-13T09:49:51Z</time>
      </trkpt>
      <trkpt lat="59.174217" lon="18.142326">
        <ele>43</ele>
        <time>2020-01-13T09:49:52Z</time>
      </trkpt>
      <trkpt lat="59.174198" lon="18.14235">
        <ele>43</ele>
        <time>2020-01-13T09:49:53Z</time>
      </trkpt>
      <trkpt lat="59.174177" lon="18.142375">
        <ele>43</ele>
        <time>2020-01-13T09:49:54Z</time>
      </trkpt>
      <trkpt lat="59.174155" lon="18.142402">
        <ele>0</ele>
        <time>2020-01-13T09:49:54Z</time>
      </trkpt>
      <trkpt lat="59.174131" lon="18.142429">
        <ele>43</ele>
        <time>2020-01-13T09:49:55Z</time>
      </trkpt>
      <trkpt lat="59.174106" lon="18.142455">
        <ele>43</ele>
        <time>2020-01-13T09:49:57Z</time>
      </trkpt>
      <trkpt lat="59.174082" lon="18.142478">
        <ele>44</ele>
        <time>2020-01-13T09:49:58Z</time>
      </trkpt>
      <trkpt lat="59.17406" lon="18.142506">
        <ele>44</ele>
        <time>2020-01-13T09:49:59Z</time>
      </trkpt>
      <trkpt lat="59.174039" lon="18.142536">
        <ele>44</ele>
        <time>2020-01-13T09:50:00Z</time>
      </trkpt>
      <trkpt lat="59.174023" lon="18.142571">
        <ele>44</ele>
        <time>2020-01-13T09:50:01Z</time>
      </trkpt>
      <trkpt lat="59.174013" lon="18.14261">
        <ele>44</ele>
        <time>2020-01-13T09:50:02Z</time>
      </trkpt>
      <trkpt lat="59.174007" lon="18.142653">
        <ele>44</ele>
        <time>2020-01-13T09:50:03Z</time>
      </trkpt>
      <trkpt lat="59.174003" lon="18.142701">
        <ele>44</ele>
        <time>2020-01-13T09:50:04Z</time>
      </trkpt>
      <trkpt lat="59.17399" lon="18.142766">
        <ele>0</ele>
        <time>2020-01-13T09:50:04Z</time>
      </trkpt>
      <trkpt lat="59.173967" lon="18.142833">
        <ele>44</ele>
        <time>2020-01-13T09:50:05Z</time>
      </trkpt>
      <trkpt lat="59.173943" lon="18.142887">
        <ele>45</ele>
        <time>2020-01-13T09:50:07Z</time>
      </trkpt>
      <trkpt lat="59.173923" lon="18.142935">
        <ele>45</ele>
        <time>2020-01-13T09:50:08Z</time>
      </trkpt>
      <trkpt lat="59.17391" lon="18.142979">
        <ele>45</ele>
        <time>2020-01-13T09:50:09Z</time>
      </trkpt>
      <trkpt lat="59.173901" lon="18.143022">
        <ele>45</ele>
        <time>2020-01-13T09:50:10Z</time>
      </trkpt>
      <trkpt lat="59.173893" lon="18.14307">
        <ele>45</ele>
        <time>2020-01-13T09:50:11Z</time>
      </trkpt>
      <trkpt lat="59.173888" lon="18.143116">
        <ele>45</ele>
        <time>2020-01-13T09:50:12Z</time>
      </trkpt>
      <trkpt lat="59.173882" lon="18.143168">
        <ele>45</ele>
        <time>2020-01-13T09:50:13Z</time>
      </trkpt>
      <trkpt lat="59.173878" lon="18.143225">
        <ele>0</ele>
        <time>2020-01-13T09:50:13Z</time>
      </trkpt>
      <trkpt lat="59.173872" lon="18.143285">
        <ele>45</ele>
        <time>2020-01-13T09:50:14Z</time>
      </trkpt>
      <trkpt lat="59.173865" lon="18.143347">
        <ele>45</ele>
        <time>2020-01-13T09:50:16Z</time>
      </trkpt>
      <trkpt lat="59.173854" lon="18.143397">
        <ele>45</ele>
        <time>2020-01-13T09:50:17Z</time>
      </trkpt>
      <trkpt lat="59.17383" lon="18.14345">
        <ele>45</ele>
        <time>2020-01-13T09:50:18Z</time>
      </trkpt>
      <trkpt lat="59.173801" lon="18.143469">
        <ele>45</ele>
        <time>2020-01-13T09:50:19Z</time>
      </trkpt>
      <trkpt lat="59.17377" lon="18.143474">
        <ele>45</ele>
        <time>2020-01-13T09:50:20Z</time>
      </trkpt>
      <trkpt lat="59.173736" lon="18.143482">
        <ele>46</ele>
        <time>2020-01-13T09:50:21Z</time>
      </trkpt>
      <trkpt lat="59.173705" lon="18.143487">
        <ele>0</ele>
        <time>2020-01-13T09:50:21Z</time>
      </trkpt>
      <trkpt lat="59.173676" lon="18.143492">
        <ele>46</ele>
        <time>2020-01-13T09:50:22Z</time>
      </trkpt>
      <trkpt lat="59.173654" lon="18.143497">
        <ele>46</ele>
        <time>2020-01-13T09:50:24Z</time>
      </trkpt>
      <trkpt lat="59.17363" lon="18.143505">
        <ele>47</ele>
        <time>2020-01-13T09:50:25Z</time>
      </trkpt>
      <trkpt lat="59.173605" lon="18.143509">
        <ele>47</ele>
        <time>2020-01-13T09:50:26Z</time>
      </trkpt>
      <trkpt lat="59.173585" lon="18.143512">
        <ele>48</ele>
        <time>2020-01-13T09:50:27Z</time>
      </trkpt>
      <trkpt lat="59.173564" lon="18.143511">
        <ele>48</ele>
        <time>2020-01-13T09:50:28Z</time>
      </trkpt>
      <trkpt lat="59.173524" lon="18.143503">
        <ele>0</ele>
        <time>2020-01-13T09:50:30Z</time>
      </trkpt>
    </trkseg>
  </trk>
</gpx>